<?xml version="1.0" encoding="UTF-8" standalone="no" ?>
<gpx xmlns="http://www.topografix.com/GPX/1/1" xmlns:xsi="http://www.w3.org/2001/XMLSchema-instance" xsi:schemaLocation="http://www.topografix.com/GPX/1/1 http://www.topografix.com/GPX/1/1/gpx.xsd" version="1.1" creator="VisuGPX - https://www.visugpx.com">
  <metadata>
    <name>2011-02-19 - Givry - St Martin</name>
    <desc><![CDATA[SORTIE VTT AU DEPART DE CHALON POUR GIVRY ET SAINT MARTIN]]></desc>
  </metadata>
  <trk>
    <name><![CDATA[2011-02-19 - Givry - St. Martin]]></name>
    <desc><![CDATA[19 févr. 2011  1:07 pm]]></desc>
    <trkseg>
      <trkpt lat="46.78142" lon="4.85339">
        <ele>153.620217</ele>
        <time>2011-02-19T12:07:51Z</time>
      </trkpt>
      <trkpt lat="46.78128" lon="4.85381">
        <ele>153.587102</ele>
        <time>2011-02-19T12:09:13Z</time>
      </trkpt>
      <trkpt lat="46.78119" lon="4.85384">
        <ele>153.574748</ele>
        <time>2011-02-19T12:09:17Z</time>
      </trkpt>
      <trkpt lat="46.78113" lon="4.8537">
        <ele>153.574894</ele>
        <time>2011-02-19T12:09:22Z</time>
      </trkpt>
      <trkpt lat="46.78104" lon="4.8534">
        <ele>155.480083</ele>
        <time>2011-02-19T12:09:25Z</time>
      </trkpt>
      <trkpt lat="46.78098" lon="4.85308">
        <ele>160.435489</ele>
        <time>2011-02-19T12:09:28Z</time>
      </trkpt>
      <trkpt lat="46.78093" lon="4.85289">
        <ele>165.520517</ele>
        <time>2011-02-19T12:09:30Z</time>
      </trkpt>
      <trkpt lat="46.78088" lon="4.85269">
        <ele>167.939892</ele>
        <time>2011-02-19T12:09:32Z</time>
      </trkpt>
      <trkpt lat="46.78077" lon="4.85237">
        <ele>168.324253</ele>
        <time>2011-02-19T12:09:35Z</time>
      </trkpt>
      <trkpt lat="46.78065" lon="4.85212">
        <ele>167.931456</ele>
        <time>2011-02-19T12:09:38Z</time>
      </trkpt>
      <trkpt lat="46.78053" lon="4.85188">
        <ele>167.52464</ele>
        <time>2011-02-19T12:09:41Z</time>
      </trkpt>
      <trkpt lat="46.78039" lon="4.85172">
        <ele>167.327067</ele>
        <time>2011-02-19T12:09:44Z</time>
      </trkpt>
      <trkpt lat="46.7803" lon="4.85162">
        <ele>167.292479</ele>
        <time>2011-02-19T12:09:46Z</time>
      </trkpt>
      <trkpt lat="46.78023" lon="4.85152">
        <ele>167.322763</ele>
        <time>2011-02-19T12:09:48Z</time>
      </trkpt>
      <trkpt lat="46.78012" lon="4.85138">
        <ele>167.293097</ele>
        <time>2011-02-19T12:09:51Z</time>
      </trkpt>
      <trkpt lat="46.78004" lon="4.85126">
        <ele>167.109034</ele>
        <time>2011-02-19T12:09:54Z</time>
      </trkpt>
      <trkpt lat="46.77996" lon="4.85115">
        <ele>166.801072</ele>
        <time>2011-02-19T12:09:57Z</time>
      </trkpt>
      <trkpt lat="46.77987" lon="4.85105">
        <ele>166.424253</ele>
        <time>2011-02-19T12:10:00Z</time>
      </trkpt>
      <trkpt lat="46.77975" lon="4.85107">
        <ele>165.978245</ele>
        <time>2011-02-19T12:10:03Z</time>
      </trkpt>
      <trkpt lat="46.77962" lon="4.85105">
        <ele>165.510566</ele>
        <time>2011-02-19T12:10:06Z</time>
      </trkpt>
      <trkpt lat="46.77951" lon="4.85096">
        <ele>165.135676</ele>
        <time>2011-02-19T12:10:09Z</time>
      </trkpt>
      <trkpt lat="46.77943" lon="4.8508">
        <ele>164.935119</ele>
        <time>2011-02-19T12:10:12Z</time>
      </trkpt>
      <trkpt lat="46.77937" lon="4.85064">
        <ele>164.886442</ele>
        <time>2011-02-19T12:10:15Z</time>
      </trkpt>
      <trkpt lat="46.77931" lon="4.85051">
        <ele>164.906983</ele>
        <time>2011-02-19T12:10:18Z</time>
      </trkpt>
      <trkpt lat="46.77931" lon="4.85051">
        <ele>164.934379</ele>
        <time>2011-02-19T12:10:19Z</time>
      </trkpt>
      <trkpt lat="46.77906" lon="4.85039">
        <ele>164.95023</ele>
        <time>2011-02-19T12:10:31Z</time>
      </trkpt>
      <trkpt lat="46.77896" lon="4.85047">
        <ele>164.967082</ele>
        <time>2011-02-19T12:10:36Z</time>
      </trkpt>
      <trkpt lat="46.77888" lon="4.85053">
        <ele>164.991062</ele>
        <time>2011-02-19T12:10:39Z</time>
      </trkpt>
      <trkpt lat="46.77879" lon="4.8506">
        <ele>165.010321</ele>
        <time>2011-02-19T12:10:42Z</time>
      </trkpt>
      <trkpt lat="46.77869" lon="4.85068">
        <ele>164.999929</ele>
        <time>2011-02-19T12:10:46Z</time>
      </trkpt>
      <trkpt lat="46.77858" lon="4.85066">
        <ele>164.937702</ele>
        <time>2011-02-19T12:10:50Z</time>
      </trkpt>
      <trkpt lat="46.77858" lon="4.85066">
        <ele>164.847111</ele>
        <time>2011-02-19T12:10:54Z</time>
      </trkpt>
      <trkpt lat="46.77838" lon="4.85048">
        <ele>164.7779</ele>
        <time>2011-02-19T12:11:00Z</time>
      </trkpt>
      <trkpt lat="46.77826" lon="4.8504">
        <ele>164.731086</ele>
        <time>2011-02-19T12:11:03Z</time>
      </trkpt>
      <trkpt lat="46.77816" lon="4.85039">
        <ele>164.639302</ele>
        <time>2011-02-19T12:11:05Z</time>
      </trkpt>
      <trkpt lat="46.77806" lon="4.85037">
        <ele>164.367066</ele>
        <time>2011-02-19T12:11:07Z</time>
      </trkpt>
      <trkpt lat="46.77797" lon="4.85034">
        <ele>163.896919</ele>
        <time>2011-02-19T12:11:09Z</time>
      </trkpt>
      <trkpt lat="46.77786" lon="4.85023">
        <ele>163.434136</ele>
        <time>2011-02-19T12:11:12Z</time>
      </trkpt>
      <trkpt lat="46.77777" lon="4.85009">
        <ele>163.148517</ele>
        <time>2011-02-19T12:11:15Z</time>
      </trkpt>
      <trkpt lat="46.77764" lon="4.84986">
        <ele>163.015613</ele>
        <time>2011-02-19T12:11:18Z</time>
      </trkpt>
      <trkpt lat="46.77755" lon="4.8497">
        <ele>162.895192</ele>
        <time>2011-02-19T12:11:20Z</time>
      </trkpt>
      <trkpt lat="46.77745" lon="4.84952">
        <ele>162.658191</ele>
        <time>2011-02-19T12:11:22Z</time>
      </trkpt>
      <trkpt lat="46.77731" lon="4.84927">
        <ele>162.361951</ele>
        <time>2011-02-19T12:11:25Z</time>
      </trkpt>
      <trkpt lat="46.77722" lon="4.84909">
        <ele>162.162361</ele>
        <time>2011-02-19T12:11:27Z</time>
      </trkpt>
      <trkpt lat="46.77709" lon="4.84882">
        <ele>162.096681</ele>
        <time>2011-02-19T12:11:30Z</time>
      </trkpt>
      <trkpt lat="46.77699" lon="4.84865">
        <ele>162.122636</ele>
        <time>2011-02-19T12:11:32Z</time>
      </trkpt>
      <trkpt lat="46.77685" lon="4.8484">
        <ele>162.217558</ele>
        <time>2011-02-19T12:11:35Z</time>
      </trkpt>
      <trkpt lat="46.77676" lon="4.84823">
        <ele>162.372275</ele>
        <time>2011-02-19T12:11:37Z</time>
      </trkpt>
      <trkpt lat="46.77662" lon="4.84799">
        <ele>162.564097</ele>
        <time>2011-02-19T12:11:40Z</time>
      </trkpt>
      <trkpt lat="46.77653" lon="4.84783">
        <ele>162.766663</ele>
        <time>2011-02-19T12:11:42Z</time>
      </trkpt>
      <trkpt lat="46.77644" lon="4.84767">
        <ele>162.952547</ele>
        <time>2011-02-19T12:11:44Z</time>
      </trkpt>
      <trkpt lat="46.77635" lon="4.84752">
        <ele>163.088611</ele>
        <time>2011-02-19T12:11:46Z</time>
      </trkpt>
      <trkpt lat="46.77622" lon="4.84728">
        <ele>163.15601</ele>
        <time>2011-02-19T12:11:49Z</time>
      </trkpt>
      <trkpt lat="46.77609" lon="4.84704">
        <ele>163.169328</ele>
        <time>2011-02-19T12:11:52Z</time>
      </trkpt>
      <trkpt lat="46.77596" lon="4.8468">
        <ele>163.155216</ele>
        <time>2011-02-19T12:11:55Z</time>
      </trkpt>
      <trkpt lat="46.77587" lon="4.84664">
        <ele>163.124383</ele>
        <time>2011-02-19T12:11:57Z</time>
      </trkpt>
      <trkpt lat="46.77572" lon="4.84641">
        <ele>163.080826</ele>
        <time>2011-02-19T12:12:00Z</time>
      </trkpt>
      <trkpt lat="46.77562" lon="4.84625">
        <ele>163.011734</ele>
        <time>2011-02-19T12:12:02Z</time>
      </trkpt>
      <trkpt lat="46.77552" lon="4.84611">
        <ele>162.886924</ele>
        <time>2011-02-19T12:12:04Z</time>
      </trkpt>
      <trkpt lat="46.77535" lon="4.84591">
        <ele>162.729696</ele>
        <time>2011-02-19T12:12:07Z</time>
      </trkpt>
      <trkpt lat="46.77518" lon="4.84574">
        <ele>162.614666</ele>
        <time>2011-02-19T12:12:10Z</time>
      </trkpt>
      <trkpt lat="46.77506" lon="4.84564">
        <ele>162.569502</ele>
        <time>2011-02-19T12:12:12Z</time>
      </trkpt>
      <trkpt lat="46.77488" lon="4.84549">
        <ele>162.568314</ele>
        <time>2011-02-19T12:12:15Z</time>
      </trkpt>
      <trkpt lat="46.7747" lon="4.84535">
        <ele>162.643332</ele>
        <time>2011-02-19T12:12:18Z</time>
      </trkpt>
      <trkpt lat="46.77451" lon="4.84521">
        <ele>162.823165</ele>
        <time>2011-02-19T12:12:21Z</time>
      </trkpt>
      <trkpt lat="46.77438" lon="4.84512">
        <ele>163.065276</ele>
        <time>2011-02-19T12:12:23Z</time>
      </trkpt>
      <trkpt lat="46.77418" lon="4.84499">
        <ele>163.354084</ele>
        <time>2011-02-19T12:12:26Z</time>
      </trkpt>
      <trkpt lat="46.77405" lon="4.84491">
        <ele>163.653055</ele>
        <time>2011-02-19T12:12:28Z</time>
      </trkpt>
      <trkpt lat="46.77385" lon="4.84479">
        <ele>163.848064</ele>
        <time>2011-02-19T12:12:31Z</time>
      </trkpt>
      <trkpt lat="46.77372" lon="4.84472">
        <ele>163.909521</ele>
        <time>2011-02-19T12:12:33Z</time>
      </trkpt>
      <trkpt lat="46.77352" lon="4.84461">
        <ele>163.890479</ele>
        <time>2011-02-19T12:12:36Z</time>
      </trkpt>
      <trkpt lat="46.77339" lon="4.84453">
        <ele>163.840694</ele>
        <time>2011-02-19T12:12:38Z</time>
      </trkpt>
      <trkpt lat="46.77319" lon="4.84443">
        <ele>163.79899</ele>
        <time>2011-02-19T12:12:41Z</time>
      </trkpt>
      <trkpt lat="46.773" lon="4.84433">
        <ele>163.781815</ele>
        <time>2011-02-19T12:12:44Z</time>
      </trkpt>
      <trkpt lat="46.7728" lon="4.84423">
        <ele>163.798612</ele>
        <time>2011-02-19T12:12:47Z</time>
      </trkpt>
      <trkpt lat="46.77269" lon="4.84415">
        <ele>163.870108</ele>
        <time>2011-02-19T12:12:49Z</time>
      </trkpt>
      <trkpt lat="46.77257" lon="4.84409">
        <ele>163.989399</ele>
        <time>2011-02-19T12:12:51Z</time>
      </trkpt>
      <trkpt lat="46.77239" lon="4.84402">
        <ele>164.105028</ele>
        <time>2011-02-19T12:12:54Z</time>
      </trkpt>
      <trkpt lat="46.77221" lon="4.84399">
        <ele>164.171674</ele>
        <time>2011-02-19T12:12:57Z</time>
      </trkpt>
      <trkpt lat="46.77204" lon="4.84395">
        <ele>164.188844</ele>
        <time>2011-02-19T12:13:00Z</time>
      </trkpt>
      <trkpt lat="46.77193" lon="4.84392">
        <ele>164.156987</ele>
        <time>2011-02-19T12:13:02Z</time>
      </trkpt>
      <trkpt lat="46.77175" lon="4.84387">
        <ele>164.049411</ele>
        <time>2011-02-19T12:13:05Z</time>
      </trkpt>
      <trkpt lat="46.77157" lon="4.84381">
        <ele>163.894443</ele>
        <time>2011-02-19T12:13:08Z</time>
      </trkpt>
      <trkpt lat="46.77145" lon="4.84378">
        <ele>163.769258</ele>
        <time>2011-02-19T12:13:10Z</time>
      </trkpt>
      <trkpt lat="46.77132" lon="4.84375">
        <ele>163.681255</ele>
        <time>2011-02-19T12:13:12Z</time>
      </trkpt>
      <trkpt lat="46.7712" lon="4.84371">
        <ele>163.599003</ele>
        <time>2011-02-19T12:13:14Z</time>
      </trkpt>
      <trkpt lat="46.77108" lon="4.84367">
        <ele>163.529335</ele>
        <time>2011-02-19T12:13:16Z</time>
      </trkpt>
      <trkpt lat="46.77096" lon="4.84363">
        <ele>163.454212</ele>
        <time>2011-02-19T12:13:18Z</time>
      </trkpt>
      <trkpt lat="46.77084" lon="4.84359">
        <ele>163.352932</ele>
        <time>2011-02-19T12:13:20Z</time>
      </trkpt>
      <trkpt lat="46.77065" lon="4.84354">
        <ele>163.267271</ele>
        <time>2011-02-19T12:13:23Z</time>
      </trkpt>
      <trkpt lat="46.77046" lon="4.8435">
        <ele>163.231714</ele>
        <time>2011-02-19T12:13:26Z</time>
      </trkpt>
      <trkpt lat="46.77026" lon="4.84346">
        <ele>163.24393</ele>
        <time>2011-02-19T12:13:29Z</time>
      </trkpt>
      <trkpt lat="46.77014" lon="4.84343">
        <ele>163.33621</ele>
        <time>2011-02-19T12:13:31Z</time>
      </trkpt>
      <trkpt lat="46.76995" lon="4.8434">
        <ele>163.501917</ele>
        <time>2011-02-19T12:13:34Z</time>
      </trkpt>
      <trkpt lat="46.76982" lon="4.84339">
        <ele>163.646247</ele>
        <time>2011-02-19T12:13:36Z</time>
      </trkpt>
      <trkpt lat="46.76963" lon="4.84336">
        <ele>163.707565</ele>
        <time>2011-02-19T12:13:39Z</time>
      </trkpt>
      <trkpt lat="46.76951" lon="4.84335">
        <ele>163.707628</ele>
        <time>2011-02-19T12:13:41Z</time>
      </trkpt>
      <trkpt lat="46.76938" lon="4.84333">
        <ele>163.678199</ele>
        <time>2011-02-19T12:13:43Z</time>
      </trkpt>
      <trkpt lat="46.7692" lon="4.84333">
        <ele>163.634543</ele>
        <time>2011-02-19T12:13:46Z</time>
      </trkpt>
      <trkpt lat="46.76904" lon="4.84335">
        <ele>163.567839</ele>
        <time>2011-02-19T12:13:49Z</time>
      </trkpt>
      <trkpt lat="46.76893" lon="4.84335">
        <ele>163.468134</ele>
        <time>2011-02-19T12:13:51Z</time>
      </trkpt>
      <trkpt lat="46.76875" lon="4.84337">
        <ele>163.346947</ele>
        <time>2011-02-19T12:13:54Z</time>
      </trkpt>
      <trkpt lat="46.76858" lon="4.84339">
        <ele>163.206604</ele>
        <time>2011-02-19T12:13:57Z</time>
      </trkpt>
      <trkpt lat="46.76846" lon="4.84341">
        <ele>163.026999</ele>
        <time>2011-02-19T12:13:59Z</time>
      </trkpt>
      <trkpt lat="46.76827" lon="4.84342">
        <ele>162.759547</ele>
        <time>2011-02-19T12:14:02Z</time>
      </trkpt>
      <trkpt lat="46.7681" lon="4.84342">
        <ele>162.385842</ele>
        <time>2011-02-19T12:14:05Z</time>
      </trkpt>
      <trkpt lat="46.76794" lon="4.84339">
        <ele>162.008619</ele>
        <time>2011-02-19T12:14:08Z</time>
      </trkpt>
      <trkpt lat="46.76777" lon="4.84334">
        <ele>161.765152</ele>
        <time>2011-02-19T12:14:11Z</time>
      </trkpt>
      <trkpt lat="46.76761" lon="4.84328">
        <ele>161.674681</ele>
        <time>2011-02-19T12:14:14Z</time>
      </trkpt>
      <trkpt lat="46.7675" lon="4.84322">
        <ele>161.669909</ele>
        <time>2011-02-19T12:14:16Z</time>
      </trkpt>
      <trkpt lat="46.76738" lon="4.84316">
        <ele>161.679908</ele>
        <time>2011-02-19T12:14:18Z</time>
      </trkpt>
      <trkpt lat="46.76721" lon="4.84307">
        <ele>161.672441</ele>
        <time>2011-02-19T12:14:21Z</time>
      </trkpt>
      <trkpt lat="46.76704" lon="4.84299">
        <ele>161.630229</ele>
        <time>2011-02-19T12:14:24Z</time>
      </trkpt>
      <trkpt lat="46.76692" lon="4.84293">
        <ele>161.528613</ele>
        <time>2011-02-19T12:14:26Z</time>
      </trkpt>
      <trkpt lat="46.76681" lon="4.84286">
        <ele>161.368893</ele>
        <time>2011-02-19T12:14:28Z</time>
      </trkpt>
      <trkpt lat="46.76662" lon="4.84278">
        <ele>161.159736</ele>
        <time>2011-02-19T12:14:31Z</time>
      </trkpt>
      <trkpt lat="46.76651" lon="4.84271">
        <ele>160.910958</ele>
        <time>2011-02-19T12:14:33Z</time>
      </trkpt>
      <trkpt lat="46.76633" lon="4.84261">
        <ele>160.674031</ele>
        <time>2011-02-19T12:14:36Z</time>
      </trkpt>
      <trkpt lat="46.76622" lon="4.84254">
        <ele>160.424778</ele>
        <time>2011-02-19T12:14:38Z</time>
      </trkpt>
      <trkpt lat="46.76605" lon="4.84244">
        <ele>160.067271</ele>
        <time>2011-02-19T12:14:41Z</time>
      </trkpt>
      <trkpt lat="46.76588" lon="4.84234">
        <ele>159.589864</ele>
        <time>2011-02-19T12:14:44Z</time>
      </trkpt>
      <trkpt lat="46.76577" lon="4.84229">
        <ele>159.115306</ele>
        <time>2011-02-19T12:14:46Z</time>
      </trkpt>
      <trkpt lat="46.76568" lon="4.84223">
        <ele>158.794141</ele>
        <time>2011-02-19T12:14:48Z</time>
      </trkpt>
      <trkpt lat="46.76559" lon="4.8421">
        <ele>158.664479</ele>
        <time>2011-02-19T12:14:51Z</time>
      </trkpt>
      <trkpt lat="46.76551" lon="4.84196">
        <ele>158.642776</ele>
        <time>2011-02-19T12:14:54Z</time>
      </trkpt>
      <trkpt lat="46.76542" lon="4.84183">
        <ele>158.655747</ele>
        <time>2011-02-19T12:14:57Z</time>
      </trkpt>
      <trkpt lat="46.76529" lon="4.84181">
        <ele>158.596318</ele>
        <time>2011-02-19T12:15:00Z</time>
      </trkpt>
      <trkpt lat="46.76515" lon="4.84182">
        <ele>158.320304</ele>
        <time>2011-02-19T12:15:03Z</time>
      </trkpt>
      <trkpt lat="46.765" lon="4.84179">
        <ele>157.831247</ele>
        <time>2011-02-19T12:15:06Z</time>
      </trkpt>
      <trkpt lat="46.76491" lon="4.84174">
        <ele>157.286253</ele>
        <time>2011-02-19T12:15:08Z</time>
      </trkpt>
      <trkpt lat="46.76481" lon="4.84167">
        <ele>156.77987</ele>
        <time>2011-02-19T12:15:10Z</time>
      </trkpt>
      <trkpt lat="46.76467" lon="4.84154">
        <ele>156.259805</ele>
        <time>2011-02-19T12:15:13Z</time>
      </trkpt>
      <trkpt lat="46.76458" lon="4.84138">
        <ele>155.715383</ele>
        <time>2011-02-19T12:15:16Z</time>
      </trkpt>
      <trkpt lat="46.7645" lon="4.84126">
        <ele>155.291518</ele>
        <time>2011-02-19T12:15:19Z</time>
      </trkpt>
      <trkpt lat="46.7644" lon="4.84115">
        <ele>155.096957</ele>
        <time>2011-02-19T12:15:22Z</time>
      </trkpt>
      <trkpt lat="46.76429" lon="4.84102">
        <ele>155.069423</ele>
        <time>2011-02-19T12:15:25Z</time>
      </trkpt>
      <trkpt lat="46.7642" lon="4.84089">
        <ele>155.104153</ele>
        <time>2011-02-19T12:15:28Z</time>
      </trkpt>
      <trkpt lat="46.7641" lon="4.84075">
        <ele>155.260764</ele>
        <time>2011-02-19T12:15:31Z</time>
      </trkpt>
      <trkpt lat="46.76401" lon="4.84062">
        <ele>155.680696</ele>
        <time>2011-02-19T12:15:34Z</time>
      </trkpt>
      <trkpt lat="46.76393" lon="4.84047">
        <ele>156.320873</ele>
        <time>2011-02-19T12:15:37Z</time>
      </trkpt>
      <trkpt lat="46.76386" lon="4.84032">
        <ele>156.995586</ele>
        <time>2011-02-19T12:15:40Z</time>
      </trkpt>
      <trkpt lat="46.76378" lon="4.84019">
        <ele>157.591098</ele>
        <time>2011-02-19T12:15:43Z</time>
      </trkpt>
      <trkpt lat="46.76372" lon="4.84009">
        <ele>158.183704</ele>
        <time>2011-02-19T12:15:46Z</time>
      </trkpt>
      <trkpt lat="46.76364" lon="4.83996">
        <ele>158.92706</ele>
        <time>2011-02-19T12:15:50Z</time>
      </trkpt>
      <trkpt lat="46.76364" lon="4.83996">
        <ele>159.688415</ele>
        <time>2011-02-19T12:15:53Z</time>
      </trkpt>
      <trkpt lat="46.76348" lon="4.8397">
        <ele>160.209288</ele>
        <time>2011-02-19T12:16:01Z</time>
      </trkpt>
      <trkpt lat="46.76345" lon="4.83957">
        <ele>160.504837</ele>
        <time>2011-02-19T12:16:04Z</time>
      </trkpt>
      <trkpt lat="46.76343" lon="4.83942">
        <ele>160.751607</ele>
        <time>2011-02-19T12:16:08Z</time>
      </trkpt>
      <trkpt lat="46.76335" lon="4.83934">
        <ele>161.089934</ele>
        <time>2011-02-19T12:16:11Z</time>
      </trkpt>
      <trkpt lat="46.76328" lon="4.83923">
        <ele>161.53321</ele>
        <time>2011-02-19T12:16:14Z</time>
      </trkpt>
      <trkpt lat="46.76323" lon="4.8391">
        <ele>161.943103</ele>
        <time>2011-02-19T12:16:17Z</time>
      </trkpt>
      <trkpt lat="46.76317" lon="4.83896">
        <ele>162.219602</ele>
        <time>2011-02-19T12:16:20Z</time>
      </trkpt>
      <trkpt lat="46.76312" lon="4.83881">
        <ele>162.392331</ele>
        <time>2011-02-19T12:16:23Z</time>
      </trkpt>
      <trkpt lat="46.76307" lon="4.83867">
        <ele>162.522379</ele>
        <time>2011-02-19T12:16:26Z</time>
      </trkpt>
      <trkpt lat="46.76301" lon="4.83851">
        <ele>162.650814</ele>
        <time>2011-02-19T12:16:29Z</time>
      </trkpt>
      <trkpt lat="46.76294" lon="4.83831">
        <ele>162.780174</ele>
        <time>2011-02-19T12:16:32Z</time>
      </trkpt>
      <trkpt lat="46.76286" lon="4.83809">
        <ele>162.895917</ele>
        <time>2011-02-19T12:16:35Z</time>
      </trkpt>
      <trkpt lat="46.7628" lon="4.83794">
        <ele>163.005549</ele>
        <time>2011-02-19T12:16:37Z</time>
      </trkpt>
      <trkpt lat="46.76272" lon="4.8377">
        <ele>163.135182</ele>
        <time>2011-02-19T12:16:40Z</time>
      </trkpt>
      <trkpt lat="46.76264" lon="4.83747">
        <ele>163.268119</ele>
        <time>2011-02-19T12:16:43Z</time>
      </trkpt>
      <trkpt lat="46.76255" lon="4.83726">
        <ele>163.353593</ele>
        <time>2011-02-19T12:16:46Z</time>
      </trkpt>
      <trkpt lat="46.76249" lon="4.83714">
        <ele>163.379991</ele>
        <time>2011-02-19T12:16:48Z</time>
      </trkpt>
      <trkpt lat="46.76241" lon="4.83703">
        <ele>163.363608</ele>
        <time>2011-02-19T12:16:50Z</time>
      </trkpt>
      <trkpt lat="46.76227" lon="4.83687">
        <ele>163.301242</ele>
        <time>2011-02-19T12:16:53Z</time>
      </trkpt>
      <trkpt lat="46.76211" lon="4.83673">
        <ele>163.20912</ele>
        <time>2011-02-19T12:16:56Z</time>
      </trkpt>
      <trkpt lat="46.76201" lon="4.83664">
        <ele>163.137097</ele>
        <time>2011-02-19T12:16:58Z</time>
      </trkpt>
      <trkpt lat="46.76191" lon="4.83653">
        <ele>163.109186</ele>
        <time>2011-02-19T12:17:00Z</time>
      </trkpt>
      <trkpt lat="46.76182" lon="4.83633">
        <ele>163.138273</ele>
        <time>2011-02-19T12:17:03Z</time>
      </trkpt>
      <trkpt lat="46.76178" lon="4.83618">
        <ele>163.313792</ele>
        <time>2011-02-19T12:17:05Z</time>
      </trkpt>
      <trkpt lat="46.76172" lon="4.83595">
        <ele>163.703396</ele>
        <time>2011-02-19T12:17:08Z</time>
      </trkpt>
      <trkpt lat="46.76166" lon="4.83571">
        <ele>164.181612</ele>
        <time>2011-02-19T12:17:11Z</time>
      </trkpt>
      <trkpt lat="46.76163" lon="4.83554">
        <ele>164.592773</ele>
        <time>2011-02-19T12:17:13Z</time>
      </trkpt>
      <trkpt lat="46.76156" lon="4.83525">
        <ele>164.953269</ele>
        <time>2011-02-19T12:17:16Z</time>
      </trkpt>
      <trkpt lat="46.76149" lon="4.83505">
        <ele>165.349532</ele>
        <time>2011-02-19T12:17:18Z</time>
      </trkpt>
      <trkpt lat="46.76138" lon="4.83474">
        <ele>165.773413</ele>
        <time>2011-02-19T12:17:21Z</time>
      </trkpt>
      <trkpt lat="46.7614" lon="4.83452">
        <ele>166.169188</ele>
        <time>2011-02-19T12:17:23Z</time>
      </trkpt>
      <trkpt lat="46.76146" lon="4.83434">
        <ele>166.518175</ele>
        <time>2011-02-19T12:17:25Z</time>
      </trkpt>
      <trkpt lat="46.76158" lon="4.83409">
        <ele>166.790932</ele>
        <time>2011-02-19T12:17:28Z</time>
      </trkpt>
      <trkpt lat="46.76165" lon="4.83383">
        <ele>166.93223</ele>
        <time>2011-02-19T12:17:31Z</time>
      </trkpt>
      <trkpt lat="46.76168" lon="4.83366">
        <ele>166.960767</ele>
        <time>2011-02-19T12:17:33Z</time>
      </trkpt>
      <trkpt lat="46.76171" lon="4.83341">
        <ele>166.838917</ele>
        <time>2011-02-19T12:17:36Z</time>
      </trkpt>
      <trkpt lat="46.76174" lon="4.83314">
        <ele>166.448955</ele>
        <time>2011-02-19T12:17:39Z</time>
      </trkpt>
      <trkpt lat="46.76176" lon="4.83296">
        <ele>165.787387</ele>
        <time>2011-02-19T12:17:41Z</time>
      </trkpt>
      <trkpt lat="46.76181" lon="4.83271">
        <ele>164.94732</ele>
        <time>2011-02-19T12:17:44Z</time>
      </trkpt>
      <trkpt lat="46.76186" lon="4.83246">
        <ele>164.072756</ele>
        <time>2011-02-19T12:17:47Z</time>
      </trkpt>
      <trkpt lat="46.7619" lon="4.8322">
        <ele>163.404724</ele>
        <time>2011-02-19T12:17:50Z</time>
      </trkpt>
      <trkpt lat="46.76194" lon="4.83196">
        <ele>163.072622</ele>
        <time>2011-02-19T12:17:53Z</time>
      </trkpt>
      <trkpt lat="46.76197" lon="4.83172">
        <ele>162.908447</ele>
        <time>2011-02-19T12:17:56Z</time>
      </trkpt>
      <trkpt lat="46.762" lon="4.83155">
        <ele>162.682627</ele>
        <time>2011-02-19T12:17:58Z</time>
      </trkpt>
      <trkpt lat="46.76203" lon="4.83138">
        <ele>162.362198</ele>
        <time>2011-02-19T12:18:00Z</time>
      </trkpt>
      <trkpt lat="46.76208" lon="4.83122">
        <ele>161.955579</ele>
        <time>2011-02-19T12:18:02Z</time>
      </trkpt>
      <trkpt lat="46.76213" lon="4.83106">
        <ele>161.395638</ele>
        <time>2011-02-19T12:18:04Z</time>
      </trkpt>
      <trkpt lat="46.76221" lon="4.83081">
        <ele>160.707081</ele>
        <time>2011-02-19T12:18:07Z</time>
      </trkpt>
      <trkpt lat="46.76231" lon="4.83057">
        <ele>160.005236</ele>
        <time>2011-02-19T12:18:10Z</time>
      </trkpt>
      <trkpt lat="46.76244" lon="4.83036">
        <ele>159.352725</ele>
        <time>2011-02-19T12:18:13Z</time>
      </trkpt>
      <trkpt lat="46.76258" lon="4.83016">
        <ele>158.728018</ele>
        <time>2011-02-19T12:18:16Z</time>
      </trkpt>
      <trkpt lat="46.76267" lon="4.83004">
        <ele>158.022823</ele>
        <time>2011-02-19T12:18:18Z</time>
      </trkpt>
      <trkpt lat="46.76277" lon="4.82991">
        <ele>157.211598</ele>
        <time>2011-02-19T12:18:20Z</time>
      </trkpt>
      <trkpt lat="46.76292" lon="4.82971">
        <ele>156.499744</ele>
        <time>2011-02-19T12:18:23Z</time>
      </trkpt>
      <trkpt lat="46.76306" lon="4.82951">
        <ele>156.099869</ele>
        <time>2011-02-19T12:18:26Z</time>
      </trkpt>
      <trkpt lat="46.76315" lon="4.82937">
        <ele>155.990039</ele>
        <time>2011-02-19T12:18:28Z</time>
      </trkpt>
      <trkpt lat="46.76322" lon="4.82922">
        <ele>156.021385</ele>
        <time>2011-02-19T12:18:30Z</time>
      </trkpt>
      <trkpt lat="46.76329" lon="4.82908">
        <ele>156.083941</ele>
        <time>2011-02-19T12:18:32Z</time>
      </trkpt>
      <trkpt lat="46.7634" lon="4.82885">
        <ele>156.136299</ele>
        <time>2011-02-19T12:18:35Z</time>
      </trkpt>
      <trkpt lat="46.76349" lon="4.82861">
        <ele>156.165538</ele>
        <time>2011-02-19T12:18:38Z</time>
      </trkpt>
      <trkpt lat="46.76355" lon="4.82845">
        <ele>156.172607</ele>
        <time>2011-02-19T12:18:40Z</time>
      </trkpt>
      <trkpt lat="46.76362" lon="4.82821">
        <ele>156.145902</ele>
        <time>2011-02-19T12:18:43Z</time>
      </trkpt>
      <trkpt lat="46.76367" lon="4.82805">
        <ele>156.037207</ele>
        <time>2011-02-19T12:18:45Z</time>
      </trkpt>
      <trkpt lat="46.76371" lon="4.8279">
        <ele>155.819217</ele>
        <time>2011-02-19T12:18:47Z</time>
      </trkpt>
      <trkpt lat="46.76376" lon="4.82767">
        <ele>155.520916</ele>
        <time>2011-02-19T12:18:50Z</time>
      </trkpt>
      <trkpt lat="46.76381" lon="4.82743">
        <ele>155.214737</ele>
        <time>2011-02-19T12:18:53Z</time>
      </trkpt>
      <trkpt lat="46.76384" lon="4.82728">
        <ele>154.969055</ele>
        <time>2011-02-19T12:18:55Z</time>
      </trkpt>
      <trkpt lat="46.76387" lon="4.82712">
        <ele>154.760248</ele>
        <time>2011-02-19T12:18:57Z</time>
      </trkpt>
      <trkpt lat="46.76391" lon="4.82688">
        <ele>154.487315</ele>
        <time>2011-02-19T12:19:00Z</time>
      </trkpt>
      <trkpt lat="46.76394" lon="4.82663">
        <ele>154.118353</ele>
        <time>2011-02-19T12:19:03Z</time>
      </trkpt>
      <trkpt lat="46.76395" lon="4.82645">
        <ele>153.737485</ele>
        <time>2011-02-19T12:19:05Z</time>
      </trkpt>
      <trkpt lat="46.76395" lon="4.82618">
        <ele>153.460377</ele>
        <time>2011-02-19T12:19:08Z</time>
      </trkpt>
      <trkpt lat="46.76393" lon="4.8259">
        <ele>153.334629</ele>
        <time>2011-02-19T12:19:11Z</time>
      </trkpt>
      <trkpt lat="46.7639" lon="4.82573">
        <ele>153.319025</ele>
        <time>2011-02-19T12:19:13Z</time>
      </trkpt>
      <trkpt lat="46.76383" lon="4.8255">
        <ele>153.598056</ele>
        <time>2011-02-19T12:19:16Z</time>
      </trkpt>
      <trkpt lat="46.76378" lon="4.82534">
        <ele>154.673573</ele>
        <time>2011-02-19T12:19:18Z</time>
      </trkpt>
      <trkpt lat="46.76371" lon="4.82512">
        <ele>156.682121</ele>
        <time>2011-02-19T12:19:21Z</time>
      </trkpt>
      <trkpt lat="46.76367" lon="4.82497">
        <ele>159.220646</ele>
        <time>2011-02-19T12:19:23Z</time>
      </trkpt>
      <trkpt lat="46.76363" lon="4.82481">
        <ele>161.777396</ele>
        <time>2011-02-19T12:19:25Z</time>
      </trkpt>
      <trkpt lat="46.76361" lon="4.82456">
        <ele>164.109158</ele>
        <time>2011-02-19T12:19:28Z</time>
      </trkpt>
      <trkpt lat="46.76365" lon="4.82439">
        <ele>166.24059</ele>
        <time>2011-02-19T12:19:30Z</time>
      </trkpt>
      <trkpt lat="46.76379" lon="4.82418">
        <ele>168.141407</ele>
        <time>2011-02-19T12:19:33Z</time>
      </trkpt>
      <trkpt lat="46.76396" lon="4.82404">
        <ele>169.731591</ele>
        <time>2011-02-19T12:19:36Z</time>
      </trkpt>
      <trkpt lat="46.76408" lon="4.82397">
        <ele>171.027465</ele>
        <time>2011-02-19T12:19:38Z</time>
      </trkpt>
      <trkpt lat="46.76421" lon="4.82389">
        <ele>171.902844</ele>
        <time>2011-02-19T12:19:40Z</time>
      </trkpt>
      <trkpt lat="46.7644" lon="4.82379">
        <ele>172.275055</ele>
        <time>2011-02-19T12:19:43Z</time>
      </trkpt>
      <trkpt lat="46.76452" lon="4.82373">
        <ele>172.306263</ele>
        <time>2011-02-19T12:19:45Z</time>
      </trkpt>
      <trkpt lat="46.76468" lon="4.82364">
        <ele>172.223679</ele>
        <time>2011-02-19T12:19:48Z</time>
      </trkpt>
      <trkpt lat="46.76479" lon="4.82357">
        <ele>172.064496</ele>
        <time>2011-02-19T12:19:50Z</time>
      </trkpt>
      <trkpt lat="46.76494" lon="4.82342">
        <ele>171.723315</ele>
        <time>2011-02-19T12:19:53Z</time>
      </trkpt>
      <trkpt lat="46.76507" lon="4.82323">
        <ele>171.144233</ele>
        <time>2011-02-19T12:19:56Z</time>
      </trkpt>
      <trkpt lat="46.76516" lon="4.82309">
        <ele>170.413396</ele>
        <time>2011-02-19T12:19:58Z</time>
      </trkpt>
      <trkpt lat="46.76524" lon="4.82294">
        <ele>169.662049</ele>
        <time>2011-02-19T12:20:00Z</time>
      </trkpt>
      <trkpt lat="46.76533" lon="4.82281">
        <ele>168.93807</ele>
        <time>2011-02-19T12:20:02Z</time>
      </trkpt>
      <trkpt lat="46.76545" lon="4.82261">
        <ele>168.256956</ele>
        <time>2011-02-19T12:20:05Z</time>
      </trkpt>
      <trkpt lat="46.76552" lon="4.82248">
        <ele>167.661627</ele>
        <time>2011-02-19T12:20:07Z</time>
      </trkpt>
      <trkpt lat="46.76564" lon="4.8223">
        <ele>167.135237</ele>
        <time>2011-02-19T12:20:10Z</time>
      </trkpt>
      <trkpt lat="46.76574" lon="4.82211">
        <ele>166.675092</ele>
        <time>2011-02-19T12:20:13Z</time>
      </trkpt>
      <trkpt lat="46.76583" lon="4.82191">
        <ele>166.354825</ele>
        <time>2011-02-19T12:20:16Z</time>
      </trkpt>
      <trkpt lat="46.76587" lon="4.82177">
        <ele>166.170964</ele>
        <time>2011-02-19T12:20:18Z</time>
      </trkpt>
      <trkpt lat="46.76592" lon="4.82162">
        <ele>165.927765</ele>
        <time>2011-02-19T12:20:20Z</time>
      </trkpt>
      <trkpt lat="46.766" lon="4.82141">
        <ele>165.40494</ele>
        <time>2011-02-19T12:20:23Z</time>
      </trkpt>
      <trkpt lat="46.76606" lon="4.82127">
        <ele>164.613879</ele>
        <time>2011-02-19T12:20:25Z</time>
      </trkpt>
      <trkpt lat="46.76612" lon="4.82114">
        <ele>163.734633</ele>
        <time>2011-02-19T12:20:27Z</time>
      </trkpt>
      <trkpt lat="46.76618" lon="4.82101">
        <ele>162.926558</ele>
        <time>2011-02-19T12:20:29Z</time>
      </trkpt>
      <trkpt lat="46.76629" lon="4.82083">
        <ele>162.30679</ele>
        <time>2011-02-19T12:20:32Z</time>
      </trkpt>
      <trkpt lat="46.76636" lon="4.82071">
        <ele>161.941889</ele>
        <time>2011-02-19T12:20:34Z</time>
      </trkpt>
      <trkpt lat="46.76643" lon="4.82059">
        <ele>161.800034</ele>
        <time>2011-02-19T12:20:36Z</time>
      </trkpt>
      <trkpt lat="46.76654" lon="4.8204">
        <ele>161.737446</ele>
        <time>2011-02-19T12:20:39Z</time>
      </trkpt>
      <trkpt lat="46.76659" lon="4.82026">
        <ele>161.616309</ele>
        <time>2011-02-19T12:20:41Z</time>
      </trkpt>
      <trkpt lat="46.76664" lon="4.82011">
        <ele>161.372457</ele>
        <time>2011-02-19T12:20:43Z</time>
      </trkpt>
      <trkpt lat="46.76672" lon="4.8199">
        <ele>160.932997</ele>
        <time>2011-02-19T12:20:46Z</time>
      </trkpt>
      <trkpt lat="46.76681" lon="4.81971">
        <ele>160.370653</ele>
        <time>2011-02-19T12:20:49Z</time>
      </trkpt>
      <trkpt lat="46.76687" lon="4.81952">
        <ele>159.954319</ele>
        <time>2011-02-19T12:20:52Z</time>
      </trkpt>
      <trkpt lat="46.76687" lon="4.81937">
        <ele>159.801475</ele>
        <time>2011-02-19T12:20:54Z</time>
      </trkpt>
      <trkpt lat="46.76683" lon="4.81923">
        <ele>159.86553</ele>
        <time>2011-02-19T12:20:56Z</time>
      </trkpt>
      <trkpt lat="46.76678" lon="4.8191">
        <ele>160.261526</ele>
        <time>2011-02-19T12:20:58Z</time>
      </trkpt>
      <trkpt lat="46.76674" lon="4.81895">
        <ele>161.14988</ele>
        <time>2011-02-19T12:21:00Z</time>
      </trkpt>
      <trkpt lat="46.76666" lon="4.81873">
        <ele>162.47908</ele>
        <time>2011-02-19T12:21:03Z</time>
      </trkpt>
      <trkpt lat="46.76654" lon="4.81852">
        <ele>164.047456</ele>
        <time>2011-02-19T12:21:06Z</time>
      </trkpt>
      <trkpt lat="46.76646" lon="4.8184">
        <ele>165.733298</ele>
        <time>2011-02-19T12:21:08Z</time>
      </trkpt>
      <trkpt lat="46.76637" lon="4.81822">
        <ele>167.630005</ele>
        <time>2011-02-19T12:21:11Z</time>
      </trkpt>
      <trkpt lat="46.7663" lon="4.81808">
        <ele>169.758408</ele>
        <time>2011-02-19T12:21:14Z</time>
      </trkpt>
      <trkpt lat="46.7662" lon="4.81794">
        <ele>171.720647</ele>
        <time>2011-02-19T12:21:17Z</time>
      </trkpt>
      <trkpt lat="46.76612" lon="4.81786">
        <ele>173.182749</ele>
        <time>2011-02-19T12:21:19Z</time>
      </trkpt>
      <trkpt lat="46.76599" lon="4.81776">
        <ele>174.155787</ele>
        <time>2011-02-19T12:21:22Z</time>
      </trkpt>
      <trkpt lat="46.76587" lon="4.81764">
        <ele>174.757185</ele>
        <time>2011-02-19T12:21:25Z</time>
      </trkpt>
      <trkpt lat="46.76574" lon="4.81749">
        <ele>175.187236</ele>
        <time>2011-02-19T12:21:28Z</time>
      </trkpt>
      <trkpt lat="46.76565" lon="4.81739">
        <ele>175.569105</ele>
        <time>2011-02-19T12:21:30Z</time>
      </trkpt>
      <trkpt lat="46.76551" lon="4.81724">
        <ele>175.810739</ele>
        <time>2011-02-19T12:21:33Z</time>
      </trkpt>
      <trkpt lat="46.76542" lon="4.81714">
        <ele>175.883637</ele>
        <time>2011-02-19T12:21:35Z</time>
      </trkpt>
      <trkpt lat="46.7653" lon="4.81699">
        <ele>175.838517</ele>
        <time>2011-02-19T12:21:38Z</time>
      </trkpt>
      <trkpt lat="46.76521" lon="4.81689">
        <ele>175.669845</ele>
        <time>2011-02-19T12:21:40Z</time>
      </trkpt>
      <trkpt lat="46.76513" lon="4.81679">
        <ele>175.361214</ele>
        <time>2011-02-19T12:21:42Z</time>
      </trkpt>
      <trkpt lat="46.76499" lon="4.81663">
        <ele>174.992072</ele>
        <time>2011-02-19T12:21:45Z</time>
      </trkpt>
      <trkpt lat="46.76484" lon="4.81647">
        <ele>174.707692</ele>
        <time>2011-02-19T12:21:48Z</time>
      </trkpt>
      <trkpt lat="46.76472" lon="4.81638">
        <ele>174.579798</ele>
        <time>2011-02-19T12:21:50Z</time>
      </trkpt>
      <trkpt lat="46.76453" lon="4.81624">
        <ele>174.564653</ele>
        <time>2011-02-19T12:21:53Z</time>
      </trkpt>
      <trkpt lat="46.76441" lon="4.81611">
        <ele>174.622462</ele>
        <time>2011-02-19T12:21:55Z</time>
      </trkpt>
      <trkpt lat="46.76428" lon="4.81594">
        <ele>174.730937</ele>
        <time>2011-02-19T12:21:57Z</time>
      </trkpt>
      <trkpt lat="46.76408" lon="4.81561">
        <ele>174.828793</ele>
        <time>2011-02-19T12:22:00Z</time>
      </trkpt>
      <trkpt lat="46.7639" lon="4.81523">
        <ele>174.871471</ele>
        <time>2011-02-19T12:22:03Z</time>
      </trkpt>
      <trkpt lat="46.76377" lon="4.81497">
        <ele>174.865069</ele>
        <time>2011-02-19T12:22:05Z</time>
      </trkpt>
      <trkpt lat="46.76351" lon="4.81473">
        <ele>174.825287</ele>
        <time>2011-02-19T12:22:08Z</time>
      </trkpt>
      <trkpt lat="46.7632" lon="4.81475">
        <ele>174.717738</ele>
        <time>2011-02-19T12:22:11Z</time>
      </trkpt>
      <trkpt lat="46.76288" lon="4.81485">
        <ele>174.520491</ele>
        <time>2011-02-19T12:22:14Z</time>
      </trkpt>
      <trkpt lat="46.76255" lon="4.81494">
        <ele>174.321579</ele>
        <time>2011-02-19T12:22:17Z</time>
      </trkpt>
      <trkpt lat="46.76222" lon="4.8149">
        <ele>174.193348</ele>
        <time>2011-02-19T12:22:20Z</time>
      </trkpt>
      <trkpt lat="46.76191" lon="4.81479">
        <ele>174.035933</ele>
        <time>2011-02-19T12:22:23Z</time>
      </trkpt>
      <trkpt lat="46.76163" lon="4.81459">
        <ele>173.791975</ele>
        <time>2011-02-19T12:22:26Z</time>
      </trkpt>
      <trkpt lat="46.76138" lon="4.81437">
        <ele>173.576731</ele>
        <time>2011-02-19T12:22:29Z</time>
      </trkpt>
      <trkpt lat="46.76123" lon="4.8142">
        <ele>173.461107</ele>
        <time>2011-02-19T12:22:31Z</time>
      </trkpt>
      <trkpt lat="46.7611" lon="4.81403">
        <ele>173.391795</ele>
        <time>2011-02-19T12:22:33Z</time>
      </trkpt>
      <trkpt lat="46.76093" lon="4.81376">
        <ele>173.345574</ele>
        <time>2011-02-19T12:22:36Z</time>
      </trkpt>
      <trkpt lat="46.76083" lon="4.81361">
        <ele>173.324975</ele>
        <time>2011-02-19T12:22:38Z</time>
      </trkpt>
      <trkpt lat="46.76072" lon="4.81345">
        <ele>173.281591</ele>
        <time>2011-02-19T12:22:40Z</time>
      </trkpt>
      <trkpt lat="46.76059" lon="4.81323">
        <ele>173.136422</ele>
        <time>2011-02-19T12:22:43Z</time>
      </trkpt>
      <trkpt lat="46.76046" lon="4.81304">
        <ele>172.875776</ele>
        <time>2011-02-19T12:22:46Z</time>
      </trkpt>
      <trkpt lat="46.76038" lon="4.81292">
        <ele>172.551817</ele>
        <time>2011-02-19T12:22:48Z</time>
      </trkpt>
      <trkpt lat="46.76027" lon="4.81276">
        <ele>172.097568</ele>
        <time>2011-02-19T12:22:51Z</time>
      </trkpt>
      <trkpt lat="46.7602" lon="4.81267">
        <ele>171.302754</ele>
        <time>2011-02-19T12:22:53Z</time>
      </trkpt>
      <trkpt lat="46.76011" lon="4.81255">
        <ele>170.107723</ele>
        <time>2011-02-19T12:22:56Z</time>
      </trkpt>
      <trkpt lat="46.76003" lon="4.81244">
        <ele>168.653354</ele>
        <time>2011-02-19T12:22:59Z</time>
      </trkpt>
      <trkpt lat="46.75996" lon="4.81231">
        <ele>167.188528</ele>
        <time>2011-02-19T12:23:02Z</time>
      </trkpt>
      <trkpt lat="46.75987" lon="4.81218">
        <ele>166.007143</ele>
        <time>2011-02-19T12:23:05Z</time>
      </trkpt>
      <trkpt lat="46.75977" lon="4.81207">
        <ele>165.27585</ele>
        <time>2011-02-19T12:23:08Z</time>
      </trkpt>
      <trkpt lat="46.75969" lon="4.81195">
        <ele>164.940809</ele>
        <time>2011-02-19T12:23:11Z</time>
      </trkpt>
      <trkpt lat="46.75961" lon="4.81183">
        <ele>164.829773</ele>
        <time>2011-02-19T12:23:14Z</time>
      </trkpt>
      <trkpt lat="46.75953" lon="4.81174">
        <ele>164.746771</ele>
        <time>2011-02-19T12:23:17Z</time>
      </trkpt>
      <trkpt lat="46.75946" lon="4.81166">
        <ele>164.604667</ele>
        <time>2011-02-19T12:23:20Z</time>
      </trkpt>
      <trkpt lat="46.75938" lon="4.81153">
        <ele>164.416147</ele>
        <time>2011-02-19T12:23:24Z</time>
      </trkpt>
      <trkpt lat="46.75932" lon="4.8114">
        <ele>164.220115</ele>
        <time>2011-02-19T12:23:28Z</time>
      </trkpt>
      <trkpt lat="46.75927" lon="4.81129">
        <ele>164.032043</ele>
        <time>2011-02-19T12:23:32Z</time>
      </trkpt>
      <trkpt lat="46.75922" lon="4.81117">
        <ele>163.830944</ele>
        <time>2011-02-19T12:23:36Z</time>
      </trkpt>
      <trkpt lat="46.75917" lon="4.81106">
        <ele>163.597751</ele>
        <time>2011-02-19T12:23:40Z</time>
      </trkpt>
      <trkpt lat="46.75911" lon="4.81096">
        <ele>163.363268</ele>
        <time>2011-02-19T12:23:44Z</time>
      </trkpt>
      <trkpt lat="46.75904" lon="4.81085">
        <ele>163.181563</ele>
        <time>2011-02-19T12:23:48Z</time>
      </trkpt>
      <trkpt lat="46.75897" lon="4.81075">
        <ele>163.073498</ele>
        <time>2011-02-19T12:23:52Z</time>
      </trkpt>
      <trkpt lat="46.75891" lon="4.81064">
        <ele>163.009383</ele>
        <time>2011-02-19T12:23:56Z</time>
      </trkpt>
      <trkpt lat="46.75884" lon="4.81054">
        <ele>162.949775</ele>
        <time>2011-02-19T12:24:00Z</time>
      </trkpt>
      <trkpt lat="46.75877" lon="4.81043">
        <ele>162.895748</ele>
        <time>2011-02-19T12:24:04Z</time>
      </trkpt>
      <trkpt lat="46.75869" lon="4.8103">
        <ele>162.866599</ele>
        <time>2011-02-19T12:24:08Z</time>
      </trkpt>
      <trkpt lat="46.75862" lon="4.8102">
        <ele>162.860073</ele>
        <time>2011-02-19T12:24:11Z</time>
      </trkpt>
      <trkpt lat="46.75854" lon="4.81008">
        <ele>162.865056</ele>
        <time>2011-02-19T12:24:15Z</time>
      </trkpt>
      <trkpt lat="46.75847" lon="4.80995">
        <ele>162.897071</ele>
        <time>2011-02-19T12:24:19Z</time>
      </trkpt>
      <trkpt lat="46.75842" lon="4.80984">
        <ele>162.997118</ele>
        <time>2011-02-19T12:24:22Z</time>
      </trkpt>
      <trkpt lat="46.75836" lon="4.80969">
        <ele>163.185015</ele>
        <time>2011-02-19T12:24:26Z</time>
      </trkpt>
      <trkpt lat="46.75832" lon="4.80956">
        <ele>163.429095</ele>
        <time>2011-02-19T12:24:29Z</time>
      </trkpt>
      <trkpt lat="46.75828" lon="4.80942">
        <ele>163.676936</ele>
        <time>2011-02-19T12:24:32Z</time>
      </trkpt>
      <trkpt lat="46.75825" lon="4.80927">
        <ele>163.903273</ele>
        <time>2011-02-19T12:24:35Z</time>
      </trkpt>
      <trkpt lat="46.75823" lon="4.80915">
        <ele>164.10227</ele>
        <time>2011-02-19T12:24:38Z</time>
      </trkpt>
      <trkpt lat="46.75819" lon="4.80898">
        <ele>164.268642</ele>
        <time>2011-02-19T12:24:42Z</time>
      </trkpt>
      <trkpt lat="46.75815" lon="4.80882">
        <ele>164.449638</ele>
        <time>2011-02-19T12:24:46Z</time>
      </trkpt>
      <trkpt lat="46.75812" lon="4.80865">
        <ele>164.728075</ele>
        <time>2011-02-19T12:24:50Z</time>
      </trkpt>
      <trkpt lat="46.7581" lon="4.80851">
        <ele>165.154132</ele>
        <time>2011-02-19T12:24:53Z</time>
      </trkpt>
      <trkpt lat="46.75806" lon="4.80835">
        <ele>165.73747</ele>
        <time>2011-02-19T12:24:57Z</time>
      </trkpt>
      <trkpt lat="46.75801" lon="4.80823">
        <ele>166.443794</ele>
        <time>2011-02-19T12:25:00Z</time>
      </trkpt>
      <trkpt lat="46.75799" lon="4.80808">
        <ele>167.175761</ele>
        <time>2011-02-19T12:25:03Z</time>
      </trkpt>
      <trkpt lat="46.75798" lon="4.80791">
        <ele>167.858883</ele>
        <time>2011-02-19T12:25:07Z</time>
      </trkpt>
      <trkpt lat="46.758" lon="4.80775">
        <ele>168.485857</ele>
        <time>2011-02-19T12:25:11Z</time>
      </trkpt>
      <trkpt lat="46.75803" lon="4.80759">
        <ele>169.077027</ele>
        <time>2011-02-19T12:25:15Z</time>
      </trkpt>
      <trkpt lat="46.75807" lon="4.80743">
        <ele>169.670085</ele>
        <time>2011-02-19T12:25:19Z</time>
      </trkpt>
      <trkpt lat="46.75808" lon="4.80726">
        <ele>170.276916</ele>
        <time>2011-02-19T12:25:22Z</time>
      </trkpt>
      <trkpt lat="46.75809" lon="4.8071">
        <ele>170.838248</ele>
        <time>2011-02-19T12:25:25Z</time>
      </trkpt>
      <trkpt lat="46.7581" lon="4.80696">
        <ele>171.306406</ele>
        <time>2011-02-19T12:25:28Z</time>
      </trkpt>
      <trkpt lat="46.75811" lon="4.80682">
        <ele>171.695141</ele>
        <time>2011-02-19T12:25:31Z</time>
      </trkpt>
      <trkpt lat="46.75811" lon="4.80682">
        <ele>171.99465</ele>
        <time>2011-02-19T12:25:34Z</time>
      </trkpt>
      <trkpt lat="46.75816" lon="4.80646">
        <ele>172.20642</ele>
        <time>2011-02-19T12:25:39Z</time>
      </trkpt>
      <trkpt lat="46.7582" lon="4.80634">
        <ele>172.412542</ele>
        <time>2011-02-19T12:25:42Z</time>
      </trkpt>
      <trkpt lat="46.75824" lon="4.80622">
        <ele>172.671113</ele>
        <time>2011-02-19T12:25:45Z</time>
      </trkpt>
      <trkpt lat="46.75826" lon="4.80607">
        <ele>173.166735</ele>
        <time>2011-02-19T12:25:48Z</time>
      </trkpt>
      <trkpt lat="46.75828" lon="4.80591">
        <ele>174.08093</ele>
        <time>2011-02-19T12:25:51Z</time>
      </trkpt>
      <trkpt lat="46.75826" lon="4.80574">
        <ele>175.190305</ele>
        <time>2011-02-19T12:25:54Z</time>
      </trkpt>
      <trkpt lat="46.75822" lon="4.8056">
        <ele>176.144315</ele>
        <time>2011-02-19T12:25:57Z</time>
      </trkpt>
      <trkpt lat="46.75817" lon="4.80544">
        <ele>176.85914</ele>
        <time>2011-02-19T12:26:00Z</time>
      </trkpt>
      <trkpt lat="46.75815" lon="4.80528">
        <ele>177.381622</ele>
        <time>2011-02-19T12:26:03Z</time>
      </trkpt>
      <trkpt lat="46.75814" lon="4.80513">
        <ele>177.794746</ele>
        <time>2011-02-19T12:26:06Z</time>
      </trkpt>
      <trkpt lat="46.75814" lon="4.80499">
        <ele>178.157324</ele>
        <time>2011-02-19T12:26:09Z</time>
      </trkpt>
      <trkpt lat="46.75813" lon="4.80484">
        <ele>178.479896</ele>
        <time>2011-02-19T12:26:12Z</time>
      </trkpt>
      <trkpt lat="46.75813" lon="4.80467">
        <ele>178.726891</ele>
        <time>2011-02-19T12:26:15Z</time>
      </trkpt>
      <trkpt lat="46.75812" lon="4.80449">
        <ele>178.859001</ele>
        <time>2011-02-19T12:26:18Z</time>
      </trkpt>
      <trkpt lat="46.75811" lon="4.80429">
        <ele>178.89088</ele>
        <time>2011-02-19T12:26:21Z</time>
      </trkpt>
      <trkpt lat="46.75812" lon="4.80411">
        <ele>178.877211</ele>
        <time>2011-02-19T12:26:24Z</time>
      </trkpt>
      <trkpt lat="46.75813" lon="4.80393">
        <ele>178.7858</ele>
        <time>2011-02-19T12:26:27Z</time>
      </trkpt>
      <trkpt lat="46.75813" lon="4.80374">
        <ele>178.494014</ele>
        <time>2011-02-19T12:26:30Z</time>
      </trkpt>
      <trkpt lat="46.75814" lon="4.80355">
        <ele>177.932316</ele>
        <time>2011-02-19T12:26:33Z</time>
      </trkpt>
      <trkpt lat="46.75815" lon="4.80337">
        <ele>177.144091</ele>
        <time>2011-02-19T12:26:36Z</time>
      </trkpt>
      <trkpt lat="46.75818" lon="4.80319">
        <ele>176.177346</ele>
        <time>2011-02-19T12:26:39Z</time>
      </trkpt>
      <trkpt lat="46.75819" lon="4.80306">
        <ele>175.043845</ele>
        <time>2011-02-19T12:26:41Z</time>
      </trkpt>
      <trkpt lat="46.75822" lon="4.80284">
        <ele>173.327814</ele>
        <time>2011-02-19T12:26:43Z</time>
      </trkpt>
      <trkpt lat="46.75824" lon="4.80268">
        <ele>170.820926</ele>
        <time>2011-02-19T12:26:45Z</time>
      </trkpt>
      <trkpt lat="46.75826" lon="4.80245">
        <ele>167.200398</ele>
        <time>2011-02-19T12:26:48Z</time>
      </trkpt>
      <trkpt lat="46.7583" lon="4.80223">
        <ele>161.859383</ele>
        <time>2011-02-19T12:26:51Z</time>
      </trkpt>
      <trkpt lat="46.75834" lon="4.80197">
        <ele>155.697075</ele>
        <time>2011-02-19T12:26:54Z</time>
      </trkpt>
      <trkpt lat="46.75837" lon="4.80165">
        <ele>151.0495</ele>
        <time>2011-02-19T12:26:57Z</time>
      </trkpt>
      <trkpt lat="46.75837" lon="4.80144">
        <ele>148.937211</ele>
        <time>2011-02-19T12:26:59Z</time>
      </trkpt>
      <trkpt lat="46.75838" lon="4.80124">
        <ele>148.673041</ele>
        <time>2011-02-19T12:27:01Z</time>
      </trkpt>
      <trkpt lat="46.75838" lon="4.80104">
        <ele>149.828037</ele>
        <time>2011-02-19T12:27:03Z</time>
      </trkpt>
      <trkpt lat="46.75839" lon="4.80074">
        <ele>152.262335</ele>
        <time>2011-02-19T12:27:06Z</time>
      </trkpt>
      <trkpt lat="46.7584" lon="4.80053">
        <ele>154.704167</ele>
        <time>2011-02-19T12:27:08Z</time>
      </trkpt>
      <trkpt lat="46.75842" lon="4.80023">
        <ele>156.027298</ele>
        <time>2011-02-19T12:27:11Z</time>
      </trkpt>
      <trkpt lat="46.75844" lon="4.80005">
        <ele>156.502744</ele>
        <time>2011-02-19T12:27:13Z</time>
      </trkpt>
      <trkpt lat="46.75846" lon="4.79979">
        <ele>156.731303</ele>
        <time>2011-02-19T12:27:16Z</time>
      </trkpt>
      <trkpt lat="46.75848" lon="4.79956">
        <ele>156.964822</ele>
        <time>2011-02-19T12:27:19Z</time>
      </trkpt>
      <trkpt lat="46.75852" lon="4.79933">
        <ele>157.113868</ele>
        <time>2011-02-19T12:27:22Z</time>
      </trkpt>
      <trkpt lat="46.75857" lon="4.79909">
        <ele>157.124674</ele>
        <time>2011-02-19T12:27:25Z</time>
      </trkpt>
      <trkpt lat="46.7586" lon="4.79892">
        <ele>157.131165</ele>
        <time>2011-02-19T12:27:27Z</time>
      </trkpt>
      <trkpt lat="46.75863" lon="4.79864">
        <ele>157.345666</ele>
        <time>2011-02-19T12:27:30Z</time>
      </trkpt>
      <trkpt lat="46.75864" lon="4.79837">
        <ele>157.799851</ele>
        <time>2011-02-19T12:27:33Z</time>
      </trkpt>
      <trkpt lat="46.75866" lon="4.7982">
        <ele>158.66716</ele>
        <time>2011-02-19T12:27:35Z</time>
      </trkpt>
      <trkpt lat="46.75867" lon="4.79804">
        <ele>160.989797</ele>
        <time>2011-02-19T12:27:37Z</time>
      </trkpt>
      <trkpt lat="46.75867" lon="4.7978">
        <ele>165.304582</ele>
        <time>2011-02-19T12:27:40Z</time>
      </trkpt>
      <trkpt lat="46.75868" lon="4.79756">
        <ele>169.919133</ele>
        <time>2011-02-19T12:27:43Z</time>
      </trkpt>
      <trkpt lat="46.7587" lon="4.79732">
        <ele>172.73475</ele>
        <time>2011-02-19T12:27:46Z</time>
      </trkpt>
      <trkpt lat="46.75871" lon="4.79716">
        <ele>173.537211</ele>
        <time>2011-02-19T12:27:48Z</time>
      </trkpt>
      <trkpt lat="46.75871" lon="4.7969">
        <ele>172.299892</ele>
        <time>2011-02-19T12:27:51Z</time>
      </trkpt>
      <trkpt lat="46.75871" lon="4.79674">
        <ele>168.771474</ele>
        <time>2011-02-19T12:27:53Z</time>
      </trkpt>
      <trkpt lat="46.75872" lon="4.79643">
        <ele>164.607061</ele>
        <time>2011-02-19T12:27:56Z</time>
      </trkpt>
      <trkpt lat="46.75872" lon="4.79623">
        <ele>162.035461</ele>
        <time>2011-02-19T12:27:58Z</time>
      </trkpt>
      <trkpt lat="46.75875" lon="4.79588">
        <ele>161.288239</ele>
        <time>2011-02-19T12:28:01Z</time>
      </trkpt>
      <trkpt lat="46.75877" lon="4.79565">
        <ele>161.706745</ele>
        <time>2011-02-19T12:28:03Z</time>
      </trkpt>
      <trkpt lat="46.7588" lon="4.79529">
        <ele>162.791367</ele>
        <time>2011-02-19T12:28:06Z</time>
      </trkpt>
      <trkpt lat="46.75882" lon="4.79506">
        <ele>164.474526</ele>
        <time>2011-02-19T12:28:08Z</time>
      </trkpt>
      <trkpt lat="46.75885" lon="4.79471">
        <ele>167.052404</ele>
        <time>2011-02-19T12:28:11Z</time>
      </trkpt>
      <trkpt lat="46.75886" lon="4.79448">
        <ele>170.612043</ele>
        <time>2011-02-19T12:28:13Z</time>
      </trkpt>
      <trkpt lat="46.75887" lon="4.79426">
        <ele>174.461996</ele>
        <time>2011-02-19T12:28:15Z</time>
      </trkpt>
      <trkpt lat="46.75889" lon="4.79396">
        <ele>177.52797</ele>
        <time>2011-02-19T12:28:18Z</time>
      </trkpt>
      <trkpt lat="46.75891" lon="4.79376">
        <ele>179.212874</ele>
        <time>2011-02-19T12:28:20Z</time>
      </trkpt>
      <trkpt lat="46.75893" lon="4.79349">
        <ele>179.879368</ele>
        <time>2011-02-19T12:28:23Z</time>
      </trkpt>
      <trkpt lat="46.75896" lon="4.79325">
        <ele>180.108874</ele>
        <time>2011-02-19T12:28:26Z</time>
      </trkpt>
      <trkpt lat="46.75898" lon="4.79309">
        <ele>180.091557</ele>
        <time>2011-02-19T12:28:28Z</time>
      </trkpt>
      <trkpt lat="46.759" lon="4.79292">
        <ele>179.804749</ele>
        <time>2011-02-19T12:28:30Z</time>
      </trkpt>
      <trkpt lat="46.75903" lon="4.79265">
        <ele>179.050997</ele>
        <time>2011-02-19T12:28:33Z</time>
      </trkpt>
      <trkpt lat="46.75905" lon="4.79237">
        <ele>177.300822</ele>
        <time>2011-02-19T12:28:36Z</time>
      </trkpt>
      <trkpt lat="46.75907" lon="4.79212">
        <ele>174.844048</ele>
        <time>2011-02-19T12:28:39Z</time>
      </trkpt>
      <trkpt lat="46.7591" lon="4.79196">
        <ele>172.964925</ele>
        <time>2011-02-19T12:28:41Z</time>
      </trkpt>
      <trkpt lat="46.75912" lon="4.79171">
        <ele>172.251878</ele>
        <time>2011-02-19T12:28:44Z</time>
      </trkpt>
      <trkpt lat="46.75913" lon="4.79139">
        <ele>172.640255</ele>
        <time>2011-02-19T12:28:47Z</time>
      </trkpt>
      <trkpt lat="46.75912" lon="4.79104">
        <ele>173.886313</ele>
        <time>2011-02-19T12:28:50Z</time>
      </trkpt>
      <trkpt lat="46.75914" lon="4.7907">
        <ele>175.527328</ele>
        <time>2011-02-19T12:28:53Z</time>
      </trkpt>
      <trkpt lat="46.75917" lon="4.7904">
        <ele>177.531293</ele>
        <time>2011-02-19T12:28:56Z</time>
      </trkpt>
      <trkpt lat="46.75921" lon="4.79008">
        <ele>180.598685</ele>
        <time>2011-02-19T12:28:59Z</time>
      </trkpt>
      <trkpt lat="46.75923" lon="4.78977">
        <ele>185.774396</ele>
        <time>2011-02-19T12:29:02Z</time>
      </trkpt>
      <trkpt lat="46.75925" lon="4.7895">
        <ele>192.939454</ele>
        <time>2011-02-19T12:29:05Z</time>
      </trkpt>
      <trkpt lat="46.75927" lon="4.78933">
        <ele>199.55083</ele>
        <time>2011-02-19T12:29:07Z</time>
      </trkpt>
      <trkpt lat="46.75929" lon="4.78908">
        <ele>203.200822</ele>
        <time>2011-02-19T12:29:10Z</time>
      </trkpt>
      <trkpt lat="46.7593" lon="4.78892">
        <ele>204.061762</ele>
        <time>2011-02-19T12:29:12Z</time>
      </trkpt>
      <trkpt lat="46.75931" lon="4.78876">
        <ele>203.177813</ele>
        <time>2011-02-19T12:29:14Z</time>
      </trkpt>
      <trkpt lat="46.75933" lon="4.78853">
        <ele>200.791424</ele>
        <time>2011-02-19T12:29:17Z</time>
      </trkpt>
      <trkpt lat="46.75934" lon="4.78835">
        <ele>197.708741</ele>
        <time>2011-02-19T12:29:19Z</time>
      </trkpt>
      <trkpt lat="46.75938" lon="4.78807">
        <ele>195.504545</ele>
        <time>2011-02-19T12:29:22Z</time>
      </trkpt>
      <trkpt lat="46.75943" lon="4.78782">
        <ele>194.725389</ele>
        <time>2011-02-19T12:29:25Z</time>
      </trkpt>
      <trkpt lat="46.75945" lon="4.78769">
        <ele>194.794468</ele>
        <time>2011-02-19T12:29:27Z</time>
      </trkpt>
      <trkpt lat="46.75948" lon="4.78755">
        <ele>195.62562</ele>
        <time>2011-02-19T12:29:29Z</time>
      </trkpt>
      <trkpt lat="46.75951" lon="4.78736">
        <ele>197.197666</ele>
        <time>2011-02-19T12:29:32Z</time>
      </trkpt>
      <trkpt lat="46.75956" lon="4.78719">
        <ele>198.650255</ele>
        <time>2011-02-19T12:29:35Z</time>
      </trkpt>
      <trkpt lat="46.75962" lon="4.78701">
        <ele>199.294641</ele>
        <time>2011-02-19T12:29:38Z</time>
      </trkpt>
      <trkpt lat="46.75968" lon="4.78683">
        <ele>199.158828</ele>
        <time>2011-02-19T12:29:41Z</time>
      </trkpt>
      <trkpt lat="46.75972" lon="4.78668">
        <ele>198.247296</ele>
        <time>2011-02-19T12:29:43Z</time>
      </trkpt>
      <trkpt lat="46.75978" lon="4.78652">
        <ele>196.665077</ele>
        <time>2011-02-19T12:29:45Z</time>
      </trkpt>
      <trkpt lat="46.75984" lon="4.78633">
        <ele>194.731819</ele>
        <time>2011-02-19T12:29:47Z</time>
      </trkpt>
      <trkpt lat="46.75993" lon="4.78608">
        <ele>192.860117</ele>
        <time>2011-02-19T12:29:50Z</time>
      </trkpt>
      <trkpt lat="46.75998" lon="4.78594">
        <ele>190.531863</ele>
        <time>2011-02-19T12:29:52Z</time>
      </trkpt>
      <trkpt lat="46.76005" lon="4.78571">
        <ele>187.375878</ele>
        <time>2011-02-19T12:29:55Z</time>
      </trkpt>
      <trkpt lat="46.7601" lon="4.78554">
        <ele>184.694075</ele>
        <time>2011-02-19T12:29:57Z</time>
      </trkpt>
      <trkpt lat="46.76018" lon="4.78532">
        <ele>183.576659</ele>
        <time>2011-02-19T12:30:00Z</time>
      </trkpt>
      <trkpt lat="46.76027" lon="4.78513">
        <ele>183.529614</ele>
        <time>2011-02-19T12:30:03Z</time>
      </trkpt>
      <trkpt lat="46.76033" lon="4.78495">
        <ele>184.1854</ele>
        <time>2011-02-19T12:30:05Z</time>
      </trkpt>
      <trkpt lat="46.7604" lon="4.78479">
        <ele>185.768102</ele>
        <time>2011-02-19T12:30:07Z</time>
      </trkpt>
      <trkpt lat="46.7605" lon="4.78458">
        <ele>187.96066</ele>
        <time>2011-02-19T12:30:10Z</time>
      </trkpt>
      <trkpt lat="46.76057" lon="4.78444">
        <ele>190.079095</ele>
        <time>2011-02-19T12:30:12Z</time>
      </trkpt>
      <trkpt lat="46.76068" lon="4.78428">
        <ele>191.875467</ele>
        <time>2011-02-19T12:30:15Z</time>
      </trkpt>
      <trkpt lat="46.76079" lon="4.78414">
        <ele>193.093855</ele>
        <time>2011-02-19T12:30:18Z</time>
      </trkpt>
      <trkpt lat="46.7609" lon="4.78402">
        <ele>193.526906</ele>
        <time>2011-02-19T12:30:21Z</time>
      </trkpt>
      <trkpt lat="46.76098" lon="4.78393">
        <ele>193.476708</ele>
        <time>2011-02-19T12:30:23Z</time>
      </trkpt>
      <trkpt lat="46.76109" lon="4.7838">
        <ele>192.554523</ele>
        <time>2011-02-19T12:30:26Z</time>
      </trkpt>
      <trkpt lat="46.76121" lon="4.78366">
        <ele>188.855799</ele>
        <time>2011-02-19T12:30:29Z</time>
      </trkpt>
      <trkpt lat="46.76135" lon="4.78349">
        <ele>182.518029</ele>
        <time>2011-02-19T12:30:32Z</time>
      </trkpt>
      <trkpt lat="46.76145" lon="4.78336">
        <ele>177.126651</ele>
        <time>2011-02-19T12:30:34Z</time>
      </trkpt>
      <trkpt lat="46.76157" lon="4.78311">
        <ele>174.878289</ele>
        <time>2011-02-19T12:30:37Z</time>
      </trkpt>
      <trkpt lat="46.76167" lon="4.78292">
        <ele>174.748022</ele>
        <time>2011-02-19T12:30:40Z</time>
      </trkpt>
      <trkpt lat="46.76174" lon="4.78278">
        <ele>176.377623</ele>
        <time>2011-02-19T12:30:42Z</time>
      </trkpt>
      <trkpt lat="46.76181" lon="4.78265">
        <ele>180.340542</ele>
        <time>2011-02-19T12:30:44Z</time>
      </trkpt>
      <trkpt lat="46.76191" lon="4.78244">
        <ele>185.461474</ele>
        <time>2011-02-19T12:30:47Z</time>
      </trkpt>
      <trkpt lat="46.76202" lon="4.78226">
        <ele>189.459941</ele>
        <time>2011-02-19T12:30:50Z</time>
      </trkpt>
      <trkpt lat="46.76213" lon="4.7821">
        <ele>191.549598</ele>
        <time>2011-02-19T12:30:53Z</time>
      </trkpt>
      <trkpt lat="46.76219" lon="4.782">
        <ele>192.176235</ele>
        <time>2011-02-19T12:30:55Z</time>
      </trkpt>
      <trkpt lat="46.7623" lon="4.78185">
        <ele>192.052054</ele>
        <time>2011-02-19T12:30:58Z</time>
      </trkpt>
      <trkpt lat="46.76239" lon="4.78175">
        <ele>191.674956</ele>
        <time>2011-02-19T12:31:00Z</time>
      </trkpt>
      <trkpt lat="46.76252" lon="4.78158">
        <ele>191.192021</ele>
        <time>2011-02-19T12:31:03Z</time>
      </trkpt>
      <trkpt lat="46.76259" lon="4.78149">
        <ele>190.66599</ele>
        <time>2011-02-19T12:31:05Z</time>
      </trkpt>
      <trkpt lat="46.76272" lon="4.78133">
        <ele>190.199134</ele>
        <time>2011-02-19T12:31:08Z</time>
      </trkpt>
      <trkpt lat="46.76282" lon="4.78122">
        <ele>189.906733</ele>
        <time>2011-02-19T12:31:10Z</time>
      </trkpt>
      <trkpt lat="46.76298" lon="4.78105">
        <ele>189.911094</ele>
        <time>2011-02-19T12:31:13Z</time>
      </trkpt>
      <trkpt lat="46.76309" lon="4.78093">
        <ele>190.458696</ele>
        <time>2011-02-19T12:31:15Z</time>
      </trkpt>
      <trkpt lat="46.76319" lon="4.7808">
        <ele>191.714244</ele>
        <time>2011-02-19T12:31:17Z</time>
      </trkpt>
      <trkpt lat="46.7633" lon="4.78069">
        <ele>193.254562</ele>
        <time>2011-02-19T12:31:19Z</time>
      </trkpt>
      <trkpt lat="46.76344" lon="4.78051">
        <ele>194.404496</ele>
        <time>2011-02-19T12:31:22Z</time>
      </trkpt>
      <trkpt lat="46.76353" lon="4.78039">
        <ele>195.043978</ele>
        <time>2011-02-19T12:31:24Z</time>
      </trkpt>
      <trkpt lat="46.76366" lon="4.78022">
        <ele>195.66235</ele>
        <time>2011-02-19T12:31:27Z</time>
      </trkpt>
      <trkpt lat="46.76379" lon="4.78006">
        <ele>196.940716</ele>
        <time>2011-02-19T12:31:30Z</time>
      </trkpt>
      <trkpt lat="46.76386" lon="4.77995">
        <ele>199.189875</ele>
        <time>2011-02-19T12:31:32Z</time>
      </trkpt>
      <trkpt lat="46.76398" lon="4.77978">
        <ele>202.213219</ele>
        <time>2011-02-19T12:31:35Z</time>
      </trkpt>
      <trkpt lat="46.76405" lon="4.77957">
        <ele>205.185358</ele>
        <time>2011-02-19T12:31:38Z</time>
      </trkpt>
      <trkpt lat="46.76405" lon="4.7794">
        <ele>207.068777</ele>
        <time>2011-02-19T12:31:40Z</time>
      </trkpt>
      <trkpt lat="46.76402" lon="4.77921">
        <ele>207.638215</ele>
        <time>2011-02-19T12:31:42Z</time>
      </trkpt>
      <trkpt lat="46.76396" lon="4.77896">
        <ele>207.516301</ele>
        <time>2011-02-19T12:31:45Z</time>
      </trkpt>
      <trkpt lat="46.76391" lon="4.77872">
        <ele>206.849528</ele>
        <time>2011-02-19T12:31:48Z</time>
      </trkpt>
      <trkpt lat="46.76387" lon="4.77857">
        <ele>205.650821</ele>
        <time>2011-02-19T12:31:50Z</time>
      </trkpt>
      <trkpt lat="46.76381" lon="4.77838">
        <ele>204.551538</ele>
        <time>2011-02-19T12:31:53Z</time>
      </trkpt>
      <trkpt lat="46.76376" lon="4.77821">
        <ele>204.066454</ele>
        <time>2011-02-19T12:31:56Z</time>
      </trkpt>
      <trkpt lat="46.76373" lon="4.77808">
        <ele>204.10871</ele>
        <time>2011-02-19T12:31:58Z</time>
      </trkpt>
      <trkpt lat="46.76369" lon="4.77794">
        <ele>204.452492</ele>
        <time>2011-02-19T12:32:00Z</time>
      </trkpt>
      <trkpt lat="46.76365" lon="4.7778">
        <ele>204.792778</ele>
        <time>2011-02-19T12:32:02Z</time>
      </trkpt>
      <trkpt lat="46.76355" lon="4.77756">
        <ele>204.95071</ele>
        <time>2011-02-19T12:32:05Z</time>
      </trkpt>
      <trkpt lat="46.76348" lon="4.7774">
        <ele>203.928836</ele>
        <time>2011-02-19T12:32:07Z</time>
      </trkpt>
      <trkpt lat="46.76341" lon="4.77717">
        <ele>200.631382</ele>
        <time>2011-02-19T12:32:10Z</time>
      </trkpt>
      <trkpt lat="46.76334" lon="4.77695">
        <ele>195.502051</ele>
        <time>2011-02-19T12:32:13Z</time>
      </trkpt>
      <trkpt lat="46.76327" lon="4.77679">
        <ele>190.01718</ele>
        <time>2011-02-19T12:32:15Z</time>
      </trkpt>
      <trkpt lat="46.76319" lon="4.77655">
        <ele>185.246815</ele>
        <time>2011-02-19T12:32:18Z</time>
      </trkpt>
      <trkpt lat="46.76313" lon="4.77638">
        <ele>181.812209</ele>
        <time>2011-02-19T12:32:20Z</time>
      </trkpt>
      <trkpt lat="46.76307" lon="4.7761">
        <ele>179.929198</ele>
        <time>2011-02-19T12:32:23Z</time>
      </trkpt>
      <trkpt lat="46.76303" lon="4.77591">
        <ele>179.408366</ele>
        <time>2011-02-19T12:32:25Z</time>
      </trkpt>
      <trkpt lat="46.76299" lon="4.77575">
        <ele>179.55323</ele>
        <time>2011-02-19T12:32:27Z</time>
      </trkpt>
      <trkpt lat="46.76292" lon="4.77552">
        <ele>180.472339</ele>
        <time>2011-02-19T12:32:30Z</time>
      </trkpt>
      <trkpt lat="46.76287" lon="4.77536">
        <ele>183.127933</ele>
        <time>2011-02-19T12:32:32Z</time>
      </trkpt>
      <trkpt lat="46.76284" lon="4.7752">
        <ele>187.008067</ele>
        <time>2011-02-19T12:32:34Z</time>
      </trkpt>
      <trkpt lat="46.76281" lon="4.77495">
        <ele>190.141358</ele>
        <time>2011-02-19T12:32:37Z</time>
      </trkpt>
      <trkpt lat="46.76277" lon="4.77473">
        <ele>191.690383</ele>
        <time>2011-02-19T12:32:40Z</time>
      </trkpt>
      <trkpt lat="46.76277" lon="4.77473">
        <ele>192.150151</ele>
        <time>2011-02-19T12:32:43Z</time>
      </trkpt>
      <trkpt lat="46.76262" lon="4.77423">
        <ele>192.090752</ele>
        <time>2011-02-19T12:33:00Z</time>
      </trkpt>
      <trkpt lat="46.76262" lon="4.77423">
        <ele>191.915087</ele>
        <time>2011-02-19T12:33:03Z</time>
      </trkpt>
      <trkpt lat="46.76252" lon="4.77389">
        <ele>191.810545</ele>
        <time>2011-02-19T12:33:15Z</time>
      </trkpt>
      <trkpt lat="46.76249" lon="4.77377">
        <ele>191.992248</ele>
        <time>2011-02-19T12:33:18Z</time>
      </trkpt>
      <trkpt lat="46.76244" lon="4.77361">
        <ele>193.108497</ele>
        <time>2011-02-19T12:33:22Z</time>
      </trkpt>
      <trkpt lat="46.76241" lon="4.77349">
        <ele>195.497083</ele>
        <time>2011-02-19T12:33:25Z</time>
      </trkpt>
      <trkpt lat="46.76239" lon="4.77335">
        <ele>198.212663</ele>
        <time>2011-02-19T12:33:28Z</time>
      </trkpt>
      <trkpt lat="46.76237" lon="4.77322">
        <ele>200.047016</ele>
        <time>2011-02-19T12:33:31Z</time>
      </trkpt>
      <trkpt lat="46.76235" lon="4.77308">
        <ele>200.843126</ele>
        <time>2011-02-19T12:33:34Z</time>
      </trkpt>
      <trkpt lat="46.7623" lon="4.77292">
        <ele>201.080366</ele>
        <time>2011-02-19T12:33:38Z</time>
      </trkpt>
      <trkpt lat="46.76227" lon="4.77278">
        <ele>201.172181</ele>
        <time>2011-02-19T12:33:41Z</time>
      </trkpt>
      <trkpt lat="46.76222" lon="4.77265">
        <ele>201.315334</ele>
        <time>2011-02-19T12:33:44Z</time>
      </trkpt>
      <trkpt lat="46.76217" lon="4.77251">
        <ele>201.537451</ele>
        <time>2011-02-19T12:33:47Z</time>
      </trkpt>
      <trkpt lat="46.76214" lon="4.77238">
        <ele>201.787719</ele>
        <time>2011-02-19T12:33:50Z</time>
      </trkpt>
      <trkpt lat="46.7621" lon="4.77224">
        <ele>202.011245</ele>
        <time>2011-02-19T12:33:53Z</time>
      </trkpt>
      <trkpt lat="46.76207" lon="4.77211">
        <ele>202.182484</ele>
        <time>2011-02-19T12:33:56Z</time>
      </trkpt>
      <trkpt lat="46.76203" lon="4.77195">
        <ele>202.290902</ele>
        <time>2011-02-19T12:34:00Z</time>
      </trkpt>
      <trkpt lat="46.76201" lon="4.77181">
        <ele>202.342697</ele>
        <time>2011-02-19T12:34:03Z</time>
      </trkpt>
      <trkpt lat="46.76198" lon="4.77167">
        <ele>202.365537</ele>
        <time>2011-02-19T12:34:06Z</time>
      </trkpt>
      <trkpt lat="46.76194" lon="4.77154">
        <ele>202.38244</ele>
        <time>2011-02-19T12:34:09Z</time>
      </trkpt>
      <trkpt lat="46.7619" lon="4.77139">
        <ele>202.401198</ele>
        <time>2011-02-19T12:34:12Z</time>
      </trkpt>
      <trkpt lat="46.76187" lon="4.77126">
        <ele>202.429127</ele>
        <time>2011-02-19T12:34:15Z</time>
      </trkpt>
      <trkpt lat="46.76184" lon="4.77113">
        <ele>202.471656</ele>
        <time>2011-02-19T12:34:18Z</time>
      </trkpt>
      <trkpt lat="46.7618" lon="4.77097">
        <ele>202.519339</ele>
        <time>2011-02-19T12:34:21Z</time>
      </trkpt>
      <trkpt lat="46.76176" lon="4.77082">
        <ele>202.552253</ele>
        <time>2011-02-19T12:34:24Z</time>
      </trkpt>
      <trkpt lat="46.76172" lon="4.77068">
        <ele>202.563418</ele>
        <time>2011-02-19T12:34:27Z</time>
      </trkpt>
      <trkpt lat="46.76169" lon="4.77055">
        <ele>202.521582</ele>
        <time>2011-02-19T12:34:30Z</time>
      </trkpt>
      <trkpt lat="46.76165" lon="4.77042">
        <ele>202.363792</ele>
        <time>2011-02-19T12:34:33Z</time>
      </trkpt>
      <trkpt lat="46.76162" lon="4.7703">
        <ele>202.066877</ele>
        <time>2011-02-19T12:34:36Z</time>
      </trkpt>
      <trkpt lat="46.76159" lon="4.77017">
        <ele>201.66487</ele>
        <time>2011-02-19T12:34:39Z</time>
      </trkpt>
      <trkpt lat="46.76155" lon="4.77">
        <ele>201.212602</ele>
        <time>2011-02-19T12:34:43Z</time>
      </trkpt>
      <trkpt lat="46.76152" lon="4.76987">
        <ele>200.764758</ele>
        <time>2011-02-19T12:34:46Z</time>
      </trkpt>
      <trkpt lat="46.76149" lon="4.76973">
        <ele>200.340293</ele>
        <time>2011-02-19T12:34:49Z</time>
      </trkpt>
      <trkpt lat="46.76146" lon="4.7696">
        <ele>199.901949</ele>
        <time>2011-02-19T12:34:52Z</time>
      </trkpt>
      <trkpt lat="46.76143" lon="4.76943">
        <ele>199.422012</ele>
        <time>2011-02-19T12:34:55Z</time>
      </trkpt>
      <trkpt lat="46.76141" lon="4.7693">
        <ele>198.931162</ele>
        <time>2011-02-19T12:34:58Z</time>
      </trkpt>
      <trkpt lat="46.76138" lon="4.76916">
        <ele>198.448708</ele>
        <time>2011-02-19T12:35:01Z</time>
      </trkpt>
      <trkpt lat="46.76135" lon="4.76903">
        <ele>197.987558</ele>
        <time>2011-02-19T12:35:04Z</time>
      </trkpt>
      <trkpt lat="46.7613" lon="4.7689">
        <ele>197.596559</ele>
        <time>2011-02-19T12:35:07Z</time>
      </trkpt>
      <trkpt lat="46.76125" lon="4.76877">
        <ele>197.294622</ele>
        <time>2011-02-19T12:35:10Z</time>
      </trkpt>
      <trkpt lat="46.7612" lon="4.76861">
        <ele>197.061131</ele>
        <time>2011-02-19T12:35:14Z</time>
      </trkpt>
      <trkpt lat="46.76117" lon="4.76849">
        <ele>196.861195</ele>
        <time>2011-02-19T12:35:17Z</time>
      </trkpt>
      <trkpt lat="46.76113" lon="4.76833">
        <ele>196.603426</ele>
        <time>2011-02-19T12:35:21Z</time>
      </trkpt>
      <trkpt lat="46.7611" lon="4.76816">
        <ele>196.180131</ele>
        <time>2011-02-19T12:35:25Z</time>
      </trkpt>
      <trkpt lat="46.76108" lon="4.76802">
        <ele>195.611086</ele>
        <time>2011-02-19T12:35:28Z</time>
      </trkpt>
      <trkpt lat="46.76104" lon="4.76786">
        <ele>195.036262</ele>
        <time>2011-02-19T12:35:31Z</time>
      </trkpt>
      <trkpt lat="46.76101" lon="4.76772">
        <ele>194.558615</ele>
        <time>2011-02-19T12:35:34Z</time>
      </trkpt>
      <trkpt lat="46.76098" lon="4.76758">
        <ele>194.203055</ele>
        <time>2011-02-19T12:35:37Z</time>
      </trkpt>
      <trkpt lat="46.76098" lon="4.76758">
        <ele>193.984209</ele>
        <time>2011-02-19T12:35:40Z</time>
      </trkpt>
      <trkpt lat="46.76092" lon="4.76731">
        <ele>193.897243</ele>
        <time>2011-02-19T12:35:44Z</time>
      </trkpt>
      <trkpt lat="46.76087" lon="4.76716">
        <ele>193.894202</ele>
        <time>2011-02-19T12:35:48Z</time>
      </trkpt>
      <trkpt lat="46.76083" lon="4.76701">
        <ele>193.922445</ele>
        <time>2011-02-19T12:35:52Z</time>
      </trkpt>
      <trkpt lat="46.7608" lon="4.76687">
        <ele>193.980017</ele>
        <time>2011-02-19T12:35:56Z</time>
      </trkpt>
      <trkpt lat="46.76082" lon="4.76672">
        <ele>194.066986</ele>
        <time>2011-02-19T12:36:01Z</time>
      </trkpt>
      <trkpt lat="46.76089" lon="4.76662">
        <ele>194.140795</ele>
        <time>2011-02-19T12:36:06Z</time>
      </trkpt>
      <trkpt lat="46.76098" lon="4.76653">
        <ele>194.171518</ele>
        <time>2011-02-19T12:36:10Z</time>
      </trkpt>
      <trkpt lat="46.76107" lon="4.7664">
        <ele>194.142133</ele>
        <time>2011-02-19T12:36:14Z</time>
      </trkpt>
      <trkpt lat="46.76114" lon="4.76631">
        <ele>193.958966</ele>
        <time>2011-02-19T12:36:17Z</time>
      </trkpt>
      <trkpt lat="46.76122" lon="4.76623">
        <ele>193.495514</ele>
        <time>2011-02-19T12:36:20Z</time>
      </trkpt>
      <trkpt lat="46.76133" lon="4.76615">
        <ele>192.770993</ele>
        <time>2011-02-19T12:36:23Z</time>
      </trkpt>
      <trkpt lat="46.76143" lon="4.76607">
        <ele>192.008434</ele>
        <time>2011-02-19T12:36:26Z</time>
      </trkpt>
      <trkpt lat="46.76151" lon="4.766">
        <ele>191.383348</ele>
        <time>2011-02-19T12:36:29Z</time>
      </trkpt>
      <trkpt lat="46.76158" lon="4.76591">
        <ele>190.82034</ele>
        <time>2011-02-19T12:36:32Z</time>
      </trkpt>
      <trkpt lat="46.76167" lon="4.76584">
        <ele>190.24819</ele>
        <time>2011-02-19T12:36:35Z</time>
      </trkpt>
      <trkpt lat="46.76176" lon="4.76575">
        <ele>189.790467</ele>
        <time>2011-02-19T12:36:38Z</time>
      </trkpt>
      <trkpt lat="46.76186" lon="4.76565">
        <ele>189.534648</ele>
        <time>2011-02-19T12:36:41Z</time>
      </trkpt>
      <trkpt lat="46.76197" lon="4.76557">
        <ele>189.427731</ele>
        <time>2011-02-19T12:36:44Z</time>
      </trkpt>
      <trkpt lat="46.76207" lon="4.76551">
        <ele>189.420221</ele>
        <time>2011-02-19T12:36:47Z</time>
      </trkpt>
      <trkpt lat="46.76216" lon="4.76545">
        <ele>189.490003</ele>
        <time>2011-02-19T12:36:50Z</time>
      </trkpt>
      <trkpt lat="46.76226" lon="4.7654">
        <ele>189.599586</ele>
        <time>2011-02-19T12:36:53Z</time>
      </trkpt>
      <trkpt lat="46.76234" lon="4.76534">
        <ele>189.757151</ele>
        <time>2011-02-19T12:36:56Z</time>
      </trkpt>
      <trkpt lat="46.76243" lon="4.76526">
        <ele>190.009432</ele>
        <time>2011-02-19T12:37:00Z</time>
      </trkpt>
      <trkpt lat="46.76253" lon="4.76517">
        <ele>190.360914</ele>
        <time>2011-02-19T12:37:04Z</time>
      </trkpt>
      <trkpt lat="46.76262" lon="4.76508">
        <ele>190.791309</ele>
        <time>2011-02-19T12:37:07Z</time>
      </trkpt>
      <trkpt lat="46.76271" lon="4.76501">
        <ele>191.226265</ele>
        <time>2011-02-19T12:37:10Z</time>
      </trkpt>
      <trkpt lat="46.7628" lon="4.76492">
        <ele>191.547208</ele>
        <time>2011-02-19T12:37:14Z</time>
      </trkpt>
      <trkpt lat="46.76289" lon="4.76483">
        <ele>191.724113</ele>
        <time>2011-02-19T12:37:18Z</time>
      </trkpt>
      <trkpt lat="46.76297" lon="4.76476">
        <ele>191.839714</ele>
        <time>2011-02-19T12:37:21Z</time>
      </trkpt>
      <trkpt lat="46.76305" lon="4.76469">
        <ele>192.024912</ele>
        <time>2011-02-19T12:37:24Z</time>
      </trkpt>
      <trkpt lat="46.76315" lon="4.76462">
        <ele>192.372628</ele>
        <time>2011-02-19T12:37:27Z</time>
      </trkpt>
      <trkpt lat="46.76326" lon="4.76455">
        <ele>192.82569</ele>
        <time>2011-02-19T12:37:30Z</time>
      </trkpt>
      <trkpt lat="46.76337" lon="4.76447">
        <ele>193.266005</ele>
        <time>2011-02-19T12:37:33Z</time>
      </trkpt>
      <trkpt lat="46.76348" lon="4.76439">
        <ele>193.663807</ele>
        <time>2011-02-19T12:37:36Z</time>
      </trkpt>
      <trkpt lat="46.76357" lon="4.76431">
        <ele>194.070226</ele>
        <time>2011-02-19T12:37:39Z</time>
      </trkpt>
      <trkpt lat="46.76366" lon="4.76423">
        <ele>194.543052</ele>
        <time>2011-02-19T12:37:42Z</time>
      </trkpt>
      <trkpt lat="46.76375" lon="4.76415">
        <ele>195.109571</ele>
        <time>2011-02-19T12:37:45Z</time>
      </trkpt>
      <trkpt lat="46.76384" lon="4.76408">
        <ele>195.732111</ele>
        <time>2011-02-19T12:37:48Z</time>
      </trkpt>
      <trkpt lat="46.76392" lon="4.764">
        <ele>196.339591</ele>
        <time>2011-02-19T12:37:51Z</time>
      </trkpt>
      <trkpt lat="46.764" lon="4.76393">
        <ele>196.893026</ele>
        <time>2011-02-19T12:37:54Z</time>
      </trkpt>
      <trkpt lat="46.7641" lon="4.76384">
        <ele>197.406384</ele>
        <time>2011-02-19T12:37:57Z</time>
      </trkpt>
      <trkpt lat="46.76419" lon="4.76376">
        <ele>197.838574</ele>
        <time>2011-02-19T12:38:00Z</time>
      </trkpt>
      <trkpt lat="46.76428" lon="4.7637">
        <ele>198.089761</ele>
        <time>2011-02-19T12:38:03Z</time>
      </trkpt>
      <trkpt lat="46.76436" lon="4.76362">
        <ele>198.155503</ele>
        <time>2011-02-19T12:38:06Z</time>
      </trkpt>
      <trkpt lat="46.76445" lon="4.76353">
        <ele>198.126541</ele>
        <time>2011-02-19T12:38:09Z</time>
      </trkpt>
      <trkpt lat="46.76453" lon="4.76346">
        <ele>198.04082</ele>
        <time>2011-02-19T12:38:12Z</time>
      </trkpt>
      <trkpt lat="46.76461" lon="4.76335">
        <ele>197.873473</ele>
        <time>2011-02-19T12:38:15Z</time>
      </trkpt>
      <trkpt lat="46.76468" lon="4.76328">
        <ele>197.64826</ele>
        <time>2011-02-19T12:38:18Z</time>
      </trkpt>
      <trkpt lat="46.7648" lon="4.76324">
        <ele>197.460313</ele>
        <time>2011-02-19T12:38:21Z</time>
      </trkpt>
      <trkpt lat="46.7649" lon="4.76319">
        <ele>197.31184</ele>
        <time>2011-02-19T12:38:25Z</time>
      </trkpt>
      <trkpt lat="46.76499" lon="4.76313">
        <ele>197.043477</ele>
        <time>2011-02-19T12:38:31Z</time>
      </trkpt>
      <trkpt lat="46.76499" lon="4.76313">
        <ele>196.632943</ele>
        <time>2011-02-19T12:38:32Z</time>
      </trkpt>
      <trkpt lat="46.76475" lon="4.76293">
        <ele>196.29419</ele>
        <time>2011-02-19T12:39:19Z</time>
      </trkpt>
      <trkpt lat="46.7647" lon="4.76279">
        <ele>196.15643</ele>
        <time>2011-02-19T12:39:25Z</time>
      </trkpt>
      <trkpt lat="46.76469" lon="4.76266">
        <ele>196.232352</ele>
        <time>2011-02-19T12:39:31Z</time>
      </trkpt>
      <trkpt lat="46.76463" lon="4.76253">
        <ele>196.583676</ele>
        <time>2011-02-19T12:39:36Z</time>
      </trkpt>
      <trkpt lat="46.76459" lon="4.7624">
        <ele>197.140596</ele>
        <time>2011-02-19T12:39:42Z</time>
      </trkpt>
      <trkpt lat="46.76454" lon="4.76229">
        <ele>197.665252</ele>
        <time>2011-02-19T12:39:48Z</time>
      </trkpt>
      <trkpt lat="46.76448" lon="4.76217">
        <ele>197.997221</ele>
        <time>2011-02-19T12:39:52Z</time>
      </trkpt>
      <trkpt lat="46.76443" lon="4.76201">
        <ele>198.138087</ele>
        <time>2011-02-19T12:39:56Z</time>
      </trkpt>
      <trkpt lat="46.76436" lon="4.76188">
        <ele>198.168608</ele>
        <time>2011-02-19T12:40:00Z</time>
      </trkpt>
      <trkpt lat="46.7643" lon="4.76176">
        <ele>198.185797</ele>
        <time>2011-02-19T12:40:04Z</time>
      </trkpt>
      <trkpt lat="46.76425" lon="4.76161">
        <ele>198.272519</ele>
        <time>2011-02-19T12:40:08Z</time>
      </trkpt>
      <trkpt lat="46.7642" lon="4.76146">
        <ele>198.427174</ele>
        <time>2011-02-19T12:40:12Z</time>
      </trkpt>
      <trkpt lat="46.76416" lon="4.76129">
        <ele>198.561969</ele>
        <time>2011-02-19T12:40:16Z</time>
      </trkpt>
      <trkpt lat="46.76412" lon="4.76116">
        <ele>198.627942</ele>
        <time>2011-02-19T12:40:20Z</time>
      </trkpt>
      <trkpt lat="46.76409" lon="4.76101">
        <ele>198.65124</ele>
        <time>2011-02-19T12:40:25Z</time>
      </trkpt>
      <trkpt lat="46.76406" lon="4.76088">
        <ele>198.663482</ele>
        <time>2011-02-19T12:40:28Z</time>
      </trkpt>
      <trkpt lat="46.764" lon="4.76074">
        <ele>198.687828</ele>
        <time>2011-02-19T12:40:31Z</time>
      </trkpt>
      <trkpt lat="46.76393" lon="4.7606">
        <ele>198.72411</ele>
        <time>2011-02-19T12:40:34Z</time>
      </trkpt>
      <trkpt lat="46.76386" lon="4.7605">
        <ele>198.751994</ele>
        <time>2011-02-19T12:40:37Z</time>
      </trkpt>
      <trkpt lat="46.7638" lon="4.76037">
        <ele>198.762625</ele>
        <time>2011-02-19T12:40:41Z</time>
      </trkpt>
      <trkpt lat="46.7638" lon="4.76037">
        <ele>198.731809</ele>
        <time>2011-02-19T12:40:45Z</time>
      </trkpt>
      <trkpt lat="46.76366" lon="4.75993">
        <ele>198.648429</ele>
        <time>2011-02-19T12:41:17Z</time>
      </trkpt>
      <trkpt lat="46.76363" lon="4.7598">
        <ele>198.555712</ele>
        <time>2011-02-19T12:41:21Z</time>
      </trkpt>
      <trkpt lat="46.76361" lon="4.75966">
        <ele>198.485789</ele>
        <time>2011-02-19T12:41:25Z</time>
      </trkpt>
      <trkpt lat="46.76356" lon="4.75952">
        <ele>198.429702</ele>
        <time>2011-02-19T12:41:29Z</time>
      </trkpt>
      <trkpt lat="46.76352" lon="4.75939">
        <ele>198.381955</ele>
        <time>2011-02-19T12:41:33Z</time>
      </trkpt>
      <trkpt lat="46.7635" lon="4.75925">
        <ele>198.29828</ele>
        <time>2011-02-19T12:41:37Z</time>
      </trkpt>
      <trkpt lat="46.76345" lon="4.75911">
        <ele>198.068492</ele>
        <time>2011-02-19T12:41:41Z</time>
      </trkpt>
      <trkpt lat="46.76339" lon="4.75897">
        <ele>197.641461</ele>
        <time>2011-02-19T12:41:45Z</time>
      </trkpt>
      <trkpt lat="46.76335" lon="4.75885">
        <ele>197.129788</ele>
        <time>2011-02-19T12:41:48Z</time>
      </trkpt>
      <trkpt lat="46.7633" lon="4.75872">
        <ele>196.705876</ele>
        <time>2011-02-19T12:41:52Z</time>
      </trkpt>
      <trkpt lat="46.76324" lon="4.75859">
        <ele>196.461457</ele>
        <time>2011-02-19T12:41:57Z</time>
      </trkpt>
      <trkpt lat="46.76318" lon="4.75847">
        <ele>196.382306</ele>
        <time>2011-02-19T12:42:01Z</time>
      </trkpt>
      <trkpt lat="46.76312" lon="4.75835">
        <ele>196.392428</ele>
        <time>2011-02-19T12:42:05Z</time>
      </trkpt>
      <trkpt lat="46.76307" lon="4.75823">
        <ele>196.454</ele>
        <time>2011-02-19T12:42:09Z</time>
      </trkpt>
      <trkpt lat="46.76303" lon="4.75808">
        <ele>196.588401</ele>
        <time>2011-02-19T12:42:13Z</time>
      </trkpt>
      <trkpt lat="46.76298" lon="4.75793">
        <ele>196.787796</ele>
        <time>2011-02-19T12:42:17Z</time>
      </trkpt>
      <trkpt lat="46.76293" lon="4.7578">
        <ele>197.001395</ele>
        <time>2011-02-19T12:42:20Z</time>
      </trkpt>
      <trkpt lat="46.76291" lon="4.75767">
        <ele>197.216294</ele>
        <time>2011-02-19T12:42:23Z</time>
      </trkpt>
      <trkpt lat="46.76287" lon="4.75753">
        <ele>197.443256</ele>
        <time>2011-02-19T12:42:26Z</time>
      </trkpt>
      <trkpt lat="46.76282" lon="4.7574">
        <ele>197.663333</ele>
        <time>2011-02-19T12:42:29Z</time>
      </trkpt>
      <trkpt lat="46.76275" lon="4.75729">
        <ele>197.840646</ele>
        <time>2011-02-19T12:42:32Z</time>
      </trkpt>
      <trkpt lat="46.76269" lon="4.75715">
        <ele>197.972385</ele>
        <time>2011-02-19T12:42:36Z</time>
      </trkpt>
      <trkpt lat="46.76264" lon="4.75701">
        <ele>198.086154</ele>
        <time>2011-02-19T12:42:40Z</time>
      </trkpt>
      <trkpt lat="46.76261" lon="4.75685">
        <ele>198.202798</ele>
        <time>2011-02-19T12:42:44Z</time>
      </trkpt>
      <trkpt lat="46.76259" lon="4.7567">
        <ele>198.32188</ele>
        <time>2011-02-19T12:42:48Z</time>
      </trkpt>
      <trkpt lat="46.76258" lon="4.75658">
        <ele>198.461279</ele>
        <time>2011-02-19T12:42:52Z</time>
      </trkpt>
      <trkpt lat="46.76257" lon="4.75643">
        <ele>198.669947</ele>
        <time>2011-02-19T12:42:57Z</time>
      </trkpt>
      <trkpt lat="46.76264" lon="4.75635">
        <ele>198.977129</ele>
        <time>2011-02-19T12:43:03Z</time>
      </trkpt>
      <trkpt lat="46.76266" lon="4.75619">
        <ele>199.372769</ele>
        <time>2011-02-19T12:43:09Z</time>
      </trkpt>
      <trkpt lat="46.76265" lon="4.75604">
        <ele>199.775892</ele>
        <time>2011-02-19T12:43:12Z</time>
      </trkpt>
      <trkpt lat="46.76262" lon="4.75591">
        <ele>200.0516</ele>
        <time>2011-02-19T12:43:15Z</time>
      </trkpt>
      <trkpt lat="46.76257" lon="4.75579">
        <ele>200.151548</ele>
        <time>2011-02-19T12:43:19Z</time>
      </trkpt>
      <trkpt lat="46.7625" lon="4.75569">
        <ele>200.148149</ele>
        <time>2011-02-19T12:43:23Z</time>
      </trkpt>
      <trkpt lat="46.76243" lon="4.75557">
        <ele>200.117116</ele>
        <time>2011-02-19T12:43:28Z</time>
      </trkpt>
      <trkpt lat="46.7624" lon="4.75544">
        <ele>200.094749</ele>
        <time>2011-02-19T12:43:32Z</time>
      </trkpt>
      <trkpt lat="46.76236" lon="4.75529">
        <ele>200.086771</ele>
        <time>2011-02-19T12:43:36Z</time>
      </trkpt>
      <trkpt lat="46.76239" lon="4.75515">
        <ele>200.156228</ele>
        <time>2011-02-19T12:43:42Z</time>
      </trkpt>
      <trkpt lat="46.76244" lon="4.75501">
        <ele>200.350344</ele>
        <time>2011-02-19T12:43:49Z</time>
      </trkpt>
      <trkpt lat="46.76251" lon="4.75491">
        <ele>200.567156</ele>
        <time>2011-02-19T12:43:55Z</time>
      </trkpt>
      <trkpt lat="46.76259" lon="4.75481">
        <ele>200.686515</ele>
        <time>2011-02-19T12:44:01Z</time>
      </trkpt>
      <trkpt lat="46.76267" lon="4.75473">
        <ele>200.714494</ele>
        <time>2011-02-19T12:44:06Z</time>
      </trkpt>
      <trkpt lat="46.76276" lon="4.75467">
        <ele>200.577898</ele>
        <time>2011-02-19T12:44:10Z</time>
      </trkpt>
      <trkpt lat="46.76285" lon="4.75461">
        <ele>200.111233</ele>
        <time>2011-02-19T12:44:14Z</time>
      </trkpt>
      <trkpt lat="46.76295" lon="4.75456">
        <ele>199.327037</ele>
        <time>2011-02-19T12:44:18Z</time>
      </trkpt>
      <trkpt lat="46.76304" lon="4.75452">
        <ele>198.436544</ele>
        <time>2011-02-19T12:44:21Z</time>
      </trkpt>
      <trkpt lat="46.76312" lon="4.75446">
        <ele>197.595383</ele>
        <time>2011-02-19T12:44:25Z</time>
      </trkpt>
      <trkpt lat="46.76322" lon="4.75439">
        <ele>196.833361</ele>
        <time>2011-02-19T12:44:31Z</time>
      </trkpt>
      <trkpt lat="46.76322" lon="4.75439">
        <ele>196.218205</ele>
        <time>2011-02-19T12:44:49Z</time>
      </trkpt>
      <trkpt lat="46.76307" lon="4.75456">
        <ele>195.875871</ele>
        <time>2011-02-19T12:45:34Z</time>
      </trkpt>
      <trkpt lat="46.76298" lon="4.75464">
        <ele>195.79372</ele>
        <time>2011-02-19T12:45:41Z</time>
      </trkpt>
      <trkpt lat="46.76289" lon="4.75469">
        <ele>195.926615</ele>
        <time>2011-02-19T12:45:48Z</time>
      </trkpt>
      <trkpt lat="46.7628" lon="4.75477">
        <ele>196.648732</ele>
        <time>2011-02-19T12:45:55Z</time>
      </trkpt>
      <trkpt lat="46.76272" lon="4.75481">
        <ele>198.158669</ele>
        <time>2011-02-19T12:46:02Z</time>
      </trkpt>
      <trkpt lat="46.76263" lon="4.75488">
        <ele>199.886662</ele>
        <time>2011-02-19T12:46:11Z</time>
      </trkpt>
      <trkpt lat="46.76255" lon="4.75495">
        <ele>201.237064</ele>
        <time>2011-02-19T12:46:18Z</time>
      </trkpt>
      <trkpt lat="46.76248" lon="4.75502">
        <ele>202.134658</ele>
        <time>2011-02-19T12:46:24Z</time>
      </trkpt>
      <trkpt lat="46.7624" lon="4.7551">
        <ele>202.689585</ele>
        <time>2011-02-19T12:46:31Z</time>
      </trkpt>
      <trkpt lat="46.7624" lon="4.7551">
        <ele>203.021735</ele>
        <time>2011-02-19T12:46:47Z</time>
      </trkpt>
      <trkpt lat="46.76249" lon="4.75554">
        <ele>203.209167</ele>
        <time>2011-02-19T12:47:15Z</time>
      </trkpt>
      <trkpt lat="46.76255" lon="4.75566">
        <ele>203.318696</ele>
        <time>2011-02-19T12:47:20Z</time>
      </trkpt>
      <trkpt lat="46.76261" lon="4.75578">
        <ele>203.381782</ele>
        <time>2011-02-19T12:47:25Z</time>
      </trkpt>
      <trkpt lat="46.76267" lon="4.7559">
        <ele>203.301061</ele>
        <time>2011-02-19T12:47:30Z</time>
      </trkpt>
      <trkpt lat="46.76275" lon="4.75597">
        <ele>203.012159</ele>
        <time>2011-02-19T12:47:36Z</time>
      </trkpt>
      <trkpt lat="46.76284" lon="4.75594">
        <ele>202.588855</ele>
        <time>2011-02-19T12:47:41Z</time>
      </trkpt>
      <trkpt lat="46.76294" lon="4.7559">
        <ele>202.097044</ele>
        <time>2011-02-19T12:47:47Z</time>
      </trkpt>
      <trkpt lat="46.76303" lon="4.75585">
        <ele>201.520448</ele>
        <time>2011-02-19T12:47:52Z</time>
      </trkpt>
      <trkpt lat="46.76312" lon="4.75579">
        <ele>200.794569</ele>
        <time>2011-02-19T12:47:58Z</time>
      </trkpt>
      <trkpt lat="46.7632" lon="4.75572">
        <ele>199.768825</ele>
        <time>2011-02-19T12:48:04Z</time>
      </trkpt>
      <trkpt lat="46.76328" lon="4.75568">
        <ele>198.4247</ele>
        <time>2011-02-19T12:48:10Z</time>
      </trkpt>
      <trkpt lat="46.76337" lon="4.75561">
        <ele>196.893967</ele>
        <time>2011-02-19T12:48:16Z</time>
      </trkpt>
      <trkpt lat="46.76344" lon="4.75552">
        <ele>195.233653</ele>
        <time>2011-02-19T12:48:23Z</time>
      </trkpt>
      <trkpt lat="46.76352" lon="4.75543">
        <ele>193.53991</ele>
        <time>2011-02-19T12:48:30Z</time>
      </trkpt>
      <trkpt lat="46.7636" lon="4.75537">
        <ele>192.17531</ele>
        <time>2011-02-19T12:48:39Z</time>
      </trkpt>
      <trkpt lat="46.7637" lon="4.75531">
        <ele>191.440887</ele>
        <time>2011-02-19T12:48:44Z</time>
      </trkpt>
      <trkpt lat="46.76379" lon="4.75525">
        <ele>191.229974</ele>
        <time>2011-02-19T12:48:48Z</time>
      </trkpt>
      <trkpt lat="46.76389" lon="4.75521">
        <ele>191.230589</ele>
        <time>2011-02-19T12:48:53Z</time>
      </trkpt>
      <trkpt lat="46.76399" lon="4.75517">
        <ele>191.257121</ele>
        <time>2011-02-19T12:48:58Z</time>
      </trkpt>
      <trkpt lat="46.76409" lon="4.75513">
        <ele>191.24474</ele>
        <time>2011-02-19T12:49:02Z</time>
      </trkpt>
      <trkpt lat="46.76419" lon="4.75509">
        <ele>191.124616</ele>
        <time>2011-02-19T12:49:05Z</time>
      </trkpt>
      <trkpt lat="46.76427" lon="4.75514">
        <ele>190.894956</ele>
        <time>2011-02-19T12:49:19Z</time>
      </trkpt>
      <trkpt lat="46.76434" lon="4.75525">
        <ele>190.69012</ele>
        <time>2011-02-19T12:49:24Z</time>
      </trkpt>
      <trkpt lat="46.7644" lon="4.75537">
        <ele>190.601526</ele>
        <time>2011-02-19T12:49:27Z</time>
      </trkpt>
      <trkpt lat="46.76446" lon="4.75551">
        <ele>190.616529</ele>
        <time>2011-02-19T12:49:30Z</time>
      </trkpt>
      <trkpt lat="46.76451" lon="4.75566">
        <ele>190.817377</ele>
        <time>2011-02-19T12:49:33Z</time>
      </trkpt>
      <trkpt lat="46.76455" lon="4.75584">
        <ele>191.299226</ele>
        <time>2011-02-19T12:49:36Z</time>
      </trkpt>
      <trkpt lat="46.76461" lon="4.75605">
        <ele>191.99091</ele>
        <time>2011-02-19T12:49:38Z</time>
      </trkpt>
      <trkpt lat="46.76467" lon="4.75626">
        <ele>192.770273</ele>
        <time>2011-02-19T12:49:41Z</time>
      </trkpt>
      <trkpt lat="46.7647" lon="4.75643">
        <ele>194.006511</ele>
        <time>2011-02-19T12:49:44Z</time>
      </trkpt>
      <trkpt lat="46.7647" lon="4.75643">
        <ele>195.806654</ele>
        <time>2011-02-19T12:49:47Z</time>
      </trkpt>
      <trkpt lat="46.76455" lon="4.75664">
        <ele>197.522992</ele>
        <time>2011-02-19T12:49:52Z</time>
      </trkpt>
      <trkpt lat="46.76452" lon="4.75677">
        <ele>198.649718</ele>
        <time>2011-02-19T12:49:55Z</time>
      </trkpt>
      <trkpt lat="46.7645" lon="4.7569">
        <ele>199.196338</ele>
        <time>2011-02-19T12:49:58Z</time>
      </trkpt>
      <trkpt lat="46.76446" lon="4.75706">
        <ele>199.250744</ele>
        <time>2011-02-19T12:50:02Z</time>
      </trkpt>
      <trkpt lat="46.76446" lon="4.75706">
        <ele>199.069948</ele>
        <time>2011-02-19T12:50:05Z</time>
      </trkpt>
      <trkpt lat="46.7644" lon="4.75762">
        <ele>198.82895</ele>
        <time>2011-02-19T12:50:11Z</time>
      </trkpt>
      <trkpt lat="46.76441" lon="4.7578">
        <ele>198.653252</ele>
        <time>2011-02-19T12:50:14Z</time>
      </trkpt>
      <trkpt lat="46.76446" lon="4.7582">
        <ele>198.635787</ele>
        <time>2011-02-19T12:50:23Z</time>
      </trkpt>
      <trkpt lat="46.76448" lon="4.75833">
        <ele>198.755132</ele>
        <time>2011-02-19T12:50:27Z</time>
      </trkpt>
      <trkpt lat="46.76452" lon="4.75874">
        <ele>198.907203</ele>
        <time>2011-02-19T12:50:44Z</time>
      </trkpt>
      <trkpt lat="46.76453" lon="4.75888">
        <ele>199.287658</ele>
        <time>2011-02-19T12:50:52Z</time>
      </trkpt>
      <trkpt lat="46.76448" lon="4.75904">
        <ele>200.116169</ele>
        <time>2011-02-19T12:50:57Z</time>
      </trkpt>
      <trkpt lat="46.76447" lon="4.7592">
        <ele>201.150811</ele>
        <time>2011-02-19T12:51:02Z</time>
      </trkpt>
      <trkpt lat="46.76446" lon="4.75936">
        <ele>201.942642</ele>
        <time>2011-02-19T12:51:06Z</time>
      </trkpt>
      <trkpt lat="46.76445" lon="4.75949">
        <ele>202.384896</ele>
        <time>2011-02-19T12:51:10Z</time>
      </trkpt>
      <trkpt lat="46.76441" lon="4.75963">
        <ele>202.640727</ele>
        <time>2011-02-19T12:51:16Z</time>
      </trkpt>
      <trkpt lat="46.7644" lon="4.75978">
        <ele>202.876817</ele>
        <time>2011-02-19T12:51:22Z</time>
      </trkpt>
      <trkpt lat="46.76437" lon="4.75991">
        <ele>203.113147</ele>
        <time>2011-02-19T12:51:26Z</time>
      </trkpt>
      <trkpt lat="46.76436" lon="4.76005">
        <ele>203.353844</ele>
        <time>2011-02-19T12:51:31Z</time>
      </trkpt>
      <trkpt lat="46.76439" lon="4.76017">
        <ele>203.625304</ele>
        <time>2011-02-19T12:51:39Z</time>
      </trkpt>
      <trkpt lat="46.76439" lon="4.76017">
        <ele>203.888951</ele>
        <time>2011-02-19T12:51:51Z</time>
      </trkpt>
      <trkpt lat="46.76439" lon="4.76017">
        <ele>204.054561</ele>
        <time>2011-02-19T12:52:10Z</time>
      </trkpt>
      <trkpt lat="46.76432" lon="4.76061">
        <ele>204.103975</ele>
        <time>2011-02-19T12:53:58Z</time>
      </trkpt>
      <trkpt lat="46.76425" lon="4.76071">
        <ele>204.038004</ele>
        <time>2011-02-19T12:54:04Z</time>
      </trkpt>
      <trkpt lat="46.76418" lon="4.76081">
        <ele>203.834249</ele>
        <time>2011-02-19T12:54:11Z</time>
      </trkpt>
      <trkpt lat="46.76416" lon="4.76096">
        <ele>203.406058</ele>
        <time>2011-02-19T12:54:20Z</time>
      </trkpt>
      <trkpt lat="46.76423" lon="4.76105">
        <ele>202.71419</ele>
        <time>2011-02-19T12:54:30Z</time>
      </trkpt>
      <trkpt lat="46.76432" lon="4.76107">
        <ele>201.954677</ele>
        <time>2011-02-19T12:54:42Z</time>
      </trkpt>
      <trkpt lat="46.76443" lon="4.76115">
        <ele>201.346021</ele>
        <time>2011-02-19T12:54:55Z</time>
      </trkpt>
      <trkpt lat="46.76452" lon="4.76121">
        <ele>200.791216</ele>
        <time>2011-02-19T12:55:02Z</time>
      </trkpt>
      <trkpt lat="46.76461" lon="4.76132">
        <ele>199.907661</ele>
        <time>2011-02-19T12:55:12Z</time>
      </trkpt>
      <trkpt lat="46.76466" lon="4.76147">
        <ele>198.682222</ele>
        <time>2011-02-19T12:55:18Z</time>
      </trkpt>
      <trkpt lat="46.7646" lon="4.76164">
        <ele>197.700766</ele>
        <time>2011-02-19T12:55:34Z</time>
      </trkpt>
      <trkpt lat="46.76451" lon="4.76169">
        <ele>197.311901</ele>
        <time>2011-02-19T12:55:42Z</time>
      </trkpt>
      <trkpt lat="46.76444" lon="4.76177">
        <ele>197.333725</ele>
        <time>2011-02-19T12:55:48Z</time>
      </trkpt>
      <trkpt lat="46.76444" lon="4.76177">
        <ele>197.525031</ele>
        <time>2011-02-19T12:56:02Z</time>
      </trkpt>
      <trkpt lat="46.76421" lon="4.76154">
        <ele>197.744581</ele>
        <time>2011-02-19T12:56:43Z</time>
      </trkpt>
      <trkpt lat="46.76416" lon="4.76141">
        <ele>197.977638</ele>
        <time>2011-02-19T12:56:51Z</time>
      </trkpt>
      <trkpt lat="46.76412" lon="4.76127">
        <ele>198.225313</ele>
        <time>2011-02-19T12:56:56Z</time>
      </trkpt>
      <trkpt lat="46.76407" lon="4.76115">
        <ele>198.613493</ele>
        <time>2011-02-19T12:57:01Z</time>
      </trkpt>
      <trkpt lat="46.76403" lon="4.761">
        <ele>199.46115</ele>
        <time>2011-02-19T12:57:07Z</time>
      </trkpt>
      <trkpt lat="46.764" lon="4.76087">
        <ele>200.762203</ele>
        <time>2011-02-19T12:57:11Z</time>
      </trkpt>
      <trkpt lat="46.76395" lon="4.76074">
        <ele>202.05258</ele>
        <time>2011-02-19T12:57:15Z</time>
      </trkpt>
      <trkpt lat="46.7639" lon="4.76062">
        <ele>202.999168</ele>
        <time>2011-02-19T12:57:20Z</time>
      </trkpt>
      <trkpt lat="46.76384" lon="4.76052">
        <ele>203.612475</ele>
        <time>2011-02-19T12:57:25Z</time>
      </trkpt>
      <trkpt lat="46.7638" lon="4.76039">
        <ele>204.006979</ele>
        <time>2011-02-19T12:57:31Z</time>
      </trkpt>
      <trkpt lat="46.76376" lon="4.76028">
        <ele>204.273692</ele>
        <time>2011-02-19T12:57:36Z</time>
      </trkpt>
      <trkpt lat="46.7637" lon="4.76012">
        <ele>204.445632</ele>
        <time>2011-02-19T12:57:45Z</time>
      </trkpt>
      <trkpt lat="46.76366" lon="4.75999">
        <ele>204.537782</ele>
        <time>2011-02-19T12:57:51Z</time>
      </trkpt>
      <trkpt lat="46.76362" lon="4.75987">
        <ele>204.62516</ele>
        <time>2011-02-19T12:57:55Z</time>
      </trkpt>
      <trkpt lat="46.76357" lon="4.75975">
        <ele>204.836317</ele>
        <time>2011-02-19T12:58:00Z</time>
      </trkpt>
      <trkpt lat="46.76352" lon="4.75963">
        <ele>205.219114</ele>
        <time>2011-02-19T12:58:05Z</time>
      </trkpt>
      <trkpt lat="46.76348" lon="4.7595">
        <ele>205.633744</ele>
        <time>2011-02-19T12:58:10Z</time>
      </trkpt>
      <trkpt lat="46.76344" lon="4.75935">
        <ele>205.898052</ele>
        <time>2011-02-19T12:58:15Z</time>
      </trkpt>
      <trkpt lat="46.76339" lon="4.75919">
        <ele>205.985047</ele>
        <time>2011-02-19T12:58:19Z</time>
      </trkpt>
      <trkpt lat="46.76334" lon="4.75906">
        <ele>205.99867</ele>
        <time>2011-02-19T12:58:22Z</time>
      </trkpt>
      <trkpt lat="46.7633" lon="4.75893">
        <ele>206.02571</ele>
        <time>2011-02-19T12:58:25Z</time>
      </trkpt>
      <trkpt lat="46.76326" lon="4.75878">
        <ele>206.065089</ele>
        <time>2011-02-19T12:58:29Z</time>
      </trkpt>
      <trkpt lat="46.76322" lon="4.75865">
        <ele>206.10394</ele>
        <time>2011-02-19T12:58:33Z</time>
      </trkpt>
      <trkpt lat="46.76317" lon="4.75851">
        <ele>206.170591</ele>
        <time>2011-02-19T12:58:38Z</time>
      </trkpt>
      <trkpt lat="46.76313" lon="4.75839">
        <ele>206.29112</ele>
        <time>2011-02-19T12:58:43Z</time>
      </trkpt>
      <trkpt lat="46.76308" lon="4.75827">
        <ele>206.466182</ele>
        <time>2011-02-19T12:58:48Z</time>
      </trkpt>
      <trkpt lat="46.76303" lon="4.75813">
        <ele>206.664207</ele>
        <time>2011-02-19T12:58:52Z</time>
      </trkpt>
      <trkpt lat="46.76297" lon="4.75799">
        <ele>206.828596</ele>
        <time>2011-02-19T12:58:55Z</time>
      </trkpt>
      <trkpt lat="46.7629" lon="4.75783">
        <ele>206.920606</ele>
        <time>2011-02-19T12:58:58Z</time>
      </trkpt>
      <trkpt lat="46.76279" lon="4.75755">
        <ele>206.946535</ele>
        <time>2011-02-19T12:59:01Z</time>
      </trkpt>
      <trkpt lat="46.76271" lon="4.75733">
        <ele>206.936238</ele>
        <time>2011-02-19T12:59:04Z</time>
      </trkpt>
      <trkpt lat="46.76267" lon="4.75719">
        <ele>206.898338</ele>
        <time>2011-02-19T12:59:06Z</time>
      </trkpt>
      <trkpt lat="46.76261" lon="4.75704">
        <ele>206.477937</ele>
        <time>2011-02-19T12:59:08Z</time>
      </trkpt>
      <trkpt lat="46.76253" lon="4.75683">
        <ele>205.487013</ele>
        <time>2011-02-19T12:59:11Z</time>
      </trkpt>
      <trkpt lat="46.76249" lon="4.75671">
        <ele>204.50029</ele>
        <time>2011-02-19T12:59:13Z</time>
      </trkpt>
      <trkpt lat="46.76249" lon="4.75671">
        <ele>204.040644</ele>
        <time>2011-02-19T12:59:15Z</time>
      </trkpt>
      <trkpt lat="46.7625" lon="4.75623">
        <ele>203.976145</ele>
        <time>2011-02-19T12:59:33Z</time>
      </trkpt>
      <trkpt lat="46.7625" lon="4.75623">
        <ele>204.058608</ele>
        <time>2011-02-19T12:59:36Z</time>
      </trkpt>
      <trkpt lat="46.7628" lon="4.75604">
        <ele>204.138994</ele>
        <time>2011-02-19T12:59:47Z</time>
      </trkpt>
      <trkpt lat="46.76288" lon="4.75596">
        <ele>204.117304</ele>
        <time>2011-02-19T12:59:51Z</time>
      </trkpt>
      <trkpt lat="46.76296" lon="4.75586">
        <ele>203.87781</ele>
        <time>2011-02-19T12:59:56Z</time>
      </trkpt>
      <trkpt lat="46.76305" lon="4.75581">
        <ele>203.388206</ele>
        <time>2011-02-19T13:00:01Z</time>
      </trkpt>
      <trkpt lat="46.76314" lon="4.75574">
        <ele>202.765655</ele>
        <time>2011-02-19T13:00:05Z</time>
      </trkpt>
      <trkpt lat="46.76324" lon="4.75567">
        <ele>202.145846</ele>
        <time>2011-02-19T13:00:08Z</time>
      </trkpt>
      <trkpt lat="46.76333" lon="4.7556">
        <ele>201.595715</ele>
        <time>2011-02-19T13:00:11Z</time>
      </trkpt>
      <trkpt lat="46.76343" lon="4.75553">
        <ele>201.137323</ele>
        <time>2011-02-19T13:00:14Z</time>
      </trkpt>
      <trkpt lat="46.76354" lon="4.75538">
        <ele>200.806313</ele>
        <time>2011-02-19T13:00:17Z</time>
      </trkpt>
      <trkpt lat="46.76363" lon="4.75528">
        <ele>200.638981</ele>
        <time>2011-02-19T13:00:19Z</time>
      </trkpt>
      <trkpt lat="46.76383" lon="4.7552">
        <ele>200.605085</ele>
        <time>2011-02-19T13:00:22Z</time>
      </trkpt>
      <trkpt lat="46.76392" lon="4.75516">
        <ele>200.607719</ele>
        <time>2011-02-19T13:00:24Z</time>
      </trkpt>
      <trkpt lat="46.76402" lon="4.75511">
        <ele>200.588919</ele>
        <time>2011-02-19T13:00:27Z</time>
      </trkpt>
      <trkpt lat="46.7641" lon="4.75507">
        <ele>200.529837</ele>
        <time>2011-02-19T13:00:30Z</time>
      </trkpt>
      <trkpt lat="46.7641" lon="4.75507">
        <ele>200.432311</ele>
        <time>2011-02-19T13:00:33Z</time>
      </trkpt>
      <trkpt lat="46.7643" lon="4.75495">
        <ele>200.317916</ele>
        <time>2011-02-19T13:00:38Z</time>
      </trkpt>
      <trkpt lat="46.76439" lon="4.7549">
        <ele>200.169084</ele>
        <time>2011-02-19T13:00:41Z</time>
      </trkpt>
      <trkpt lat="46.76447" lon="4.75483">
        <ele>199.940106</ele>
        <time>2011-02-19T13:00:44Z</time>
      </trkpt>
      <trkpt lat="46.76456" lon="4.75477">
        <ele>199.667831</ele>
        <time>2011-02-19T13:00:47Z</time>
      </trkpt>
      <trkpt lat="46.76456" lon="4.75477">
        <ele>199.450536</ele>
        <time>2011-02-19T13:00:49Z</time>
      </trkpt>
      <trkpt lat="46.76456" lon="4.75499">
        <ele>199.306715</ele>
        <time>2011-02-19T13:01:06Z</time>
      </trkpt>
      <trkpt lat="46.76453" lon="4.75513">
        <ele>199.175322</ele>
        <time>2011-02-19T13:01:10Z</time>
      </trkpt>
      <trkpt lat="46.76453" lon="4.75513">
        <ele>199.045763</ele>
        <time>2011-02-19T13:01:12Z</time>
      </trkpt>
      <trkpt lat="46.76444" lon="4.75557">
        <ele>198.956927</ele>
        <time>2011-02-19T13:01:21Z</time>
      </trkpt>
      <trkpt lat="46.76445" lon="4.75571">
        <ele>198.850356</ele>
        <time>2011-02-19T13:01:24Z</time>
      </trkpt>
      <trkpt lat="46.76445" lon="4.75571">
        <ele>198.671912</ele>
        <time>2011-02-19T13:01:25Z</time>
      </trkpt>
      <trkpt lat="46.76445" lon="4.75594">
        <ele>198.448909</ele>
        <time>2011-02-19T13:01:29Z</time>
      </trkpt>
      <trkpt lat="46.76447" lon="4.75615">
        <ele>198.039093</ele>
        <time>2011-02-19T13:01:32Z</time>
      </trkpt>
      <trkpt lat="46.7645" lon="4.75634">
        <ele>197.330183</ele>
        <time>2011-02-19T13:01:35Z</time>
      </trkpt>
      <trkpt lat="46.76453" lon="4.75648">
        <ele>196.538269</ele>
        <time>2011-02-19T13:01:38Z</time>
      </trkpt>
      <trkpt lat="46.76453" lon="4.75648">
        <ele>195.936165</ele>
        <time>2011-02-19T13:01:40Z</time>
      </trkpt>
      <trkpt lat="46.76462" lon="4.75667">
        <ele>195.581496</ele>
        <time>2011-02-19T13:01:44Z</time>
      </trkpt>
      <trkpt lat="46.7647" lon="4.75679">
        <ele>195.211158</ele>
        <time>2011-02-19T13:01:47Z</time>
      </trkpt>
      <trkpt lat="46.7647" lon="4.75679">
        <ele>194.631276</ele>
        <time>2011-02-19T13:01:49Z</time>
      </trkpt>
      <trkpt lat="46.76499" lon="4.75687">
        <ele>194.048432</ele>
        <time>2011-02-19T13:01:58Z</time>
      </trkpt>
      <trkpt lat="46.76499" lon="4.75687">
        <ele>193.666259</ele>
        <time>2011-02-19T13:02:01Z</time>
      </trkpt>
      <trkpt lat="46.76515" lon="4.757">
        <ele>193.31297</ele>
        <time>2011-02-19T13:02:05Z</time>
      </trkpt>
      <trkpt lat="46.76522" lon="4.75714">
        <ele>192.741545</ele>
        <time>2011-02-19T13:02:08Z</time>
      </trkpt>
      <trkpt lat="46.76529" lon="4.75728">
        <ele>192.056404</ele>
        <time>2011-02-19T13:02:10Z</time>
      </trkpt>
      <trkpt lat="46.76536" lon="4.75742">
        <ele>191.556575</ele>
        <time>2011-02-19T13:02:12Z</time>
      </trkpt>
      <trkpt lat="46.76543" lon="4.75762">
        <ele>191.260369</ele>
        <time>2011-02-19T13:02:15Z</time>
      </trkpt>
      <trkpt lat="46.76547" lon="4.75775">
        <ele>191.072368</ele>
        <time>2011-02-19T13:02:17Z</time>
      </trkpt>
      <trkpt lat="46.76552" lon="4.75787">
        <ele>190.898349</ele>
        <time>2011-02-19T13:02:19Z</time>
      </trkpt>
      <trkpt lat="46.76561" lon="4.758">
        <ele>190.224395</ele>
        <time>2011-02-19T13:02:22Z</time>
      </trkpt>
      <trkpt lat="46.76568" lon="4.75813">
        <ele>188.585164</ele>
        <time>2011-02-19T13:02:25Z</time>
      </trkpt>
      <trkpt lat="46.76568" lon="4.75813">
        <ele>186.596552</ele>
        <time>2011-02-19T13:02:28Z</time>
      </trkpt>
      <trkpt lat="46.76586" lon="4.75858">
        <ele>185.094371</ele>
        <time>2011-02-19T13:02:38Z</time>
      </trkpt>
      <trkpt lat="46.76586" lon="4.75858">
        <ele>184.150999</ele>
        <time>2011-02-19T13:02:41Z</time>
      </trkpt>
      <trkpt lat="46.76598" lon="4.75898">
        <ele>183.664295</ele>
        <time>2011-02-19T13:02:53Z</time>
      </trkpt>
      <trkpt lat="46.76598" lon="4.75898">
        <ele>183.527098</ele>
        <time>2011-02-19T13:02:56Z</time>
      </trkpt>
      <trkpt lat="46.76608" lon="4.75939">
        <ele>183.672939</ele>
        <time>2011-02-19T13:03:07Z</time>
      </trkpt>
      <trkpt lat="46.76614" lon="4.75951">
        <ele>184.136554</ele>
        <time>2011-02-19T13:03:12Z</time>
      </trkpt>
      <trkpt lat="46.7662" lon="4.75964">
        <ele>184.652452</ele>
        <time>2011-02-19T13:03:17Z</time>
      </trkpt>
      <trkpt lat="46.76626" lon="4.75977">
        <ele>185.250032</ele>
        <time>2011-02-19T13:03:22Z</time>
      </trkpt>
      <trkpt lat="46.76632" lon="4.75989">
        <ele>186.319503</ele>
        <time>2011-02-19T13:03:25Z</time>
      </trkpt>
      <trkpt lat="46.76637" lon="4.76">
        <ele>187.727614</ele>
        <time>2011-02-19T13:03:28Z</time>
      </trkpt>
      <trkpt lat="46.76643" lon="4.76014">
        <ele>189.076704</ele>
        <time>2011-02-19T13:03:32Z</time>
      </trkpt>
      <trkpt lat="46.76649" lon="4.76027">
        <ele>190.261392</ele>
        <time>2011-02-19T13:03:36Z</time>
      </trkpt>
      <trkpt lat="46.76654" lon="4.76042">
        <ele>191.286426</ele>
        <time>2011-02-19T13:03:41Z</time>
      </trkpt>
      <trkpt lat="46.76659" lon="4.76056">
        <ele>192.206434</ele>
        <time>2011-02-19T13:03:46Z</time>
      </trkpt>
      <trkpt lat="46.76663" lon="4.76068">
        <ele>193.112322</ele>
        <time>2011-02-19T13:03:49Z</time>
      </trkpt>
      <trkpt lat="46.76666" lon="4.7608">
        <ele>194.080609</ele>
        <time>2011-02-19T13:03:52Z</time>
      </trkpt>
      <trkpt lat="46.76671" lon="4.76095">
        <ele>195.127451</ele>
        <time>2011-02-19T13:03:56Z</time>
      </trkpt>
      <trkpt lat="46.76677" lon="4.76109">
        <ele>196.150182</ele>
        <time>2011-02-19T13:04:01Z</time>
      </trkpt>
      <trkpt lat="46.76682" lon="4.76122">
        <ele>197.026287</ele>
        <time>2011-02-19T13:04:06Z</time>
      </trkpt>
      <trkpt lat="46.76687" lon="4.76135">
        <ele>197.829696</ele>
        <time>2011-02-19T13:04:11Z</time>
      </trkpt>
      <trkpt lat="46.76695" lon="4.76143">
        <ele>198.791908</ele>
        <time>2011-02-19T13:04:16Z</time>
      </trkpt>
      <trkpt lat="46.76706" lon="4.76144">
        <ele>200.037867</ele>
        <time>2011-02-19T13:04:20Z</time>
      </trkpt>
      <trkpt lat="46.76718" lon="4.76141">
        <ele>201.435383</ele>
        <time>2011-02-19T13:04:23Z</time>
      </trkpt>
      <trkpt lat="46.76727" lon="4.76137">
        <ele>202.722308</ele>
        <time>2011-02-19T13:04:26Z</time>
      </trkpt>
      <trkpt lat="46.76738" lon="4.76129">
        <ele>203.738499</ele>
        <time>2011-02-19T13:04:30Z</time>
      </trkpt>
      <trkpt lat="46.76747" lon="4.76124">
        <ele>204.435227</ele>
        <time>2011-02-19T13:04:33Z</time>
      </trkpt>
      <trkpt lat="46.76759" lon="4.76117">
        <ele>204.7992</ele>
        <time>2011-02-19T13:04:36Z</time>
      </trkpt>
      <trkpt lat="46.76773" lon="4.76108">
        <ele>204.897084</ele>
        <time>2011-02-19T13:04:39Z</time>
      </trkpt>
      <trkpt lat="46.76783" lon="4.76099">
        <ele>204.866984</ele>
        <time>2011-02-19T13:04:41Z</time>
      </trkpt>
      <trkpt lat="46.76792" lon="4.76091">
        <ele>204.668871</ele>
        <time>2011-02-19T13:04:43Z</time>
      </trkpt>
      <trkpt lat="46.76802" lon="4.76083">
        <ele>203.627404</ele>
        <time>2011-02-19T13:04:45Z</time>
      </trkpt>
      <trkpt lat="46.76817" lon="4.7607">
        <ele>201.370894</ele>
        <time>2011-02-19T13:04:48Z</time>
      </trkpt>
      <trkpt lat="46.76827" lon="4.76061">
        <ele>198.750512</ele>
        <time>2011-02-19T13:04:50Z</time>
      </trkpt>
      <trkpt lat="46.76843" lon="4.76049">
        <ele>196.768284</ele>
        <time>2011-02-19T13:04:53Z</time>
      </trkpt>
      <trkpt lat="46.7686" lon="4.76032">
        <ele>195.633191</ele>
        <time>2011-02-19T13:04:56Z</time>
      </trkpt>
      <trkpt lat="46.7687" lon="4.76023">
        <ele>195.11198</ele>
        <time>2011-02-19T13:04:58Z</time>
      </trkpt>
      <trkpt lat="46.76881" lon="4.76015">
        <ele>194.799399</ele>
        <time>2011-02-19T13:05:01Z</time>
      </trkpt>
      <trkpt lat="46.76893" lon="4.76012">
        <ele>194.21842</ele>
        <time>2011-02-19T13:05:04Z</time>
      </trkpt>
      <trkpt lat="46.76905" lon="4.76005">
        <ele>193.008323</ele>
        <time>2011-02-19T13:05:07Z</time>
      </trkpt>
      <trkpt lat="46.76905" lon="4.76005">
        <ele>191.501123</ele>
        <time>2011-02-19T13:05:09Z</time>
      </trkpt>
      <trkpt lat="46.76923" lon="4.75978">
        <ele>190.446099</ele>
        <time>2011-02-19T13:05:19Z</time>
      </trkpt>
      <trkpt lat="46.76919" lon="4.75961">
        <ele>190.013188</ele>
        <time>2011-02-19T13:05:22Z</time>
      </trkpt>
      <trkpt lat="46.76914" lon="4.75944">
        <ele>189.830861</ele>
        <time>2011-02-19T13:05:25Z</time>
      </trkpt>
      <trkpt lat="46.76909" lon="4.75926">
        <ele>189.665874</ele>
        <time>2011-02-19T13:05:28Z</time>
      </trkpt>
      <trkpt lat="46.76905" lon="4.75911">
        <ele>189.539022</ele>
        <time>2011-02-19T13:05:30Z</time>
      </trkpt>
      <trkpt lat="46.76899" lon="4.75889">
        <ele>189.618406</ele>
        <time>2011-02-19T13:05:33Z</time>
      </trkpt>
      <trkpt lat="46.76894" lon="4.75872">
        <ele>189.950938</ele>
        <time>2011-02-19T13:05:35Z</time>
      </trkpt>
      <trkpt lat="46.76888" lon="4.75856">
        <ele>190.306138</ele>
        <time>2011-02-19T13:05:37Z</time>
      </trkpt>
      <trkpt lat="46.76885" lon="4.75835">
        <ele>190.47849</ele>
        <time>2011-02-19T13:05:40Z</time>
      </trkpt>
      <trkpt lat="46.76892" lon="4.75824">
        <ele>190.506888</ele>
        <time>2011-02-19T13:05:43Z</time>
      </trkpt>
      <trkpt lat="46.76901" lon="4.75816">
        <ele>190.214672</ele>
        <time>2011-02-19T13:05:46Z</time>
      </trkpt>
      <trkpt lat="46.7691" lon="4.75807">
        <ele>188.942646</ele>
        <time>2011-02-19T13:05:49Z</time>
      </trkpt>
      <trkpt lat="46.76919" lon="4.75795">
        <ele>186.28897</ele>
        <time>2011-02-19T13:05:52Z</time>
      </trkpt>
      <trkpt lat="46.76928" lon="4.75783">
        <ele>183.147334</ele>
        <time>2011-02-19T13:05:55Z</time>
      </trkpt>
      <trkpt lat="46.76938" lon="4.75772">
        <ele>180.914738</ele>
        <time>2011-02-19T13:05:58Z</time>
      </trkpt>
      <trkpt lat="46.76938" lon="4.75772">
        <ele>179.994068</ele>
        <time>2011-02-19T13:05:59Z</time>
      </trkpt>
      <trkpt lat="46.76952" lon="4.75761">
        <ele>179.763109</ele>
        <time>2011-02-19T13:06:04Z</time>
      </trkpt>
      <trkpt lat="46.76963" lon="4.75753">
        <ele>179.469211</ele>
        <time>2011-02-19T13:06:07Z</time>
      </trkpt>
      <trkpt lat="46.76971" lon="4.75747">
        <ele>178.782468</ele>
        <time>2011-02-19T13:06:09Z</time>
      </trkpt>
      <trkpt lat="46.7698" lon="4.75739">
        <ele>177.914139</ele>
        <time>2011-02-19T13:06:11Z</time>
      </trkpt>
      <trkpt lat="46.76989" lon="4.75729">
        <ele>177.172514</ele>
        <time>2011-02-19T13:06:13Z</time>
      </trkpt>
      <trkpt lat="46.77003" lon="4.75711">
        <ele>176.687751</ele>
        <time>2011-02-19T13:06:16Z</time>
      </trkpt>
      <trkpt lat="46.77017" lon="4.75691">
        <ele>176.46454</ele>
        <time>2011-02-19T13:06:19Z</time>
      </trkpt>
      <trkpt lat="46.77024" lon="4.75675">
        <ele>176.434813</ele>
        <time>2011-02-19T13:06:21Z</time>
      </trkpt>
      <trkpt lat="46.7703" lon="4.75659">
        <ele>177.041801</ele>
        <time>2011-02-19T13:06:23Z</time>
      </trkpt>
      <trkpt lat="46.77036" lon="4.7564">
        <ele>178.993607</ele>
        <time>2011-02-19T13:06:25Z</time>
      </trkpt>
      <trkpt lat="46.77044" lon="4.75613">
        <ele>181.855828</ele>
        <time>2011-02-19T13:06:28Z</time>
      </trkpt>
      <trkpt lat="46.77054" lon="4.75587">
        <ele>184.363359</ele>
        <time>2011-02-19T13:06:31Z</time>
      </trkpt>
      <trkpt lat="46.77061" lon="4.75571">
        <ele>185.945698</ele>
        <time>2011-02-19T13:06:33Z</time>
      </trkpt>
      <trkpt lat="46.77068" lon="4.75558">
        <ele>186.869623</ele>
        <time>2011-02-19T13:06:35Z</time>
      </trkpt>
      <trkpt lat="46.77076" lon="4.75542">
        <ele>187.611876</ele>
        <time>2011-02-19T13:06:38Z</time>
      </trkpt>
      <trkpt lat="46.77084" lon="4.75525">
        <ele>188.292511</ele>
        <time>2011-02-19T13:06:41Z</time>
      </trkpt>
      <trkpt lat="46.77091" lon="4.75508">
        <ele>188.721239</ele>
        <time>2011-02-19T13:06:44Z</time>
      </trkpt>
      <trkpt lat="46.77095" lon="4.75496">
        <ele>188.851786</ele>
        <time>2011-02-19T13:06:46Z</time>
      </trkpt>
      <trkpt lat="46.77101" lon="4.75479">
        <ele>188.862708</ele>
        <time>2011-02-19T13:06:49Z</time>
      </trkpt>
      <trkpt lat="46.77107" lon="4.75462">
        <ele>188.893327</ele>
        <time>2011-02-19T13:06:52Z</time>
      </trkpt>
      <trkpt lat="46.77113" lon="4.75445">
        <ele>188.954364</ele>
        <time>2011-02-19T13:06:55Z</time>
      </trkpt>
      <trkpt lat="46.77119" lon="4.75428">
        <ele>189.020231</ele>
        <time>2011-02-19T13:06:58Z</time>
      </trkpt>
      <trkpt lat="46.77127" lon="4.7541">
        <ele>189.10795</ele>
        <time>2011-02-19T13:07:01Z</time>
      </trkpt>
      <trkpt lat="46.77132" lon="4.75397">
        <ele>189.215353</ele>
        <time>2011-02-19T13:07:03Z</time>
      </trkpt>
      <trkpt lat="46.77139" lon="4.75376">
        <ele>189.354624</ele>
        <time>2011-02-19T13:07:06Z</time>
      </trkpt>
      <trkpt lat="46.77142" lon="4.75361">
        <ele>189.532851</ele>
        <time>2011-02-19T13:07:08Z</time>
      </trkpt>
      <trkpt lat="46.77147" lon="4.75338">
        <ele>189.68323</ele>
        <time>2011-02-19T13:07:11Z</time>
      </trkpt>
      <trkpt lat="46.7715" lon="4.75324">
        <ele>189.750248</ele>
        <time>2011-02-19T13:07:13Z</time>
      </trkpt>
      <trkpt lat="46.77159" lon="4.75306">
        <ele>189.770635</ele>
        <time>2011-02-19T13:07:16Z</time>
      </trkpt>
      <trkpt lat="46.77165" lon="4.75295">
        <ele>189.779179</ele>
        <time>2011-02-19T13:07:18Z</time>
      </trkpt>
      <trkpt lat="46.77172" lon="4.75283">
        <ele>189.783891</ele>
        <time>2011-02-19T13:07:20Z</time>
      </trkpt>
      <trkpt lat="46.77182" lon="4.75266">
        <ele>189.828097</ele>
        <time>2011-02-19T13:07:23Z</time>
      </trkpt>
      <trkpt lat="46.77188" lon="4.75255">
        <ele>189.984331</ele>
        <time>2011-02-19T13:07:25Z</time>
      </trkpt>
      <trkpt lat="46.77198" lon="4.7524">
        <ele>190.282298</ele>
        <time>2011-02-19T13:07:28Z</time>
      </trkpt>
      <trkpt lat="46.77207" lon="4.75224">
        <ele>190.702162</ele>
        <time>2011-02-19T13:07:31Z</time>
      </trkpt>
      <trkpt lat="46.77217" lon="4.75207">
        <ele>191.152546</ele>
        <time>2011-02-19T13:07:34Z</time>
      </trkpt>
      <trkpt lat="46.77227" lon="4.75188">
        <ele>191.548958</ele>
        <time>2011-02-19T13:07:37Z</time>
      </trkpt>
      <trkpt lat="46.77238" lon="4.7517">
        <ele>191.971906</ele>
        <time>2011-02-19T13:07:40Z</time>
      </trkpt>
      <trkpt lat="46.77246" lon="4.75159">
        <ele>192.487242</ele>
        <time>2011-02-19T13:07:42Z</time>
      </trkpt>
      <trkpt lat="46.77256" lon="4.75145">
        <ele>192.943968</ele>
        <time>2011-02-19T13:07:45Z</time>
      </trkpt>
      <trkpt lat="46.77266" lon="4.75133">
        <ele>193.18535</ele>
        <time>2011-02-19T13:07:48Z</time>
      </trkpt>
      <trkpt lat="46.77279" lon="4.75127">
        <ele>193.23673</ele>
        <time>2011-02-19T13:07:51Z</time>
      </trkpt>
      <trkpt lat="46.77292" lon="4.75129">
        <ele>193.103111</ele>
        <time>2011-02-19T13:07:54Z</time>
      </trkpt>
      <trkpt lat="46.77305" lon="4.75135">
        <ele>192.712519</ele>
        <time>2011-02-19T13:07:57Z</time>
      </trkpt>
      <trkpt lat="46.77313" lon="4.7514">
        <ele>192.121457</ele>
        <time>2011-02-19T13:07:59Z</time>
      </trkpt>
      <trkpt lat="46.77326" lon="4.7515">
        <ele>191.531591</ele>
        <time>2011-02-19T13:08:02Z</time>
      </trkpt>
      <trkpt lat="46.77334" lon="4.75156">
        <ele>191.122746</ele>
        <time>2011-02-19T13:08:04Z</time>
      </trkpt>
      <trkpt lat="46.77348" lon="4.75164">
        <ele>190.952637</ele>
        <time>2011-02-19T13:08:07Z</time>
      </trkpt>
      <trkpt lat="46.77357" lon="4.75163">
        <ele>190.94121</ele>
        <time>2011-02-19T13:08:09Z</time>
      </trkpt>
      <trkpt lat="46.77365" lon="4.75158">
        <ele>191.009113</ele>
        <time>2011-02-19T13:08:11Z</time>
      </trkpt>
      <trkpt lat="46.77372" lon="4.75149">
        <ele>191.12468</ele>
        <time>2011-02-19T13:08:13Z</time>
      </trkpt>
      <trkpt lat="46.7738" lon="4.75132">
        <ele>191.237544</ele>
        <time>2011-02-19T13:08:16Z</time>
      </trkpt>
      <trkpt lat="46.77388" lon="4.75113">
        <ele>191.298813</ele>
        <time>2011-02-19T13:08:19Z</time>
      </trkpt>
      <trkpt lat="46.77396" lon="4.75094">
        <ele>191.306635</ele>
        <time>2011-02-19T13:08:22Z</time>
      </trkpt>
      <trkpt lat="46.77401" lon="4.75082">
        <ele>191.280537</ele>
        <time>2011-02-19T13:08:24Z</time>
      </trkpt>
      <trkpt lat="46.77407" lon="4.75064">
        <ele>191.22704</ele>
        <time>2011-02-19T13:08:27Z</time>
      </trkpt>
      <trkpt lat="46.77413" lon="4.75046">
        <ele>191.154782</ele>
        <time>2011-02-19T13:08:30Z</time>
      </trkpt>
      <trkpt lat="46.77419" lon="4.75029">
        <ele>191.09613</ele>
        <time>2011-02-19T13:08:33Z</time>
      </trkpt>
      <trkpt lat="46.77424" lon="4.75013">
        <ele>191.072615</ele>
        <time>2011-02-19T13:08:36Z</time>
      </trkpt>
      <trkpt lat="46.77429" lon="4.74998">
        <ele>191.219332</ele>
        <time>2011-02-19T13:08:39Z</time>
      </trkpt>
      <trkpt lat="46.77434" lon="4.74983">
        <ele>191.773126</ele>
        <time>2011-02-19T13:08:42Z</time>
      </trkpt>
      <trkpt lat="46.7744" lon="4.74969">
        <ele>192.694447</ele>
        <time>2011-02-19T13:08:45Z</time>
      </trkpt>
      <trkpt lat="46.77445" lon="4.74955">
        <ele>193.635437</ele>
        <time>2011-02-19T13:08:48Z</time>
      </trkpt>
      <trkpt lat="46.77451" lon="4.7494">
        <ele>194.307617</ele>
        <time>2011-02-19T13:08:51Z</time>
      </trkpt>
      <trkpt lat="46.77456" lon="4.74925">
        <ele>194.64418</ele>
        <time>2011-02-19T13:08:54Z</time>
      </trkpt>
      <trkpt lat="46.77463" lon="4.7491">
        <ele>194.746975</ele>
        <time>2011-02-19T13:08:57Z</time>
      </trkpt>
      <trkpt lat="46.77469" lon="4.74896">
        <ele>194.789656</ele>
        <time>2011-02-19T13:09:00Z</time>
      </trkpt>
      <trkpt lat="46.77476" lon="4.74882">
        <ele>194.936921</ele>
        <time>2011-02-19T13:09:03Z</time>
      </trkpt>
      <trkpt lat="46.77483" lon="4.74868">
        <ele>195.225039</ele>
        <time>2011-02-19T13:09:06Z</time>
      </trkpt>
      <trkpt lat="46.77489" lon="4.74854">
        <ele>195.528554</ele>
        <time>2011-02-19T13:09:09Z</time>
      </trkpt>
      <trkpt lat="46.77496" lon="4.74841">
        <ele>195.728254</ele>
        <time>2011-02-19T13:09:12Z</time>
      </trkpt>
      <trkpt lat="46.77504" lon="4.74825">
        <ele>195.81688</ele>
        <time>2011-02-19T13:09:15Z</time>
      </trkpt>
      <trkpt lat="46.77515" lon="4.74813">
        <ele>195.84256</ele>
        <time>2011-02-19T13:09:18Z</time>
      </trkpt>
      <trkpt lat="46.77527" lon="4.74806">
        <ele>195.869207</ele>
        <time>2011-02-19T13:09:21Z</time>
      </trkpt>
      <trkpt lat="46.77537" lon="4.74804">
        <ele>196.002318</ele>
        <time>2011-02-19T13:09:23Z</time>
      </trkpt>
      <trkpt lat="46.77551" lon="4.74806">
        <ele>196.282391</ele>
        <time>2011-02-19T13:09:26Z</time>
      </trkpt>
      <trkpt lat="46.77561" lon="4.74809">
        <ele>196.57573</ele>
        <time>2011-02-19T13:09:28Z</time>
      </trkpt>
      <trkpt lat="46.7758" lon="4.74816">
        <ele>196.746707</ele>
        <time>2011-02-19T13:09:31Z</time>
      </trkpt>
      <trkpt lat="46.77601" lon="4.74824">
        <ele>196.802446</ele>
        <time>2011-02-19T13:09:34Z</time>
      </trkpt>
      <trkpt lat="46.77614" lon="4.7483">
        <ele>196.801394</ele>
        <time>2011-02-19T13:09:36Z</time>
      </trkpt>
      <trkpt lat="46.77627" lon="4.74835">
        <ele>196.784722</ele>
        <time>2011-02-19T13:09:38Z</time>
      </trkpt>
      <trkpt lat="46.77645" lon="4.74844">
        <ele>196.701793</ele>
        <time>2011-02-19T13:09:41Z</time>
      </trkpt>
      <trkpt lat="46.7766" lon="4.74853">
        <ele>196.48258</ele>
        <time>2011-02-19T13:09:44Z</time>
      </trkpt>
      <trkpt lat="46.77669" lon="4.74858">
        <ele>196.213545</ele>
        <time>2011-02-19T13:09:46Z</time>
      </trkpt>
      <trkpt lat="46.77678" lon="4.74864">
        <ele>196.016944</ele>
        <time>2011-02-19T13:09:48Z</time>
      </trkpt>
      <trkpt lat="46.77692" lon="4.74871">
        <ele>195.81582</ele>
        <time>2011-02-19T13:09:51Z</time>
      </trkpt>
      <trkpt lat="46.77701" lon="4.74876">
        <ele>195.503953</ele>
        <time>2011-02-19T13:09:53Z</time>
      </trkpt>
      <trkpt lat="46.77713" lon="4.74883">
        <ele>195.171924</ele>
        <time>2011-02-19T13:09:56Z</time>
      </trkpt>
      <trkpt lat="46.77726" lon="4.7489">
        <ele>194.970564</ele>
        <time>2011-02-19T13:09:59Z</time>
      </trkpt>
      <trkpt lat="46.77738" lon="4.74899">
        <ele>194.912622</ele>
        <time>2011-02-19T13:10:02Z</time>
      </trkpt>
      <trkpt lat="46.77747" lon="4.74901">
        <ele>194.926424</ele>
        <time>2011-02-19T13:10:04Z</time>
      </trkpt>
      <trkpt lat="46.77758" lon="4.74893">
        <ele>194.953312</ele>
        <time>2011-02-19T13:10:07Z</time>
      </trkpt>
      <trkpt lat="46.77764" lon="4.74878">
        <ele>194.969598</ele>
        <time>2011-02-19T13:10:10Z</time>
      </trkpt>
      <trkpt lat="46.77767" lon="4.74861">
        <ele>194.974184</ele>
        <time>2011-02-19T13:10:13Z</time>
      </trkpt>
      <trkpt lat="46.77769" lon="4.74844">
        <ele>194.957756</ele>
        <time>2011-02-19T13:10:16Z</time>
      </trkpt>
      <trkpt lat="46.77771" lon="4.74826">
        <ele>194.882738</ele>
        <time>2011-02-19T13:10:19Z</time>
      </trkpt>
      <trkpt lat="46.77772" lon="4.74809">
        <ele>194.717227</ele>
        <time>2011-02-19T13:10:22Z</time>
      </trkpt>
      <trkpt lat="46.77773" lon="4.74792">
        <ele>194.512164</ele>
        <time>2011-02-19T13:10:25Z</time>
      </trkpt>
      <trkpt lat="46.77773" lon="4.74774">
        <ele>194.353</ele>
        <time>2011-02-19T13:10:28Z</time>
      </trkpt>
      <trkpt lat="46.77774" lon="4.74755">
        <ele>194.264023</ele>
        <time>2011-02-19T13:10:31Z</time>
      </trkpt>
      <trkpt lat="46.77774" lon="4.74736">
        <ele>194.242465</ele>
        <time>2011-02-19T13:10:34Z</time>
      </trkpt>
      <trkpt lat="46.77774" lon="4.74713">
        <ele>194.279323</ele>
        <time>2011-02-19T13:10:37Z</time>
      </trkpt>
      <trkpt lat="46.77774" lon="4.74691">
        <ele>194.328142</ele>
        <time>2011-02-19T13:10:40Z</time>
      </trkpt>
      <trkpt lat="46.77773" lon="4.74671">
        <ele>194.322236</ele>
        <time>2011-02-19T13:10:43Z</time>
      </trkpt>
      <trkpt lat="46.77772" lon="4.74651">
        <ele>194.239289</ele>
        <time>2011-02-19T13:10:46Z</time>
      </trkpt>
      <trkpt lat="46.77772" lon="4.74638">
        <ele>194.066567</ele>
        <time>2011-02-19T13:10:48Z</time>
      </trkpt>
      <trkpt lat="46.77772" lon="4.74624">
        <ele>193.742512</ele>
        <time>2011-02-19T13:10:50Z</time>
      </trkpt>
      <trkpt lat="46.77771" lon="4.74611">
        <ele>193.289396</ele>
        <time>2011-02-19T13:10:52Z</time>
      </trkpt>
      <trkpt lat="46.77771" lon="4.74591">
        <ele>192.881944</ele>
        <time>2011-02-19T13:10:55Z</time>
      </trkpt>
      <trkpt lat="46.77771" lon="4.74572">
        <ele>192.647972</ele>
        <time>2011-02-19T13:10:58Z</time>
      </trkpt>
      <trkpt lat="46.77771" lon="4.74553">
        <ele>192.567848</ele>
        <time>2011-02-19T13:11:01Z</time>
      </trkpt>
      <trkpt lat="46.77772" lon="4.74533">
        <ele>192.544899</ele>
        <time>2011-02-19T13:11:04Z</time>
      </trkpt>
      <trkpt lat="46.77773" lon="4.74514">
        <ele>192.494944</ele>
        <time>2011-02-19T13:11:07Z</time>
      </trkpt>
      <trkpt lat="46.77774" lon="4.74494">
        <ele>192.38382</ele>
        <time>2011-02-19T13:11:10Z</time>
      </trkpt>
      <trkpt lat="46.77774" lon="4.74475">
        <ele>192.204864</ele>
        <time>2011-02-19T13:11:13Z</time>
      </trkpt>
      <trkpt lat="46.77775" lon="4.74458">
        <ele>191.990511</ele>
        <time>2011-02-19T13:11:16Z</time>
      </trkpt>
      <trkpt lat="46.77775" lon="4.74441">
        <ele>191.808354</ele>
        <time>2011-02-19T13:11:19Z</time>
      </trkpt>
      <trkpt lat="46.77776" lon="4.74424">
        <ele>191.676673</ele>
        <time>2011-02-19T13:11:22Z</time>
      </trkpt>
      <trkpt lat="46.77777" lon="4.74408">
        <ele>191.572806</ele>
        <time>2011-02-19T13:11:25Z</time>
      </trkpt>
      <trkpt lat="46.7778" lon="4.74394">
        <ele>191.452392</ele>
        <time>2011-02-19T13:11:29Z</time>
      </trkpt>
      <trkpt lat="46.7778" lon="4.74394">
        <ele>191.29139</ele>
        <time>2011-02-19T13:11:30Z</time>
      </trkpt>
      <trkpt lat="46.77777" lon="4.74372">
        <ele>191.050254</ele>
        <time>2011-02-19T13:11:35Z</time>
      </trkpt>
      <trkpt lat="46.77776" lon="4.74356">
        <ele>190.698721</ele>
        <time>2011-02-19T13:11:38Z</time>
      </trkpt>
      <trkpt lat="46.77776" lon="4.74341">
        <ele>190.340381</ele>
        <time>2011-02-19T13:11:41Z</time>
      </trkpt>
      <trkpt lat="46.77777" lon="4.74326">
        <ele>190.083889</ele>
        <time>2011-02-19T13:11:44Z</time>
      </trkpt>
      <trkpt lat="46.77778" lon="4.74311">
        <ele>189.889149</ele>
        <time>2011-02-19T13:11:47Z</time>
      </trkpt>
      <trkpt lat="46.7778" lon="4.74295">
        <ele>189.730454</ele>
        <time>2011-02-19T13:11:50Z</time>
      </trkpt>
      <trkpt lat="46.77782" lon="4.74278">
        <ele>189.613135</ele>
        <time>2011-02-19T13:11:53Z</time>
      </trkpt>
      <trkpt lat="46.77784" lon="4.74261">
        <ele>189.516921</ele>
        <time>2011-02-19T13:11:56Z</time>
      </trkpt>
      <trkpt lat="46.77786" lon="4.74244">
        <ele>189.436619</ele>
        <time>2011-02-19T13:11:59Z</time>
      </trkpt>
      <trkpt lat="46.77788" lon="4.74227">
        <ele>189.388894</ele>
        <time>2011-02-19T13:12:02Z</time>
      </trkpt>
      <trkpt lat="46.77791" lon="4.7421">
        <ele>189.375886</ele>
        <time>2011-02-19T13:12:05Z</time>
      </trkpt>
      <trkpt lat="46.77795" lon="4.74193">
        <ele>189.395604</ele>
        <time>2011-02-19T13:12:08Z</time>
      </trkpt>
      <trkpt lat="46.77797" lon="4.74176">
        <ele>189.470125</ele>
        <time>2011-02-19T13:12:11Z</time>
      </trkpt>
      <trkpt lat="46.77799" lon="4.7416">
        <ele>189.617887</ele>
        <time>2011-02-19T13:12:14Z</time>
      </trkpt>
      <trkpt lat="46.77801" lon="4.74145">
        <ele>190.092346</ele>
        <time>2011-02-19T13:12:17Z</time>
      </trkpt>
      <trkpt lat="46.77804" lon="4.74129">
        <ele>191.134738</ele>
        <time>2011-02-19T13:12:20Z</time>
      </trkpt>
      <trkpt lat="46.77807" lon="4.74114">
        <ele>192.36085</ele>
        <time>2011-02-19T13:12:23Z</time>
      </trkpt>
      <trkpt lat="46.77809" lon="4.74099">
        <ele>193.172322</ele>
        <time>2011-02-19T13:12:26Z</time>
      </trkpt>
      <trkpt lat="46.77811" lon="4.74082">
        <ele>193.500411</ele>
        <time>2011-02-19T13:12:29Z</time>
      </trkpt>
      <trkpt lat="46.77811" lon="4.74066">
        <ele>193.592754</ele>
        <time>2011-02-19T13:12:32Z</time>
      </trkpt>
      <trkpt lat="46.77809" lon="4.7405">
        <ele>193.643968</ele>
        <time>2011-02-19T13:12:35Z</time>
      </trkpt>
      <trkpt lat="46.77804" lon="4.74033">
        <ele>193.723302</ele>
        <time>2011-02-19T13:12:38Z</time>
      </trkpt>
      <trkpt lat="46.77799" lon="4.74016">
        <ele>193.827964</ele>
        <time>2011-02-19T13:12:41Z</time>
      </trkpt>
      <trkpt lat="46.77796" lon="4.74001">
        <ele>193.93097</ele>
        <time>2011-02-19T13:12:44Z</time>
      </trkpt>
      <trkpt lat="46.778" lon="4.73989">
        <ele>194.011498</ele>
        <time>2011-02-19T13:12:47Z</time>
      </trkpt>
      <trkpt lat="46.778" lon="4.73989">
        <ele>194.062963</ele>
        <time>2011-02-19T13:12:49Z</time>
      </trkpt>
      <trkpt lat="46.77815" lon="4.7399">
        <ele>194.107741</ele>
        <time>2011-02-19T13:12:54Z</time>
      </trkpt>
      <trkpt lat="46.77824" lon="4.73995">
        <ele>194.197928</ele>
        <time>2011-02-19T13:12:57Z</time>
      </trkpt>
      <trkpt lat="46.77834" lon="4.73998">
        <ele>194.365052</ele>
        <time>2011-02-19T13:13:00Z</time>
      </trkpt>
      <trkpt lat="46.77843" lon="4.74001">
        <ele>194.637293</ele>
        <time>2011-02-19T13:13:03Z</time>
      </trkpt>
      <trkpt lat="46.77852" lon="4.74006">
        <ele>195.007033</ele>
        <time>2011-02-19T13:13:06Z</time>
      </trkpt>
      <trkpt lat="46.77862" lon="4.74012">
        <ele>195.613022</ele>
        <time>2011-02-19T13:13:09Z</time>
      </trkpt>
      <trkpt lat="46.77872" lon="4.74019">
        <ele>196.563086</ele>
        <time>2011-02-19T13:13:12Z</time>
      </trkpt>
      <trkpt lat="46.77883" lon="4.74027">
        <ele>197.585359</ele>
        <time>2011-02-19T13:13:15Z</time>
      </trkpt>
      <trkpt lat="46.77893" lon="4.74035">
        <ele>198.896178</ele>
        <time>2011-02-19T13:13:18Z</time>
      </trkpt>
      <trkpt lat="46.77903" lon="4.74042">
        <ele>201.061093</ele>
        <time>2011-02-19T13:13:21Z</time>
      </trkpt>
      <trkpt lat="46.77914" lon="4.7405">
        <ele>203.512642</ele>
        <time>2011-02-19T13:13:24Z</time>
      </trkpt>
      <trkpt lat="46.77925" lon="4.74057">
        <ele>205.149731</ele>
        <time>2011-02-19T13:13:27Z</time>
      </trkpt>
      <trkpt lat="46.77937" lon="4.74065">
        <ele>205.747405</ele>
        <time>2011-02-19T13:13:30Z</time>
      </trkpt>
      <trkpt lat="46.77948" lon="4.7407">
        <ele>205.730392</ele>
        <time>2011-02-19T13:13:33Z</time>
      </trkpt>
      <trkpt lat="46.77959" lon="4.74075">
        <ele>205.547308</ele>
        <time>2011-02-19T13:13:36Z</time>
      </trkpt>
      <trkpt lat="46.77971" lon="4.74082">
        <ele>205.414482</ele>
        <time>2011-02-19T13:13:39Z</time>
      </trkpt>
      <trkpt lat="46.77979" lon="4.74087">
        <ele>205.366766</ele>
        <time>2011-02-19T13:13:41Z</time>
      </trkpt>
      <trkpt lat="46.77989" lon="4.74092">
        <ele>205.446631</ele>
        <time>2011-02-19T13:13:44Z</time>
      </trkpt>
      <trkpt lat="46.77997" lon="4.74078">
        <ele>205.854296</ele>
        <time>2011-02-19T13:13:48Z</time>
      </trkpt>
      <trkpt lat="46.78002" lon="4.74062">
        <ele>206.678159</ele>
        <time>2011-02-19T13:13:51Z</time>
      </trkpt>
      <trkpt lat="46.78006" lon="4.74045">
        <ele>207.66541</ele>
        <time>2011-02-19T13:13:54Z</time>
      </trkpt>
      <trkpt lat="46.7801" lon="4.74029">
        <ele>208.471875</ele>
        <time>2011-02-19T13:13:57Z</time>
      </trkpt>
      <trkpt lat="46.78012" lon="4.74012">
        <ele>209.09065</ele>
        <time>2011-02-19T13:14:00Z</time>
      </trkpt>
      <trkpt lat="46.78015" lon="4.73995">
        <ele>209.730012</ele>
        <time>2011-02-19T13:14:03Z</time>
      </trkpt>
      <trkpt lat="46.78017" lon="4.73978">
        <ele>210.362768</ele>
        <time>2011-02-19T13:14:06Z</time>
      </trkpt>
      <trkpt lat="46.7802" lon="4.73961">
        <ele>210.78212</ele>
        <time>2011-02-19T13:14:09Z</time>
      </trkpt>
      <trkpt lat="46.78022" lon="4.73944">
        <ele>211.069104</ele>
        <time>2011-02-19T13:14:12Z</time>
      </trkpt>
      <trkpt lat="46.78025" lon="4.73927">
        <ele>211.381678</ele>
        <time>2011-02-19T13:14:15Z</time>
      </trkpt>
      <trkpt lat="46.78026" lon="4.7391">
        <ele>211.643928</ele>
        <time>2011-02-19T13:14:18Z</time>
      </trkpt>
      <trkpt lat="46.78025" lon="4.73892">
        <ele>211.752071</ele>
        <time>2011-02-19T13:14:21Z</time>
      </trkpt>
      <trkpt lat="46.78023" lon="4.73874">
        <ele>211.740445</ele>
        <time>2011-02-19T13:14:24Z</time>
      </trkpt>
      <trkpt lat="46.7802" lon="4.73856">
        <ele>211.648825</ele>
        <time>2011-02-19T13:14:27Z</time>
      </trkpt>
      <trkpt lat="46.78018" lon="4.73838">
        <ele>211.447514</ele>
        <time>2011-02-19T13:14:30Z</time>
      </trkpt>
      <trkpt lat="46.78016" lon="4.7382">
        <ele>211.049317</ele>
        <time>2011-02-19T13:14:33Z</time>
      </trkpt>
      <trkpt lat="46.78014" lon="4.73802">
        <ele>210.520979</ele>
        <time>2011-02-19T13:14:36Z</time>
      </trkpt>
      <trkpt lat="46.78012" lon="4.73784">
        <ele>210.104272</ele>
        <time>2011-02-19T13:14:39Z</time>
      </trkpt>
      <trkpt lat="46.78009" lon="4.73765">
        <ele>209.923579</ele>
        <time>2011-02-19T13:14:42Z</time>
      </trkpt>
      <trkpt lat="46.78007" lon="4.73746">
        <ele>209.906433</ele>
        <time>2011-02-19T13:14:45Z</time>
      </trkpt>
      <trkpt lat="46.78005" lon="4.73733">
        <ele>209.99164</ele>
        <time>2011-02-19T13:14:47Z</time>
      </trkpt>
      <trkpt lat="46.78002" lon="4.73713">
        <ele>210.162573</ele>
        <time>2011-02-19T13:14:50Z</time>
      </trkpt>
      <trkpt lat="46.78" lon="4.737">
        <ele>210.34979</ele>
        <time>2011-02-19T13:14:52Z</time>
      </trkpt>
      <trkpt lat="46.77997" lon="4.73681">
        <ele>210.478773</ele>
        <time>2011-02-19T13:14:55Z</time>
      </trkpt>
      <trkpt lat="46.77996" lon="4.73668">
        <ele>210.549182</ele>
        <time>2011-02-19T13:14:57Z</time>
      </trkpt>
      <trkpt lat="46.77995" lon="4.73647">
        <ele>210.597424</ele>
        <time>2011-02-19T13:15:00Z</time>
      </trkpt>
      <trkpt lat="46.77995" lon="4.73633">
        <ele>210.679699</ele>
        <time>2011-02-19T13:15:02Z</time>
      </trkpt>
      <trkpt lat="46.77997" lon="4.73612">
        <ele>210.814978</ele>
        <time>2011-02-19T13:15:05Z</time>
      </trkpt>
      <trkpt lat="46.77999" lon="4.73592">
        <ele>210.946102</ele>
        <time>2011-02-19T13:15:08Z</time>
      </trkpt>
      <trkpt lat="46.78001" lon="4.73573">
        <ele>211.027545</ele>
        <time>2011-02-19T13:15:11Z</time>
      </trkpt>
      <trkpt lat="46.78002" lon="4.73554">
        <ele>211.111587</ele>
        <time>2011-02-19T13:15:14Z</time>
      </trkpt>
      <trkpt lat="46.78002" lon="4.73535">
        <ele>211.356483</ele>
        <time>2011-02-19T13:15:17Z</time>
      </trkpt>
      <trkpt lat="46.78001" lon="4.73516">
        <ele>211.9592</ele>
        <time>2011-02-19T13:15:20Z</time>
      </trkpt>
      <trkpt lat="46.78" lon="4.73496">
        <ele>212.964507</ele>
        <time>2011-02-19T13:15:23Z</time>
      </trkpt>
      <trkpt lat="46.77999" lon="4.73475">
        <ele>214.17042</ele>
        <time>2011-02-19T13:15:26Z</time>
      </trkpt>
      <trkpt lat="46.77999" lon="4.73462">
        <ele>215.275714</ele>
        <time>2011-02-19T13:15:28Z</time>
      </trkpt>
      <trkpt lat="46.77998" lon="4.73441">
        <ele>216.059148</ele>
        <time>2011-02-19T13:15:31Z</time>
      </trkpt>
      <trkpt lat="46.77998" lon="4.73427">
        <ele>216.46601</ele>
        <time>2011-02-19T13:15:33Z</time>
      </trkpt>
      <trkpt lat="46.77998" lon="4.73406">
        <ele>216.594159</ele>
        <time>2011-02-19T13:15:36Z</time>
      </trkpt>
      <trkpt lat="46.77998" lon="4.73385">
        <ele>216.595024</ele>
        <time>2011-02-19T13:15:39Z</time>
      </trkpt>
      <trkpt lat="46.77998" lon="4.73371">
        <ele>216.579799</ele>
        <time>2011-02-19T13:15:41Z</time>
      </trkpt>
      <trkpt lat="46.77999" lon="4.73349">
        <ele>216.622183</ele>
        <time>2011-02-19T13:15:44Z</time>
      </trkpt>
      <trkpt lat="46.77999" lon="4.73335">
        <ele>216.789488</ele>
        <time>2011-02-19T13:15:46Z</time>
      </trkpt>
      <trkpt lat="46.77999" lon="4.73314">
        <ele>217.0719</ele>
        <time>2011-02-19T13:15:49Z</time>
      </trkpt>
      <trkpt lat="46.77999" lon="4.73301">
        <ele>217.396945</ele>
        <time>2011-02-19T13:15:51Z</time>
      </trkpt>
      <trkpt lat="46.78" lon="4.73282">
        <ele>217.740216</ele>
        <time>2011-02-19T13:15:54Z</time>
      </trkpt>
      <trkpt lat="46.77999" lon="4.73263">
        <ele>218.127156</ele>
        <time>2011-02-19T13:15:57Z</time>
      </trkpt>
      <trkpt lat="46.77996" lon="4.73244">
        <ele>218.504532</ele>
        <time>2011-02-19T13:16:00Z</time>
      </trkpt>
      <trkpt lat="46.77993" lon="4.73231">
        <ele>218.750357</ele>
        <time>2011-02-19T13:16:02Z</time>
      </trkpt>
      <trkpt lat="46.7799" lon="4.73213">
        <ele>218.827685</ele>
        <time>2011-02-19T13:16:05Z</time>
      </trkpt>
      <trkpt lat="46.77987" lon="4.73195">
        <ele>218.771668</ele>
        <time>2011-02-19T13:16:08Z</time>
      </trkpt>
      <trkpt lat="46.77984" lon="4.73179">
        <ele>218.579081</ele>
        <time>2011-02-19T13:16:11Z</time>
      </trkpt>
      <trkpt lat="46.77982" lon="4.73164">
        <ele>218.283754</ele>
        <time>2011-02-19T13:16:14Z</time>
      </trkpt>
      <trkpt lat="46.7798" lon="4.73149">
        <ele>217.967545</ele>
        <time>2011-02-19T13:16:17Z</time>
      </trkpt>
      <trkpt lat="46.77979" lon="4.73136">
        <ele>217.705854</ele>
        <time>2011-02-19T13:16:20Z</time>
      </trkpt>
      <trkpt lat="46.77979" lon="4.73121">
        <ele>217.552703</ele>
        <time>2011-02-19T13:16:24Z</time>
      </trkpt>
      <trkpt lat="46.77979" lon="4.73121">
        <ele>217.502009</ele>
        <time>2011-02-19T13:16:27Z</time>
      </trkpt>
      <trkpt lat="46.77976" lon="4.73089">
        <ele>217.4994</ele>
        <time>2011-02-19T13:16:34Z</time>
      </trkpt>
      <trkpt lat="46.77976" lon="4.73089">
        <ele>217.507497</ele>
        <time>2011-02-19T13:16:37Z</time>
      </trkpt>
      <trkpt lat="46.77965" lon="4.73049">
        <ele>217.518714</ele>
        <time>2011-02-19T13:16:46Z</time>
      </trkpt>
      <trkpt lat="46.77961" lon="4.73034">
        <ele>217.542809</ele>
        <time>2011-02-19T13:16:50Z</time>
      </trkpt>
      <trkpt lat="46.77956" lon="4.73019">
        <ele>217.592778</ele>
        <time>2011-02-19T13:16:54Z</time>
      </trkpt>
      <trkpt lat="46.77951" lon="4.73004">
        <ele>217.689715</ele>
        <time>2011-02-19T13:16:58Z</time>
      </trkpt>
      <trkpt lat="46.77943" lon="4.7299">
        <ele>217.844819</ele>
        <time>2011-02-19T13:17:02Z</time>
      </trkpt>
      <trkpt lat="46.77943" lon="4.7299">
        <ele>218.008342</ele>
        <time>2011-02-19T13:17:07Z</time>
      </trkpt>
      <trkpt lat="46.77942" lon="4.72938">
        <ele>218.137133</ele>
        <time>2011-02-19T13:17:26Z</time>
      </trkpt>
      <trkpt lat="46.77942" lon="4.72938">
        <ele>218.23891</ele>
        <time>2011-02-19T13:17:30Z</time>
      </trkpt>
      <trkpt lat="46.77961" lon="4.72908">
        <ele>218.332899</ele>
        <time>2011-02-19T13:17:40Z</time>
      </trkpt>
      <trkpt lat="46.7797" lon="4.729">
        <ele>218.454315</ele>
        <time>2011-02-19T13:17:45Z</time>
      </trkpt>
      <trkpt lat="46.77978" lon="4.72893">
        <ele>218.920625</ele>
        <time>2011-02-19T13:17:50Z</time>
      </trkpt>
      <trkpt lat="46.77987" lon="4.72888">
        <ele>219.962889</ele>
        <time>2011-02-19T13:17:55Z</time>
      </trkpt>
      <trkpt lat="46.77996" lon="4.72883">
        <ele>221.159495</ele>
        <time>2011-02-19T13:18:01Z</time>
      </trkpt>
      <trkpt lat="46.78005" lon="4.72877">
        <ele>221.975055</ele>
        <time>2011-02-19T13:18:07Z</time>
      </trkpt>
      <trkpt lat="46.78013" lon="4.72872">
        <ele>222.435264</ele>
        <time>2011-02-19T13:18:12Z</time>
      </trkpt>
      <trkpt lat="46.78023" lon="4.72865">
        <ele>222.790194</ele>
        <time>2011-02-19T13:18:18Z</time>
      </trkpt>
      <trkpt lat="46.78023" lon="4.72865">
        <ele>223.121393</ele>
        <time>2011-02-19T13:18:31Z</time>
      </trkpt>
      <trkpt lat="46.7805" lon="4.72864">
        <ele>223.440757</ele>
        <time>2011-02-19T13:19:01Z</time>
      </trkpt>
      <trkpt lat="46.7806" lon="4.72867">
        <ele>223.888496</ele>
        <time>2011-02-19T13:19:05Z</time>
      </trkpt>
      <trkpt lat="46.78071" lon="4.7287">
        <ele>224.598863</ele>
        <time>2011-02-19T13:19:10Z</time>
      </trkpt>
      <trkpt lat="46.7808" lon="4.72874">
        <ele>225.62116</ele>
        <time>2011-02-19T13:19:15Z</time>
      </trkpt>
      <trkpt lat="46.78091" lon="4.72878">
        <ele>226.751849</ele>
        <time>2011-02-19T13:19:21Z</time>
      </trkpt>
      <trkpt lat="46.781" lon="4.7288">
        <ele>227.564677</ele>
        <time>2011-02-19T13:19:27Z</time>
      </trkpt>
      <trkpt lat="46.78109" lon="4.72882">
        <ele>227.927272</ele>
        <time>2011-02-19T13:19:33Z</time>
      </trkpt>
      <trkpt lat="46.78121" lon="4.72887">
        <ele>228.063051</ele>
        <time>2011-02-19T13:19:43Z</time>
      </trkpt>
      <trkpt lat="46.78132" lon="4.7289">
        <ele>228.181702</ele>
        <time>2011-02-19T13:19:49Z</time>
      </trkpt>
      <trkpt lat="46.78141" lon="4.72895">
        <ele>228.385738</ele>
        <time>2011-02-19T13:19:55Z</time>
      </trkpt>
      <trkpt lat="46.78151" lon="4.72899">
        <ele>228.706729</ele>
        <time>2011-02-19T13:20:01Z</time>
      </trkpt>
      <trkpt lat="46.78161" lon="4.72904">
        <ele>229.140472</ele>
        <time>2011-02-19T13:20:08Z</time>
      </trkpt>
      <trkpt lat="46.78169" lon="4.7291">
        <ele>229.613957</ele>
        <time>2011-02-19T13:20:12Z</time>
      </trkpt>
      <trkpt lat="46.78182" lon="4.72918">
        <ele>230.051816</ele>
        <time>2011-02-19T13:20:19Z</time>
      </trkpt>
      <trkpt lat="46.7819" lon="4.72925">
        <ele>230.503444</ele>
        <time>2011-02-19T13:20:25Z</time>
      </trkpt>
      <trkpt lat="46.78196" lon="4.72937">
        <ele>231.016446</ele>
        <time>2011-02-19T13:20:33Z</time>
      </trkpt>
      <trkpt lat="46.78204" lon="4.72944">
        <ele>231.557036</ele>
        <time>2011-02-19T13:20:42Z</time>
      </trkpt>
      <trkpt lat="46.78214" lon="4.72946">
        <ele>232.128335</ele>
        <time>2011-02-19T13:20:52Z</time>
      </trkpt>
      <trkpt lat="46.78222" lon="4.7295">
        <ele>232.86002</ele>
        <time>2011-02-19T13:20:59Z</time>
      </trkpt>
      <trkpt lat="46.78232" lon="4.7295">
        <ele>233.941769</ele>
        <time>2011-02-19T13:21:08Z</time>
      </trkpt>
      <trkpt lat="46.78244" lon="4.7295">
        <ele>235.446945</ele>
        <time>2011-02-19T13:21:20Z</time>
      </trkpt>
      <trkpt lat="46.78247" lon="4.72937">
        <ele>237.142445</ele>
        <time>2011-02-19T13:21:32Z</time>
      </trkpt>
      <trkpt lat="46.7825" lon="4.72923">
        <ele>238.705983</ele>
        <time>2011-02-19T13:21:39Z</time>
      </trkpt>
      <trkpt lat="46.78249" lon="4.72908">
        <ele>240.025684</ele>
        <time>2011-02-19T13:21:46Z</time>
      </trkpt>
      <trkpt lat="46.78251" lon="4.72892">
        <ele>241.146639</ele>
        <time>2011-02-19T13:21:57Z</time>
      </trkpt>
      <trkpt lat="46.7825" lon="4.72878">
        <ele>242.082227</ele>
        <time>2011-02-19T13:22:03Z</time>
      </trkpt>
      <trkpt lat="46.7825" lon="4.72864">
        <ele>242.851464</ele>
        <time>2011-02-19T13:22:13Z</time>
      </trkpt>
      <trkpt lat="46.78254" lon="4.72852">
        <ele>243.431744</ele>
        <time>2011-02-19T13:22:23Z</time>
      </trkpt>
      <trkpt lat="46.78249" lon="4.72839">
        <ele>243.748023</ele>
        <time>2011-02-19T13:22:29Z</time>
      </trkpt>
      <trkpt lat="46.78244" lon="4.72827">
        <ele>243.820519</ele>
        <time>2011-02-19T13:22:34Z</time>
      </trkpt>
      <trkpt lat="46.78243" lon="4.72813">
        <ele>243.739857</ele>
        <time>2011-02-19T13:22:43Z</time>
      </trkpt>
      <trkpt lat="46.78249" lon="4.72803">
        <ele>243.575066</ele>
        <time>2011-02-19T13:23:00Z</time>
      </trkpt>
      <trkpt lat="46.78251" lon="4.72789">
        <ele>243.42907</ele>
        <time>2011-02-19T13:23:08Z</time>
      </trkpt>
      <trkpt lat="46.78253" lon="4.72776">
        <ele>243.366238</ele>
        <time>2011-02-19T13:23:13Z</time>
      </trkpt>
      <trkpt lat="46.78258" lon="4.72763">
        <ele>244.222986</ele>
        <time>2011-02-19T13:23:25Z</time>
      </trkpt>
      <trkpt lat="46.78259" lon="4.72749">
        <ele>246.90806</ele>
        <time>2011-02-19T13:23:33Z</time>
      </trkpt>
      <trkpt lat="46.7826" lon="4.72734">
        <ele>250.633737</ele>
        <time>2011-02-19T13:23:39Z</time>
      </trkpt>
      <trkpt lat="46.78259" lon="4.72721">
        <ele>254.205221</ele>
        <time>2011-02-19T13:23:45Z</time>
      </trkpt>
      <trkpt lat="46.78258" lon="4.72708">
        <ele>257.670962</ele>
        <time>2011-02-19T13:23:51Z</time>
      </trkpt>
      <trkpt lat="46.78254" lon="4.72696">
        <ele>261.201765</ele>
        <time>2011-02-19T13:23:57Z</time>
      </trkpt>
      <trkpt lat="46.78251" lon="4.72682">
        <ele>264.611759</ele>
        <time>2011-02-19T13:24:04Z</time>
      </trkpt>
      <trkpt lat="46.78251" lon="4.72668">
        <ele>267.805023</ele>
        <time>2011-02-19T13:24:13Z</time>
      </trkpt>
      <trkpt lat="46.7825" lon="4.72654">
        <ele>270.865915</ele>
        <time>2011-02-19T13:24:19Z</time>
      </trkpt>
      <trkpt lat="46.7825" lon="4.7264">
        <ele>273.962932</ele>
        <time>2011-02-19T13:24:29Z</time>
      </trkpt>
      <trkpt lat="46.78252" lon="4.72627">
        <ele>277.236527</ele>
        <time>2011-02-19T13:24:36Z</time>
      </trkpt>
      <trkpt lat="46.78255" lon="4.72613">
        <ele>280.477908</ele>
        <time>2011-02-19T13:24:43Z</time>
      </trkpt>
      <trkpt lat="46.78258" lon="4.72599">
        <ele>283.44428</ele>
        <time>2011-02-19T13:24:50Z</time>
      </trkpt>
      <trkpt lat="46.78257" lon="4.72586">
        <ele>286.258648</ele>
        <time>2011-02-19T13:24:56Z</time>
      </trkpt>
      <trkpt lat="46.78256" lon="4.72573">
        <ele>289.032072</ele>
        <time>2011-02-19T13:25:04Z</time>
      </trkpt>
      <trkpt lat="46.78256" lon="4.72559">
        <ele>291.634346</ele>
        <time>2011-02-19T13:25:10Z</time>
      </trkpt>
      <trkpt lat="46.78257" lon="4.72546">
        <ele>293.929969</ele>
        <time>2011-02-19T13:25:17Z</time>
      </trkpt>
      <trkpt lat="46.78258" lon="4.7253">
        <ele>295.89545</ele>
        <time>2011-02-19T13:25:23Z</time>
      </trkpt>
      <trkpt lat="46.78261" lon="4.72516">
        <ele>297.609225</ele>
        <time>2011-02-19T13:25:29Z</time>
      </trkpt>
      <trkpt lat="46.78263" lon="4.72502">
        <ele>299.09859</ele>
        <time>2011-02-19T13:25:35Z</time>
      </trkpt>
      <trkpt lat="46.78263" lon="4.72487">
        <ele>300.381216</ele>
        <time>2011-02-19T13:25:40Z</time>
      </trkpt>
      <trkpt lat="46.78263" lon="4.72473">
        <ele>301.562411</ele>
        <time>2011-02-19T13:25:44Z</time>
      </trkpt>
      <trkpt lat="46.78265" lon="4.72458">
        <ele>302.747256</ele>
        <time>2011-02-19T13:25:50Z</time>
      </trkpt>
      <trkpt lat="46.78266" lon="4.72444">
        <ele>303.946739</ele>
        <time>2011-02-19T13:25:56Z</time>
      </trkpt>
      <trkpt lat="46.78267" lon="4.72429">
        <ele>305.049254</ele>
        <time>2011-02-19T13:26:03Z</time>
      </trkpt>
      <trkpt lat="46.78266" lon="4.72415">
        <ele>306.017193</ele>
        <time>2011-02-19T13:26:08Z</time>
      </trkpt>
      <trkpt lat="46.78262" lon="4.72402">
        <ele>306.966199</ele>
        <time>2011-02-19T13:26:14Z</time>
      </trkpt>
      <trkpt lat="46.78258" lon="4.72388">
        <ele>308.008969</ele>
        <time>2011-02-19T13:26:21Z</time>
      </trkpt>
      <trkpt lat="46.78255" lon="4.72373">
        <ele>309.114265</ele>
        <time>2011-02-19T13:26:27Z</time>
      </trkpt>
      <trkpt lat="46.78253" lon="4.7236">
        <ele>310.181755</ele>
        <time>2011-02-19T13:26:33Z</time>
      </trkpt>
      <trkpt lat="46.78251" lon="4.72345">
        <ele>311.197549</ele>
        <time>2011-02-19T13:26:39Z</time>
      </trkpt>
      <trkpt lat="46.78252" lon="4.72331">
        <ele>312.165819</ele>
        <time>2011-02-19T13:26:45Z</time>
      </trkpt>
      <trkpt lat="46.78252" lon="4.72317">
        <ele>313.017034</ele>
        <time>2011-02-19T13:26:51Z</time>
      </trkpt>
      <trkpt lat="46.78252" lon="4.72301">
        <ele>313.737357</ele>
        <time>2011-02-19T13:26:57Z</time>
      </trkpt>
      <trkpt lat="46.78251" lon="4.72286">
        <ele>314.412913</ele>
        <time>2011-02-19T13:27:02Z</time>
      </trkpt>
      <trkpt lat="46.78248" lon="4.72273">
        <ele>315.112681</ele>
        <time>2011-02-19T13:27:07Z</time>
      </trkpt>
      <trkpt lat="46.78247" lon="4.7226">
        <ele>315.831685</ele>
        <time>2011-02-19T13:27:12Z</time>
      </trkpt>
      <trkpt lat="46.78247" lon="4.72244">
        <ele>316.535628</ele>
        <time>2011-02-19T13:27:18Z</time>
      </trkpt>
      <trkpt lat="46.78246" lon="4.72231">
        <ele>317.211905</ele>
        <time>2011-02-19T13:27:22Z</time>
      </trkpt>
      <trkpt lat="46.78247" lon="4.72217">
        <ele>317.899032</ele>
        <time>2011-02-19T13:27:27Z</time>
      </trkpt>
      <trkpt lat="46.78245" lon="4.72203">
        <ele>318.738955</ele>
        <time>2011-02-19T13:27:31Z</time>
      </trkpt>
      <trkpt lat="46.78243" lon="4.72189">
        <ele>319.789048</ele>
        <time>2011-02-19T13:27:36Z</time>
      </trkpt>
      <trkpt lat="46.78243" lon="4.72173">
        <ele>320.911907</ele>
        <time>2011-02-19T13:27:42Z</time>
      </trkpt>
      <trkpt lat="46.78243" lon="4.72159">
        <ele>321.980643</ele>
        <time>2011-02-19T13:27:47Z</time>
      </trkpt>
      <trkpt lat="46.78243" lon="4.72144">
        <ele>323.000511</ele>
        <time>2011-02-19T13:27:53Z</time>
      </trkpt>
      <trkpt lat="46.78243" lon="4.7213">
        <ele>324.036097</ele>
        <time>2011-02-19T13:27:58Z</time>
      </trkpt>
      <trkpt lat="46.78244" lon="4.72116">
        <ele>325.114862</ele>
        <time>2011-02-19T13:28:03Z</time>
      </trkpt>
      <trkpt lat="46.78246" lon="4.72101">
        <ele>326.206308</ele>
        <time>2011-02-19T13:28:09Z</time>
      </trkpt>
      <trkpt lat="46.78247" lon="4.72088">
        <ele>327.267965</ele>
        <time>2011-02-19T13:28:15Z</time>
      </trkpt>
      <trkpt lat="46.78245" lon="4.72074">
        <ele>328.248239</ele>
        <time>2011-02-19T13:28:22Z</time>
      </trkpt>
      <trkpt lat="46.78243" lon="4.72061">
        <ele>329.153181</ele>
        <time>2011-02-19T13:28:28Z</time>
      </trkpt>
      <trkpt lat="46.78243" lon="4.72048">
        <ele>330.077172</ele>
        <time>2011-02-19T13:28:33Z</time>
      </trkpt>
      <trkpt lat="46.78243" lon="4.72033">
        <ele>331.103778</ele>
        <time>2011-02-19T13:28:38Z</time>
      </trkpt>
      <trkpt lat="46.78243" lon="4.72019">
        <ele>332.217318</ele>
        <time>2011-02-19T13:28:43Z</time>
      </trkpt>
      <trkpt lat="46.78243" lon="4.72003">
        <ele>333.296533</ele>
        <time>2011-02-19T13:28:48Z</time>
      </trkpt>
      <trkpt lat="46.78244" lon="4.71989">
        <ele>334.223992</ele>
        <time>2011-02-19T13:28:52Z</time>
      </trkpt>
      <trkpt lat="46.78248" lon="4.71975">
        <ele>334.971126</ele>
        <time>2011-02-19T13:28:57Z</time>
      </trkpt>
      <trkpt lat="46.78251" lon="4.71961">
        <ele>335.584781</ele>
        <time>2011-02-19T13:29:02Z</time>
      </trkpt>
      <trkpt lat="46.78255" lon="4.71947">
        <ele>336.141111</ele>
        <time>2011-02-19T13:29:07Z</time>
      </trkpt>
      <trkpt lat="46.78258" lon="4.71934">
        <ele>336.753714</ele>
        <time>2011-02-19T13:29:12Z</time>
      </trkpt>
      <trkpt lat="46.7826" lon="4.71921">
        <ele>337.541659</ele>
        <time>2011-02-19T13:29:19Z</time>
      </trkpt>
      <trkpt lat="46.78257" lon="4.71908">
        <ele>338.521939</ele>
        <time>2011-02-19T13:29:25Z</time>
      </trkpt>
      <trkpt lat="46.78251" lon="4.71896">
        <ele>339.597998</ele>
        <time>2011-02-19T13:29:29Z</time>
      </trkpt>
      <trkpt lat="46.78246" lon="4.71884">
        <ele>340.675899</ele>
        <time>2011-02-19T13:29:34Z</time>
      </trkpt>
      <trkpt lat="46.78246" lon="4.71884">
        <ele>341.580899</ele>
        <time>2011-02-19T13:29:49Z</time>
      </trkpt>
      <trkpt lat="46.78261" lon="4.71915">
        <ele>349.925021</ele>
        <time>2011-02-19T13:42:24Z</time>
      </trkpt>
      <trkpt lat="46.78266" lon="4.71927">
        <ele>349.93329</ele>
        <time>2011-02-19T13:42:31Z</time>
      </trkpt>
      <trkpt lat="46.78272" lon="4.71937">
        <ele>349.939414</ele>
        <time>2011-02-19T13:42:38Z</time>
      </trkpt>
      <trkpt lat="46.78277" lon="4.71949">
        <ele>350.17833</ele>
        <time>2011-02-19T13:42:45Z</time>
      </trkpt>
      <trkpt lat="46.78285" lon="4.71956">
        <ele>350.8132</ele>
        <time>2011-02-19T13:42:52Z</time>
      </trkpt>
      <trkpt lat="46.78295" lon="4.71958">
        <ele>351.493491</ele>
        <time>2011-02-19T13:42:59Z</time>
      </trkpt>
      <trkpt lat="46.78304" lon="4.71952">
        <ele>351.84267</ele>
        <time>2011-02-19T13:43:03Z</time>
      </trkpt>
      <trkpt lat="46.78314" lon="4.71946">
        <ele>351.936905</ele>
        <time>2011-02-19T13:43:07Z</time>
      </trkpt>
      <trkpt lat="46.78323" lon="4.7194">
        <ele>351.977978</ele>
        <time>2011-02-19T13:43:13Z</time>
      </trkpt>
      <trkpt lat="46.78329" lon="4.71929">
        <ele>352.071451</ele>
        <time>2011-02-19T13:43:19Z</time>
      </trkpt>
      <trkpt lat="46.7833" lon="4.71915">
        <ele>352.193854</ele>
        <time>2011-02-19T13:43:24Z</time>
      </trkpt>
      <trkpt lat="46.78333" lon="4.71901">
        <ele>352.329487</ele>
        <time>2011-02-19T13:43:30Z</time>
      </trkpt>
      <trkpt lat="46.78338" lon="4.7189">
        <ele>352.55039</ele>
        <time>2011-02-19T13:43:36Z</time>
      </trkpt>
      <trkpt lat="46.78344" lon="4.71877">
        <ele>352.890535</ele>
        <time>2011-02-19T13:43:42Z</time>
      </trkpt>
      <trkpt lat="46.78348" lon="4.71865">
        <ele>353.267506</ele>
        <time>2011-02-19T13:43:49Z</time>
      </trkpt>
      <trkpt lat="46.78353" lon="4.71852">
        <ele>353.60097</ele>
        <time>2011-02-19T13:43:56Z</time>
      </trkpt>
      <trkpt lat="46.78354" lon="4.71837">
        <ele>353.86136</ele>
        <time>2011-02-19T13:44:01Z</time>
      </trkpt>
      <trkpt lat="46.78359" lon="4.71826">
        <ele>354.057245</ele>
        <time>2011-02-19T13:44:08Z</time>
      </trkpt>
      <trkpt lat="46.78365" lon="4.71815">
        <ele>354.26555</ele>
        <time>2011-02-19T13:44:19Z</time>
      </trkpt>
      <trkpt lat="46.78366" lon="4.71801">
        <ele>354.589401</ele>
        <time>2011-02-19T13:44:26Z</time>
      </trkpt>
      <trkpt lat="46.78369" lon="4.71788">
        <ele>355.06884</ele>
        <time>2011-02-19T13:44:33Z</time>
      </trkpt>
      <trkpt lat="46.78374" lon="4.71776">
        <ele>355.697111</ele>
        <time>2011-02-19T13:44:40Z</time>
      </trkpt>
      <trkpt lat="46.78378" lon="4.71762">
        <ele>356.369222</ele>
        <time>2011-02-19T13:44:47Z</time>
      </trkpt>
      <trkpt lat="46.78383" lon="4.7175">
        <ele>356.888754</ele>
        <time>2011-02-19T13:44:55Z</time>
      </trkpt>
      <trkpt lat="46.78383" lon="4.7175">
        <ele>357.155321</ele>
        <time>2011-02-19T13:45:02Z</time>
      </trkpt>
      <trkpt lat="46.78385" lon="4.71785">
        <ele>357.245247</ele>
        <time>2011-02-19T13:45:28Z</time>
      </trkpt>
      <trkpt lat="46.78382" lon="4.71802">
        <ele>357.270581</ele>
        <time>2011-02-19T13:45:31Z</time>
      </trkpt>
      <trkpt lat="46.78376" lon="4.71827">
        <ele>357.282179</ele>
        <time>2011-02-19T13:45:34Z</time>
      </trkpt>
      <trkpt lat="46.78372" lon="4.71842">
        <ele>357.172917</ele>
        <time>2011-02-19T13:45:37Z</time>
      </trkpt>
      <trkpt lat="46.7837" lon="4.71857">
        <ele>356.611903</ele>
        <time>2011-02-19T13:45:40Z</time>
      </trkpt>
      <trkpt lat="46.7837" lon="4.71857">
        <ele>355.609565</ele>
        <time>2011-02-19T13:45:43Z</time>
      </trkpt>
      <trkpt lat="46.78364" lon="4.71888">
        <ele>354.152514</ele>
        <time>2011-02-19T13:45:46Z</time>
      </trkpt>
      <trkpt lat="46.78369" lon="4.71912">
        <ele>352.189496</ele>
        <time>2011-02-19T13:45:49Z</time>
      </trkpt>
      <trkpt lat="46.78375" lon="4.71935">
        <ele>350.350875</ele>
        <time>2011-02-19T13:45:52Z</time>
      </trkpt>
      <trkpt lat="46.78375" lon="4.71935">
        <ele>349.318218</ele>
        <time>2011-02-19T13:45:53Z</time>
      </trkpt>
      <trkpt lat="46.78389" lon="4.71975">
        <ele>348.784788</ele>
        <time>2011-02-19T13:46:00Z</time>
      </trkpt>
      <trkpt lat="46.78391" lon="4.7199">
        <ele>348.155401</ele>
        <time>2011-02-19T13:46:03Z</time>
      </trkpt>
      <trkpt lat="46.78396" lon="4.72007">
        <ele>347.223755</ele>
        <time>2011-02-19T13:46:06Z</time>
      </trkpt>
      <trkpt lat="46.78409" lon="4.72018">
        <ele>346.138378</ele>
        <time>2011-02-19T13:46:09Z</time>
      </trkpt>
      <trkpt lat="46.78418" lon="4.72028">
        <ele>345.105556</ele>
        <time>2011-02-19T13:46:11Z</time>
      </trkpt>
      <trkpt lat="46.78429" lon="4.72038">
        <ele>344.379455</ele>
        <time>2011-02-19T13:46:14Z</time>
      </trkpt>
      <trkpt lat="46.78438" lon="4.72046">
        <ele>343.552081</ele>
        <time>2011-02-19T13:46:17Z</time>
      </trkpt>
      <trkpt lat="46.78438" lon="4.72046">
        <ele>342.193496</ele>
        <time>2011-02-19T13:46:21Z</time>
      </trkpt>
      <trkpt lat="46.78457" lon="4.72064">
        <ele>340.880073</ele>
        <time>2011-02-19T13:46:26Z</time>
      </trkpt>
      <trkpt lat="46.78457" lon="4.72064">
        <ele>340.213924</ele>
        <time>2011-02-19T13:46:30Z</time>
      </trkpt>
      <trkpt lat="46.78488" lon="4.72083">
        <ele>340.051822</ele>
        <time>2011-02-19T13:46:40Z</time>
      </trkpt>
      <trkpt lat="46.78499" lon="4.72088">
        <ele>340.150431</ele>
        <time>2011-02-19T13:46:44Z</time>
      </trkpt>
      <trkpt lat="46.78528" lon="4.72087">
        <ele>340.35269</ele>
        <time>2011-02-19T13:46:57Z</time>
      </trkpt>
      <trkpt lat="46.78528" lon="4.72087">
        <ele>340.553775</ele>
        <time>2011-02-19T13:47:00Z</time>
      </trkpt>
      <trkpt lat="46.78543" lon="4.72063">
        <ele>340.672396</ele>
        <time>2011-02-19T13:47:05Z</time>
      </trkpt>
      <trkpt lat="46.78549" lon="4.72051">
        <ele>340.708087</ele>
        <time>2011-02-19T13:47:11Z</time>
      </trkpt>
      <trkpt lat="46.78553" lon="4.72037">
        <ele>340.78764</ele>
        <time>2011-02-19T13:47:17Z</time>
      </trkpt>
      <trkpt lat="46.78554" lon="4.72016">
        <ele>341.313568</ele>
        <time>2011-02-19T13:47:27Z</time>
      </trkpt>
      <trkpt lat="46.78555" lon="4.72002">
        <ele>342.662489</ele>
        <time>2011-02-19T13:47:34Z</time>
      </trkpt>
      <trkpt lat="46.78555" lon="4.7198">
        <ele>344.701262</ele>
        <time>2011-02-19T13:47:45Z</time>
      </trkpt>
      <trkpt lat="46.78554" lon="4.71967">
        <ele>347.194922</ele>
        <time>2011-02-19T13:47:51Z</time>
      </trkpt>
      <trkpt lat="46.78554" lon="4.71947">
        <ele>350.004255</ele>
        <time>2011-02-19T13:48:00Z</time>
      </trkpt>
      <trkpt lat="46.78555" lon="4.71923">
        <ele>352.922675</ele>
        <time>2011-02-19T13:48:12Z</time>
      </trkpt>
      <trkpt lat="46.78556" lon="4.71906">
        <ele>355.713713</ele>
        <time>2011-02-19T13:48:18Z</time>
      </trkpt>
      <trkpt lat="46.78557" lon="4.71893">
        <ele>358.236514</ele>
        <time>2011-02-19T13:48:24Z</time>
      </trkpt>
      <trkpt lat="46.78557" lon="4.71877">
        <ele>360.639967</ele>
        <time>2011-02-19T13:48:32Z</time>
      </trkpt>
      <trkpt lat="46.78557" lon="4.71863">
        <ele>363.022539</ele>
        <time>2011-02-19T13:48:39Z</time>
      </trkpt>
      <trkpt lat="46.78557" lon="4.7184">
        <ele>365.058096</ele>
        <time>2011-02-19T13:48:49Z</time>
      </trkpt>
      <trkpt lat="46.78558" lon="4.71826">
        <ele>366.64419</ele>
        <time>2011-02-19T13:48:54Z</time>
      </trkpt>
      <trkpt lat="46.78558" lon="4.71811">
        <ele>368.022358</ele>
        <time>2011-02-19T13:49:00Z</time>
      </trkpt>
      <trkpt lat="46.78556" lon="4.71797">
        <ele>369.425156</ele>
        <time>2011-02-19T13:49:06Z</time>
      </trkpt>
      <trkpt lat="46.78558" lon="4.7178">
        <ele>370.907536</ele>
        <time>2011-02-19T13:49:14Z</time>
      </trkpt>
      <trkpt lat="46.78557" lon="4.71766">
        <ele>372.322821</ele>
        <time>2011-02-19T13:49:20Z</time>
      </trkpt>
      <trkpt lat="46.78556" lon="4.71751">
        <ele>373.551854</ele>
        <time>2011-02-19T13:49:26Z</time>
      </trkpt>
      <trkpt lat="46.78556" lon="4.71736">
        <ele>374.665403</ele>
        <time>2011-02-19T13:49:32Z</time>
      </trkpt>
      <trkpt lat="46.78557" lon="4.71722">
        <ele>375.703436</ele>
        <time>2011-02-19T13:49:38Z</time>
      </trkpt>
      <trkpt lat="46.78557" lon="4.71709">
        <ele>376.627671</ele>
        <time>2011-02-19T13:49:44Z</time>
      </trkpt>
      <trkpt lat="46.78559" lon="4.71694">
        <ele>377.44455</ele>
        <time>2011-02-19T13:49:51Z</time>
      </trkpt>
      <trkpt lat="46.78557" lon="4.71679">
        <ele>378.211143</ele>
        <time>2011-02-19T13:49:57Z</time>
      </trkpt>
      <trkpt lat="46.78555" lon="4.71665">
        <ele>378.930039</ele>
        <time>2011-02-19T13:50:02Z</time>
      </trkpt>
      <trkpt lat="46.78553" lon="4.71652">
        <ele>379.588265</ele>
        <time>2011-02-19T13:50:08Z</time>
      </trkpt>
      <trkpt lat="46.78551" lon="4.71638">
        <ele>380.206824</ele>
        <time>2011-02-19T13:50:15Z</time>
      </trkpt>
      <trkpt lat="46.7855" lon="4.71625">
        <ele>380.841582</ele>
        <time>2011-02-19T13:50:21Z</time>
      </trkpt>
      <trkpt lat="46.78551" lon="4.71611">
        <ele>381.569346</ele>
        <time>2011-02-19T13:50:28Z</time>
      </trkpt>
      <trkpt lat="46.78554" lon="4.71597">
        <ele>382.456777</ele>
        <time>2011-02-19T13:50:35Z</time>
      </trkpt>
      <trkpt lat="46.78554" lon="4.71584">
        <ele>383.494098</ele>
        <time>2011-02-19T13:50:42Z</time>
      </trkpt>
      <trkpt lat="46.78554" lon="4.71571">
        <ele>384.597545</ele>
        <time>2011-02-19T13:50:48Z</time>
      </trkpt>
      <trkpt lat="46.78553" lon="4.71557">
        <ele>385.668713</ele>
        <time>2011-02-19T13:50:54Z</time>
      </trkpt>
      <trkpt lat="46.78553" lon="4.71543">
        <ele>386.643749</ele>
        <time>2011-02-19T13:51:00Z</time>
      </trkpt>
      <trkpt lat="46.78554" lon="4.71529">
        <ele>387.501819</ele>
        <time>2011-02-19T13:51:08Z</time>
      </trkpt>
      <trkpt lat="46.78553" lon="4.71516">
        <ele>388.253744</ele>
        <time>2011-02-19T13:51:15Z</time>
      </trkpt>
      <trkpt lat="46.78552" lon="4.71502">
        <ele>388.941458</ele>
        <time>2011-02-19T13:51:22Z</time>
      </trkpt>
      <trkpt lat="46.78551" lon="4.71487">
        <ele>389.645253</ele>
        <time>2011-02-19T13:51:29Z</time>
      </trkpt>
      <trkpt lat="46.78549" lon="4.71474">
        <ele>390.427503</ele>
        <time>2011-02-19T13:51:36Z</time>
      </trkpt>
      <trkpt lat="46.78549" lon="4.7146">
        <ele>391.29996</ele>
        <time>2011-02-19T13:51:44Z</time>
      </trkpt>
      <trkpt lat="46.78548" lon="4.71445">
        <ele>392.253439</ele>
        <time>2011-02-19T13:51:50Z</time>
      </trkpt>
      <trkpt lat="46.7855" lon="4.71432">
        <ele>393.258199</ele>
        <time>2011-02-19T13:51:57Z</time>
      </trkpt>
      <trkpt lat="46.7855" lon="4.71417">
        <ele>394.258909</ele>
        <time>2011-02-19T13:52:04Z</time>
      </trkpt>
      <trkpt lat="46.7855" lon="4.71403">
        <ele>395.18107</ele>
        <time>2011-02-19T13:52:10Z</time>
      </trkpt>
      <trkpt lat="46.7855" lon="4.71388">
        <ele>396.009654</ele>
        <time>2011-02-19T13:52:17Z</time>
      </trkpt>
      <trkpt lat="46.78549" lon="4.71374">
        <ele>396.845667</ele>
        <time>2011-02-19T13:52:23Z</time>
      </trkpt>
      <trkpt lat="46.7855" lon="4.71359">
        <ele>397.755257</ele>
        <time>2011-02-19T13:52:30Z</time>
      </trkpt>
      <trkpt lat="46.78552" lon="4.71345">
        <ele>398.69806</ele>
        <time>2011-02-19T13:52:36Z</time>
      </trkpt>
      <trkpt lat="46.78551" lon="4.71331">
        <ele>399.603656</ele>
        <time>2011-02-19T13:52:41Z</time>
      </trkpt>
      <trkpt lat="46.7855" lon="4.71317">
        <ele>400.402965</ele>
        <time>2011-02-19T13:52:47Z</time>
      </trkpt>
      <trkpt lat="46.7855" lon="4.71302">
        <ele>401.093385</ele>
        <time>2011-02-19T13:52:53Z</time>
      </trkpt>
      <trkpt lat="46.7855" lon="4.71287">
        <ele>401.735343</ele>
        <time>2011-02-19T13:52:59Z</time>
      </trkpt>
      <trkpt lat="46.7855" lon="4.71273">
        <ele>402.377641</ele>
        <time>2011-02-19T13:53:05Z</time>
      </trkpt>
      <trkpt lat="46.7855" lon="4.71258">
        <ele>403.058239</ele>
        <time>2011-02-19T13:53:11Z</time>
      </trkpt>
      <trkpt lat="46.7855" lon="4.71244">
        <ele>403.77542</ele>
        <time>2011-02-19T13:53:17Z</time>
      </trkpt>
      <trkpt lat="46.7855" lon="4.71228">
        <ele>404.477202</ele>
        <time>2011-02-19T13:53:23Z</time>
      </trkpt>
      <trkpt lat="46.78549" lon="4.71214">
        <ele>405.12744</ele>
        <time>2011-02-19T13:53:28Z</time>
      </trkpt>
      <trkpt lat="46.78549" lon="4.712">
        <ele>405.761953</ele>
        <time>2011-02-19T13:53:33Z</time>
      </trkpt>
      <trkpt lat="46.7855" lon="4.71185">
        <ele>406.453594</ele>
        <time>2011-02-19T13:53:38Z</time>
      </trkpt>
      <trkpt lat="46.78551" lon="4.71171">
        <ele>407.21376</ele>
        <time>2011-02-19T13:53:44Z</time>
      </trkpt>
      <trkpt lat="46.78552" lon="4.71156">
        <ele>407.971675</ele>
        <time>2011-02-19T13:53:51Z</time>
      </trkpt>
      <trkpt lat="46.78556" lon="4.71142">
        <ele>408.664535</ele>
        <time>2011-02-19T13:53:58Z</time>
      </trkpt>
      <trkpt lat="46.78563" lon="4.7113">
        <ele>409.298917</ele>
        <time>2011-02-19T13:54:04Z</time>
      </trkpt>
      <trkpt lat="46.78569" lon="4.71121">
        <ele>409.935014</ele>
        <time>2011-02-19T13:54:09Z</time>
      </trkpt>
      <trkpt lat="46.78576" lon="4.7111">
        <ele>410.613953</ele>
        <time>2011-02-19T13:54:14Z</time>
      </trkpt>
      <trkpt lat="46.78584" lon="4.711">
        <ele>411.300359</ele>
        <time>2011-02-19T13:54:20Z</time>
      </trkpt>
      <trkpt lat="46.78591" lon="4.7109">
        <ele>411.923978</ele>
        <time>2011-02-19T13:54:26Z</time>
      </trkpt>
      <trkpt lat="46.78598" lon="4.71081">
        <ele>412.445535</ele>
        <time>2011-02-19T13:54:33Z</time>
      </trkpt>
      <trkpt lat="46.78605" lon="4.7107">
        <ele>412.880057</ele>
        <time>2011-02-19T13:54:40Z</time>
      </trkpt>
      <trkpt lat="46.78613" lon="4.7106">
        <ele>413.274267</ele>
        <time>2011-02-19T13:54:46Z</time>
      </trkpt>
      <trkpt lat="46.7862" lon="4.71051">
        <ele>413.66059</ele>
        <time>2011-02-19T13:54:52Z</time>
      </trkpt>
      <trkpt lat="46.78625" lon="4.71041">
        <ele>414.040653</ele>
        <time>2011-02-19T13:54:57Z</time>
      </trkpt>
      <trkpt lat="46.78632" lon="4.71031">
        <ele>414.379517</ele>
        <time>2011-02-19T13:55:03Z</time>
      </trkpt>
      <trkpt lat="46.78639" lon="4.71021">
        <ele>414.624971</ele>
        <time>2011-02-19T13:55:09Z</time>
      </trkpt>
      <trkpt lat="46.78646" lon="4.71011">
        <ele>414.765543</ele>
        <time>2011-02-19T13:55:15Z</time>
      </trkpt>
      <trkpt lat="46.78652" lon="4.71">
        <ele>414.843737</ele>
        <time>2011-02-19T13:55:20Z</time>
      </trkpt>
      <trkpt lat="46.78658" lon="4.70988">
        <ele>414.928202</ele>
        <time>2011-02-19T13:55:24Z</time>
      </trkpt>
      <trkpt lat="46.78664" lon="4.70978">
        <ele>415.075428</ele>
        <time>2011-02-19T13:55:28Z</time>
      </trkpt>
      <trkpt lat="46.78669" lon="4.70966">
        <ele>415.282089</ele>
        <time>2011-02-19T13:55:32Z</time>
      </trkpt>
      <trkpt lat="46.78674" lon="4.70953">
        <ele>415.502177</ele>
        <time>2011-02-19T13:55:36Z</time>
      </trkpt>
      <trkpt lat="46.78679" lon="4.70942">
        <ele>415.690385</ele>
        <time>2011-02-19T13:55:40Z</time>
      </trkpt>
      <trkpt lat="46.78684" lon="4.7093">
        <ele>415.814524</ele>
        <time>2011-02-19T13:55:44Z</time>
      </trkpt>
      <trkpt lat="46.7869" lon="4.70919">
        <ele>415.874667</ele>
        <time>2011-02-19T13:55:50Z</time>
      </trkpt>
      <trkpt lat="46.78697" lon="4.70906">
        <ele>415.906695</ele>
        <time>2011-02-19T13:55:55Z</time>
      </trkpt>
      <trkpt lat="46.78702" lon="4.70894">
        <ele>415.93903</ele>
        <time>2011-02-19T13:55:59Z</time>
      </trkpt>
      <trkpt lat="46.78708" lon="4.70883">
        <ele>415.99234</ele>
        <time>2011-02-19T13:56:03Z</time>
      </trkpt>
      <trkpt lat="46.78713" lon="4.70871">
        <ele>416.084511</ele>
        <time>2011-02-19T13:56:07Z</time>
      </trkpt>
      <trkpt lat="46.78719" lon="4.70859">
        <ele>416.20675</ele>
        <time>2011-02-19T13:56:10Z</time>
      </trkpt>
      <trkpt lat="46.78725" lon="4.70846">
        <ele>416.337132</ele>
        <time>2011-02-19T13:56:13Z</time>
      </trkpt>
      <trkpt lat="46.78732" lon="4.70834">
        <ele>416.466868</ele>
        <time>2011-02-19T13:56:16Z</time>
      </trkpt>
      <trkpt lat="46.7874" lon="4.70821">
        <ele>416.583647</ele>
        <time>2011-02-19T13:56:19Z</time>
      </trkpt>
      <trkpt lat="46.78746" lon="4.7081">
        <ele>416.67849</ele>
        <time>2011-02-19T13:56:22Z</time>
      </trkpt>
      <trkpt lat="46.78752" lon="4.708">
        <ele>416.764501</ele>
        <time>2011-02-19T13:56:25Z</time>
      </trkpt>
      <trkpt lat="46.78758" lon="4.7079">
        <ele>416.856984</ele>
        <time>2011-02-19T13:56:28Z</time>
      </trkpt>
      <trkpt lat="46.78764" lon="4.70779">
        <ele>416.953999</ele>
        <time>2011-02-19T13:56:32Z</time>
      </trkpt>
      <trkpt lat="46.78771" lon="4.70767">
        <ele>417.048615</ele>
        <time>2011-02-19T13:56:37Z</time>
      </trkpt>
      <trkpt lat="46.78778" lon="4.70754">
        <ele>417.129646</ele>
        <time>2011-02-19T13:56:43Z</time>
      </trkpt>
      <trkpt lat="46.78783" lon="4.70738">
        <ele>417.186176</ele>
        <time>2011-02-19T13:56:46Z</time>
      </trkpt>
      <trkpt lat="46.7879" lon="4.70719">
        <ele>417.271003</ele>
        <time>2011-02-19T13:56:48Z</time>
      </trkpt>
      <trkpt lat="46.78797" lon="4.70704">
        <ele>417.480972</ele>
        <time>2011-02-19T13:56:51Z</time>
      </trkpt>
      <trkpt lat="46.78805" lon="4.70691">
        <ele>417.819444</ele>
        <time>2011-02-19T13:56:54Z</time>
      </trkpt>
      <trkpt lat="46.78812" lon="4.70683">
        <ele>418.153455</ele>
        <time>2011-02-19T13:56:57Z</time>
      </trkpt>
      <trkpt lat="46.78823" lon="4.70674">
        <ele>418.359666</ele>
        <time>2011-02-19T13:57:01Z</time>
      </trkpt>
      <trkpt lat="46.78832" lon="4.70665">
        <ele>418.440287</ele>
        <time>2011-02-19T13:57:04Z</time>
      </trkpt>
      <trkpt lat="46.78844" lon="4.70657">
        <ele>418.466551</ele>
        <time>2011-02-19T13:57:07Z</time>
      </trkpt>
      <trkpt lat="46.78853" lon="4.70652">
        <ele>418.478402</ele>
        <time>2011-02-19T13:57:09Z</time>
      </trkpt>
      <trkpt lat="46.78869" lon="4.70643">
        <ele>418.483684</ele>
        <time>2011-02-19T13:57:12Z</time>
      </trkpt>
      <trkpt lat="46.7888" lon="4.70637">
        <ele>418.48428</ele>
        <time>2011-02-19T13:57:14Z</time>
      </trkpt>
      <trkpt lat="46.78897" lon="4.70627">
        <ele>418.472664</ele>
        <time>2011-02-19T13:57:17Z</time>
      </trkpt>
      <trkpt lat="46.7891" lon="4.7062">
        <ele>418.404964</ele>
        <time>2011-02-19T13:57:19Z</time>
      </trkpt>
      <trkpt lat="46.78922" lon="4.70615">
        <ele>418.246637</ele>
        <time>2011-02-19T13:57:21Z</time>
      </trkpt>
      <trkpt lat="46.78942" lon="4.70611">
        <ele>418.038416</ele>
        <time>2011-02-19T13:57:24Z</time>
      </trkpt>
      <trkpt lat="46.78963" lon="4.7061">
        <ele>417.859443</ele>
        <time>2011-02-19T13:57:27Z</time>
      </trkpt>
      <trkpt lat="46.78984" lon="4.70614">
        <ele>417.742601</ele>
        <time>2011-02-19T13:57:30Z</time>
      </trkpt>
      <trkpt lat="46.79008" lon="4.70621">
        <ele>417.628458</ele>
        <time>2011-02-19T13:57:33Z</time>
      </trkpt>
      <trkpt lat="46.79029" lon="4.7063">
        <ele>417.468588</ele>
        <time>2011-02-19T13:57:36Z</time>
      </trkpt>
      <trkpt lat="46.79039" lon="4.70635">
        <ele>417.317475</ele>
        <time>2011-02-19T13:57:38Z</time>
      </trkpt>
      <trkpt lat="46.79049" lon="4.70641">
        <ele>417.180099</ele>
        <time>2011-02-19T13:57:42Z</time>
      </trkpt>
      <trkpt lat="46.79058" lon="4.70647">
        <ele>416.970814</ele>
        <time>2011-02-19T13:57:46Z</time>
      </trkpt>
      <trkpt lat="46.79071" lon="4.70651">
        <ele>416.699541</ele>
        <time>2011-02-19T13:57:49Z</time>
      </trkpt>
      <trkpt lat="46.79083" lon="4.70653">
        <ele>416.465989</ele>
        <time>2011-02-19T13:57:51Z</time>
      </trkpt>
      <trkpt lat="46.79102" lon="4.70653">
        <ele>416.312474</ele>
        <time>2011-02-19T13:57:54Z</time>
      </trkpt>
      <trkpt lat="46.79118" lon="4.70654">
        <ele>416.115123</ele>
        <time>2011-02-19T13:57:56Z</time>
      </trkpt>
      <trkpt lat="46.7914" lon="4.70666">
        <ele>415.70964</ele>
        <time>2011-02-19T13:57:59Z</time>
      </trkpt>
      <trkpt lat="46.79164" lon="4.70684">
        <ele>415.117611</ele>
        <time>2011-02-19T13:58:02Z</time>
      </trkpt>
      <trkpt lat="46.79179" lon="4.70698">
        <ele>414.533597</ele>
        <time>2011-02-19T13:58:04Z</time>
      </trkpt>
      <trkpt lat="46.79196" lon="4.70707">
        <ele>414.090027</ele>
        <time>2011-02-19T13:58:06Z</time>
      </trkpt>
      <trkpt lat="46.79223" lon="4.70719">
        <ele>413.753088</ele>
        <time>2011-02-19T13:58:09Z</time>
      </trkpt>
      <trkpt lat="46.7924" lon="4.70727">
        <ele>413.395606</ele>
        <time>2011-02-19T13:58:11Z</time>
      </trkpt>
      <trkpt lat="46.79267" lon="4.70741">
        <ele>412.905496</ele>
        <time>2011-02-19T13:58:14Z</time>
      </trkpt>
      <trkpt lat="46.79285" lon="4.70753">
        <ele>412.223718</ele>
        <time>2011-02-19T13:58:16Z</time>
      </trkpt>
      <trkpt lat="46.79314" lon="4.70774">
        <ele>411.457192</ele>
        <time>2011-02-19T13:58:19Z</time>
      </trkpt>
      <trkpt lat="46.79333" lon="4.70784">
        <ele>410.783925</ele>
        <time>2011-02-19T13:58:21Z</time>
      </trkpt>
      <trkpt lat="46.79353" lon="4.70791">
        <ele>410.253805</ele>
        <time>2011-02-19T13:58:23Z</time>
      </trkpt>
      <trkpt lat="46.79372" lon="4.70797">
        <ele>409.827774</ele>
        <time>2011-02-19T13:58:25Z</time>
      </trkpt>
      <trkpt lat="46.794" lon="4.70805">
        <ele>409.434523</ele>
        <time>2011-02-19T13:58:28Z</time>
      </trkpt>
      <trkpt lat="46.79426" lon="4.7082">
        <ele>409.006092</ele>
        <time>2011-02-19T13:58:31Z</time>
      </trkpt>
      <trkpt lat="46.79443" lon="4.70832">
        <ele>408.615697</ele>
        <time>2011-02-19T13:58:33Z</time>
      </trkpt>
      <trkpt lat="46.79463" lon="4.70842">
        <ele>408.284589</ele>
        <time>2011-02-19T13:58:35Z</time>
      </trkpt>
      <trkpt lat="46.79497" lon="4.70851">
        <ele>407.782907</ele>
        <time>2011-02-19T13:58:38Z</time>
      </trkpt>
      <trkpt lat="46.79518" lon="4.70857">
        <ele>406.880174</ele>
        <time>2011-02-19T13:58:40Z</time>
      </trkpt>
      <trkpt lat="46.79545" lon="4.7087">
        <ele>405.58139</ele>
        <time>2011-02-19T13:58:43Z</time>
      </trkpt>
      <trkpt lat="46.79557" lon="4.70883">
        <ele>404.022228</ele>
        <time>2011-02-19T13:58:45Z</time>
      </trkpt>
      <trkpt lat="46.79575" lon="4.70895">
        <ele>402.466012</ele>
        <time>2011-02-19T13:58:48Z</time>
      </trkpt>
      <trkpt lat="46.79583" lon="4.70902">
        <ele>401.154999</ele>
        <time>2011-02-19T13:58:51Z</time>
      </trkpt>
      <trkpt lat="46.79583" lon="4.70902">
        <ele>400.210405</ele>
        <time>2011-02-19T13:58:55Z</time>
      </trkpt>
      <trkpt lat="46.79601" lon="4.70908">
        <ele>399.628995</ele>
        <time>2011-02-19T13:59:04Z</time>
      </trkpt>
      <trkpt lat="46.79611" lon="4.70904">
        <ele>399.079131</ele>
        <time>2011-02-19T13:59:08Z</time>
      </trkpt>
      <trkpt lat="46.7962" lon="4.70897">
        <ele>398.285922</ele>
        <time>2011-02-19T13:59:11Z</time>
      </trkpt>
      <trkpt lat="46.79631" lon="4.70888">
        <ele>397.195319</ele>
        <time>2011-02-19T13:59:14Z</time>
      </trkpt>
      <trkpt lat="46.79642" lon="4.70884">
        <ele>395.787456</ele>
        <time>2011-02-19T13:59:16Z</time>
      </trkpt>
      <trkpt lat="46.79655" lon="4.7088">
        <ele>394.367216</ele>
        <time>2011-02-19T13:59:18Z</time>
      </trkpt>
      <trkpt lat="46.7967" lon="4.70876">
        <ele>392.619518</ele>
        <time>2011-02-19T13:59:20Z</time>
      </trkpt>
      <trkpt lat="46.79696" lon="4.70867">
        <ele>389.791834</ele>
        <time>2011-02-19T13:59:23Z</time>
      </trkpt>
      <trkpt lat="46.7972" lon="4.70867">
        <ele>386.450177</ele>
        <time>2011-02-19T13:59:26Z</time>
      </trkpt>
      <trkpt lat="46.79747" lon="4.70874">
        <ele>383.735197</ele>
        <time>2011-02-19T13:59:29Z</time>
      </trkpt>
      <trkpt lat="46.79765" lon="4.70886">
        <ele>381.849385</ele>
        <time>2011-02-19T13:59:31Z</time>
      </trkpt>
      <trkpt lat="46.79787" lon="4.70898">
        <ele>380.431851</ele>
        <time>2011-02-19T13:59:33Z</time>
      </trkpt>
      <trkpt lat="46.79818" lon="4.70905">
        <ele>379.152417</ele>
        <time>2011-02-19T13:59:36Z</time>
      </trkpt>
      <trkpt lat="46.79844" lon="4.70922">
        <ele>377.996901</ele>
        <time>2011-02-19T13:59:39Z</time>
      </trkpt>
      <trkpt lat="46.7987" lon="4.70946">
        <ele>377.113204</ele>
        <time>2011-02-19T13:59:42Z</time>
      </trkpt>
      <trkpt lat="46.79901" lon="4.70967">
        <ele>376.533417</ele>
        <time>2011-02-19T13:59:45Z</time>
      </trkpt>
      <trkpt lat="46.79922" lon="4.70975">
        <ele>376.045373</ele>
        <time>2011-02-19T13:59:47Z</time>
      </trkpt>
      <trkpt lat="46.79955" lon="4.70984">
        <ele>375.408304</ele>
        <time>2011-02-19T13:59:50Z</time>
      </trkpt>
      <trkpt lat="46.79988" lon="4.70987">
        <ele>374.504891</ele>
        <time>2011-02-19T13:59:53Z</time>
      </trkpt>
      <trkpt lat="46.8002" lon="4.70982">
        <ele>373.31783</ele>
        <time>2011-02-19T13:59:56Z</time>
      </trkpt>
      <trkpt lat="46.80038" lon="4.70978">
        <ele>371.844509</ele>
        <time>2011-02-19T13:59:58Z</time>
      </trkpt>
      <trkpt lat="46.80057" lon="4.70978">
        <ele>369.943809</ele>
        <time>2011-02-19T14:00:00Z</time>
      </trkpt>
      <trkpt lat="46.80085" lon="4.70984">
        <ele>367.623181</ele>
        <time>2011-02-19T14:00:03Z</time>
      </trkpt>
      <trkpt lat="46.80106" lon="4.70989">
        <ele>365.380869</ele>
        <time>2011-02-19T14:00:05Z</time>
      </trkpt>
      <trkpt lat="46.80138" lon="4.71">
        <ele>363.586866</ele>
        <time>2011-02-19T14:00:08Z</time>
      </trkpt>
      <trkpt lat="46.80159" lon="4.71011">
        <ele>362.026465</ele>
        <time>2011-02-19T14:00:10Z</time>
      </trkpt>
      <trkpt lat="46.8018" lon="4.71024">
        <ele>360.493138</ele>
        <time>2011-02-19T14:00:12Z</time>
      </trkpt>
      <trkpt lat="46.80208" lon="4.71041">
        <ele>359.007033</ele>
        <time>2011-02-19T14:00:15Z</time>
      </trkpt>
      <trkpt lat="46.8024" lon="4.71054">
        <ele>357.586377</ele>
        <time>2011-02-19T14:00:18Z</time>
      </trkpt>
      <trkpt lat="46.80262" lon="4.71062">
        <ele>356.286045</ele>
        <time>2011-02-19T14:00:20Z</time>
      </trkpt>
      <trkpt lat="46.80287" lon="4.71072">
        <ele>355.101882</ele>
        <time>2011-02-19T14:00:22Z</time>
      </trkpt>
      <trkpt lat="46.8031" lon="4.71082">
        <ele>353.824508</ele>
        <time>2011-02-19T14:00:24Z</time>
      </trkpt>
      <trkpt lat="46.80334" lon="4.71092">
        <ele>352.317847</ele>
        <time>2011-02-19T14:00:27Z</time>
      </trkpt>
      <trkpt lat="46.80345" lon="4.71094">
        <ele>350.533013</ele>
        <time>2011-02-19T14:00:29Z</time>
      </trkpt>
      <trkpt lat="46.80342" lon="4.71078">
        <ele>348.453418</ele>
        <time>2011-02-19T14:00:34Z</time>
      </trkpt>
      <trkpt lat="46.80325" lon="4.71055">
        <ele>346.217688</ele>
        <time>2011-02-19T14:00:37Z</time>
      </trkpt>
      <trkpt lat="46.80317" lon="4.71035">
        <ele>344.118633</ele>
        <time>2011-02-19T14:00:39Z</time>
      </trkpt>
      <trkpt lat="46.80313" lon="4.71013">
        <ele>341.874819</ele>
        <time>2011-02-19T14:00:42Z</time>
      </trkpt>
      <trkpt lat="46.80321" lon="4.71004">
        <ele>338.180936</ele>
        <time>2011-02-19T14:00:45Z</time>
      </trkpt>
      <trkpt lat="46.80331" lon="4.71002">
        <ele>332.640297</ele>
        <time>2011-02-19T14:00:47Z</time>
      </trkpt>
      <trkpt lat="46.80355" lon="4.71001">
        <ele>326.841751</ele>
        <time>2011-02-19T14:00:50Z</time>
      </trkpt>
      <trkpt lat="46.80377" lon="4.71006">
        <ele>321.997203</ele>
        <time>2011-02-19T14:00:52Z</time>
      </trkpt>
      <trkpt lat="46.80401" lon="4.71013">
        <ele>317.530821</ele>
        <time>2011-02-19T14:00:54Z</time>
      </trkpt>
      <trkpt lat="46.80435" lon="4.71021">
        <ele>312.500151</ele>
        <time>2011-02-19T14:00:57Z</time>
      </trkpt>
      <trkpt lat="46.80469" lon="4.71028">
        <ele>307.238654</ele>
        <time>2011-02-19T14:01:00Z</time>
      </trkpt>
      <trkpt lat="46.80486" lon="4.7103">
        <ele>303.084728</ele>
        <time>2011-02-19T14:01:02Z</time>
      </trkpt>
      <trkpt lat="46.80505" lon="4.71025">
        <ele>300.626065</ele>
        <time>2011-02-19T14:01:05Z</time>
      </trkpt>
      <trkpt lat="46.80513" lon="4.7101">
        <ele>299.417541</ele>
        <time>2011-02-19T14:01:07Z</time>
      </trkpt>
      <trkpt lat="46.80518" lon="4.70977">
        <ele>298.685076</ele>
        <time>2011-02-19T14:01:10Z</time>
      </trkpt>
      <trkpt lat="46.80515" lon="4.70942">
        <ele>297.64017</ele>
        <time>2011-02-19T14:01:13Z</time>
      </trkpt>
      <trkpt lat="46.80507" lon="4.70918">
        <ele>296.094347</ele>
        <time>2011-02-19T14:01:15Z</time>
      </trkpt>
      <trkpt lat="46.80485" lon="4.70882">
        <ele>294.576711</ele>
        <time>2011-02-19T14:01:18Z</time>
      </trkpt>
      <trkpt lat="46.80475" lon="4.70862">
        <ele>293.436157</ele>
        <time>2011-02-19T14:01:20Z</time>
      </trkpt>
      <trkpt lat="46.80475" lon="4.70846">
        <ele>292.328735</ele>
        <time>2011-02-19T14:01:23Z</time>
      </trkpt>
      <trkpt lat="46.80485" lon="4.70847">
        <ele>290.223318</ele>
        <time>2011-02-19T14:01:27Z</time>
      </trkpt>
      <trkpt lat="46.80495" lon="4.70854">
        <ele>286.637765</ele>
        <time>2011-02-19T14:01:30Z</time>
      </trkpt>
      <trkpt lat="46.80506" lon="4.70866">
        <ele>282.680837</ele>
        <time>2011-02-19T14:01:33Z</time>
      </trkpt>
      <trkpt lat="46.80516" lon="4.70876">
        <ele>279.439728</ele>
        <time>2011-02-19T14:01:35Z</time>
      </trkpt>
      <trkpt lat="46.80532" lon="4.70888">
        <ele>276.237618</ele>
        <time>2011-02-19T14:01:38Z</time>
      </trkpt>
      <trkpt lat="46.80543" lon="4.70896">
        <ele>272.224096</ele>
        <time>2011-02-19T14:01:40Z</time>
      </trkpt>
      <trkpt lat="46.80561" lon="4.7091">
        <ele>267.898836</ele>
        <time>2011-02-19T14:01:43Z</time>
      </trkpt>
      <trkpt lat="46.80579" lon="4.70926">
        <ele>263.963799</ele>
        <time>2011-02-19T14:01:46Z</time>
      </trkpt>
      <trkpt lat="46.8059" lon="4.70939">
        <ele>260.490251</ele>
        <time>2011-02-19T14:01:48Z</time>
      </trkpt>
      <trkpt lat="46.80605" lon="4.7096">
        <ele>257.402298</ele>
        <time>2011-02-19T14:01:51Z</time>
      </trkpt>
      <trkpt lat="46.80613" lon="4.70974">
        <ele>254.519967</ele>
        <time>2011-02-19T14:01:53Z</time>
      </trkpt>
      <trkpt lat="46.80624" lon="4.70996">
        <ele>251.836995</ele>
        <time>2011-02-19T14:01:56Z</time>
      </trkpt>
      <trkpt lat="46.80631" lon="4.71009">
        <ele>249.639891</ele>
        <time>2011-02-19T14:01:58Z</time>
      </trkpt>
      <trkpt lat="46.80639" lon="4.71021">
        <ele>248.019058</ele>
        <time>2011-02-19T14:02:00Z</time>
      </trkpt>
      <trkpt lat="46.80651" lon="4.71037">
        <ele>246.710744</ele>
        <time>2011-02-19T14:02:03Z</time>
      </trkpt>
      <trkpt lat="46.80659" lon="4.71047">
        <ele>245.426141</ele>
        <time>2011-02-19T14:02:05Z</time>
      </trkpt>
      <trkpt lat="46.8067" lon="4.71061">
        <ele>244.158139</ele>
        <time>2011-02-19T14:02:08Z</time>
      </trkpt>
      <trkpt lat="46.80682" lon="4.71074">
        <ele>242.830158</ele>
        <time>2011-02-19T14:02:11Z</time>
      </trkpt>
      <trkpt lat="46.80694" lon="4.71089">
        <ele>241.173705</ele>
        <time>2011-02-19T14:02:14Z</time>
      </trkpt>
      <trkpt lat="46.80702" lon="4.71099">
        <ele>239.220454</ele>
        <time>2011-02-19T14:02:16Z</time>
      </trkpt>
      <trkpt lat="46.80712" lon="4.71109">
        <ele>237.210392</ele>
        <time>2011-02-19T14:02:18Z</time>
      </trkpt>
      <trkpt lat="46.80726" lon="4.71122">
        <ele>235.309769</ele>
        <time>2011-02-19T14:02:21Z</time>
      </trkpt>
      <trkpt lat="46.80742" lon="4.71135">
        <ele>233.6485</ele>
        <time>2011-02-19T14:02:24Z</time>
      </trkpt>
      <trkpt lat="46.80758" lon="4.71146">
        <ele>232.302371</ele>
        <time>2011-02-19T14:02:27Z</time>
      </trkpt>
      <trkpt lat="46.80768" lon="4.71154">
        <ele>231.29008</ele>
        <time>2011-02-19T14:02:29Z</time>
      </trkpt>
      <trkpt lat="46.80786" lon="4.71168">
        <ele>230.554096</ele>
        <time>2011-02-19T14:02:32Z</time>
      </trkpt>
      <trkpt lat="46.80799" lon="4.71181">
        <ele>229.953492</ele>
        <time>2011-02-19T14:02:34Z</time>
      </trkpt>
      <trkpt lat="46.80817" lon="4.712">
        <ele>229.384017</ele>
        <time>2011-02-19T14:02:37Z</time>
      </trkpt>
      <trkpt lat="46.80829" lon="4.71212">
        <ele>228.826494</ele>
        <time>2011-02-19T14:02:39Z</time>
      </trkpt>
      <trkpt lat="46.8084" lon="4.71224">
        <ele>228.137026</ele>
        <time>2011-02-19T14:02:41Z</time>
      </trkpt>
      <trkpt lat="46.80852" lon="4.71238">
        <ele>227.186982</ele>
        <time>2011-02-19T14:02:43Z</time>
      </trkpt>
      <trkpt lat="46.8087" lon="4.71254">
        <ele>226.223009</ele>
        <time>2011-02-19T14:02:46Z</time>
      </trkpt>
      <trkpt lat="46.80887" lon="4.71245">
        <ele>225.595355</ele>
        <time>2011-02-19T14:02:49Z</time>
      </trkpt>
      <trkpt lat="46.80888" lon="4.71225">
        <ele>225.299883</ele>
        <time>2011-02-19T14:02:51Z</time>
      </trkpt>
      <trkpt lat="46.80887" lon="4.71202">
        <ele>225.107927</ele>
        <time>2011-02-19T14:02:53Z</time>
      </trkpt>
      <trkpt lat="46.80885" lon="4.71178">
        <ele>224.852851</ele>
        <time>2011-02-19T14:02:55Z</time>
      </trkpt>
      <trkpt lat="46.80882" lon="4.71142">
        <ele>224.410394</ele>
        <time>2011-02-19T14:02:58Z</time>
      </trkpt>
      <trkpt lat="46.80882" lon="4.71117">
        <ele>223.725858</ele>
        <time>2011-02-19T14:03:00Z</time>
      </trkpt>
      <trkpt lat="46.80881" lon="4.71082">
        <ele>222.90403</ele>
        <time>2011-02-19T14:03:03Z</time>
      </trkpt>
      <trkpt lat="46.8088" lon="4.71052">
        <ele>222.043057</ele>
        <time>2011-02-19T14:03:06Z</time>
      </trkpt>
      <trkpt lat="46.8088" lon="4.71033">
        <ele>221.142154</ele>
        <time>2011-02-19T14:03:08Z</time>
      </trkpt>
      <trkpt lat="46.80878" lon="4.71006">
        <ele>220.058989</ele>
        <time>2011-02-19T14:03:11Z</time>
      </trkpt>
      <trkpt lat="46.80878" lon="4.70985">
        <ele>218.554204</ele>
        <time>2011-02-19T14:03:14Z</time>
      </trkpt>
      <trkpt lat="46.80879" lon="4.70971">
        <ele>216.713101</ele>
        <time>2011-02-19T14:03:16Z</time>
      </trkpt>
      <trkpt lat="46.80881" lon="4.70954">
        <ele>214.953999</ele>
        <time>2011-02-19T14:03:19Z</time>
      </trkpt>
      <trkpt lat="46.80884" lon="4.70939">
        <ele>213.55472</ele>
        <time>2011-02-19T14:03:22Z</time>
      </trkpt>
      <trkpt lat="46.80887" lon="4.70927">
        <ele>212.602236</ele>
        <time>2011-02-19T14:03:25Z</time>
      </trkpt>
      <trkpt lat="46.80891" lon="4.70912">
        <ele>212.06425</ele>
        <time>2011-02-19T14:03:29Z</time>
      </trkpt>
      <trkpt lat="46.80896" lon="4.70897">
        <ele>211.79485</ele>
        <time>2011-02-19T14:03:33Z</time>
      </trkpt>
      <trkpt lat="46.809" lon="4.7088">
        <ele>211.668007</ele>
        <time>2011-02-19T14:03:37Z</time>
      </trkpt>
      <trkpt lat="46.80903" lon="4.70866">
        <ele>211.608297</ele>
        <time>2011-02-19T14:03:41Z</time>
      </trkpt>
      <trkpt lat="46.80907" lon="4.70853">
        <ele>211.561047</ele>
        <time>2011-02-19T14:03:45Z</time>
      </trkpt>
      <trkpt lat="46.80911" lon="4.70837">
        <ele>211.504357</ele>
        <time>2011-02-19T14:03:49Z</time>
      </trkpt>
      <trkpt lat="46.80915" lon="4.7082">
        <ele>211.435024</ele>
        <time>2011-02-19T14:03:53Z</time>
      </trkpt>
      <trkpt lat="46.80918" lon="4.70808">
        <ele>211.369242</ele>
        <time>2011-02-19T14:03:56Z</time>
      </trkpt>
      <trkpt lat="46.80922" lon="4.70795">
        <ele>211.32982</ele>
        <time>2011-02-19T14:03:59Z</time>
      </trkpt>
      <trkpt lat="46.80927" lon="4.70781">
        <ele>211.318918</ele>
        <time>2011-02-19T14:04:02Z</time>
      </trkpt>
      <trkpt lat="46.8093" lon="4.70767">
        <ele>211.328518</ele>
        <time>2011-02-19T14:04:05Z</time>
      </trkpt>
      <trkpt lat="46.80934" lon="4.70752">
        <ele>211.362371</ele>
        <time>2011-02-19T14:04:08Z</time>
      </trkpt>
      <trkpt lat="46.80937" lon="4.70739">
        <ele>211.42314</ele>
        <time>2011-02-19T14:04:11Z</time>
      </trkpt>
      <trkpt lat="46.80938" lon="4.70721">
        <ele>211.489874</ele>
        <time>2011-02-19T14:04:15Z</time>
      </trkpt>
      <trkpt lat="46.80937" lon="4.70706">
        <ele>211.53317</ele>
        <time>2011-02-19T14:04:18Z</time>
      </trkpt>
      <trkpt lat="46.80936" lon="4.70688">
        <ele>211.546713</ele>
        <time>2011-02-19T14:04:21Z</time>
      </trkpt>
      <trkpt lat="46.80935" lon="4.70667">
        <ele>211.543755</ele>
        <time>2011-02-19T14:04:24Z</time>
      </trkpt>
      <trkpt lat="46.80934" lon="4.70645">
        <ele>211.53618</ele>
        <time>2011-02-19T14:04:27Z</time>
      </trkpt>
      <trkpt lat="46.80933" lon="4.70619">
        <ele>211.530522</ele>
        <time>2011-02-19T14:04:30Z</time>
      </trkpt>
      <trkpt lat="46.80937" lon="4.70596">
        <ele>211.528425</ele>
        <time>2011-02-19T14:04:33Z</time>
      </trkpt>
      <trkpt lat="46.8094" lon="4.70581">
        <ele>211.573644</ele>
        <time>2011-02-19T14:04:35Z</time>
      </trkpt>
      <trkpt lat="46.80945" lon="4.70561">
        <ele>211.837951</ele>
        <time>2011-02-19T14:04:38Z</time>
      </trkpt>
      <trkpt lat="46.80952" lon="4.70543">
        <ele>212.496549</ele>
        <time>2011-02-19T14:04:41Z</time>
      </trkpt>
      <trkpt lat="46.80958" lon="4.70525">
        <ele>213.412102</ele>
        <time>2011-02-19T14:04:44Z</time>
      </trkpt>
      <trkpt lat="46.80964" lon="4.70507">
        <ele>214.210799</ele>
        <time>2011-02-19T14:04:47Z</time>
      </trkpt>
      <trkpt lat="46.80972" lon="4.70499">
        <ele>214.708796</ele>
        <time>2011-02-19T14:04:49Z</time>
      </trkpt>
      <trkpt lat="46.80984" lon="4.70496">
        <ele>215.009953</ele>
        <time>2011-02-19T14:04:52Z</time>
      </trkpt>
      <trkpt lat="46.80995" lon="4.70506">
        <ele>215.235512</ele>
        <time>2011-02-19T14:04:55Z</time>
      </trkpt>
      <trkpt lat="46.81004" lon="4.70521">
        <ele>215.419967</ele>
        <time>2011-02-19T14:04:58Z</time>
      </trkpt>
      <trkpt lat="46.81009" lon="4.70532">
        <ele>215.567831</ele>
        <time>2011-02-19T14:05:00Z</time>
      </trkpt>
      <trkpt lat="46.81013" lon="4.70543">
        <ele>215.700584</ele>
        <time>2011-02-19T14:05:02Z</time>
      </trkpt>
      <trkpt lat="46.8102" lon="4.70562">
        <ele>215.838243</ele>
        <time>2011-02-19T14:05:05Z</time>
      </trkpt>
      <trkpt lat="46.81027" lon="4.7058">
        <ele>215.97169</ele>
        <time>2011-02-19T14:05:08Z</time>
      </trkpt>
      <trkpt lat="46.81031" lon="4.70592">
        <ele>216.145495</ele>
        <time>2011-02-19T14:05:10Z</time>
      </trkpt>
      <trkpt lat="46.81038" lon="4.70608">
        <ele>216.532047</ele>
        <time>2011-02-19T14:05:13Z</time>
      </trkpt>
      <trkpt lat="46.81045" lon="4.70624">
        <ele>217.271484</ele>
        <time>2011-02-19T14:05:16Z</time>
      </trkpt>
      <trkpt lat="46.81052" lon="4.70639">
        <ele>218.270813</ele>
        <time>2011-02-19T14:05:19Z</time>
      </trkpt>
      <trkpt lat="46.81061" lon="4.70653">
        <ele>219.337146</ele>
        <time>2011-02-19T14:05:22Z</time>
      </trkpt>
      <trkpt lat="46.8107" lon="4.70666">
        <ele>220.365346</ele>
        <time>2011-02-19T14:05:25Z</time>
      </trkpt>
      <trkpt lat="46.81077" lon="4.70675">
        <ele>221.254483</ele>
        <time>2011-02-19T14:05:27Z</time>
      </trkpt>
      <trkpt lat="46.81088" lon="4.70687">
        <ele>221.888211</ele>
        <time>2011-02-19T14:05:30Z</time>
      </trkpt>
      <trkpt lat="46.81095" lon="4.70695">
        <ele>222.289988</ele>
        <time>2011-02-19T14:05:32Z</time>
      </trkpt>
      <trkpt lat="46.81106" lon="4.70708">
        <ele>222.570709</ele>
        <time>2011-02-19T14:05:35Z</time>
      </trkpt>
      <trkpt lat="46.81114" lon="4.70716">
        <ele>222.832948</ele>
        <time>2011-02-19T14:05:37Z</time>
      </trkpt>
      <trkpt lat="46.81122" lon="4.70723">
        <ele>223.133051</ele>
        <time>2011-02-19T14:05:39Z</time>
      </trkpt>
      <trkpt lat="46.81135" lon="4.70736">
        <ele>223.478605</ele>
        <time>2011-02-19T14:05:42Z</time>
      </trkpt>
      <trkpt lat="46.81143" lon="4.70745">
        <ele>223.829722</ele>
        <time>2011-02-19T14:05:44Z</time>
      </trkpt>
      <trkpt lat="46.81155" lon="4.70758">
        <ele>224.144275</ele>
        <time>2011-02-19T14:05:47Z</time>
      </trkpt>
      <trkpt lat="46.81162" lon="4.70767">
        <ele>224.387348</ele>
        <time>2011-02-19T14:05:49Z</time>
      </trkpt>
      <trkpt lat="46.8117" lon="4.70776">
        <ele>224.529955</ele>
        <time>2011-02-19T14:05:51Z</time>
      </trkpt>
      <trkpt lat="46.8118" lon="4.70792">
        <ele>224.607055</ele>
        <time>2011-02-19T14:05:54Z</time>
      </trkpt>
      <trkpt lat="46.8119" lon="4.70807">
        <ele>224.726967</ele>
        <time>2011-02-19T14:05:57Z</time>
      </trkpt>
      <trkpt lat="46.81199" lon="4.70821">
        <ele>224.946164</ele>
        <time>2011-02-19T14:06:00Z</time>
      </trkpt>
      <trkpt lat="46.81208" lon="4.70835">
        <ele>225.230053</ele>
        <time>2011-02-19T14:06:03Z</time>
      </trkpt>
      <trkpt lat="46.81217" lon="4.7085">
        <ele>225.562769</ele>
        <time>2011-02-19T14:06:06Z</time>
      </trkpt>
      <trkpt lat="46.81223" lon="4.70861">
        <ele>226.0039</ele>
        <time>2011-02-19T14:06:08Z</time>
      </trkpt>
      <trkpt lat="46.8123" lon="4.70879">
        <ele>226.56798</ele>
        <time>2011-02-19T14:06:11Z</time>
      </trkpt>
      <trkpt lat="46.81234" lon="4.70898">
        <ele>227.140133</ele>
        <time>2011-02-19T14:06:14Z</time>
      </trkpt>
      <trkpt lat="46.81236" lon="4.70918">
        <ele>227.560647</ele>
        <time>2011-02-19T14:06:17Z</time>
      </trkpt>
      <trkpt lat="46.81238" lon="4.70938">
        <ele>227.756404</ele>
        <time>2011-02-19T14:06:20Z</time>
      </trkpt>
      <trkpt lat="46.81241" lon="4.70955">
        <ele>227.784026</ele>
        <time>2011-02-19T14:06:23Z</time>
      </trkpt>
      <trkpt lat="46.81246" lon="4.70971">
        <ele>227.74902</ele>
        <time>2011-02-19T14:06:26Z</time>
      </trkpt>
      <trkpt lat="46.81251" lon="4.70986">
        <ele>227.714827</ele>
        <time>2011-02-19T14:06:29Z</time>
      </trkpt>
      <trkpt lat="46.81257" lon="4.71">
        <ele>227.699089</ele>
        <time>2011-02-19T14:06:32Z</time>
      </trkpt>
      <trkpt lat="46.81264" lon="4.71011">
        <ele>227.696997</ele>
        <time>2011-02-19T14:06:35Z</time>
      </trkpt>
      <trkpt lat="46.81272" lon="4.7102">
        <ele>227.802647</ele>
        <time>2011-02-19T14:06:38Z</time>
      </trkpt>
      <trkpt lat="46.8128" lon="4.71029">
        <ele>228.152144</ele>
        <time>2011-02-19T14:06:41Z</time>
      </trkpt>
      <trkpt lat="46.81289" lon="4.71038">
        <ele>228.661887</ele>
        <time>2011-02-19T14:06:45Z</time>
      </trkpt>
      <trkpt lat="46.81299" lon="4.71048">
        <ele>229.106756</ele>
        <time>2011-02-19T14:06:49Z</time>
      </trkpt>
      <trkpt lat="46.8131" lon="4.71056">
        <ele>229.411949</ele>
        <time>2011-02-19T14:06:53Z</time>
      </trkpt>
      <trkpt lat="46.81322" lon="4.71062">
        <ele>229.640866</ele>
        <time>2011-02-19T14:06:56Z</time>
      </trkpt>
      <trkpt lat="46.81332" lon="4.71071">
        <ele>229.85399</ele>
        <time>2011-02-19T14:06:59Z</time>
      </trkpt>
      <trkpt lat="46.81338" lon="4.71084">
        <ele>230.059816</ele>
        <time>2011-02-19T14:07:02Z</time>
      </trkpt>
      <trkpt lat="46.81343" lon="4.71097">
        <ele>230.243565</ele>
        <time>2011-02-19T14:07:05Z</time>
      </trkpt>
      <trkpt lat="46.81349" lon="4.71112">
        <ele>230.408655</ele>
        <time>2011-02-19T14:07:08Z</time>
      </trkpt>
      <trkpt lat="46.81354" lon="4.71126">
        <ele>230.57537</ele>
        <time>2011-02-19T14:07:11Z</time>
      </trkpt>
      <trkpt lat="46.81359" lon="4.71139">
        <ele>230.747793</ele>
        <time>2011-02-19T14:07:14Z</time>
      </trkpt>
      <trkpt lat="46.81362" lon="4.71152">
        <ele>230.915503</ele>
        <time>2011-02-19T14:07:17Z</time>
      </trkpt>
      <trkpt lat="46.81365" lon="4.71167">
        <ele>231.079219</ele>
        <time>2011-02-19T14:07:20Z</time>
      </trkpt>
      <trkpt lat="46.81369" lon="4.71183">
        <ele>231.243701</ele>
        <time>2011-02-19T14:07:23Z</time>
      </trkpt>
      <trkpt lat="46.81373" lon="4.71199">
        <ele>231.407576</ele>
        <time>2011-02-19T14:07:26Z</time>
      </trkpt>
      <trkpt lat="46.81379" lon="4.71215">
        <ele>231.569538</ele>
        <time>2011-02-19T14:07:29Z</time>
      </trkpt>
      <trkpt lat="46.81385" lon="4.71232">
        <ele>231.834379</ele>
        <time>2011-02-19T14:07:32Z</time>
      </trkpt>
      <trkpt lat="46.81393" lon="4.71248">
        <ele>232.31564</ele>
        <time>2011-02-19T14:07:35Z</time>
      </trkpt>
      <trkpt lat="46.81403" lon="4.71263">
        <ele>232.90676</ele>
        <time>2011-02-19T14:07:38Z</time>
      </trkpt>
      <trkpt lat="46.8141" lon="4.71272">
        <ele>233.393304</ele>
        <time>2011-02-19T14:07:40Z</time>
      </trkpt>
      <trkpt lat="46.81417" lon="4.71281">
        <ele>233.696795</ele>
        <time>2011-02-19T14:07:42Z</time>
      </trkpt>
      <trkpt lat="46.81427" lon="4.71294">
        <ele>233.842543</ele>
        <time>2011-02-19T14:07:45Z</time>
      </trkpt>
      <trkpt lat="46.81437" lon="4.71307">
        <ele>233.884324</ele>
        <time>2011-02-19T14:07:48Z</time>
      </trkpt>
      <trkpt lat="46.81447" lon="4.71322">
        <ele>233.874215</ele>
        <time>2011-02-19T14:07:51Z</time>
      </trkpt>
      <trkpt lat="46.81454" lon="4.71332">
        <ele>233.814585</ele>
        <time>2011-02-19T14:07:53Z</time>
      </trkpt>
      <trkpt lat="46.81464" lon="4.71347">
        <ele>233.655472</ele>
        <time>2011-02-19T14:07:56Z</time>
      </trkpt>
      <trkpt lat="46.81471" lon="4.71357">
        <ele>233.38085</ele>
        <time>2011-02-19T14:07:58Z</time>
      </trkpt>
      <trkpt lat="46.81484" lon="4.71374">
        <ele>233.025204</ele>
        <time>2011-02-19T14:08:01Z</time>
      </trkpt>
      <trkpt lat="46.81494" lon="4.71382">
        <ele>232.577547</ele>
        <time>2011-02-19T14:08:03Z</time>
      </trkpt>
      <trkpt lat="46.81502" lon="4.71387">
        <ele>232.063405</ele>
        <time>2011-02-19T14:08:05Z</time>
      </trkpt>
      <trkpt lat="46.81514" lon="4.71392">
        <ele>231.618307</ele>
        <time>2011-02-19T14:08:08Z</time>
      </trkpt>
      <trkpt lat="46.81526" lon="4.71393">
        <ele>231.344259</ele>
        <time>2011-02-19T14:08:12Z</time>
      </trkpt>
      <trkpt lat="46.81533" lon="4.71402">
        <ele>231.203408</ele>
        <time>2011-02-19T14:08:15Z</time>
      </trkpt>
      <trkpt lat="46.8154" lon="4.71417">
        <ele>231.089683</ele>
        <time>2011-02-19T14:08:18Z</time>
      </trkpt>
      <trkpt lat="46.81547" lon="4.71434">
        <ele>230.950373</ele>
        <time>2011-02-19T14:08:21Z</time>
      </trkpt>
      <trkpt lat="46.81551" lon="4.71447">
        <ele>230.83203</ele>
        <time>2011-02-19T14:08:23Z</time>
      </trkpt>
      <trkpt lat="46.81559" lon="4.71465">
        <ele>230.770733</ele>
        <time>2011-02-19T14:08:26Z</time>
      </trkpt>
      <trkpt lat="46.81572" lon="4.7147">
        <ele>230.758359</ele>
        <time>2011-02-19T14:08:29Z</time>
      </trkpt>
      <trkpt lat="46.81585" lon="4.71473">
        <ele>230.782279</ele>
        <time>2011-02-19T14:08:32Z</time>
      </trkpt>
      <trkpt lat="46.81598" lon="4.71475">
        <ele>230.817238</ele>
        <time>2011-02-19T14:08:35Z</time>
      </trkpt>
      <trkpt lat="46.81612" lon="4.71469">
        <ele>230.840472</ele>
        <time>2011-02-19T14:08:38Z</time>
      </trkpt>
      <trkpt lat="46.81622" lon="4.71461">
        <ele>230.837744</ele>
        <time>2011-02-19T14:08:41Z</time>
      </trkpt>
      <trkpt lat="46.81629" lon="4.71453">
        <ele>230.800364</ele>
        <time>2011-02-19T14:08:44Z</time>
      </trkpt>
      <trkpt lat="46.81637" lon="4.71443">
        <ele>230.669486</ele>
        <time>2011-02-19T14:08:47Z</time>
      </trkpt>
      <trkpt lat="46.81644" lon="4.71432">
        <ele>230.350438</ele>
        <time>2011-02-19T14:08:50Z</time>
      </trkpt>
      <trkpt lat="46.81651" lon="4.71423">
        <ele>229.908961</ele>
        <time>2011-02-19T14:08:53Z</time>
      </trkpt>
      <trkpt lat="46.81661" lon="4.71418">
        <ele>229.555287</ele>
        <time>2011-02-19T14:08:57Z</time>
      </trkpt>
      <trkpt lat="46.81669" lon="4.71428">
        <ele>229.376382</ele>
        <time>2011-02-19T14:09:00Z</time>
      </trkpt>
      <trkpt lat="46.81675" lon="4.71441">
        <ele>229.304492</ele>
        <time>2011-02-19T14:09:03Z</time>
      </trkpt>
      <trkpt lat="46.81682" lon="4.71456">
        <ele>229.261952</ele>
        <time>2011-02-19T14:09:06Z</time>
      </trkpt>
      <trkpt lat="46.8169" lon="4.71473">
        <ele>229.205927</ele>
        <time>2011-02-19T14:09:09Z</time>
      </trkpt>
      <trkpt lat="46.81696" lon="4.71486">
        <ele>229.12294</ele>
        <time>2011-02-19T14:09:11Z</time>
      </trkpt>
      <trkpt lat="46.81707" lon="4.71504">
        <ele>228.953951</ele>
        <time>2011-02-19T14:09:14Z</time>
      </trkpt>
      <trkpt lat="46.81715" lon="4.71518">
        <ele>228.64746</ele>
        <time>2011-02-19T14:09:16Z</time>
      </trkpt>
      <trkpt lat="46.81724" lon="4.71532">
        <ele>228.268918</ele>
        <time>2011-02-19T14:09:18Z</time>
      </trkpt>
      <trkpt lat="46.81732" lon="4.71546">
        <ele>227.887735</ele>
        <time>2011-02-19T14:09:20Z</time>
      </trkpt>
      <trkpt lat="46.81745" lon="4.71569">
        <ele>227.545231</ele>
        <time>2011-02-19T14:09:23Z</time>
      </trkpt>
      <trkpt lat="46.81753" lon="4.71585">
        <ele>227.330766</ele>
        <time>2011-02-19T14:09:25Z</time>
      </trkpt>
      <trkpt lat="46.81762" lon="4.71601">
        <ele>227.267082</ele>
        <time>2011-02-19T14:09:27Z</time>
      </trkpt>
      <trkpt lat="46.81774" lon="4.71624">
        <ele>227.364566</ele>
        <time>2011-02-19T14:09:30Z</time>
      </trkpt>
      <trkpt lat="46.81783" lon="4.7164">
        <ele>227.642178</ele>
        <time>2011-02-19T14:09:32Z</time>
      </trkpt>
      <trkpt lat="46.81795" lon="4.71664">
        <ele>228.00171</ele>
        <time>2011-02-19T14:09:35Z</time>
      </trkpt>
      <trkpt lat="46.81807" lon="4.71689">
        <ele>228.363224</ele>
        <time>2011-02-19T14:09:38Z</time>
      </trkpt>
      <trkpt lat="46.81815" lon="4.71705">
        <ele>228.756528</ele>
        <time>2011-02-19T14:09:40Z</time>
      </trkpt>
      <trkpt lat="46.81827" lon="4.71732">
        <ele>229.189503</ele>
        <time>2011-02-19T14:09:43Z</time>
      </trkpt>
      <trkpt lat="46.81835" lon="4.7175">
        <ele>229.594806</ele>
        <time>2011-02-19T14:09:45Z</time>
      </trkpt>
      <trkpt lat="46.81848" lon="4.71778">
        <ele>229.902692</ele>
        <time>2011-02-19T14:09:48Z</time>
      </trkpt>
      <trkpt lat="46.8186" lon="4.71807">
        <ele>230.165799</ele>
        <time>2011-02-19T14:09:51Z</time>
      </trkpt>
      <trkpt lat="46.81869" lon="4.71826">
        <ele>230.436665</ele>
        <time>2011-02-19T14:09:53Z</time>
      </trkpt>
      <trkpt lat="46.81877" lon="4.71844">
        <ele>230.633588</ele>
        <time>2011-02-19T14:09:55Z</time>
      </trkpt>
      <trkpt lat="46.81891" lon="4.7187">
        <ele>230.704493</ele>
        <time>2011-02-19T14:09:58Z</time>
      </trkpt>
      <trkpt lat="46.81901" lon="4.71887">
        <ele>230.677603</ele>
        <time>2011-02-19T14:10:00Z</time>
      </trkpt>
      <trkpt lat="46.81916" lon="4.7191">
        <ele>230.5896</ele>
        <time>2011-02-19T14:10:03Z</time>
      </trkpt>
      <trkpt lat="46.81928" lon="4.71924">
        <ele>230.497783</ele>
        <time>2011-02-19T14:10:05Z</time>
      </trkpt>
      <trkpt lat="46.81946" lon="4.71942">
        <ele>230.433142</ele>
        <time>2011-02-19T14:10:08Z</time>
      </trkpt>
      <trkpt lat="46.81965" lon="4.71957">
        <ele>230.343175</ele>
        <time>2011-02-19T14:10:11Z</time>
      </trkpt>
      <trkpt lat="46.81983" lon="4.71971">
        <ele>230.181986</ele>
        <time>2011-02-19T14:10:14Z</time>
      </trkpt>
      <trkpt lat="46.81994" lon="4.71981">
        <ele>229.990135</ele>
        <time>2011-02-19T14:10:16Z</time>
      </trkpt>
      <trkpt lat="46.82001" lon="4.71993">
        <ele>229.843296</ele>
        <time>2011-02-19T14:10:19Z</time>
      </trkpt>
      <trkpt lat="46.81997" lon="4.72007">
        <ele>229.757018</ele>
        <time>2011-02-19T14:10:22Z</time>
      </trkpt>
      <trkpt lat="46.81989" lon="4.72026">
        <ele>229.696046</ele>
        <time>2011-02-19T14:10:25Z</time>
      </trkpt>
      <trkpt lat="46.81982" lon="4.72041">
        <ele>229.626265</ele>
        <time>2011-02-19T14:10:27Z</time>
      </trkpt>
      <trkpt lat="46.81972" lon="4.72059">
        <ele>229.553356</ele>
        <time>2011-02-19T14:10:29Z</time>
      </trkpt>
      <trkpt lat="46.81962" lon="4.72078">
        <ele>229.421548</ele>
        <time>2011-02-19T14:10:31Z</time>
      </trkpt>
      <trkpt lat="46.81952" lon="4.72099">
        <ele>229.157247</ele>
        <time>2011-02-19T14:10:33Z</time>
      </trkpt>
      <trkpt lat="46.81937" lon="4.72126">
        <ele>228.805063</ele>
        <time>2011-02-19T14:10:36Z</time>
      </trkpt>
      <trkpt lat="46.81923" lon="4.72147">
        <ele>228.442663</ele>
        <time>2011-02-19T14:10:39Z</time>
      </trkpt>
      <trkpt lat="46.81912" lon="4.72149">
        <ele>228.070091</ele>
        <time>2011-02-19T14:10:42Z</time>
      </trkpt>
      <trkpt lat="46.81903" lon="4.72141">
        <ele>227.737605</ele>
        <time>2011-02-19T14:10:45Z</time>
      </trkpt>
      <trkpt lat="46.81895" lon="4.72133">
        <ele>227.5371</ele>
        <time>2011-02-19T14:10:49Z</time>
      </trkpt>
      <trkpt lat="46.81886" lon="4.72144">
        <ele>227.473679</ele>
        <time>2011-02-19T14:10:54Z</time>
      </trkpt>
      <trkpt lat="46.81881" lon="4.72155">
        <ele>227.471311</ele>
        <time>2011-02-19T14:10:58Z</time>
      </trkpt>
      <trkpt lat="46.81885" lon="4.7217">
        <ele>227.478978</ele>
        <time>2011-02-19T14:11:02Z</time>
      </trkpt>
      <trkpt lat="46.8189" lon="4.72186">
        <ele>227.473818</ele>
        <time>2011-02-19T14:11:06Z</time>
      </trkpt>
      <trkpt lat="46.81895" lon="4.72199">
        <ele>227.437186</ele>
        <time>2011-02-19T14:11:10Z</time>
      </trkpt>
      <trkpt lat="46.81901" lon="4.72212">
        <ele>227.357912</ele>
        <time>2011-02-19T14:11:14Z</time>
      </trkpt>
      <trkpt lat="46.81906" lon="4.72222">
        <ele>227.231101</ele>
        <time>2011-02-19T14:11:18Z</time>
      </trkpt>
      <trkpt lat="46.81907" lon="4.72237">
        <ele>227.055778</ele>
        <time>2011-02-19T14:11:23Z</time>
      </trkpt>
      <trkpt lat="46.81901" lon="4.72248">
        <ele>226.841383</ele>
        <time>2011-02-19T14:11:27Z</time>
      </trkpt>
      <trkpt lat="46.81894" lon="4.7226">
        <ele>226.597698</ele>
        <time>2011-02-19T14:11:31Z</time>
      </trkpt>
      <trkpt lat="46.8189" lon="4.72273">
        <ele>226.321349</ele>
        <time>2011-02-19T14:11:36Z</time>
      </trkpt>
      <trkpt lat="46.81894" lon="4.72285">
        <ele>226.019904</ele>
        <time>2011-02-19T14:11:41Z</time>
      </trkpt>
      <trkpt lat="46.81902" lon="4.72294">
        <ele>225.726183</ele>
        <time>2011-02-19T14:11:45Z</time>
      </trkpt>
      <trkpt lat="46.81909" lon="4.72304">
        <ele>225.453777</ele>
        <time>2011-02-19T14:11:49Z</time>
      </trkpt>
      <trkpt lat="46.81916" lon="4.72315">
        <ele>225.177119</ele>
        <time>2011-02-19T14:11:53Z</time>
      </trkpt>
      <trkpt lat="46.81923" lon="4.72325">
        <ele>224.879492</ele>
        <time>2011-02-19T14:11:57Z</time>
      </trkpt>
      <trkpt lat="46.8193" lon="4.72336">
        <ele>224.566875</ele>
        <time>2011-02-19T14:12:01Z</time>
      </trkpt>
      <trkpt lat="46.81938" lon="4.72345">
        <ele>224.245001</ele>
        <time>2011-02-19T14:12:07Z</time>
      </trkpt>
      <trkpt lat="46.81938" lon="4.72345">
        <ele>223.962187</ele>
        <time>2011-02-19T14:12:08Z</time>
      </trkpt>
      <trkpt lat="46.81939" lon="4.72374">
        <ele>223.75263</ele>
        <time>2011-02-19T14:12:23Z</time>
      </trkpt>
      <trkpt lat="46.8193" lon="4.72382">
        <ele>223.553377</ele>
        <time>2011-02-19T14:12:26Z</time>
      </trkpt>
      <trkpt lat="46.81919" lon="4.7239">
        <ele>223.276336</ele>
        <time>2011-02-19T14:12:29Z</time>
      </trkpt>
      <trkpt lat="46.8191" lon="4.72396">
        <ele>222.802317</ele>
        <time>2011-02-19T14:12:31Z</time>
      </trkpt>
      <trkpt lat="46.81901" lon="4.72402">
        <ele>222.14674</ele>
        <time>2011-02-19T14:12:33Z</time>
      </trkpt>
      <trkpt lat="46.81891" lon="4.72417">
        <ele>221.409873</ele>
        <time>2011-02-19T14:12:36Z</time>
      </trkpt>
      <trkpt lat="46.81879" lon="4.72434">
        <ele>220.573431</ele>
        <time>2011-02-19T14:12:39Z</time>
      </trkpt>
      <trkpt lat="46.81868" lon="4.72451">
        <ele>219.706918</ele>
        <time>2011-02-19T14:12:42Z</time>
      </trkpt>
      <trkpt lat="46.81858" lon="4.72467">
        <ele>219.002136</ele>
        <time>2011-02-19T14:12:45Z</time>
      </trkpt>
      <trkpt lat="46.81851" lon="4.72477">
        <ele>218.489395</ele>
        <time>2011-02-19T14:12:47Z</time>
      </trkpt>
      <trkpt lat="46.81839" lon="4.72491">
        <ele>218.123136</ele>
        <time>2011-02-19T14:12:50Z</time>
      </trkpt>
      <trkpt lat="46.81833" lon="4.725">
        <ele>217.826393</ele>
        <time>2011-02-19T14:12:52Z</time>
      </trkpt>
      <trkpt lat="46.81823" lon="4.72513">
        <ele>217.52799</ele>
        <time>2011-02-19T14:12:55Z</time>
      </trkpt>
      <trkpt lat="46.81817" lon="4.72523">
        <ele>217.219101</ele>
        <time>2011-02-19T14:12:57Z</time>
      </trkpt>
      <trkpt lat="46.81809" lon="4.72538">
        <ele>216.895129</ele>
        <time>2011-02-19T14:13:00Z</time>
      </trkpt>
      <trkpt lat="46.81803" lon="4.72551">
        <ele>216.509636</ele>
        <time>2011-02-19T14:13:03Z</time>
      </trkpt>
      <trkpt lat="46.81803" lon="4.72565">
        <ele>215.978003</ele>
        <time>2011-02-19T14:13:06Z</time>
      </trkpt>
      <trkpt lat="46.81803" lon="4.72565">
        <ele>215.363234</ele>
        <time>2011-02-19T14:13:08Z</time>
      </trkpt>
      <trkpt lat="46.81816" lon="4.72584">
        <ele>214.805984</ele>
        <time>2011-02-19T14:13:15Z</time>
      </trkpt>
      <trkpt lat="46.81823" lon="4.72595">
        <ele>214.32646</ele>
        <time>2011-02-19T14:13:18Z</time>
      </trkpt>
      <trkpt lat="46.81831" lon="4.72606">
        <ele>213.952815</ele>
        <time>2011-02-19T14:13:21Z</time>
      </trkpt>
      <trkpt lat="46.8184" lon="4.72618">
        <ele>213.701359</ele>
        <time>2011-02-19T14:13:24Z</time>
      </trkpt>
      <trkpt lat="46.81851" lon="4.7263">
        <ele>213.462712</ele>
        <time>2011-02-19T14:13:27Z</time>
      </trkpt>
      <trkpt lat="46.81859" lon="4.72638">
        <ele>213.211782</ele>
        <time>2011-02-19T14:13:29Z</time>
      </trkpt>
      <trkpt lat="46.81871" lon="4.72652">
        <ele>212.786585</ele>
        <time>2011-02-19T14:13:32Z</time>
      </trkpt>
      <trkpt lat="46.81879" lon="4.72662">
        <ele>211.919664</ele>
        <time>2011-02-19T14:13:34Z</time>
      </trkpt>
      <trkpt lat="46.81891" lon="4.72677">
        <ele>210.759795</ele>
        <time>2011-02-19T14:13:37Z</time>
      </trkpt>
      <trkpt lat="46.81899" lon="4.72685">
        <ele>209.700473</ele>
        <time>2011-02-19T14:13:39Z</time>
      </trkpt>
      <trkpt lat="46.81909" lon="4.72696">
        <ele>208.902774</ele>
        <time>2011-02-19T14:13:42Z</time>
      </trkpt>
      <trkpt lat="46.81922" lon="4.72707">
        <ele>208.370348</ele>
        <time>2011-02-19T14:13:45Z</time>
      </trkpt>
      <trkpt lat="46.8193" lon="4.72714">
        <ele>208.079877</ele>
        <time>2011-02-19T14:13:47Z</time>
      </trkpt>
      <trkpt lat="46.81942" lon="4.72725">
        <ele>207.965457</ele>
        <time>2011-02-19T14:13:50Z</time>
      </trkpt>
      <trkpt lat="46.81953" lon="4.72736">
        <ele>207.926367</ele>
        <time>2011-02-19T14:13:53Z</time>
      </trkpt>
      <trkpt lat="46.81963" lon="4.72745">
        <ele>207.858228</ele>
        <time>2011-02-19T14:13:56Z</time>
      </trkpt>
      <trkpt lat="46.81973" lon="4.72754">
        <ele>207.72256</ele>
        <time>2011-02-19T14:13:59Z</time>
      </trkpt>
      <trkpt lat="46.81984" lon="4.72761">
        <ele>207.570415</ele>
        <time>2011-02-19T14:14:02Z</time>
      </trkpt>
      <trkpt lat="46.81995" lon="4.72767">
        <ele>207.474046</ele>
        <time>2011-02-19T14:14:05Z</time>
      </trkpt>
      <trkpt lat="46.82005" lon="4.72773">
        <ele>207.444929</ele>
        <time>2011-02-19T14:14:08Z</time>
      </trkpt>
      <trkpt lat="46.82017" lon="4.7278">
        <ele>207.513749</ele>
        <time>2011-02-19T14:14:11Z</time>
      </trkpt>
      <trkpt lat="46.82028" lon="4.72785">
        <ele>207.722906</ele>
        <time>2011-02-19T14:14:14Z</time>
      </trkpt>
      <trkpt lat="46.82039" lon="4.72789">
        <ele>207.982972</ele>
        <time>2011-02-19T14:14:17Z</time>
      </trkpt>
      <trkpt lat="46.82052" lon="4.72792">
        <ele>208.150861</ele>
        <time>2011-02-19T14:14:20Z</time>
      </trkpt>
      <trkpt lat="46.82065" lon="4.72795">
        <ele>208.203009</ele>
        <time>2011-02-19T14:14:23Z</time>
      </trkpt>
      <trkpt lat="46.82079" lon="4.72798">
        <ele>208.194387</ele>
        <time>2011-02-19T14:14:26Z</time>
      </trkpt>
      <trkpt lat="46.82093" lon="4.72801">
        <ele>208.180362</ele>
        <time>2011-02-19T14:14:29Z</time>
      </trkpt>
      <trkpt lat="46.82106" lon="4.72804">
        <ele>208.187251</ele>
        <time>2011-02-19T14:14:32Z</time>
      </trkpt>
      <trkpt lat="46.82118" lon="4.72807">
        <ele>208.210842</ele>
        <time>2011-02-19T14:14:35Z</time>
      </trkpt>
      <trkpt lat="46.82128" lon="4.7281">
        <ele>208.308953</ele>
        <time>2011-02-19T14:14:38Z</time>
      </trkpt>
      <trkpt lat="46.82138" lon="4.72812">
        <ele>208.556368</ele>
        <time>2011-02-19T14:14:41Z</time>
      </trkpt>
      <trkpt lat="46.8215" lon="4.72815">
        <ele>208.887653</ele>
        <time>2011-02-19T14:14:45Z</time>
      </trkpt>
      <trkpt lat="46.82159" lon="4.72818">
        <ele>209.160181</ele>
        <time>2011-02-19T14:14:48Z</time>
      </trkpt>
      <trkpt lat="46.82168" lon="4.72821">
        <ele>209.313251</ele>
        <time>2011-02-19T14:14:51Z</time>
      </trkpt>
      <trkpt lat="46.82178" lon="4.72825">
        <ele>209.365942</ele>
        <time>2011-02-19T14:14:54Z</time>
      </trkpt>
      <trkpt lat="46.82188" lon="4.7283">
        <ele>209.37206</ele>
        <time>2011-02-19T14:14:57Z</time>
      </trkpt>
      <trkpt lat="46.82199" lon="4.72835">
        <ele>209.381766</ele>
        <time>2011-02-19T14:15:00Z</time>
      </trkpt>
      <trkpt lat="46.82207" lon="4.7284">
        <ele>209.419432</ele>
        <time>2011-02-19T14:15:03Z</time>
      </trkpt>
      <trkpt lat="46.82219" lon="4.72846">
        <ele>209.477199</ele>
        <time>2011-02-19T14:15:07Z</time>
      </trkpt>
      <trkpt lat="46.82227" lon="4.7285">
        <ele>209.546878</ele>
        <time>2011-02-19T14:15:10Z</time>
      </trkpt>
      <trkpt lat="46.82239" lon="4.72855">
        <ele>209.640913</ele>
        <time>2011-02-19T14:15:14Z</time>
      </trkpt>
      <trkpt lat="46.82248" lon="4.72859">
        <ele>209.773973</ele>
        <time>2011-02-19T14:15:17Z</time>
      </trkpt>
      <trkpt lat="46.82258" lon="4.72863">
        <ele>209.940129</ele>
        <time>2011-02-19T14:15:20Z</time>
      </trkpt>
      <trkpt lat="46.82268" lon="4.72867">
        <ele>210.13014</ele>
        <time>2011-02-19T14:15:23Z</time>
      </trkpt>
      <trkpt lat="46.82277" lon="4.72871">
        <ele>210.340169</ele>
        <time>2011-02-19T14:15:26Z</time>
      </trkpt>
      <trkpt lat="46.82286" lon="4.72875">
        <ele>210.558586</ele>
        <time>2011-02-19T14:15:29Z</time>
      </trkpt>
      <trkpt lat="46.82294" lon="4.72881">
        <ele>210.769588</ele>
        <time>2011-02-19T14:15:32Z</time>
      </trkpt>
      <trkpt lat="46.82302" lon="4.72888">
        <ele>210.972633</ele>
        <time>2011-02-19T14:15:35Z</time>
      </trkpt>
      <trkpt lat="46.8231" lon="4.72896">
        <ele>211.17672</ele>
        <time>2011-02-19T14:15:38Z</time>
      </trkpt>
      <trkpt lat="46.82319" lon="4.72903">
        <ele>211.384994</ele>
        <time>2011-02-19T14:15:41Z</time>
      </trkpt>
      <trkpt lat="46.82327" lon="4.72909">
        <ele>211.589257</ele>
        <time>2011-02-19T14:15:44Z</time>
      </trkpt>
      <trkpt lat="46.82336" lon="4.72918">
        <ele>211.788213</ele>
        <time>2011-02-19T14:15:47Z</time>
      </trkpt>
      <trkpt lat="46.82344" lon="4.72926">
        <ele>212.007343</ele>
        <time>2011-02-19T14:15:50Z</time>
      </trkpt>
      <trkpt lat="46.82352" lon="4.72935">
        <ele>212.285022</ele>
        <time>2011-02-19T14:15:53Z</time>
      </trkpt>
      <trkpt lat="46.82361" lon="4.72944">
        <ele>212.641028</ele>
        <time>2011-02-19T14:15:56Z</time>
      </trkpt>
      <trkpt lat="46.82368" lon="4.72956">
        <ele>213.059323</ele>
        <time>2011-02-19T14:15:59Z</time>
      </trkpt>
      <trkpt lat="46.82374" lon="4.7297">
        <ele>213.495288</ele>
        <time>2011-02-19T14:16:02Z</time>
      </trkpt>
      <trkpt lat="46.82381" lon="4.72987">
        <ele>213.905593</ele>
        <time>2011-02-19T14:16:05Z</time>
      </trkpt>
      <trkpt lat="46.82388" lon="4.73006">
        <ele>214.275262</ele>
        <time>2011-02-19T14:16:08Z</time>
      </trkpt>
      <trkpt lat="46.82394" lon="4.73019">
        <ele>214.720447</ele>
        <time>2011-02-19T14:16:10Z</time>
      </trkpt>
      <trkpt lat="46.82399" lon="4.73032">
        <ele>215.673741</ele>
        <time>2011-02-19T14:16:12Z</time>
      </trkpt>
      <trkpt lat="46.82407" lon="4.73054">
        <ele>217.442187</ele>
        <time>2011-02-19T14:16:15Z</time>
      </trkpt>
      <trkpt lat="46.82416" lon="4.73076">
        <ele>219.572128</ele>
        <time>2011-02-19T14:16:18Z</time>
      </trkpt>
      <trkpt lat="46.82422" lon="4.73091">
        <ele>221.25866</ele>
        <time>2011-02-19T14:16:20Z</time>
      </trkpt>
      <trkpt lat="46.82427" lon="4.73105">
        <ele>222.158858</ele>
        <time>2011-02-19T14:16:22Z</time>
      </trkpt>
      <trkpt lat="46.82436" lon="4.73128">
        <ele>222.433144</ele>
        <time>2011-02-19T14:16:25Z</time>
      </trkpt>
      <trkpt lat="46.82442" lon="4.73143">
        <ele>222.399352</ele>
        <time>2011-02-19T14:16:27Z</time>
      </trkpt>
      <trkpt lat="46.82452" lon="4.73164">
        <ele>222.295792</ele>
        <time>2011-02-19T14:16:30Z</time>
      </trkpt>
      <trkpt lat="46.82465" lon="4.73183">
        <ele>222.168396</ele>
        <time>2011-02-19T14:16:33Z</time>
      </trkpt>
      <trkpt lat="46.82474" lon="4.73195">
        <ele>221.955493</ele>
        <time>2011-02-19T14:16:35Z</time>
      </trkpt>
      <trkpt lat="46.82483" lon="4.73207">
        <ele>221.681585</ele>
        <time>2011-02-19T14:16:37Z</time>
      </trkpt>
      <trkpt lat="46.82492" lon="4.73219">
        <ele>221.457832</ele>
        <time>2011-02-19T14:16:39Z</time>
      </trkpt>
      <trkpt lat="46.82505" lon="4.73235">
        <ele>221.345266</ele>
        <time>2011-02-19T14:16:42Z</time>
      </trkpt>
      <trkpt lat="46.82519" lon="4.73252">
        <ele>221.324373</ele>
        <time>2011-02-19T14:16:45Z</time>
      </trkpt>
      <trkpt lat="46.82532" lon="4.7327">
        <ele>221.378606</ele>
        <time>2011-02-19T14:16:48Z</time>
      </trkpt>
      <trkpt lat="46.82545" lon="4.73291">
        <ele>221.564611</ele>
        <time>2011-02-19T14:16:51Z</time>
      </trkpt>
      <trkpt lat="46.82553" lon="4.73305">
        <ele>221.89676</ele>
        <time>2011-02-19T14:16:53Z</time>
      </trkpt>
      <trkpt lat="46.82562" lon="4.73319">
        <ele>222.246004</ele>
        <time>2011-02-19T14:16:55Z</time>
      </trkpt>
      <trkpt lat="46.82574" lon="4.73339">
        <ele>222.468167</ele>
        <time>2011-02-19T14:16:58Z</time>
      </trkpt>
      <trkpt lat="46.82586" lon="4.73359">
        <ele>222.545928</ele>
        <time>2011-02-19T14:17:01Z</time>
      </trkpt>
      <trkpt lat="46.82599" lon="4.73379">
        <ele>222.549819</ele>
        <time>2011-02-19T14:17:04Z</time>
      </trkpt>
      <trkpt lat="46.82609" lon="4.73393">
        <ele>222.539965</ele>
        <time>2011-02-19T14:17:06Z</time>
      </trkpt>
      <trkpt lat="46.82624" lon="4.73415">
        <ele>222.535467</ele>
        <time>2011-02-19T14:17:09Z</time>
      </trkpt>
      <trkpt lat="46.82638" lon="4.73427">
        <ele>222.534765</ele>
        <time>2011-02-19T14:17:11Z</time>
      </trkpt>
      <trkpt lat="46.82643" lon="4.73453">
        <ele>222.53552</ele>
        <time>2011-02-19T14:17:14Z</time>
      </trkpt>
      <trkpt lat="46.82635" lon="4.73469">
        <ele>222.501995</ele>
        <time>2011-02-19T14:17:16Z</time>
      </trkpt>
      <trkpt lat="46.8262" lon="4.73489">
        <ele>222.395303</ele>
        <time>2011-02-19T14:17:19Z</time>
      </trkpt>
      <trkpt lat="46.82605" lon="4.73511">
        <ele>222.2041</ele>
        <time>2011-02-19T14:17:22Z</time>
      </trkpt>
      <trkpt lat="46.82594" lon="4.73527">
        <ele>221.969708</ele>
        <time>2011-02-19T14:17:24Z</time>
      </trkpt>
      <trkpt lat="46.82577" lon="4.73556">
        <ele>221.777577</ele>
        <time>2011-02-19T14:17:27Z</time>
      </trkpt>
      <trkpt lat="46.82559" lon="4.73586">
        <ele>221.653949</ele>
        <time>2011-02-19T14:17:30Z</time>
      </trkpt>
      <trkpt lat="46.82541" lon="4.73618">
        <ele>221.541793</ele>
        <time>2011-02-19T14:17:33Z</time>
      </trkpt>
      <trkpt lat="46.82528" lon="4.73641">
        <ele>221.380248</ele>
        <time>2011-02-19T14:17:35Z</time>
      </trkpt>
      <trkpt lat="46.82515" lon="4.73663">
        <ele>221.119276</ele>
        <time>2011-02-19T14:17:37Z</time>
      </trkpt>
      <trkpt lat="46.82496" lon="4.73696">
        <ele>220.801769</ele>
        <time>2011-02-19T14:17:40Z</time>
      </trkpt>
      <trkpt lat="46.82483" lon="4.73718">
        <ele>220.558716</ele>
        <time>2011-02-19T14:17:42Z</time>
      </trkpt>
      <trkpt lat="46.82465" lon="4.73751">
        <ele>220.451128</ele>
        <time>2011-02-19T14:17:45Z</time>
      </trkpt>
      <trkpt lat="46.82452" lon="4.73772">
        <ele>220.433479</ele>
        <time>2011-02-19T14:17:47Z</time>
      </trkpt>
      <trkpt lat="46.82433" lon="4.73804">
        <ele>220.44344</ele>
        <time>2011-02-19T14:17:50Z</time>
      </trkpt>
      <trkpt lat="46.82413" lon="4.73837">
        <ele>220.416686</ele>
        <time>2011-02-19T14:17:53Z</time>
      </trkpt>
      <trkpt lat="46.824" lon="4.73859">
        <ele>220.311782</ele>
        <time>2011-02-19T14:17:55Z</time>
      </trkpt>
      <trkpt lat="46.8238" lon="4.73893">
        <ele>220.152867</ele>
        <time>2011-02-19T14:17:58Z</time>
      </trkpt>
      <trkpt lat="46.8236" lon="4.73926">
        <ele>219.958574</ele>
        <time>2011-02-19T14:18:01Z</time>
      </trkpt>
      <trkpt lat="46.82348" lon="4.73948">
        <ele>219.74356</ele>
        <time>2011-02-19T14:18:03Z</time>
      </trkpt>
      <trkpt lat="46.82329" lon="4.7398">
        <ele>219.556117</ele>
        <time>2011-02-19T14:18:06Z</time>
      </trkpt>
      <trkpt lat="46.8231" lon="4.74011">
        <ele>219.40622</ele>
        <time>2011-02-19T14:18:09Z</time>
      </trkpt>
      <trkpt lat="46.82299" lon="4.74031">
        <ele>219.252872</ele>
        <time>2011-02-19T14:18:11Z</time>
      </trkpt>
      <trkpt lat="46.82283" lon="4.74059">
        <ele>219.052229</ele>
        <time>2011-02-19T14:18:14Z</time>
      </trkpt>
      <trkpt lat="46.82273" lon="4.74077">
        <ele>218.736588</ele>
        <time>2011-02-19T14:18:16Z</time>
      </trkpt>
      <trkpt lat="46.82258" lon="4.74101">
        <ele>218.17413</ele>
        <time>2011-02-19T14:18:19Z</time>
      </trkpt>
      <trkpt lat="46.82243" lon="4.74125">
        <ele>216.918671</ele>
        <time>2011-02-19T14:18:22Z</time>
      </trkpt>
      <trkpt lat="46.82234" lon="4.74139">
        <ele>214.770111</ele>
        <time>2011-02-19T14:18:24Z</time>
      </trkpt>
      <trkpt lat="46.82219" lon="4.74162">
        <ele>212.360822</ele>
        <time>2011-02-19T14:18:27Z</time>
      </trkpt>
      <trkpt lat="46.82206" lon="4.74184">
        <ele>210.460482</ele>
        <time>2011-02-19T14:18:30Z</time>
      </trkpt>
      <trkpt lat="46.82196" lon="4.74199">
        <ele>209.312887</ele>
        <time>2011-02-19T14:18:32Z</time>
      </trkpt>
      <trkpt lat="46.82182" lon="4.74222">
        <ele>208.816943</ele>
        <time>2011-02-19T14:18:35Z</time>
      </trkpt>
      <trkpt lat="46.82173" lon="4.74238">
        <ele>208.670992</ele>
        <time>2011-02-19T14:18:37Z</time>
      </trkpt>
      <trkpt lat="46.82159" lon="4.7426">
        <ele>208.623448</ele>
        <time>2011-02-19T14:18:40Z</time>
      </trkpt>
      <trkpt lat="46.8215" lon="4.74276">
        <ele>208.515685</ele>
        <time>2011-02-19T14:18:42Z</time>
      </trkpt>
      <trkpt lat="46.82136" lon="4.743">
        <ele>208.223567</ele>
        <time>2011-02-19T14:18:45Z</time>
      </trkpt>
      <trkpt lat="46.82127" lon="4.74316">
        <ele>207.720128</ele>
        <time>2011-02-19T14:18:47Z</time>
      </trkpt>
      <trkpt lat="46.82113" lon="4.74339">
        <ele>207.087738</ele>
        <time>2011-02-19T14:18:50Z</time>
      </trkpt>
      <trkpt lat="46.82104" lon="4.74354">
        <ele>206.427309</ele>
        <time>2011-02-19T14:18:52Z</time>
      </trkpt>
      <trkpt lat="46.8209" lon="4.74377">
        <ele>205.849056</ele>
        <time>2011-02-19T14:18:55Z</time>
      </trkpt>
      <trkpt lat="46.82081" lon="4.74391">
        <ele>205.429371</ele>
        <time>2011-02-19T14:18:57Z</time>
      </trkpt>
      <trkpt lat="46.82068" lon="4.74413">
        <ele>205.147615</ele>
        <time>2011-02-19T14:19:00Z</time>
      </trkpt>
      <trkpt lat="46.82059" lon="4.74427">
        <ele>204.901999</ele>
        <time>2011-02-19T14:19:02Z</time>
      </trkpt>
      <trkpt lat="46.82046" lon="4.7445">
        <ele>204.616716</ele>
        <time>2011-02-19T14:19:05Z</time>
      </trkpt>
      <trkpt lat="46.82033" lon="4.74473">
        <ele>204.301092</ele>
        <time>2011-02-19T14:19:08Z</time>
      </trkpt>
      <trkpt lat="46.82025" lon="4.74487">
        <ele>204.037366</ele>
        <time>2011-02-19T14:19:10Z</time>
      </trkpt>
      <trkpt lat="46.82016" lon="4.74502">
        <ele>203.888864</ele>
        <time>2011-02-19T14:19:12Z</time>
      </trkpt>
      <trkpt lat="46.82003" lon="4.74523">
        <ele>203.817466</ele>
        <time>2011-02-19T14:19:15Z</time>
      </trkpt>
      <trkpt lat="46.8199" lon="4.74545">
        <ele>203.747078</ele>
        <time>2011-02-19T14:19:18Z</time>
      </trkpt>
      <trkpt lat="46.81981" lon="4.7456">
        <ele>203.6552</ele>
        <time>2011-02-19T14:19:20Z</time>
      </trkpt>
      <trkpt lat="46.81972" lon="4.74575">
        <ele>203.46818</ele>
        <time>2011-02-19T14:19:22Z</time>
      </trkpt>
      <trkpt lat="46.81959" lon="4.74597">
        <ele>203.070766</ele>
        <time>2011-02-19T14:19:25Z</time>
      </trkpt>
      <trkpt lat="46.8195" lon="4.74612">
        <ele>202.465994</ele>
        <time>2011-02-19T14:19:27Z</time>
      </trkpt>
      <trkpt lat="46.81941" lon="4.74628">
        <ele>201.751463</ele>
        <time>2011-02-19T14:19:29Z</time>
      </trkpt>
      <trkpt lat="46.81932" lon="4.74643">
        <ele>200.991333</ele>
        <time>2011-02-19T14:19:31Z</time>
      </trkpt>
      <trkpt lat="46.81918" lon="4.74665">
        <ele>200.275141</ele>
        <time>2011-02-19T14:19:34Z</time>
      </trkpt>
      <trkpt lat="46.81904" lon="4.74689">
        <ele>199.757985</ele>
        <time>2011-02-19T14:19:37Z</time>
      </trkpt>
      <trkpt lat="46.81895" lon="4.74705">
        <ele>199.499739</ele>
        <time>2011-02-19T14:19:39Z</time>
      </trkpt>
      <trkpt lat="46.81881" lon="4.7473">
        <ele>199.386465</ele>
        <time>2011-02-19T14:19:42Z</time>
      </trkpt>
      <trkpt lat="46.81866" lon="4.74755">
        <ele>199.286851</ele>
        <time>2011-02-19T14:19:45Z</time>
      </trkpt>
      <trkpt lat="46.8185" lon="4.74782">
        <ele>199.140635</ele>
        <time>2011-02-19T14:19:48Z</time>
      </trkpt>
      <trkpt lat="46.81835" lon="4.74808">
        <ele>198.812465</ele>
        <time>2011-02-19T14:19:51Z</time>
      </trkpt>
      <trkpt lat="46.81821" lon="4.74831">
        <ele>198.135947</ele>
        <time>2011-02-19T14:19:54Z</time>
      </trkpt>
      <trkpt lat="46.81812" lon="4.74845">
        <ele>197.237172</ele>
        <time>2011-02-19T14:19:56Z</time>
      </trkpt>
      <trkpt lat="46.81805" lon="4.74857">
        <ele>196.448314</ele>
        <time>2011-02-19T14:19:58Z</time>
      </trkpt>
      <trkpt lat="46.81794" lon="4.74876">
        <ele>195.862714</ele>
        <time>2011-02-19T14:20:01Z</time>
      </trkpt>
      <trkpt lat="46.81784" lon="4.74894">
        <ele>195.342334</ele>
        <time>2011-02-19T14:20:04Z</time>
      </trkpt>
      <trkpt lat="46.81778" lon="4.74905">
        <ele>194.812228</ele>
        <time>2011-02-19T14:20:06Z</time>
      </trkpt>
      <trkpt lat="46.81771" lon="4.74918">
        <ele>194.299427</ele>
        <time>2011-02-19T14:20:08Z</time>
      </trkpt>
      <trkpt lat="46.81761" lon="4.74936">
        <ele>193.79259</ele>
        <time>2011-02-19T14:20:11Z</time>
      </trkpt>
      <trkpt lat="46.8175" lon="4.74954">
        <ele>193.288435</ele>
        <time>2011-02-19T14:20:14Z</time>
      </trkpt>
      <trkpt lat="46.81739" lon="4.74972">
        <ele>192.861789</ele>
        <time>2011-02-19T14:20:17Z</time>
      </trkpt>
      <trkpt lat="46.81732" lon="4.74984">
        <ele>192.575884</ele>
        <time>2011-02-19T14:20:19Z</time>
      </trkpt>
      <trkpt lat="46.81722" lon="4.75002">
        <ele>192.393714</ele>
        <time>2011-02-19T14:20:22Z</time>
      </trkpt>
      <trkpt lat="46.81715" lon="4.75013">
        <ele>192.24388</ele>
        <time>2011-02-19T14:20:24Z</time>
      </trkpt>
      <trkpt lat="46.81708" lon="4.75023">
        <ele>192.052627</ele>
        <time>2011-02-19T14:20:26Z</time>
      </trkpt>
      <trkpt lat="46.81699" lon="4.7504">
        <ele>191.725534</ele>
        <time>2011-02-19T14:20:29Z</time>
      </trkpt>
      <trkpt lat="46.8169" lon="4.75055">
        <ele>191.255308</ele>
        <time>2011-02-19T14:20:32Z</time>
      </trkpt>
      <trkpt lat="46.81681" lon="4.7507">
        <ele>190.768926</ele>
        <time>2011-02-19T14:20:35Z</time>
      </trkpt>
      <trkpt lat="46.81672" lon="4.75086">
        <ele>190.285489</ele>
        <time>2011-02-19T14:20:38Z</time>
      </trkpt>
      <trkpt lat="46.81666" lon="4.75096">
        <ele>189.693043</ele>
        <time>2011-02-19T14:20:40Z</time>
      </trkpt>
      <trkpt lat="46.8166" lon="4.75107">
        <ele>189.009232</ele>
        <time>2011-02-19T14:20:42Z</time>
      </trkpt>
      <trkpt lat="46.81651" lon="4.75121">
        <ele>188.395275</ele>
        <time>2011-02-19T14:20:45Z</time>
      </trkpt>
      <trkpt lat="46.81642" lon="4.75136">
        <ele>187.987631</ele>
        <time>2011-02-19T14:20:48Z</time>
      </trkpt>
      <trkpt lat="46.81632" lon="4.7515">
        <ele>187.818332</ele>
        <time>2011-02-19T14:20:51Z</time>
      </trkpt>
      <trkpt lat="46.81621" lon="4.75166">
        <ele>187.807172</ele>
        <time>2011-02-19T14:20:54Z</time>
      </trkpt>
      <trkpt lat="46.8161" lon="4.75179">
        <ele>187.865597</ele>
        <time>2011-02-19T14:20:57Z</time>
      </trkpt>
      <trkpt lat="46.81605" lon="4.75196">
        <ele>188.012641</ele>
        <time>2011-02-19T14:21:00Z</time>
      </trkpt>
      <trkpt lat="46.81607" lon="4.75211">
        <ele>188.339208</ele>
        <time>2011-02-19T14:21:03Z</time>
      </trkpt>
      <trkpt lat="46.81613" lon="4.75224">
        <ele>188.843247</ele>
        <time>2011-02-19T14:21:06Z</time>
      </trkpt>
      <trkpt lat="46.81624" lon="4.7523">
        <ele>189.338865</ele>
        <time>2011-02-19T14:21:09Z</time>
      </trkpt>
      <trkpt lat="46.81636" lon="4.75229">
        <ele>189.631067</ele>
        <time>2011-02-19T14:21:12Z</time>
      </trkpt>
      <trkpt lat="46.81648" lon="4.75227">
        <ele>189.709581</ele>
        <time>2011-02-19T14:21:15Z</time>
      </trkpt>
      <trkpt lat="46.81659" lon="4.75223">
        <ele>189.674256</ele>
        <time>2011-02-19T14:21:18Z</time>
      </trkpt>
      <trkpt lat="46.81669" lon="4.75217">
        <ele>189.546901</ele>
        <time>2011-02-19T14:21:21Z</time>
      </trkpt>
      <trkpt lat="46.81679" lon="4.75209">
        <ele>189.290229</ele>
        <time>2011-02-19T14:21:24Z</time>
      </trkpt>
      <trkpt lat="46.8169" lon="4.75202">
        <ele>188.938036</ele>
        <time>2011-02-19T14:21:27Z</time>
      </trkpt>
      <trkpt lat="46.81701" lon="4.75197">
        <ele>188.602568</ele>
        <time>2011-02-19T14:21:30Z</time>
      </trkpt>
      <trkpt lat="46.81713" lon="4.75194">
        <ele>188.358901</ele>
        <time>2011-02-19T14:21:33Z</time>
      </trkpt>
      <trkpt lat="46.81726" lon="4.75192">
        <ele>188.186903</ele>
        <time>2011-02-19T14:21:36Z</time>
      </trkpt>
      <trkpt lat="46.81738" lon="4.75192">
        <ele>187.991458</ele>
        <time>2011-02-19T14:21:39Z</time>
      </trkpt>
      <trkpt lat="46.81752" lon="4.75192">
        <ele>187.722014</ele>
        <time>2011-02-19T14:21:42Z</time>
      </trkpt>
      <trkpt lat="46.81765" lon="4.75193">
        <ele>187.417404</ele>
        <time>2011-02-19T14:21:45Z</time>
      </trkpt>
      <trkpt lat="46.81778" lon="4.75193">
        <ele>187.020236</ele>
        <time>2011-02-19T14:21:48Z</time>
      </trkpt>
      <trkpt lat="46.81791" lon="4.75194">
        <ele>186.349021</ele>
        <time>2011-02-19T14:21:51Z</time>
      </trkpt>
      <trkpt lat="46.818" lon="4.75195">
        <ele>185.429603</ele>
        <time>2011-02-19T14:21:53Z</time>
      </trkpt>
      <trkpt lat="46.81814" lon="4.75195">
        <ele>184.554374</ele>
        <time>2011-02-19T14:21:56Z</time>
      </trkpt>
      <trkpt lat="46.81824" lon="4.75196">
        <ele>183.964005</ele>
        <time>2011-02-19T14:21:58Z</time>
      </trkpt>
      <trkpt lat="46.81838" lon="4.75197">
        <ele>183.677917</ele>
        <time>2011-02-19T14:22:01Z</time>
      </trkpt>
      <trkpt lat="46.81848" lon="4.75198">
        <ele>183.585026</ele>
        <time>2011-02-19T14:22:03Z</time>
      </trkpt>
      <trkpt lat="46.81864" lon="4.75198">
        <ele>183.568532</ele>
        <time>2011-02-19T14:22:06Z</time>
      </trkpt>
      <trkpt lat="46.8188" lon="4.75199">
        <ele>183.566683</ele>
        <time>2011-02-19T14:22:09Z</time>
      </trkpt>
      <trkpt lat="46.81897" lon="4.75199">
        <ele>183.562561</ele>
        <time>2011-02-19T14:22:12Z</time>
      </trkpt>
      <trkpt lat="46.81908" lon="4.75199">
        <ele>183.48156</ele>
        <time>2011-02-19T14:22:14Z</time>
      </trkpt>
      <trkpt lat="46.81923" lon="4.75199">
        <ele>183.246188</ele>
        <time>2011-02-19T14:22:17Z</time>
      </trkpt>
      <trkpt lat="46.81933" lon="4.75199">
        <ele>182.925485</ele>
        <time>2011-02-19T14:22:19Z</time>
      </trkpt>
      <trkpt lat="46.81944" lon="4.75199">
        <ele>182.647707</ele>
        <time>2011-02-19T14:22:21Z</time>
      </trkpt>
      <trkpt lat="46.81954" lon="4.75199">
        <ele>182.448583</ele>
        <time>2011-02-19T14:22:23Z</time>
      </trkpt>
      <trkpt lat="46.81964" lon="4.752">
        <ele>182.322215</ele>
        <time>2011-02-19T14:22:25Z</time>
      </trkpt>
      <trkpt lat="46.81979" lon="4.75201">
        <ele>182.263319</ele>
        <time>2011-02-19T14:22:28Z</time>
      </trkpt>
      <trkpt lat="46.8199" lon="4.75204">
        <ele>182.255037</ele>
        <time>2011-02-19T14:22:30Z</time>
      </trkpt>
      <trkpt lat="46.82005" lon="4.75206">
        <ele>182.274358</ele>
        <time>2011-02-19T14:22:33Z</time>
      </trkpt>
      <trkpt lat="46.82015" lon="4.75207">
        <ele>182.324852</ele>
        <time>2011-02-19T14:22:35Z</time>
      </trkpt>
      <trkpt lat="46.82028" lon="4.75209">
        <ele>182.446336</ele>
        <time>2011-02-19T14:22:38Z</time>
      </trkpt>
      <trkpt lat="46.82041" lon="4.7521">
        <ele>182.660568</ele>
        <time>2011-02-19T14:22:41Z</time>
      </trkpt>
      <trkpt lat="46.82054" lon="4.75211">
        <ele>182.892222</ele>
        <time>2011-02-19T14:22:44Z</time>
      </trkpt>
      <trkpt lat="46.82066" lon="4.75211">
        <ele>183.036189</ele>
        <time>2011-02-19T14:22:47Z</time>
      </trkpt>
      <trkpt lat="46.82079" lon="4.75212">
        <ele>183.078444</ele>
        <time>2011-02-19T14:22:50Z</time>
      </trkpt>
      <trkpt lat="46.82092" lon="4.75212">
        <ele>183.059656</ele>
        <time>2011-02-19T14:22:53Z</time>
      </trkpt>
      <trkpt lat="46.82104" lon="4.75212">
        <ele>182.996248</ele>
        <time>2011-02-19T14:22:56Z</time>
      </trkpt>
      <trkpt lat="46.82115" lon="4.75211">
        <ele>182.894238</ele>
        <time>2011-02-19T14:22:59Z</time>
      </trkpt>
      <trkpt lat="46.82127" lon="4.75211">
        <ele>182.73001</ele>
        <time>2011-02-19T14:23:02Z</time>
      </trkpt>
      <trkpt lat="46.82139" lon="4.75211">
        <ele>182.510017</ele>
        <time>2011-02-19T14:23:05Z</time>
      </trkpt>
      <trkpt lat="46.82151" lon="4.75211">
        <ele>182.331105</ele>
        <time>2011-02-19T14:23:08Z</time>
      </trkpt>
      <trkpt lat="46.82164" lon="4.7521">
        <ele>182.259251</ele>
        <time>2011-02-19T14:23:11Z</time>
      </trkpt>
      <trkpt lat="46.82177" lon="4.7521">
        <ele>182.26311</ele>
        <time>2011-02-19T14:23:14Z</time>
      </trkpt>
      <trkpt lat="46.82189" lon="4.75209">
        <ele>182.333519</ele>
        <time>2011-02-19T14:23:17Z</time>
      </trkpt>
      <trkpt lat="46.822" lon="4.75208">
        <ele>182.555471</ele>
        <time>2011-02-19T14:23:20Z</time>
      </trkpt>
      <trkpt lat="46.8221" lon="4.75207">
        <ele>182.997095</ele>
        <time>2011-02-19T14:23:23Z</time>
      </trkpt>
      <trkpt lat="46.82222" lon="4.75206">
        <ele>183.526788</ele>
        <time>2011-02-19T14:23:27Z</time>
      </trkpt>
      <trkpt lat="46.82233" lon="4.75205">
        <ele>183.942717</ele>
        <time>2011-02-19T14:23:31Z</time>
      </trkpt>
      <trkpt lat="46.82242" lon="4.75205">
        <ele>184.223493</ele>
        <time>2011-02-19T14:23:34Z</time>
      </trkpt>
      <trkpt lat="46.82253" lon="4.75205">
        <ele>184.487655</ele>
        <time>2011-02-19T14:23:37Z</time>
      </trkpt>
      <trkpt lat="46.82265" lon="4.75205">
        <ele>184.846259</ele>
        <time>2011-02-19T14:23:40Z</time>
      </trkpt>
      <trkpt lat="46.82278" lon="4.75205">
        <ele>185.324313</ele>
        <time>2011-02-19T14:23:43Z</time>
      </trkpt>
      <trkpt lat="46.82287" lon="4.75205">
        <ele>185.858113</ele>
        <time>2011-02-19T14:23:45Z</time>
      </trkpt>
      <trkpt lat="46.82302" lon="4.75206">
        <ele>186.848313</ele>
        <time>2011-02-19T14:23:48Z</time>
      </trkpt>
      <trkpt lat="46.82317" lon="4.75206">
        <ele>188.802159</ele>
        <time>2011-02-19T14:23:51Z</time>
      </trkpt>
      <trkpt lat="46.82333" lon="4.75207">
        <ele>191.222696</ele>
        <time>2011-02-19T14:23:54Z</time>
      </trkpt>
      <trkpt lat="46.82344" lon="4.75207">
        <ele>193.139779</ele>
        <time>2011-02-19T14:23:56Z</time>
      </trkpt>
      <trkpt lat="46.8236" lon="4.75208">
        <ele>194.272177</ele>
        <time>2011-02-19T14:23:59Z</time>
      </trkpt>
      <trkpt lat="46.82371" lon="4.75208">
        <ele>194.859969</ele>
        <time>2011-02-19T14:24:01Z</time>
      </trkpt>
      <trkpt lat="46.82387" lon="4.75209">
        <ele>195.236758</ele>
        <time>2011-02-19T14:24:04Z</time>
      </trkpt>
      <trkpt lat="46.82403" lon="4.75209">
        <ele>195.590936</ele>
        <time>2011-02-19T14:24:07Z</time>
      </trkpt>
      <trkpt lat="46.82414" lon="4.7521">
        <ele>195.897588</ele>
        <time>2011-02-19T14:24:09Z</time>
      </trkpt>
      <trkpt lat="46.82429" lon="4.7521">
        <ele>196.071075</ele>
        <time>2011-02-19T14:24:12Z</time>
      </trkpt>
      <trkpt lat="46.82445" lon="4.75209">
        <ele>196.114159</ele>
        <time>2011-02-19T14:24:15Z</time>
      </trkpt>
      <trkpt lat="46.82461" lon="4.75209">
        <ele>196.073453</ele>
        <time>2011-02-19T14:24:18Z</time>
      </trkpt>
      <trkpt lat="46.82478" lon="4.75209">
        <ele>195.986711</ele>
        <time>2011-02-19T14:24:21Z</time>
      </trkpt>
      <trkpt lat="46.82494" lon="4.75209">
        <ele>195.909408</ele>
        <time>2011-02-19T14:24:24Z</time>
      </trkpt>
      <trkpt lat="46.82505" lon="4.75209">
        <ele>195.875994</ele>
        <time>2011-02-19T14:24:26Z</time>
      </trkpt>
      <trkpt lat="46.8252" lon="4.75209">
        <ele>195.943998</ele>
        <time>2011-02-19T14:24:29Z</time>
      </trkpt>
      <trkpt lat="46.82536" lon="4.7521">
        <ele>196.190765</ele>
        <time>2011-02-19T14:24:32Z</time>
      </trkpt>
      <trkpt lat="46.82547" lon="4.7521">
        <ele>196.584953</ele>
        <time>2011-02-19T14:24:34Z</time>
      </trkpt>
      <trkpt lat="46.82558" lon="4.75211">
        <ele>197.019392</ele>
        <time>2011-02-19T14:24:36Z</time>
      </trkpt>
      <trkpt lat="46.82573" lon="4.75211">
        <ele>197.404381</ele>
        <time>2011-02-19T14:24:39Z</time>
      </trkpt>
      <trkpt lat="46.82584" lon="4.75211">
        <ele>197.677324</ele>
        <time>2011-02-19T14:24:41Z</time>
      </trkpt>
      <trkpt lat="46.826" lon="4.75211">
        <ele>197.83485</ele>
        <time>2011-02-19T14:24:44Z</time>
      </trkpt>
      <trkpt lat="46.82616" lon="4.75211">
        <ele>197.923941</ele>
        <time>2011-02-19T14:24:47Z</time>
      </trkpt>
      <trkpt lat="46.82626" lon="4.75211">
        <ele>198.001074</ele>
        <time>2011-02-19T14:24:49Z</time>
      </trkpt>
      <trkpt lat="46.82642" lon="4.75212">
        <ele>198.176639</ele>
        <time>2011-02-19T14:24:52Z</time>
      </trkpt>
      <trkpt lat="46.82653" lon="4.75212">
        <ele>198.568532</ele>
        <time>2011-02-19T14:24:54Z</time>
      </trkpt>
      <trkpt lat="46.82668" lon="4.75212">
        <ele>199.129767</ele>
        <time>2011-02-19T14:24:57Z</time>
      </trkpt>
      <trkpt lat="46.82678" lon="4.75212">
        <ele>199.696887</ele>
        <time>2011-02-19T14:24:59Z</time>
      </trkpt>
      <trkpt lat="46.82694" lon="4.75212">
        <ele>200.159908</ele>
        <time>2011-02-19T14:25:02Z</time>
      </trkpt>
      <trkpt lat="46.82709" lon="4.75212">
        <ele>200.485682</ele>
        <time>2011-02-19T14:25:05Z</time>
      </trkpt>
      <trkpt lat="46.82725" lon="4.75212">
        <ele>200.703114</ele>
        <time>2011-02-19T14:25:08Z</time>
      </trkpt>
      <trkpt lat="46.82741" lon="4.75212">
        <ele>200.873877</ele>
        <time>2011-02-19T14:25:11Z</time>
      </trkpt>
      <trkpt lat="46.82757" lon="4.75213">
        <ele>201.04756</ele>
        <time>2011-02-19T14:25:14Z</time>
      </trkpt>
      <trkpt lat="46.82771" lon="4.75214">
        <ele>201.265137</ele>
        <time>2011-02-19T14:25:17Z</time>
      </trkpt>
      <trkpt lat="46.82781" lon="4.75214">
        <ele>201.581182</ele>
        <time>2011-02-19T14:25:19Z</time>
      </trkpt>
      <trkpt lat="46.82797" lon="4.75214">
        <ele>201.997661</ele>
        <time>2011-02-19T14:25:22Z</time>
      </trkpt>
      <trkpt lat="46.82808" lon="4.75215">
        <ele>202.440284</ele>
        <time>2011-02-19T14:25:24Z</time>
      </trkpt>
      <trkpt lat="46.82823" lon="4.75215">
        <ele>202.831477</ele>
        <time>2011-02-19T14:25:27Z</time>
      </trkpt>
      <trkpt lat="46.82839" lon="4.75216">
        <ele>203.182598</ele>
        <time>2011-02-19T14:25:30Z</time>
      </trkpt>
      <trkpt lat="46.82851" lon="4.75217">
        <ele>203.552105</ele>
        <time>2011-02-19T14:25:32Z</time>
      </trkpt>
      <trkpt lat="46.82867" lon="4.75218">
        <ele>203.920433</ele>
        <time>2011-02-19T14:25:35Z</time>
      </trkpt>
      <trkpt lat="46.82883" lon="4.75218">
        <ele>204.201003</ele>
        <time>2011-02-19T14:25:38Z</time>
      </trkpt>
      <trkpt lat="46.82894" lon="4.75218">
        <ele>204.384867</ele>
        <time>2011-02-19T14:25:40Z</time>
      </trkpt>
      <trkpt lat="46.8291" lon="4.75219">
        <ele>204.587722</ele>
        <time>2011-02-19T14:25:43Z</time>
      </trkpt>
      <trkpt lat="46.82921" lon="4.7522">
        <ele>204.913359</ele>
        <time>2011-02-19T14:25:45Z</time>
      </trkpt>
      <trkpt lat="46.82931" lon="4.7522">
        <ele>205.287247</ele>
        <time>2011-02-19T14:25:47Z</time>
      </trkpt>
      <trkpt lat="46.82941" lon="4.7522">
        <ele>205.588935</ele>
        <time>2011-02-19T14:25:49Z</time>
      </trkpt>
      <trkpt lat="46.82954" lon="4.7522">
        <ele>205.793888</ele>
        <time>2011-02-19T14:25:52Z</time>
      </trkpt>
      <trkpt lat="46.82964" lon="4.7522">
        <ele>205.904633</ele>
        <time>2011-02-19T14:25:55Z</time>
      </trkpt>
      <trkpt lat="46.82974" lon="4.75219">
        <ele>205.950645</ele>
        <time>2011-02-19T14:25:59Z</time>
      </trkpt>
      <trkpt lat="46.82984" lon="4.75223">
        <ele>205.982456</ele>
        <time>2011-02-19T14:26:04Z</time>
      </trkpt>
      <trkpt lat="46.82984" lon="4.75223">
        <ele>206.011641</ele>
        <time>2011-02-19T14:26:05Z</time>
      </trkpt>
      <trkpt lat="46.82991" lon="4.75246">
        <ele>206.031863</ele>
        <time>2011-02-19T14:26:10Z</time>
      </trkpt>
      <trkpt lat="46.8299" lon="4.75261">
        <ele>206.047667</ele>
        <time>2011-02-19T14:26:13Z</time>
      </trkpt>
      <trkpt lat="46.82987" lon="4.75274">
        <ele>206.077726</ele>
        <time>2011-02-19T14:26:16Z</time>
      </trkpt>
      <trkpt lat="46.82987" lon="4.75274">
        <ele>206.129859</ele>
        <time>2011-02-19T14:26:19Z</time>
      </trkpt>
      <trkpt lat="46.82987" lon="4.75274">
        <ele>206.178341</ele>
        <time>2011-02-19T14:26:51Z</time>
      </trkpt>
      <trkpt lat="46.82981" lon="4.75321">
        <ele>206.221213</ele>
        <time>2011-02-19T14:28:52Z</time>
      </trkpt>
      <trkpt lat="46.82979" lon="4.75337">
        <ele>206.287957</ele>
        <time>2011-02-19T14:28:55Z</time>
      </trkpt>
      <trkpt lat="46.82978" lon="4.75352">
        <ele>206.373594</ele>
        <time>2011-02-19T14:28:58Z</time>
      </trkpt>
      <trkpt lat="46.82976" lon="4.75367">
        <ele>206.762664</ele>
        <time>2011-02-19T14:29:01Z</time>
      </trkpt>
      <trkpt lat="46.82973" lon="4.75384">
        <ele>207.634864</ele>
        <time>2011-02-19T14:29:04Z</time>
      </trkpt>
      <trkpt lat="46.8297" lon="4.75398">
        <ele>208.517978</ele>
        <time>2011-02-19T14:29:06Z</time>
      </trkpt>
      <trkpt lat="46.82964" lon="4.7542">
        <ele>208.960737</ele>
        <time>2011-02-19T14:29:09Z</time>
      </trkpt>
      <trkpt lat="46.82956" lon="4.75441">
        <ele>209.116318</ele>
        <time>2011-02-19T14:29:12Z</time>
      </trkpt>
      <trkpt lat="46.8295" lon="4.75455">
        <ele>209.262856</ele>
        <time>2011-02-19T14:29:14Z</time>
      </trkpt>
      <trkpt lat="46.82943" lon="4.75476">
        <ele>209.522253</ele>
        <time>2011-02-19T14:29:17Z</time>
      </trkpt>
      <trkpt lat="46.82941" lon="4.75497">
        <ele>209.874417</ele>
        <time>2011-02-19T14:29:20Z</time>
      </trkpt>
      <trkpt lat="46.82941" lon="4.75517">
        <ele>210.244367</ele>
        <time>2011-02-19T14:29:23Z</time>
      </trkpt>
      <trkpt lat="46.82942" lon="4.75541">
        <ele>210.60509</ele>
        <time>2011-02-19T14:29:26Z</time>
      </trkpt>
      <trkpt lat="46.82943" lon="4.75558">
        <ele>210.990257</ele>
        <time>2011-02-19T14:29:28Z</time>
      </trkpt>
      <trkpt lat="46.82946" lon="4.75586">
        <ele>211.341483</ele>
        <time>2011-02-19T14:29:31Z</time>
      </trkpt>
      <trkpt lat="46.82949" lon="4.75615">
        <ele>211.554273</ele>
        <time>2011-02-19T14:29:34Z</time>
      </trkpt>
      <trkpt lat="46.82951" lon="4.75636">
        <ele>211.63473</ele>
        <time>2011-02-19T14:29:36Z</time>
      </trkpt>
      <trkpt lat="46.82952" lon="4.75667">
        <ele>211.642847</ele>
        <time>2011-02-19T14:29:39Z</time>
      </trkpt>
      <trkpt lat="46.82951" lon="4.75688">
        <ele>211.612536</ele>
        <time>2011-02-19T14:29:41Z</time>
      </trkpt>
      <trkpt lat="46.82947" lon="4.75718">
        <ele>211.553686</ele>
        <time>2011-02-19T14:29:44Z</time>
      </trkpt>
      <trkpt lat="46.82943" lon="4.75736">
        <ele>211.416114</ele>
        <time>2011-02-19T14:29:46Z</time>
      </trkpt>
      <trkpt lat="46.82938" lon="4.7576">
        <ele>211.169468</ele>
        <time>2011-02-19T14:29:49Z</time>
      </trkpt>
      <trkpt lat="46.82935" lon="4.75775">
        <ele>210.882252</ele>
        <time>2011-02-19T14:29:51Z</time>
      </trkpt>
      <trkpt lat="46.82932" lon="4.7579">
        <ele>210.62751</ele>
        <time>2011-02-19T14:29:53Z</time>
      </trkpt>
      <trkpt lat="46.82927" lon="4.75813">
        <ele>210.435108</ele>
        <time>2011-02-19T14:29:56Z</time>
      </trkpt>
      <trkpt lat="46.82923" lon="4.75836">
        <ele>210.335894</ele>
        <time>2011-02-19T14:29:59Z</time>
      </trkpt>
      <trkpt lat="46.82919" lon="4.75858">
        <ele>210.31443</ele>
        <time>2011-02-19T14:30:02Z</time>
      </trkpt>
      <trkpt lat="46.82915" lon="4.75873">
        <ele>210.326558</ele>
        <time>2011-02-19T14:30:04Z</time>
      </trkpt>
      <trkpt lat="46.8291" lon="4.75887">
        <ele>210.370004</ele>
        <time>2011-02-19T14:30:06Z</time>
      </trkpt>
      <trkpt lat="46.82905" lon="4.75901">
        <ele>210.451481</ele>
        <time>2011-02-19T14:30:08Z</time>
      </trkpt>
      <trkpt lat="46.82896" lon="4.7592">
        <ele>210.528582</ele>
        <time>2011-02-19T14:30:11Z</time>
      </trkpt>
      <trkpt lat="46.82887" lon="4.7594">
        <ele>210.563344</ele>
        <time>2011-02-19T14:30:14Z</time>
      </trkpt>
      <trkpt lat="46.82882" lon="4.75955">
        <ele>210.563607</ele>
        <time>2011-02-19T14:30:16Z</time>
      </trkpt>
      <trkpt lat="46.82876" lon="4.75977">
        <ele>210.540355</ele>
        <time>2011-02-19T14:30:19Z</time>
      </trkpt>
      <trkpt lat="46.82873" lon="4.75993">
        <ele>210.504406</ele>
        <time>2011-02-19T14:30:21Z</time>
      </trkpt>
      <trkpt lat="46.82867" lon="4.76017">
        <ele>210.471079</ele>
        <time>2011-02-19T14:30:24Z</time>
      </trkpt>
      <trkpt lat="46.82864" lon="4.76031">
        <ele>210.425974</ele>
        <time>2011-02-19T14:30:26Z</time>
      </trkpt>
      <trkpt lat="46.82855" lon="4.76047">
        <ele>210.341093</ele>
        <time>2011-02-19T14:30:29Z</time>
      </trkpt>
      <trkpt lat="46.82846" lon="4.76061">
        <ele>210.228778</ele>
        <time>2011-02-19T14:30:32Z</time>
      </trkpt>
      <trkpt lat="46.82836" lon="4.76074">
        <ele>210.088655</ele>
        <time>2011-02-19T14:30:35Z</time>
      </trkpt>
      <trkpt lat="46.82827" lon="4.76087">
        <ele>209.688103</ele>
        <time>2011-02-19T14:30:38Z</time>
      </trkpt>
      <trkpt lat="46.82818" lon="4.76101">
        <ele>208.817293</ele>
        <time>2011-02-19T14:30:41Z</time>
      </trkpt>
      <trkpt lat="46.82809" lon="4.76117">
        <ele>207.715929</ele>
        <time>2011-02-19T14:30:44Z</time>
      </trkpt>
      <trkpt lat="46.82802" lon="4.76129">
        <ele>206.787726</ele>
        <time>2011-02-19T14:30:46Z</time>
      </trkpt>
      <trkpt lat="46.82796" lon="4.76139">
        <ele>206.145604</ele>
        <time>2011-02-19T14:30:48Z</time>
      </trkpt>
      <trkpt lat="46.82787" lon="4.76154">
        <ele>205.609402</ele>
        <time>2011-02-19T14:30:51Z</time>
      </trkpt>
      <trkpt lat="46.82778" lon="4.76169">
        <ele>204.991268</ele>
        <time>2011-02-19T14:30:54Z</time>
      </trkpt>
      <trkpt lat="46.82771" lon="4.76181">
        <ele>204.242681</ele>
        <time>2011-02-19T14:30:56Z</time>
      </trkpt>
      <trkpt lat="46.82761" lon="4.76202">
        <ele>203.406598</ele>
        <time>2011-02-19T14:30:59Z</time>
      </trkpt>
      <trkpt lat="46.82753" lon="4.76215">
        <ele>202.682638</ele>
        <time>2011-02-19T14:31:01Z</time>
      </trkpt>
      <trkpt lat="46.82742" lon="4.76234">
        <ele>202.298979</ele>
        <time>2011-02-19T14:31:04Z</time>
      </trkpt>
      <trkpt lat="46.82734" lon="4.76247">
        <ele>202.216753</ele>
        <time>2011-02-19T14:31:06Z</time>
      </trkpt>
      <trkpt lat="46.8272" lon="4.76271">
        <ele>202.264234</ele>
        <time>2011-02-19T14:31:09Z</time>
      </trkpt>
      <trkpt lat="46.8271" lon="4.76288">
        <ele>202.323367</ele>
        <time>2011-02-19T14:31:11Z</time>
      </trkpt>
      <trkpt lat="46.82699" lon="4.76329">
        <ele>202.375416</ele>
        <time>2011-02-19T14:31:14Z</time>
      </trkpt>
      <trkpt lat="46.82692" lon="4.7636">
        <ele>202.458738</ele>
        <time>2011-02-19T14:31:16Z</time>
      </trkpt>
      <trkpt lat="46.82687" lon="4.7639">
        <ele>202.572762</ele>
        <time>2011-02-19T14:31:18Z</time>
      </trkpt>
      <trkpt lat="46.82682" lon="4.76418">
        <ele>202.664984</ele>
        <time>2011-02-19T14:31:20Z</time>
      </trkpt>
      <trkpt lat="46.82674" lon="4.76443">
        <ele>202.743405</ele>
        <time>2011-02-19T14:31:23Z</time>
      </trkpt>
      <trkpt lat="46.82662" lon="4.76449">
        <ele>202.844795</ele>
        <time>2011-02-19T14:31:26Z</time>
      </trkpt>
      <trkpt lat="46.82651" lon="4.76448">
        <ele>202.935773</ele>
        <time>2011-02-19T14:31:29Z</time>
      </trkpt>
      <trkpt lat="46.82639" lon="4.76447">
        <ele>202.975298</ele>
        <time>2011-02-19T14:31:32Z</time>
      </trkpt>
      <trkpt lat="46.82627" lon="4.7645">
        <ele>202.807634</ele>
        <time>2011-02-19T14:31:35Z</time>
      </trkpt>
      <trkpt lat="46.82614" lon="4.76454">
        <ele>202.104929</ele>
        <time>2011-02-19T14:31:38Z</time>
      </trkpt>
      <trkpt lat="46.82601" lon="4.76458">
        <ele>200.603233</ele>
        <time>2011-02-19T14:31:41Z</time>
      </trkpt>
      <trkpt lat="46.8259" lon="4.76455">
        <ele>198.349606</ele>
        <time>2011-02-19T14:31:44Z</time>
      </trkpt>
      <trkpt lat="46.82584" lon="4.76445">
        <ele>195.990222</ele>
        <time>2011-02-19T14:31:47Z</time>
      </trkpt>
      <trkpt lat="46.82581" lon="4.76429">
        <ele>194.248476</ele>
        <time>2011-02-19T14:31:51Z</time>
      </trkpt>
      <trkpt lat="46.82578" lon="4.76415">
        <ele>193.212449</ele>
        <time>2011-02-19T14:31:54Z</time>
      </trkpt>
      <trkpt lat="46.8257" lon="4.76405">
        <ele>192.655121</ele>
        <time>2011-02-19T14:31:57Z</time>
      </trkpt>
      <trkpt lat="46.82562" lon="4.76398">
        <ele>192.392067</ele>
        <time>2011-02-19T14:32:00Z</time>
      </trkpt>
      <trkpt lat="46.82553" lon="4.76393">
        <ele>192.222822</ele>
        <time>2011-02-19T14:32:03Z</time>
      </trkpt>
      <trkpt lat="46.82542" lon="4.76386">
        <ele>192.065166</ele>
        <time>2011-02-19T14:32:07Z</time>
      </trkpt>
      <trkpt lat="46.82534" lon="4.7638">
        <ele>191.921464</ele>
        <time>2011-02-19T14:32:10Z</time>
      </trkpt>
      <trkpt lat="46.82534" lon="4.7638">
        <ele>191.806487</ele>
        <time>2011-02-19T14:32:15Z</time>
      </trkpt>
      <trkpt lat="46.82505" lon="4.76367">
        <ele>191.730603</ele>
        <time>2011-02-19T14:32:21Z</time>
      </trkpt>
      <trkpt lat="46.82497" lon="4.76362">
        <ele>191.697144</ele>
        <time>2011-02-19T14:32:24Z</time>
      </trkpt>
      <trkpt lat="46.82497" lon="4.76362">
        <ele>191.692531</ele>
        <time>2011-02-19T14:32:27Z</time>
      </trkpt>
      <trkpt lat="46.82468" lon="4.76348">
        <ele>191.696608</ele>
        <time>2011-02-19T14:32:40Z</time>
      </trkpt>
      <trkpt lat="46.82468" lon="4.76348">
        <ele>191.699915</ele>
        <time>2011-02-19T14:32:43Z</time>
      </trkpt>
      <trkpt lat="46.82443" lon="4.76327">
        <ele>191.754775</ele>
        <time>2011-02-19T14:32:50Z</time>
      </trkpt>
      <trkpt lat="46.82433" lon="4.76316">
        <ele>191.952092</ele>
        <time>2011-02-19T14:32:53Z</time>
      </trkpt>
      <trkpt lat="46.82425" lon="4.76306">
        <ele>192.519158</ele>
        <time>2011-02-19T14:32:56Z</time>
      </trkpt>
      <trkpt lat="46.82418" lon="4.76295">
        <ele>193.490287</ele>
        <time>2011-02-19T14:32:59Z</time>
      </trkpt>
      <trkpt lat="46.82409" lon="4.76281">
        <ele>194.405508</ele>
        <time>2011-02-19T14:33:02Z</time>
      </trkpt>
      <trkpt lat="46.82409" lon="4.76281">
        <ele>194.864155</ele>
        <time>2011-02-19T14:33:06Z</time>
      </trkpt>
      <trkpt lat="46.82372" lon="4.76254">
        <ele>194.954283</ele>
        <time>2011-02-19T14:33:15Z</time>
      </trkpt>
      <trkpt lat="46.82363" lon="4.7625">
        <ele>194.903543</ele>
        <time>2011-02-19T14:33:18Z</time>
      </trkpt>
      <trkpt lat="46.82352" lon="4.76238">
        <ele>195.018245</ele>
        <time>2011-02-19T14:33:21Z</time>
      </trkpt>
      <trkpt lat="46.82352" lon="4.76238">
        <ele>195.420322</ele>
        <time>2011-02-19T14:33:25Z</time>
      </trkpt>
      <trkpt lat="46.82318" lon="4.762">
        <ele>195.863151</ele>
        <time>2011-02-19T14:33:41Z</time>
      </trkpt>
      <trkpt lat="46.82308" lon="4.76187">
        <ele>196.124958</ele>
        <time>2011-02-19T14:33:44Z</time>
      </trkpt>
      <trkpt lat="46.82298" lon="4.76171">
        <ele>196.276213</ele>
        <time>2011-02-19T14:33:47Z</time>
      </trkpt>
      <trkpt lat="46.8229" lon="4.76161">
        <ele>196.574791</ele>
        <time>2011-02-19T14:33:49Z</time>
      </trkpt>
      <trkpt lat="46.8228" lon="4.76147">
        <ele>197.230035</ele>
        <time>2011-02-19T14:33:52Z</time>
      </trkpt>
      <trkpt lat="46.8228" lon="4.76147">
        <ele>198.023591</ele>
        <time>2011-02-19T14:33:56Z</time>
      </trkpt>
      <trkpt lat="46.8226" lon="4.76101">
        <ele>198.581824</ele>
        <time>2011-02-19T14:34:15Z</time>
      </trkpt>
      <trkpt lat="46.82258" lon="4.76087">
        <ele>199.04342</ele>
        <time>2011-02-19T14:34:18Z</time>
      </trkpt>
      <trkpt lat="46.82252" lon="4.76073">
        <ele>199.649991</ele>
        <time>2011-02-19T14:34:21Z</time>
      </trkpt>
      <trkpt lat="46.82252" lon="4.76073">
        <ele>200.183228</ele>
        <time>2011-02-19T14:34:25Z</time>
      </trkpt>
      <trkpt lat="46.8224" lon="4.76028">
        <ele>200.339555</ele>
        <time>2011-02-19T14:34:32Z</time>
      </trkpt>
      <trkpt lat="46.8224" lon="4.76028">
        <ele>200.172116</ele>
        <time>2011-02-19T14:34:36Z</time>
      </trkpt>
      <trkpt lat="46.82229" lon="4.75976">
        <ele>199.929844</ele>
        <time>2011-02-19T14:34:43Z</time>
      </trkpt>
      <trkpt lat="46.82222" lon="4.7596">
        <ele>199.741864</ele>
        <time>2011-02-19T14:34:46Z</time>
      </trkpt>
      <trkpt lat="46.82214" lon="4.75943">
        <ele>199.570413</ele>
        <time>2011-02-19T14:34:49Z</time>
      </trkpt>
      <trkpt lat="46.82208" lon="4.75931">
        <ele>199.441542</ele>
        <time>2011-02-19T14:34:51Z</time>
      </trkpt>
      <trkpt lat="46.82199" lon="4.75913">
        <ele>199.395864</ele>
        <time>2011-02-19T14:34:54Z</time>
      </trkpt>
      <trkpt lat="46.82192" lon="4.75895">
        <ele>199.458396</ele>
        <time>2011-02-19T14:34:57Z</time>
      </trkpt>
      <trkpt lat="46.82186" lon="4.75877">
        <ele>199.624103</ele>
        <time>2011-02-19T14:35:00Z</time>
      </trkpt>
      <trkpt lat="46.82179" lon="4.75861">
        <ele>199.876634</ele>
        <time>2011-02-19T14:35:03Z</time>
      </trkpt>
      <trkpt lat="46.82171" lon="4.75851">
        <ele>200.263039</ele>
        <time>2011-02-19T14:35:05Z</time>
      </trkpt>
      <trkpt lat="46.82158" lon="4.75838">
        <ele>200.763568</ele>
        <time>2011-02-19T14:35:08Z</time>
      </trkpt>
      <trkpt lat="46.8215" lon="4.75828">
        <ele>201.231858</ele>
        <time>2011-02-19T14:35:10Z</time>
      </trkpt>
      <trkpt lat="46.82136" lon="4.7581">
        <ele>201.567943</ele>
        <time>2011-02-19T14:35:13Z</time>
      </trkpt>
      <trkpt lat="46.82127" lon="4.758">
        <ele>201.754555</ele>
        <time>2011-02-19T14:35:15Z</time>
      </trkpt>
      <trkpt lat="46.82114" lon="4.75788">
        <ele>201.828994</ele>
        <time>2011-02-19T14:35:18Z</time>
      </trkpt>
      <trkpt lat="46.82101" lon="4.75779">
        <ele>201.844735</ele>
        <time>2011-02-19T14:35:20Z</time>
      </trkpt>
      <trkpt lat="46.8208" lon="4.75767">
        <ele>201.839011</ele>
        <time>2011-02-19T14:35:23Z</time>
      </trkpt>
      <trkpt lat="46.82064" lon="4.75757">
        <ele>201.830223</ele>
        <time>2011-02-19T14:35:25Z</time>
      </trkpt>
      <trkpt lat="46.82041" lon="4.75745">
        <ele>201.74196</ele>
        <time>2011-02-19T14:35:28Z</time>
      </trkpt>
      <trkpt lat="46.82026" lon="4.75739">
        <ele>201.329854</ele>
        <time>2011-02-19T14:35:30Z</time>
      </trkpt>
      <trkpt lat="46.82005" lon="4.75731">
        <ele>200.46497</ele>
        <time>2011-02-19T14:35:33Z</time>
      </trkpt>
      <trkpt lat="46.82005" lon="4.75731">
        <ele>199.483243</ele>
        <time>2011-02-19T14:35:35Z</time>
      </trkpt>
      <trkpt lat="46.81968" lon="4.75716">
        <ele>198.795534</ele>
        <time>2011-02-19T14:35:46Z</time>
      </trkpt>
      <trkpt lat="46.81959" lon="4.75713">
        <ele>198.429904</ele>
        <time>2011-02-19T14:35:49Z</time>
      </trkpt>
      <trkpt lat="46.8193" lon="4.75702">
        <ele>198.251312</ele>
        <time>2011-02-19T14:36:00Z</time>
      </trkpt>
      <trkpt lat="46.8193" lon="4.75702">
        <ele>198.164921</ele>
        <time>2011-02-19T14:36:03Z</time>
      </trkpt>
      <trkpt lat="46.819" lon="4.75698">
        <ele>198.075175</ele>
        <time>2011-02-19T14:36:14Z</time>
      </trkpt>
      <trkpt lat="46.81889" lon="4.75692">
        <ele>197.964871</ele>
        <time>2011-02-19T14:36:17Z</time>
      </trkpt>
      <trkpt lat="46.81881" lon="4.75687">
        <ele>197.869362</ele>
        <time>2011-02-19T14:36:20Z</time>
      </trkpt>
      <trkpt lat="46.81871" lon="4.75682">
        <ele>197.790817</ele>
        <time>2011-02-19T14:36:22Z</time>
      </trkpt>
      <trkpt lat="46.81861" lon="4.75679">
        <ele>197.709967</ele>
        <time>2011-02-19T14:36:26Z</time>
      </trkpt>
      <trkpt lat="46.81849" lon="4.75677">
        <ele>197.609624</ele>
        <time>2011-02-19T14:36:30Z</time>
      </trkpt>
      <trkpt lat="46.81836" lon="4.75681">
        <ele>197.467031</ele>
        <time>2011-02-19T14:36:34Z</time>
      </trkpt>
      <trkpt lat="46.81825" lon="4.75682">
        <ele>197.275288</ele>
        <time>2011-02-19T14:36:38Z</time>
      </trkpt>
      <trkpt lat="46.81813" lon="4.75681">
        <ele>197.065777</ele>
        <time>2011-02-19T14:36:42Z</time>
      </trkpt>
      <trkpt lat="46.81802" lon="4.75679">
        <ele>196.860938</ele>
        <time>2011-02-19T14:36:46Z</time>
      </trkpt>
      <trkpt lat="46.81792" lon="4.75678">
        <ele>196.640024</ele>
        <time>2011-02-19T14:36:51Z</time>
      </trkpt>
      <trkpt lat="46.81783" lon="4.75672">
        <ele>196.416643</ele>
        <time>2011-02-19T14:36:55Z</time>
      </trkpt>
      <trkpt lat="46.81772" lon="4.75671">
        <ele>196.260077</ele>
        <time>2011-02-19T14:36:59Z</time>
      </trkpt>
      <trkpt lat="46.8176" lon="4.75671">
        <ele>196.191971</ele>
        <time>2011-02-19T14:37:02Z</time>
      </trkpt>
      <trkpt lat="46.81749" lon="4.75674">
        <ele>196.164083</ele>
        <time>2011-02-19T14:37:05Z</time>
      </trkpt>
      <trkpt lat="46.81738" lon="4.75678">
        <ele>196.139568</ele>
        <time>2011-02-19T14:37:08Z</time>
      </trkpt>
      <trkpt lat="46.81728" lon="4.7568">
        <ele>196.118437</ele>
        <time>2011-02-19T14:37:11Z</time>
      </trkpt>
      <trkpt lat="46.81728" lon="4.7568">
        <ele>196.092975</ele>
        <time>2011-02-19T14:37:13Z</time>
      </trkpt>
      <trkpt lat="46.81711" lon="4.75692">
        <ele>196.037212</ele>
        <time>2011-02-19T14:37:17Z</time>
      </trkpt>
      <trkpt lat="46.81704" lon="4.757">
        <ele>195.939687</ele>
        <time>2011-02-19T14:37:20Z</time>
      </trkpt>
      <trkpt lat="46.81704" lon="4.757">
        <ele>195.825394</ele>
        <time>2011-02-19T14:37:25Z</time>
      </trkpt>
      <trkpt lat="46.81681" lon="4.75748">
        <ele>195.682031</ele>
        <time>2011-02-19T14:37:30Z</time>
      </trkpt>
      <trkpt lat="46.81676" lon="4.7576">
        <ele>195.363147</ele>
        <time>2011-02-19T14:37:32Z</time>
      </trkpt>
      <trkpt lat="46.81676" lon="4.7576">
        <ele>194.858921</ele>
        <time>2011-02-19T14:37:34Z</time>
      </trkpt>
      <trkpt lat="46.81661" lon="4.75799">
        <ele>194.436266</ele>
        <time>2011-02-19T14:37:48Z</time>
      </trkpt>
      <trkpt lat="46.81661" lon="4.75799">
        <ele>194.245107</ele>
        <time>2011-02-19T14:37:51Z</time>
      </trkpt>
      <trkpt lat="46.81661" lon="4.75799">
        <ele>194.190287</ele>
        <time>2011-02-19T14:38:19Z</time>
      </trkpt>
      <trkpt lat="46.81646" lon="4.75833">
        <ele>194.186529</ele>
        <time>2011-02-19T14:38:39Z</time>
      </trkpt>
      <trkpt lat="46.81644" lon="4.75848">
        <ele>194.237402</ele>
        <time>2011-02-19T14:38:43Z</time>
      </trkpt>
      <trkpt lat="46.81646" lon="4.75862">
        <ele>194.437268</ele>
        <time>2011-02-19T14:38:48Z</time>
      </trkpt>
      <trkpt lat="46.81651" lon="4.75875">
        <ele>195.1578</ele>
        <time>2011-02-19T14:38:52Z</time>
      </trkpt>
      <trkpt lat="46.81657" lon="4.75887">
        <ele>196.634077</ele>
        <time>2011-02-19T14:38:56Z</time>
      </trkpt>
      <trkpt lat="46.81662" lon="4.75901">
        <ele>198.491219</ele>
        <time>2011-02-19T14:39:01Z</time>
      </trkpt>
      <trkpt lat="46.81663" lon="4.75915">
        <ele>200.188409</ele>
        <time>2011-02-19T14:39:06Z</time>
      </trkpt>
      <trkpt lat="46.81661" lon="4.7593">
        <ele>201.51034</ele>
        <time>2011-02-19T14:39:10Z</time>
      </trkpt>
      <trkpt lat="46.81659" lon="4.75945">
        <ele>202.484753</ele>
        <time>2011-02-19T14:39:15Z</time>
      </trkpt>
      <trkpt lat="46.81657" lon="4.75962">
        <ele>203.214063</ele>
        <time>2011-02-19T14:39:20Z</time>
      </trkpt>
      <trkpt lat="46.81653" lon="4.75975">
        <ele>203.674458</ele>
        <time>2011-02-19T14:39:23Z</time>
      </trkpt>
      <trkpt lat="46.81648" lon="4.75988">
        <ele>203.847642</ele>
        <time>2011-02-19T14:39:26Z</time>
      </trkpt>
      <trkpt lat="46.81643" lon="4.75998">
        <ele>203.846694</ele>
        <time>2011-02-19T14:39:30Z</time>
      </trkpt>
      <trkpt lat="46.81636" lon="4.76008">
        <ele>203.695973</ele>
        <time>2011-02-19T14:39:35Z</time>
      </trkpt>
      <trkpt lat="46.81631" lon="4.76022">
        <ele>203.278081</ele>
        <time>2011-02-19T14:39:40Z</time>
      </trkpt>
      <trkpt lat="46.81631" lon="4.76039">
        <ele>202.550728</ele>
        <time>2011-02-19T14:39:44Z</time>
      </trkpt>
      <trkpt lat="46.8163" lon="4.76054">
        <ele>201.609416</ele>
        <time>2011-02-19T14:39:47Z</time>
      </trkpt>
      <trkpt lat="46.81627" lon="4.76071">
        <ele>200.542241</ele>
        <time>2011-02-19T14:39:50Z</time>
      </trkpt>
      <trkpt lat="46.81624" lon="4.76088">
        <ele>199.383735</ele>
        <time>2011-02-19T14:39:53Z</time>
      </trkpt>
      <trkpt lat="46.8162" lon="4.76104">
        <ele>198.15975</ele>
        <time>2011-02-19T14:39:56Z</time>
      </trkpt>
      <trkpt lat="46.81614" lon="4.7612">
        <ele>196.946043</ele>
        <time>2011-02-19T14:39:59Z</time>
      </trkpt>
      <trkpt lat="46.81607" lon="4.76129">
        <ele>195.820659</ele>
        <time>2011-02-19T14:40:02Z</time>
      </trkpt>
      <trkpt lat="46.81603" lon="4.76141">
        <ele>194.83354</ele>
        <time>2011-02-19T14:40:06Z</time>
      </trkpt>
      <trkpt lat="46.81604" lon="4.76154">
        <ele>194.048572</ele>
        <time>2011-02-19T14:40:10Z</time>
      </trkpt>
      <trkpt lat="46.81606" lon="4.76169">
        <ele>193.463204</ele>
        <time>2011-02-19T14:40:14Z</time>
      </trkpt>
      <trkpt lat="46.81608" lon="4.76183">
        <ele>192.961966</ele>
        <time>2011-02-19T14:40:17Z</time>
      </trkpt>
      <trkpt lat="46.81608" lon="4.76197">
        <ele>192.461953</ele>
        <time>2011-02-19T14:40:20Z</time>
      </trkpt>
      <trkpt lat="46.81609" lon="4.76214">
        <ele>191.920565</ele>
        <time>2011-02-19T14:40:23Z</time>
      </trkpt>
      <trkpt lat="46.8161" lon="4.7623">
        <ele>191.302003</ele>
        <time>2011-02-19T14:40:26Z</time>
      </trkpt>
      <trkpt lat="46.81611" lon="4.76249">
        <ele>190.650398</ele>
        <time>2011-02-19T14:40:29Z</time>
      </trkpt>
      <trkpt lat="46.81613" lon="4.76276">
        <ele>190.071778</ele>
        <time>2011-02-19T14:40:32Z</time>
      </trkpt>
      <trkpt lat="46.81614" lon="4.76295">
        <ele>189.649776</ele>
        <time>2011-02-19T14:40:35Z</time>
      </trkpt>
      <trkpt lat="46.81616" lon="4.76314">
        <ele>189.369668</ele>
        <time>2011-02-19T14:40:38Z</time>
      </trkpt>
      <trkpt lat="46.81619" lon="4.76333">
        <ele>189.166722</ele>
        <time>2011-02-19T14:40:41Z</time>
      </trkpt>
      <trkpt lat="46.8162" lon="4.76353">
        <ele>189.039134</ele>
        <time>2011-02-19T14:40:44Z</time>
      </trkpt>
      <trkpt lat="46.81621" lon="4.76373">
        <ele>188.996988</ele>
        <time>2011-02-19T14:40:47Z</time>
      </trkpt>
      <trkpt lat="46.81624" lon="4.76395">
        <ele>189.005677</ele>
        <time>2011-02-19T14:40:50Z</time>
      </trkpt>
      <trkpt lat="46.81627" lon="4.76411">
        <ele>189.042493</ele>
        <time>2011-02-19T14:40:52Z</time>
      </trkpt>
      <trkpt lat="46.8163" lon="4.76429">
        <ele>189.21468</ele>
        <time>2011-02-19T14:40:54Z</time>
      </trkpt>
      <trkpt lat="46.81633" lon="4.76446">
        <ele>189.682079</ele>
        <time>2011-02-19T14:40:56Z</time>
      </trkpt>
      <trkpt lat="46.81637" lon="4.76471">
        <ele>190.412694</ele>
        <time>2011-02-19T14:40:59Z</time>
      </trkpt>
      <trkpt lat="46.8164" lon="4.76487">
        <ele>191.247856</ele>
        <time>2011-02-19T14:41:01Z</time>
      </trkpt>
      <trkpt lat="46.81643" lon="4.76503">
        <ele>192.211285</ele>
        <time>2011-02-19T14:41:03Z</time>
      </trkpt>
      <trkpt lat="46.81646" lon="4.76527">
        <ele>193.32826</ele>
        <time>2011-02-19T14:41:06Z</time>
      </trkpt>
      <trkpt lat="46.81649" lon="4.76552">
        <ele>194.324693</ele>
        <time>2011-02-19T14:41:09Z</time>
      </trkpt>
      <trkpt lat="46.81651" lon="4.76575">
        <ele>194.905757</ele>
        <time>2011-02-19T14:41:12Z</time>
      </trkpt>
      <trkpt lat="46.8165" lon="4.76591">
        <ele>195.125527</ele>
        <time>2011-02-19T14:41:14Z</time>
      </trkpt>
      <trkpt lat="46.81646" lon="4.76609">
        <ele>195.446882</ele>
        <time>2011-02-19T14:41:17Z</time>
      </trkpt>
      <trkpt lat="46.81635" lon="4.76615">
        <ele>196.3426</ele>
        <time>2011-02-19T14:41:22Z</time>
      </trkpt>
      <trkpt lat="46.81627" lon="4.7661">
        <ele>197.603361</ele>
        <time>2011-02-19T14:41:25Z</time>
      </trkpt>
      <trkpt lat="46.81618" lon="4.76605">
        <ele>198.565714</ele>
        <time>2011-02-19T14:41:28Z</time>
      </trkpt>
      <trkpt lat="46.81608" lon="4.76602">
        <ele>198.963312</ele>
        <time>2011-02-19T14:41:31Z</time>
      </trkpt>
      <trkpt lat="46.81598" lon="4.76601">
        <ele>198.988095</ele>
        <time>2011-02-19T14:41:34Z</time>
      </trkpt>
      <trkpt lat="46.81587" lon="4.76605">
        <ele>198.844515</ele>
        <time>2011-02-19T14:41:37Z</time>
      </trkpt>
      <trkpt lat="46.81587" lon="4.76605">
        <ele>198.638834</ele>
        <time>2011-02-19T14:41:38Z</time>
      </trkpt>
      <trkpt lat="46.81562" lon="4.76641">
        <ele>198.476146</ele>
        <time>2011-02-19T14:41:46Z</time>
      </trkpt>
      <trkpt lat="46.81557" lon="4.76657">
        <ele>198.412413</ele>
        <time>2011-02-19T14:41:49Z</time>
      </trkpt>
      <trkpt lat="46.81553" lon="4.76671">
        <ele>198.43466</ele>
        <time>2011-02-19T14:41:52Z</time>
      </trkpt>
      <trkpt lat="46.81548" lon="4.76688">
        <ele>198.515923</ele>
        <time>2011-02-19T14:41:55Z</time>
      </trkpt>
      <trkpt lat="46.81544" lon="4.76706">
        <ele>198.660919</ele>
        <time>2011-02-19T14:41:58Z</time>
      </trkpt>
      <trkpt lat="46.81539" lon="4.76724">
        <ele>198.901117</ele>
        <time>2011-02-19T14:42:01Z</time>
      </trkpt>
      <trkpt lat="46.81539" lon="4.76724">
        <ele>199.170769</ele>
        <time>2011-02-19T14:42:02Z</time>
      </trkpt>
      <trkpt lat="46.81516" lon="4.76731">
        <ele>199.341859</ele>
        <time>2011-02-19T14:42:26Z</time>
      </trkpt>
      <trkpt lat="46.81504" lon="4.76728">
        <ele>199.393682</ele>
        <time>2011-02-19T14:42:30Z</time>
      </trkpt>
      <trkpt lat="46.81493" lon="4.76725">
        <ele>199.290475</ele>
        <time>2011-02-19T14:42:33Z</time>
      </trkpt>
      <trkpt lat="46.81483" lon="4.76723">
        <ele>198.976684</ele>
        <time>2011-02-19T14:42:36Z</time>
      </trkpt>
      <trkpt lat="46.81474" lon="4.76721">
        <ele>198.55369</ele>
        <time>2011-02-19T14:42:39Z</time>
      </trkpt>
      <trkpt lat="46.81474" lon="4.76721">
        <ele>198.214675</ele>
        <time>2011-02-19T14:42:42Z</time>
      </trkpt>
      <trkpt lat="46.81447" lon="4.76707">
        <ele>197.972924</ele>
        <time>2011-02-19T14:42:46Z</time>
      </trkpt>
      <trkpt lat="46.81431" lon="4.76699">
        <ele>197.644048</ele>
        <time>2011-02-19T14:42:49Z</time>
      </trkpt>
      <trkpt lat="46.81417" lon="4.76696">
        <ele>197.097006</ele>
        <time>2011-02-19T14:42:52Z</time>
      </trkpt>
      <trkpt lat="46.81407" lon="4.76696">
        <ele>196.39235</ele>
        <time>2011-02-19T14:42:54Z</time>
      </trkpt>
      <trkpt lat="46.81396" lon="4.76697">
        <ele>195.688868</ele>
        <time>2011-02-19T14:42:57Z</time>
      </trkpt>
      <trkpt lat="46.81396" lon="4.76697">
        <ele>195.174763</ele>
        <time>2011-02-19T14:42:58Z</time>
      </trkpt>
      <trkpt lat="46.81379" lon="4.76723">
        <ele>194.86648</ele>
        <time>2011-02-19T14:43:04Z</time>
      </trkpt>
      <trkpt lat="46.81376" lon="4.76738">
        <ele>194.582318</ele>
        <time>2011-02-19T14:43:07Z</time>
      </trkpt>
      <trkpt lat="46.81371" lon="4.76755">
        <ele>194.246216</ele>
        <time>2011-02-19T14:43:10Z</time>
      </trkpt>
      <trkpt lat="46.81371" lon="4.76755">
        <ele>193.96634</ele>
        <time>2011-02-19T14:43:12Z</time>
      </trkpt>
      <trkpt lat="46.81361" lon="4.76806">
        <ele>193.621735</ele>
        <time>2011-02-19T14:43:19Z</time>
      </trkpt>
      <trkpt lat="46.81357" lon="4.76818">
        <ele>192.968191</ele>
        <time>2011-02-19T14:43:21Z</time>
      </trkpt>
      <trkpt lat="46.81357" lon="4.76818">
        <ele>192.189488</ele>
        <time>2011-02-19T14:43:25Z</time>
      </trkpt>
      <trkpt lat="46.81325" lon="4.76847">
        <ele>191.542965</ele>
        <time>2011-02-19T14:43:35Z</time>
      </trkpt>
      <trkpt lat="46.81315" lon="4.76853">
        <ele>190.469449</ele>
        <time>2011-02-19T14:43:38Z</time>
      </trkpt>
      <trkpt lat="46.81283" lon="4.76856">
        <ele>188.618888</ele>
        <time>2011-02-19T14:43:51Z</time>
      </trkpt>
      <trkpt lat="46.81274" lon="4.76858">
        <ele>186.271</ele>
        <time>2011-02-19T14:43:54Z</time>
      </trkpt>
      <trkpt lat="46.81248" lon="4.76877">
        <ele>183.878479</ele>
        <time>2011-02-19T14:44:03Z</time>
      </trkpt>
      <trkpt lat="46.8124" lon="4.76884">
        <ele>182.143169</ele>
        <time>2011-02-19T14:44:06Z</time>
      </trkpt>
      <trkpt lat="46.81232" lon="4.76893">
        <ele>181.496731</ele>
        <time>2011-02-19T14:44:09Z</time>
      </trkpt>
      <trkpt lat="46.81222" lon="4.76899">
        <ele>181.505061</ele>
        <time>2011-02-19T14:44:14Z</time>
      </trkpt>
      <trkpt lat="46.81213" lon="4.76908">
        <ele>181.792946</ele>
        <time>2011-02-19T14:44:17Z</time>
      </trkpt>
      <trkpt lat="46.81206" lon="4.76916">
        <ele>182.298827</ele>
        <time>2011-02-19T14:44:20Z</time>
      </trkpt>
      <trkpt lat="46.81196" lon="4.76923">
        <ele>183.031154</ele>
        <time>2011-02-19T14:44:24Z</time>
      </trkpt>
      <trkpt lat="46.81182" lon="4.76924">
        <ele>183.863924</ele>
        <time>2011-02-19T14:44:30Z</time>
      </trkpt>
      <trkpt lat="46.81172" lon="4.76925">
        <ele>184.620017</ele>
        <time>2011-02-19T14:44:34Z</time>
      </trkpt>
      <trkpt lat="46.81163" lon="4.76926">
        <ele>185.242107</ele>
        <time>2011-02-19T14:44:37Z</time>
      </trkpt>
      <trkpt lat="46.81152" lon="4.76928">
        <ele>185.766113</ele>
        <time>2011-02-19T14:44:42Z</time>
      </trkpt>
      <trkpt lat="46.81142" lon="4.76931">
        <ele>186.234079</ele>
        <time>2011-02-19T14:44:47Z</time>
      </trkpt>
      <trkpt lat="46.81131" lon="4.76931">
        <ele>186.703442</ele>
        <time>2011-02-19T14:44:52Z</time>
      </trkpt>
      <trkpt lat="46.8112" lon="4.76929">
        <ele>187.223257</ele>
        <time>2011-02-19T14:44:56Z</time>
      </trkpt>
      <trkpt lat="46.81109" lon="4.76927">
        <ele>187.846823</ele>
        <time>2011-02-19T14:44:59Z</time>
      </trkpt>
      <trkpt lat="46.81099" lon="4.76926">
        <ele>188.611352</ele>
        <time>2011-02-19T14:45:04Z</time>
      </trkpt>
      <trkpt lat="46.8109" lon="4.76926">
        <ele>189.454554</ele>
        <time>2011-02-19T14:45:08Z</time>
      </trkpt>
      <trkpt lat="46.8108" lon="4.76926">
        <ele>190.235778</ele>
        <time>2011-02-19T14:45:11Z</time>
      </trkpt>
      <trkpt lat="46.8107" lon="4.76927">
        <ele>190.818054</ele>
        <time>2011-02-19T14:45:14Z</time>
      </trkpt>
      <trkpt lat="46.81058" lon="4.76928">
        <ele>191.153595</ele>
        <time>2011-02-19T14:45:18Z</time>
      </trkpt>
      <trkpt lat="46.81047" lon="4.76926">
        <ele>191.316264</ele>
        <time>2011-02-19T14:45:22Z</time>
      </trkpt>
      <trkpt lat="46.81039" lon="4.76921">
        <ele>191.471874</ele>
        <time>2011-02-19T14:45:25Z</time>
      </trkpt>
      <trkpt lat="46.81028" lon="4.76918">
        <ele>191.831159</ele>
        <time>2011-02-19T14:45:28Z</time>
      </trkpt>
      <trkpt lat="46.81019" lon="4.76915">
        <ele>192.529074</ele>
        <time>2011-02-19T14:45:31Z</time>
      </trkpt>
      <trkpt lat="46.8101" lon="4.76914">
        <ele>193.438825</ele>
        <time>2011-02-19T14:45:35Z</time>
      </trkpt>
      <trkpt lat="46.81001" lon="4.76918">
        <ele>194.202566</ele>
        <time>2011-02-19T14:45:41Z</time>
      </trkpt>
      <trkpt lat="46.80996" lon="4.76931">
        <ele>194.584625</ele>
        <time>2011-02-19T14:45:46Z</time>
      </trkpt>
      <trkpt lat="46.80992" lon="4.76944">
        <ele>194.654313</ele>
        <time>2011-02-19T14:45:50Z</time>
      </trkpt>
      <trkpt lat="46.80991" lon="4.7696">
        <ele>194.5348</ele>
        <time>2011-02-19T14:45:55Z</time>
      </trkpt>
      <trkpt lat="46.80985" lon="4.76976">
        <ele>194.252276</ele>
        <time>2011-02-19T14:46:02Z</time>
      </trkpt>
      <trkpt lat="46.80983" lon="4.76991">
        <ele>193.88495</ele>
        <time>2011-02-19T14:46:07Z</time>
      </trkpt>
      <trkpt lat="46.80978" lon="4.77006">
        <ele>193.52424</ele>
        <time>2011-02-19T14:46:11Z</time>
      </trkpt>
      <trkpt lat="46.80973" lon="4.77018">
        <ele>193.158452</ele>
        <time>2011-02-19T14:46:14Z</time>
      </trkpt>
      <trkpt lat="46.80968" lon="4.77029">
        <ele>192.799707</ele>
        <time>2011-02-19T14:46:17Z</time>
      </trkpt>
      <trkpt lat="46.80962" lon="4.7704">
        <ele>192.505658</ele>
        <time>2011-02-19T14:46:20Z</time>
      </trkpt>
      <trkpt lat="46.80956" lon="4.77052">
        <ele>192.213442</ele>
        <time>2011-02-19T14:46:23Z</time>
      </trkpt>
      <trkpt lat="46.80951" lon="4.77065">
        <ele>191.789612</ele>
        <time>2011-02-19T14:46:26Z</time>
      </trkpt>
      <trkpt lat="46.80947" lon="4.77079">
        <ele>191.211157</ele>
        <time>2011-02-19T14:46:29Z</time>
      </trkpt>
      <trkpt lat="46.80941" lon="4.77092">
        <ele>190.570728</ele>
        <time>2011-02-19T14:46:32Z</time>
      </trkpt>
      <trkpt lat="46.80935" lon="4.77105">
        <ele>189.963901</ele>
        <time>2011-02-19T14:46:35Z</time>
      </trkpt>
      <trkpt lat="46.80929" lon="4.7712">
        <ele>189.487357</ele>
        <time>2011-02-19T14:46:38Z</time>
      </trkpt>
      <trkpt lat="46.80924" lon="4.77137">
        <ele>189.221202</ele>
        <time>2011-02-19T14:46:41Z</time>
      </trkpt>
      <trkpt lat="46.80918" lon="4.77152">
        <ele>189.126484</ele>
        <time>2011-02-19T14:46:44Z</time>
      </trkpt>
      <trkpt lat="46.80911" lon="4.77166">
        <ele>189.090932</ele>
        <time>2011-02-19T14:46:47Z</time>
      </trkpt>
      <trkpt lat="46.80904" lon="4.77179">
        <ele>189.066883</ele>
        <time>2011-02-19T14:46:50Z</time>
      </trkpt>
      <trkpt lat="46.80896" lon="4.77197">
        <ele>189.05693</ele>
        <time>2011-02-19T14:46:53Z</time>
      </trkpt>
      <trkpt lat="46.80891" lon="4.77208">
        <ele>189.056298</ele>
        <time>2011-02-19T14:46:55Z</time>
      </trkpt>
      <trkpt lat="46.80886" lon="4.7722">
        <ele>189.058658</ele>
        <time>2011-02-19T14:46:57Z</time>
      </trkpt>
      <trkpt lat="46.80879" lon="4.77231">
        <ele>189.060613</ele>
        <time>2011-02-19T14:47:00Z</time>
      </trkpt>
      <trkpt lat="46.80872" lon="4.77242">
        <ele>189.085468</ele>
        <time>2011-02-19T14:47:04Z</time>
      </trkpt>
      <trkpt lat="46.80866" lon="4.77256">
        <ele>189.170282</ele>
        <time>2011-02-19T14:47:07Z</time>
      </trkpt>
      <trkpt lat="46.8086" lon="4.77267">
        <ele>189.292002</ele>
        <time>2011-02-19T14:47:10Z</time>
      </trkpt>
      <trkpt lat="46.80853" lon="4.77278">
        <ele>189.381478</ele>
        <time>2011-02-19T14:47:14Z</time>
      </trkpt>
      <trkpt lat="46.80846" lon="4.77289">
        <ele>189.414081</ele>
        <time>2011-02-19T14:47:18Z</time>
      </trkpt>
      <trkpt lat="46.80837" lon="4.77296">
        <ele>189.403405</ele>
        <time>2011-02-19T14:47:22Z</time>
      </trkpt>
      <trkpt lat="46.80825" lon="4.77298">
        <ele>189.311373</ele>
        <time>2011-02-19T14:47:26Z</time>
      </trkpt>
      <trkpt lat="46.80815" lon="4.77299">
        <ele>189.095593</ele>
        <time>2011-02-19T14:47:29Z</time>
      </trkpt>
      <trkpt lat="46.80806" lon="4.77293">
        <ele>188.816318</ele>
        <time>2011-02-19T14:47:32Z</time>
      </trkpt>
      <trkpt lat="46.80797" lon="4.77285">
        <ele>188.572572</ele>
        <time>2011-02-19T14:47:35Z</time>
      </trkpt>
      <trkpt lat="46.80787" lon="4.77277">
        <ele>188.410499</ele>
        <time>2011-02-19T14:47:37Z</time>
      </trkpt>
      <trkpt lat="46.80778" lon="4.77267">
        <ele>188.33847</ele>
        <time>2011-02-19T14:47:40Z</time>
      </trkpt>
      <trkpt lat="46.80769" lon="4.77254">
        <ele>188.330485</ele>
        <time>2011-02-19T14:47:43Z</time>
      </trkpt>
      <trkpt lat="46.80759" lon="4.7724">
        <ele>188.442063</ele>
        <time>2011-02-19T14:47:46Z</time>
      </trkpt>
      <trkpt lat="46.80753" lon="4.7723">
        <ele>188.792969</ele>
        <time>2011-02-19T14:47:48Z</time>
      </trkpt>
      <trkpt lat="46.80743" lon="4.77214">
        <ele>189.310939</ele>
        <time>2011-02-19T14:47:51Z</time>
      </trkpt>
      <trkpt lat="46.80732" lon="4.77199">
        <ele>189.810293</ele>
        <time>2011-02-19T14:47:54Z</time>
      </trkpt>
      <trkpt lat="46.80724" lon="4.77188">
        <ele>190.232017</ele>
        <time>2011-02-19T14:47:56Z</time>
      </trkpt>
      <trkpt lat="46.80713" lon="4.77172">
        <ele>190.647429</ele>
        <time>2011-02-19T14:47:59Z</time>
      </trkpt>
      <trkpt lat="46.80706" lon="4.77161">
        <ele>191.241289</ele>
        <time>2011-02-19T14:48:01Z</time>
      </trkpt>
      <trkpt lat="46.80699" lon="4.77148">
        <ele>192.084526</ele>
        <time>2011-02-19T14:48:03Z</time>
      </trkpt>
      <trkpt lat="46.80691" lon="4.77129">
        <ele>192.987481</ele>
        <time>2011-02-19T14:48:06Z</time>
      </trkpt>
      <trkpt lat="46.80684" lon="4.77111">
        <ele>193.753875</ele>
        <time>2011-02-19T14:48:09Z</time>
      </trkpt>
      <trkpt lat="46.80679" lon="4.77098">
        <ele>194.318724</ele>
        <time>2011-02-19T14:48:12Z</time>
      </trkpt>
      <trkpt lat="46.80674" lon="4.77084">
        <ele>194.68689</ele>
        <time>2011-02-19T14:48:16Z</time>
      </trkpt>
      <trkpt lat="46.80668" lon="4.77068">
        <ele>195.013137</ele>
        <time>2011-02-19T14:48:20Z</time>
      </trkpt>
      <trkpt lat="46.80663" lon="4.77056">
        <ele>195.505871</ele>
        <time>2011-02-19T14:48:23Z</time>
      </trkpt>
      <trkpt lat="46.80654" lon="4.77047">
        <ele>196.125768</ele>
        <time>2011-02-19T14:48:27Z</time>
      </trkpt>
      <trkpt lat="46.80645" lon="4.77042">
        <ele>196.635598</ele>
        <time>2011-02-19T14:48:30Z</time>
      </trkpt>
      <trkpt lat="46.80635" lon="4.77036">
        <ele>196.931894</ele>
        <time>2011-02-19T14:48:34Z</time>
      </trkpt>
      <trkpt lat="46.80624" lon="4.77028">
        <ele>197.078917</ele>
        <time>2011-02-19T14:48:38Z</time>
      </trkpt>
      <trkpt lat="46.80614" lon="4.77021">
        <ele>197.165932</ele>
        <time>2011-02-19T14:48:42Z</time>
      </trkpt>
      <trkpt lat="46.80614" lon="4.77021">
        <ele>197.231962</ele>
        <time>2011-02-19T14:48:46Z</time>
      </trkpt>
      <trkpt lat="46.80584" lon="4.76997">
        <ele>197.291389</ele>
        <time>2011-02-19T14:48:57Z</time>
      </trkpt>
      <trkpt lat="46.80584" lon="4.76997">
        <ele>197.356956</ele>
        <time>2011-02-19T14:49:00Z</time>
      </trkpt>
      <trkpt lat="46.80556" lon="4.76991">
        <ele>197.430299</ele>
        <time>2011-02-19T14:49:35Z</time>
      </trkpt>
      <trkpt lat="46.80544" lon="4.77011">
        <ele>197.517643</ele>
        <time>2011-02-19T14:49:42Z</time>
      </trkpt>
      <trkpt lat="46.8053" lon="4.77027">
        <ele>197.660504</ele>
        <time>2011-02-19T14:49:51Z</time>
      </trkpt>
      <trkpt lat="46.80523" lon="4.77042">
        <ele>198.004574</ele>
        <time>2011-02-19T14:49:54Z</time>
      </trkpt>
      <trkpt lat="46.80516" lon="4.77054">
        <ele>198.611896</ele>
        <time>2011-02-19T14:49:56Z</time>
      </trkpt>
      <trkpt lat="46.80505" lon="4.77075">
        <ele>199.250576</ele>
        <time>2011-02-19T14:49:59Z</time>
      </trkpt>
      <trkpt lat="46.80498" lon="4.77093">
        <ele>199.665165</ele>
        <time>2011-02-19T14:50:01Z</time>
      </trkpt>
      <trkpt lat="46.80487" lon="4.77123">
        <ele>199.832764</ele>
        <time>2011-02-19T14:50:04Z</time>
      </trkpt>
      <trkpt lat="46.8048" lon="4.77144">
        <ele>199.851919</ele>
        <time>2011-02-19T14:50:06Z</time>
      </trkpt>
      <trkpt lat="46.80469" lon="4.77176">
        <ele>199.826787</ele>
        <time>2011-02-19T14:50:09Z</time>
      </trkpt>
      <trkpt lat="46.80458" lon="4.77211">
        <ele>199.833759</ele>
        <time>2011-02-19T14:50:12Z</time>
      </trkpt>
      <trkpt lat="46.80449" lon="4.77246">
        <ele>199.918964</ele>
        <time>2011-02-19T14:50:15Z</time>
      </trkpt>
      <trkpt lat="46.80442" lon="4.77269">
        <ele>200.121703</ele>
        <time>2011-02-19T14:50:17Z</time>
      </trkpt>
      <trkpt lat="46.80432" lon="4.77306">
        <ele>200.427526</ele>
        <time>2011-02-19T14:50:20Z</time>
      </trkpt>
      <trkpt lat="46.80425" lon="4.7733">
        <ele>200.714445</ele>
        <time>2011-02-19T14:50:22Z</time>
      </trkpt>
      <trkpt lat="46.80417" lon="4.77355">
        <ele>200.868215</ele>
        <time>2011-02-19T14:50:24Z</time>
      </trkpt>
      <trkpt lat="46.80404" lon="4.77393">
        <ele>200.902095</ele>
        <time>2011-02-19T14:50:27Z</time>
      </trkpt>
      <trkpt lat="46.80391" lon="4.77434">
        <ele>200.855059</ele>
        <time>2011-02-19T14:50:30Z</time>
      </trkpt>
      <trkpt lat="46.80382" lon="4.77461">
        <ele>200.717634</ele>
        <time>2011-02-19T14:50:32Z</time>
      </trkpt>
      <trkpt lat="46.80371" lon="4.77503">
        <ele>200.469477</ele>
        <time>2011-02-19T14:50:35Z</time>
      </trkpt>
      <trkpt lat="46.8036" lon="4.77544">
        <ele>200.084578</ele>
        <time>2011-02-19T14:50:38Z</time>
      </trkpt>
      <trkpt lat="46.80354" lon="4.77572">
        <ele>199.54836</ele>
        <time>2011-02-19T14:50:40Z</time>
      </trkpt>
      <trkpt lat="46.80345" lon="4.77612">
        <ele>198.896331</ele>
        <time>2011-02-19T14:50:43Z</time>
      </trkpt>
      <trkpt lat="46.8034" lon="4.77638">
        <ele>198.246684</ele>
        <time>2011-02-19T14:50:45Z</time>
      </trkpt>
      <trkpt lat="46.80335" lon="4.77664">
        <ele>197.743872</ele>
        <time>2011-02-19T14:50:47Z</time>
      </trkpt>
      <trkpt lat="46.80328" lon="4.77699">
        <ele>197.419614</ele>
        <time>2011-02-19T14:50:50Z</time>
      </trkpt>
      <trkpt lat="46.80321" lon="4.77733">
        <ele>197.179454</ele>
        <time>2011-02-19T14:50:53Z</time>
      </trkpt>
      <trkpt lat="46.80313" lon="4.77767">
        <ele>196.931796</ele>
        <time>2011-02-19T14:50:56Z</time>
      </trkpt>
      <trkpt lat="46.80307" lon="4.77799">
        <ele>196.618075</ele>
        <time>2011-02-19T14:50:59Z</time>
      </trkpt>
      <trkpt lat="46.80302" lon="4.77819">
        <ele>196.197869</ele>
        <time>2011-02-19T14:51:01Z</time>
      </trkpt>
      <trkpt lat="46.80298" lon="4.77839">
        <ele>195.556692</ele>
        <time>2011-02-19T14:51:03Z</time>
      </trkpt>
      <trkpt lat="46.80291" lon="4.77868">
        <ele>194.644934</ele>
        <time>2011-02-19T14:51:06Z</time>
      </trkpt>
      <trkpt lat="46.80285" lon="4.77896">
        <ele>193.690407</ele>
        <time>2011-02-19T14:51:09Z</time>
      </trkpt>
      <trkpt lat="46.8028" lon="4.77924">
        <ele>192.919224</ele>
        <time>2011-02-19T14:51:12Z</time>
      </trkpt>
      <trkpt lat="46.80274" lon="4.77952">
        <ele>192.23744</ele>
        <time>2011-02-19T14:51:15Z</time>
      </trkpt>
      <trkpt lat="46.8027" lon="4.77969">
        <ele>191.520912</ele>
        <time>2011-02-19T14:51:17Z</time>
      </trkpt>
      <trkpt lat="46.80265" lon="4.77994">
        <ele>190.889353</ele>
        <time>2011-02-19T14:51:20Z</time>
      </trkpt>
      <trkpt lat="46.80259" lon="4.78019">
        <ele>190.508015</ele>
        <time>2011-02-19T14:51:23Z</time>
      </trkpt>
      <trkpt lat="46.80253" lon="4.78043">
        <ele>190.318689</ele>
        <time>2011-02-19T14:51:26Z</time>
      </trkpt>
      <trkpt lat="46.8025" lon="4.78059">
        <ele>190.128913</ele>
        <time>2011-02-19T14:51:28Z</time>
      </trkpt>
      <trkpt lat="46.80245" lon="4.78084">
        <ele>189.831657</ele>
        <time>2011-02-19T14:51:31Z</time>
      </trkpt>
      <trkpt lat="46.80242" lon="4.78101">
        <ele>189.392457</ele>
        <time>2011-02-19T14:51:33Z</time>
      </trkpt>
      <trkpt lat="46.80237" lon="4.78124">
        <ele>188.839889</ele>
        <time>2011-02-19T14:51:36Z</time>
      </trkpt>
      <trkpt lat="46.80234" lon="4.78139">
        <ele>188.271832</ele>
        <time>2011-02-19T14:51:38Z</time>
      </trkpt>
      <trkpt lat="46.80229" lon="4.78162">
        <ele>187.707594</ele>
        <time>2011-02-19T14:51:41Z</time>
      </trkpt>
      <trkpt lat="46.80226" lon="4.78176">
        <ele>187.091594</ele>
        <time>2011-02-19T14:51:43Z</time>
      </trkpt>
      <trkpt lat="46.80222" lon="4.78196">
        <ele>186.506359</ele>
        <time>2011-02-19T14:51:46Z</time>
      </trkpt>
      <trkpt lat="46.80219" lon="4.78209">
        <ele>186.112216</ele>
        <time>2011-02-19T14:51:48Z</time>
      </trkpt>
      <trkpt lat="46.80215" lon="4.78228">
        <ele>185.938817</ele>
        <time>2011-02-19T14:51:51Z</time>
      </trkpt>
      <trkpt lat="46.80211" lon="4.78246">
        <ele>185.837752</ele>
        <time>2011-02-19T14:51:54Z</time>
      </trkpt>
      <trkpt lat="46.80206" lon="4.78264">
        <ele>185.610134</ele>
        <time>2011-02-19T14:51:57Z</time>
      </trkpt>
      <trkpt lat="46.80201" lon="4.78281">
        <ele>185.165076</ele>
        <time>2011-02-19T14:52:00Z</time>
      </trkpt>
      <trkpt lat="46.80197" lon="4.78298">
        <ele>184.519845</ele>
        <time>2011-02-19T14:52:03Z</time>
      </trkpt>
      <trkpt lat="46.80193" lon="4.78315">
        <ele>183.747169</ele>
        <time>2011-02-19T14:52:06Z</time>
      </trkpt>
      <trkpt lat="46.80189" lon="4.78333">
        <ele>182.970063</ele>
        <time>2011-02-19T14:52:09Z</time>
      </trkpt>
      <trkpt lat="46.80185" lon="4.78351">
        <ele>182.299759</ele>
        <time>2011-02-19T14:52:12Z</time>
      </trkpt>
      <trkpt lat="46.8018" lon="4.7837">
        <ele>181.7864</ele>
        <time>2011-02-19T14:52:15Z</time>
      </trkpt>
      <trkpt lat="46.80176" lon="4.78388">
        <ele>181.404813</ele>
        <time>2011-02-19T14:52:18Z</time>
      </trkpt>
      <trkpt lat="46.80172" lon="4.78406">
        <ele>180.958615</ele>
        <time>2011-02-19T14:52:21Z</time>
      </trkpt>
      <trkpt lat="46.80169" lon="4.78424">
        <ele>180.294949</ele>
        <time>2011-02-19T14:52:24Z</time>
      </trkpt>
      <trkpt lat="46.80166" lon="4.78441">
        <ele>179.6077</ele>
        <time>2011-02-19T14:52:27Z</time>
      </trkpt>
      <trkpt lat="46.80163" lon="4.78454">
        <ele>179.191801</ele>
        <time>2011-02-19T14:52:29Z</time>
      </trkpt>
      <trkpt lat="46.8016" lon="4.78473">
        <ele>179.025001</ele>
        <time>2011-02-19T14:52:32Z</time>
      </trkpt>
      <trkpt lat="46.80156" lon="4.78491">
        <ele>178.905652</ele>
        <time>2011-02-19T14:52:35Z</time>
      </trkpt>
      <trkpt lat="46.80152" lon="4.7851">
        <ele>178.767495</ele>
        <time>2011-02-19T14:52:38Z</time>
      </trkpt>
      <trkpt lat="46.80148" lon="4.78532">
        <ele>178.664785</ele>
        <time>2011-02-19T14:52:41Z</time>
      </trkpt>
      <trkpt lat="46.80145" lon="4.78546">
        <ele>178.611127</ele>
        <time>2011-02-19T14:52:43Z</time>
      </trkpt>
      <trkpt lat="46.80141" lon="4.78567">
        <ele>178.579076</ele>
        <time>2011-02-19T14:52:46Z</time>
      </trkpt>
      <trkpt lat="46.80137" lon="4.78588">
        <ele>178.555239</ele>
        <time>2011-02-19T14:52:49Z</time>
      </trkpt>
      <trkpt lat="46.80132" lon="4.78609">
        <ele>178.497565</ele>
        <time>2011-02-19T14:52:52Z</time>
      </trkpt>
      <trkpt lat="46.80127" lon="4.7863">
        <ele>178.305201</ele>
        <time>2011-02-19T14:52:55Z</time>
      </trkpt>
      <trkpt lat="46.80123" lon="4.78652">
        <ele>177.934278</ele>
        <time>2011-02-19T14:52:58Z</time>
      </trkpt>
      <trkpt lat="46.80118" lon="4.78673">
        <ele>177.379713</ele>
        <time>2011-02-19T14:53:01Z</time>
      </trkpt>
      <trkpt lat="46.80115" lon="4.78687">
        <ele>176.567618</ele>
        <time>2011-02-19T14:53:03Z</time>
      </trkpt>
      <trkpt lat="46.80112" lon="4.78701">
        <ele>175.509132</ele>
        <time>2011-02-19T14:53:05Z</time>
      </trkpt>
      <trkpt lat="46.80108" lon="4.78716">
        <ele>174.471076</ele>
        <time>2011-02-19T14:53:07Z</time>
      </trkpt>
      <trkpt lat="46.80104" lon="4.78739">
        <ele>173.774538</ele>
        <time>2011-02-19T14:53:10Z</time>
      </trkpt>
      <trkpt lat="46.80101" lon="4.78754">
        <ele>173.503532</ele>
        <time>2011-02-19T14:53:12Z</time>
      </trkpt>
      <trkpt lat="46.80097" lon="4.78777">
        <ele>173.492002</ele>
        <time>2011-02-19T14:53:15Z</time>
      </trkpt>
      <trkpt lat="46.80092" lon="4.78801">
        <ele>173.547868</ele>
        <time>2011-02-19T14:53:18Z</time>
      </trkpt>
      <trkpt lat="46.80087" lon="4.78825">
        <ele>173.58475</ele>
        <time>2011-02-19T14:53:21Z</time>
      </trkpt>
      <trkpt lat="46.80084" lon="4.78842">
        <ele>173.58116</ele>
        <time>2011-02-19T14:53:23Z</time>
      </trkpt>
      <trkpt lat="46.80079" lon="4.78867">
        <ele>173.353803</ele>
        <time>2011-02-19T14:53:26Z</time>
      </trkpt>
      <trkpt lat="46.80074" lon="4.78892">
        <ele>172.646189</ele>
        <time>2011-02-19T14:53:29Z</time>
      </trkpt>
      <trkpt lat="46.80069" lon="4.78915">
        <ele>171.665904</ele>
        <time>2011-02-19T14:53:32Z</time>
      </trkpt>
      <trkpt lat="46.80066" lon="4.7893">
        <ele>170.95487</ele>
        <time>2011-02-19T14:53:34Z</time>
      </trkpt>
      <trkpt lat="46.80062" lon="4.78951">
        <ele>170.699501</ele>
        <time>2011-02-19T14:53:37Z</time>
      </trkpt>
      <trkpt lat="46.80059" lon="4.78966">
        <ele>170.811708</ele>
        <time>2011-02-19T14:53:39Z</time>
      </trkpt>
      <trkpt lat="46.80056" lon="4.7898">
        <ele>171.2058</ele>
        <time>2011-02-19T14:53:42Z</time>
      </trkpt>
      <trkpt lat="46.80051" lon="4.79003">
        <ele>171.75544</ele>
        <time>2011-02-19T14:53:44Z</time>
      </trkpt>
      <trkpt lat="46.80047" lon="4.79019">
        <ele>172.34481</ele>
        <time>2011-02-19T14:53:46Z</time>
      </trkpt>
      <trkpt lat="46.80042" lon="4.79043">
        <ele>172.911834</ele>
        <time>2011-02-19T14:53:49Z</time>
      </trkpt>
      <trkpt lat="46.80037" lon="4.79068">
        <ele>173.479852</ele>
        <time>2011-02-19T14:53:52Z</time>
      </trkpt>
      <trkpt lat="46.80032" lon="4.79093">
        <ele>174.112948</ele>
        <time>2011-02-19T14:53:55Z</time>
      </trkpt>
      <trkpt lat="46.80026" lon="4.79118">
        <ele>174.778164</ele>
        <time>2011-02-19T14:53:58Z</time>
      </trkpt>
      <trkpt lat="46.80023" lon="4.79134">
        <ele>175.416637</ele>
        <time>2011-02-19T14:54:00Z</time>
      </trkpt>
      <trkpt lat="46.80018" lon="4.79159">
        <ele>176.00217</ele>
        <time>2011-02-19T14:54:03Z</time>
      </trkpt>
      <trkpt lat="46.80012" lon="4.79184">
        <ele>176.499028</ele>
        <time>2011-02-19T14:54:06Z</time>
      </trkpt>
      <trkpt lat="46.80009" lon="4.79201">
        <ele>176.881831</ele>
        <time>2011-02-19T14:54:08Z</time>
      </trkpt>
      <trkpt lat="46.80004" lon="4.79226">
        <ele>177.203649</ele>
        <time>2011-02-19T14:54:11Z</time>
      </trkpt>
      <trkpt lat="46.8" lon="4.79243">
        <ele>177.630395</ele>
        <time>2011-02-19T14:54:13Z</time>
      </trkpt>
      <trkpt lat="46.79995" lon="4.7927">
        <ele>178.237472</ele>
        <time>2011-02-19T14:54:16Z</time>
      </trkpt>
      <trkpt lat="46.79992" lon="4.79287">
        <ele>178.870179</ele>
        <time>2011-02-19T14:54:18Z</time>
      </trkpt>
      <trkpt lat="46.79986" lon="4.79313">
        <ele>179.324672</ele>
        <time>2011-02-19T14:54:21Z</time>
      </trkpt>
      <trkpt lat="46.79982" lon="4.7933">
        <ele>179.547474</ele>
        <time>2011-02-19T14:54:23Z</time>
      </trkpt>
      <trkpt lat="46.79978" lon="4.79347">
        <ele>179.628573</ele>
        <time>2011-02-19T14:54:25Z</time>
      </trkpt>
      <trkpt lat="46.79972" lon="4.79372">
        <ele>179.666517</ele>
        <time>2011-02-19T14:54:28Z</time>
      </trkpt>
      <trkpt lat="46.79965" lon="4.79395">
        <ele>179.722019</ele>
        <time>2011-02-19T14:54:31Z</time>
      </trkpt>
      <trkpt lat="46.7996" lon="4.79416">
        <ele>179.845453</ele>
        <time>2011-02-19T14:54:34Z</time>
      </trkpt>
      <trkpt lat="46.79957" lon="4.79429">
        <ele>180.029377</ele>
        <time>2011-02-19T14:54:36Z</time>
      </trkpt>
      <trkpt lat="46.79953" lon="4.79449">
        <ele>180.281843</ele>
        <time>2011-02-19T14:54:39Z</time>
      </trkpt>
      <trkpt lat="46.7995" lon="4.79468">
        <ele>180.693934</ele>
        <time>2011-02-19T14:54:42Z</time>
      </trkpt>
      <trkpt lat="46.79948" lon="4.79482">
        <ele>181.252347</ele>
        <time>2011-02-19T14:54:44Z</time>
      </trkpt>
      <trkpt lat="46.79945" lon="4.79502">
        <ele>181.809486</ele>
        <time>2011-02-19T14:54:47Z</time>
      </trkpt>
      <trkpt lat="46.79941" lon="4.79523">
        <ele>182.259334</ele>
        <time>2011-02-19T14:54:50Z</time>
      </trkpt>
      <trkpt lat="46.79938" lon="4.79536">
        <ele>182.587283</ele>
        <time>2011-02-19T14:54:52Z</time>
      </trkpt>
      <trkpt lat="46.79934" lon="4.79556">
        <ele>182.854512</ele>
        <time>2011-02-19T14:54:55Z</time>
      </trkpt>
      <trkpt lat="46.79928" lon="4.79578">
        <ele>183.137022</ele>
        <time>2011-02-19T14:54:58Z</time>
      </trkpt>
      <trkpt lat="46.79924" lon="4.79592">
        <ele>183.408667</ele>
        <time>2011-02-19T14:55:00Z</time>
      </trkpt>
      <trkpt lat="46.79921" lon="4.79605">
        <ele>183.60195</ele>
        <time>2011-02-19T14:55:02Z</time>
      </trkpt>
      <trkpt lat="46.79915" lon="4.79624">
        <ele>183.740644</ele>
        <time>2011-02-19T14:55:05Z</time>
      </trkpt>
      <trkpt lat="46.79911" lon="4.79637">
        <ele>183.867248</ele>
        <time>2011-02-19T14:55:07Z</time>
      </trkpt>
      <trkpt lat="46.79906" lon="4.79656">
        <ele>183.955031</ele>
        <time>2011-02-19T14:55:10Z</time>
      </trkpt>
      <trkpt lat="46.79902" lon="4.79668">
        <ele>183.984969</ele>
        <time>2011-02-19T14:55:12Z</time>
      </trkpt>
      <trkpt lat="46.79898" lon="4.79687">
        <ele>183.937204</ele>
        <time>2011-02-19T14:55:15Z</time>
      </trkpt>
      <trkpt lat="46.79895" lon="4.79699">
        <ele>183.759946</ele>
        <time>2011-02-19T14:55:18Z</time>
      </trkpt>
      <trkpt lat="46.79892" lon="4.79713">
        <ele>183.494354</ele>
        <time>2011-02-19T14:55:21Z</time>
      </trkpt>
      <trkpt lat="46.7989" lon="4.79727">
        <ele>183.277747</ele>
        <time>2011-02-19T14:55:24Z</time>
      </trkpt>
      <trkpt lat="46.79886" lon="4.79745">
        <ele>183.180583</ele>
        <time>2011-02-19T14:55:27Z</time>
      </trkpt>
      <trkpt lat="46.79883" lon="4.79761">
        <ele>183.169236</ele>
        <time>2011-02-19T14:55:30Z</time>
      </trkpt>
      <trkpt lat="46.7988" lon="4.79781">
        <ele>183.193919</ele>
        <time>2011-02-19T14:55:33Z</time>
      </trkpt>
      <trkpt lat="46.79875" lon="4.79803">
        <ele>183.26308</ele>
        <time>2011-02-19T14:55:36Z</time>
      </trkpt>
      <trkpt lat="46.79871" lon="4.79826">
        <ele>183.409089</ele>
        <time>2011-02-19T14:55:39Z</time>
      </trkpt>
      <trkpt lat="46.79866" lon="4.79849">
        <ele>183.749677</ele>
        <time>2011-02-19T14:55:42Z</time>
      </trkpt>
      <trkpt lat="46.79861" lon="4.79873">
        <ele>184.40458</ele>
        <time>2011-02-19T14:55:45Z</time>
      </trkpt>
      <trkpt lat="46.79857" lon="4.79888">
        <ele>185.221639</ele>
        <time>2011-02-19T14:55:47Z</time>
      </trkpt>
      <trkpt lat="46.79854" lon="4.79904">
        <ele>185.883754</ele>
        <time>2011-02-19T14:55:49Z</time>
      </trkpt>
      <trkpt lat="46.79849" lon="4.79927">
        <ele>186.266656</ele>
        <time>2011-02-19T14:55:52Z</time>
      </trkpt>
      <trkpt lat="46.79845" lon="4.79942">
        <ele>186.44092</ele>
        <time>2011-02-19T14:55:54Z</time>
      </trkpt>
      <trkpt lat="46.7984" lon="4.79964">
        <ele>186.533081</ele>
        <time>2011-02-19T14:55:57Z</time>
      </trkpt>
      <trkpt lat="46.79837" lon="4.79978">
        <ele>186.664764</ele>
        <time>2011-02-19T14:55:59Z</time>
      </trkpt>
      <trkpt lat="46.79828" lon="4.79995">
        <ele>186.879309</ele>
        <time>2011-02-19T14:56:02Z</time>
      </trkpt>
      <trkpt lat="46.79821" lon="4.80013">
        <ele>187.105706</ele>
        <time>2011-02-19T14:56:05Z</time>
      </trkpt>
      <trkpt lat="46.7982" lon="4.80027">
        <ele>187.264368</ele>
        <time>2011-02-19T14:56:07Z</time>
      </trkpt>
      <trkpt lat="46.79821" lon="4.80048">
        <ele>187.345747</ele>
        <time>2011-02-19T14:56:10Z</time>
      </trkpt>
      <trkpt lat="46.79823" lon="4.80064">
        <ele>187.389735</ele>
        <time>2011-02-19T14:56:13Z</time>
      </trkpt>
      <trkpt lat="46.79823" lon="4.80081">
        <ele>187.470621</ele>
        <time>2011-02-19T14:56:17Z</time>
      </trkpt>
      <trkpt lat="46.79821" lon="4.801">
        <ele>187.696271</ele>
        <time>2011-02-19T14:56:20Z</time>
      </trkpt>
      <trkpt lat="46.79818" lon="4.80115">
        <ele>188.109557</ele>
        <time>2011-02-19T14:56:22Z</time>
      </trkpt>
      <trkpt lat="46.79815" lon="4.80129">
        <ele>188.562702</ele>
        <time>2011-02-19T14:56:24Z</time>
      </trkpt>
      <trkpt lat="46.79812" lon="4.80147">
        <ele>188.871539</ele>
        <time>2011-02-19T14:56:27Z</time>
      </trkpt>
      <trkpt lat="46.79807" lon="4.80165">
        <ele>189.035548</ele>
        <time>2011-02-19T14:56:30Z</time>
      </trkpt>
      <trkpt lat="46.79804" lon="4.80179">
        <ele>189.164299</ele>
        <time>2011-02-19T14:56:32Z</time>
      </trkpt>
      <trkpt lat="46.79801" lon="4.80193">
        <ele>189.29889</ele>
        <time>2011-02-19T14:56:34Z</time>
      </trkpt>
      <trkpt lat="46.79795" lon="4.80214">
        <ele>189.414622</ele>
        <time>2011-02-19T14:56:37Z</time>
      </trkpt>
      <trkpt lat="46.79792" lon="4.80229">
        <ele>189.530967</ele>
        <time>2011-02-19T14:56:39Z</time>
      </trkpt>
      <trkpt lat="46.79789" lon="4.80244">
        <ele>189.693829</ele>
        <time>2011-02-19T14:56:41Z</time>
      </trkpt>
      <trkpt lat="46.79785" lon="4.80259">
        <ele>189.910841</ele>
        <time>2011-02-19T14:56:43Z</time>
      </trkpt>
      <trkpt lat="46.7978" lon="4.80281">
        <ele>190.133997</ele>
        <time>2011-02-19T14:56:46Z</time>
      </trkpt>
      <trkpt lat="46.79776" lon="4.80296">
        <ele>190.283568</ele>
        <time>2011-02-19T14:56:48Z</time>
      </trkpt>
      <trkpt lat="46.79771" lon="4.80317">
        <ele>190.333647</ele>
        <time>2011-02-19T14:56:51Z</time>
      </trkpt>
      <trkpt lat="46.79767" lon="4.80335">
        <ele>190.328688</ele>
        <time>2011-02-19T14:56:54Z</time>
      </trkpt>
      <trkpt lat="46.79765" lon="4.8035">
        <ele>190.305384</ele>
        <time>2011-02-19T14:56:58Z</time>
      </trkpt>
      <trkpt lat="46.79763" lon="4.80364">
        <ele>190.226461</ele>
        <time>2011-02-19T14:57:01Z</time>
      </trkpt>
      <trkpt lat="46.7976" lon="4.80379">
        <ele>190.022689</ele>
        <time>2011-02-19T14:57:04Z</time>
      </trkpt>
      <trkpt lat="46.79757" lon="4.80395">
        <ele>189.736144</ele>
        <time>2011-02-19T14:57:07Z</time>
      </trkpt>
      <trkpt lat="46.79753" lon="4.80412">
        <ele>189.491946</ele>
        <time>2011-02-19T14:57:10Z</time>
      </trkpt>
      <trkpt lat="46.7975" lon="4.80429">
        <ele>189.340051</ele>
        <time>2011-02-19T14:57:13Z</time>
      </trkpt>
      <trkpt lat="46.79746" lon="4.80446">
        <ele>189.199955</ele>
        <time>2011-02-19T14:57:16Z</time>
      </trkpt>
      <trkpt lat="46.79742" lon="4.80463">
        <ele>188.907847</ele>
        <time>2011-02-19T14:57:19Z</time>
      </trkpt>
      <trkpt lat="46.79738" lon="4.80481">
        <ele>188.407694</ele>
        <time>2011-02-19T14:57:22Z</time>
      </trkpt>
      <trkpt lat="46.79734" lon="4.80501">
        <ele>187.803531</ele>
        <time>2011-02-19T14:57:25Z</time>
      </trkpt>
      <trkpt lat="46.79729" lon="4.80522">
        <ele>187.206812</ele>
        <time>2011-02-19T14:57:28Z</time>
      </trkpt>
      <trkpt lat="46.79726" lon="4.80537">
        <ele>186.682388</ele>
        <time>2011-02-19T14:57:30Z</time>
      </trkpt>
      <trkpt lat="46.79721" lon="4.8056">
        <ele>186.257988</ele>
        <time>2011-02-19T14:57:33Z</time>
      </trkpt>
      <trkpt lat="46.79716" lon="4.80582">
        <ele>185.920336</ele>
        <time>2011-02-19T14:57:36Z</time>
      </trkpt>
      <trkpt lat="46.79711" lon="4.80604">
        <ele>185.654874</ele>
        <time>2011-02-19T14:57:39Z</time>
      </trkpt>
      <trkpt lat="46.79707" lon="4.80618">
        <ele>185.426444</ele>
        <time>2011-02-19T14:57:41Z</time>
      </trkpt>
      <trkpt lat="46.79703" lon="4.80641">
        <ele>185.208965</ele>
        <time>2011-02-19T14:57:44Z</time>
      </trkpt>
      <trkpt lat="46.79699" lon="4.80656">
        <ele>185.011076</ele>
        <time>2011-02-19T14:57:46Z</time>
      </trkpt>
      <trkpt lat="46.79694" lon="4.80672">
        <ele>184.8289</ele>
        <time>2011-02-19T14:57:48Z</time>
      </trkpt>
      <trkpt lat="46.79689" lon="4.80696">
        <ele>184.669715</ele>
        <time>2011-02-19T14:57:51Z</time>
      </trkpt>
      <trkpt lat="46.79685" lon="4.80714">
        <ele>184.573713</ele>
        <time>2011-02-19T14:57:53Z</time>
      </trkpt>
      <trkpt lat="46.7968" lon="4.80743">
        <ele>184.546879</ele>
        <time>2011-02-19T14:57:56Z</time>
      </trkpt>
      <trkpt lat="46.79674" lon="4.80772">
        <ele>184.558065</ele>
        <time>2011-02-19T14:57:59Z</time>
      </trkpt>
      <trkpt lat="46.79667" lon="4.80802">
        <ele>184.620963</ele>
        <time>2011-02-19T14:58:02Z</time>
      </trkpt>
      <trkpt lat="46.7966" lon="4.80835">
        <ele>184.742089</ele>
        <time>2011-02-19T14:58:05Z</time>
      </trkpt>
      <trkpt lat="46.79653" lon="4.80868">
        <ele>184.854657</ele>
        <time>2011-02-19T14:58:08Z</time>
      </trkpt>
      <trkpt lat="46.79646" lon="4.809">
        <ele>184.926617</ele>
        <time>2011-02-19T14:58:11Z</time>
      </trkpt>
      <trkpt lat="46.79641" lon="4.80922">
        <ele>184.989087</ele>
        <time>2011-02-19T14:58:13Z</time>
      </trkpt>
      <trkpt lat="46.79635" lon="4.80955">
        <ele>185.003577</ele>
        <time>2011-02-19T14:58:16Z</time>
      </trkpt>
      <trkpt lat="46.79631" lon="4.80977">
        <ele>184.924882</ele>
        <time>2011-02-19T14:58:18Z</time>
      </trkpt>
      <trkpt lat="46.79627" lon="4.80998">
        <ele>184.797081</ele>
        <time>2011-02-19T14:58:20Z</time>
      </trkpt>
      <trkpt lat="46.7962" lon="4.81028">
        <ele>184.561332</ele>
        <time>2011-02-19T14:58:23Z</time>
      </trkpt>
      <trkpt lat="46.79618" lon="4.81041">
        <ele>184.087824</ele>
        <time>2011-02-19T14:58:25Z</time>
      </trkpt>
      <trkpt lat="46.79616" lon="4.81055">
        <ele>183.462157</ele>
        <time>2011-02-19T14:58:28Z</time>
      </trkpt>
      <trkpt lat="46.79614" lon="4.8107">
        <ele>182.884784</ele>
        <time>2011-02-19T14:58:32Z</time>
      </trkpt>
      <trkpt lat="46.7961" lon="4.81084">
        <ele>182.380669</ele>
        <time>2011-02-19T14:58:35Z</time>
      </trkpt>
      <trkpt lat="46.79607" lon="4.81098">
        <ele>181.916212</ele>
        <time>2011-02-19T14:58:37Z</time>
      </trkpt>
      <trkpt lat="46.79604" lon="4.81115">
        <ele>181.505467</ele>
        <time>2011-02-19T14:58:39Z</time>
      </trkpt>
      <trkpt lat="46.796" lon="4.81132">
        <ele>181.003831</ele>
        <time>2011-02-19T14:58:41Z</time>
      </trkpt>
      <trkpt lat="46.79593" lon="4.81161">
        <ele>180.136488</ele>
        <time>2011-02-19T14:58:44Z</time>
      </trkpt>
      <trkpt lat="46.79586" lon="4.81191">
        <ele>178.924942</ele>
        <time>2011-02-19T14:58:47Z</time>
      </trkpt>
      <trkpt lat="46.7958" lon="4.81221">
        <ele>177.735883</ele>
        <time>2011-02-19T14:58:50Z</time>
      </trkpt>
      <trkpt lat="46.79576" lon="4.81242">
        <ele>176.882629</ele>
        <time>2011-02-19T14:58:52Z</time>
      </trkpt>
      <trkpt lat="46.79573" lon="4.81278">
        <ele>176.328507</ele>
        <time>2011-02-19T14:58:55Z</time>
      </trkpt>
      <trkpt lat="46.7957" lon="4.81302">
        <ele>175.861272</ele>
        <time>2011-02-19T14:58:57Z</time>
      </trkpt>
      <trkpt lat="46.79562" lon="4.81341">
        <ele>175.445586</ele>
        <time>2011-02-19T14:59:00Z</time>
      </trkpt>
      <trkpt lat="46.79555" lon="4.81364">
        <ele>175.16541</ele>
        <time>2011-02-19T14:59:02Z</time>
      </trkpt>
      <trkpt lat="46.79548" lon="4.81397">
        <ele>175.01224</ele>
        <time>2011-02-19T14:59:05Z</time>
      </trkpt>
      <trkpt lat="46.79547" lon="4.81412">
        <ele>174.900514</ele>
        <time>2011-02-19T14:59:07Z</time>
      </trkpt>
      <trkpt lat="46.79542" lon="4.81435">
        <ele>174.660794</ele>
        <time>2011-02-19T14:59:10Z</time>
      </trkpt>
      <trkpt lat="46.79539" lon="4.8145">
        <ele>173.969279</ele>
        <time>2011-02-19T14:59:12Z</time>
      </trkpt>
      <trkpt lat="46.79535" lon="4.81473">
        <ele>172.875602</ele>
        <time>2011-02-19T14:59:15Z</time>
      </trkpt>
      <trkpt lat="46.79533" lon="4.81488">
        <ele>171.966949</ele>
        <time>2011-02-19T14:59:17Z</time>
      </trkpt>
      <trkpt lat="46.7953" lon="4.81502">
        <ele>171.595287</ele>
        <time>2011-02-19T14:59:19Z</time>
      </trkpt>
      <trkpt lat="46.79526" lon="4.81522">
        <ele>171.742964</ele>
        <time>2011-02-19T14:59:22Z</time>
      </trkpt>
      <trkpt lat="46.79522" lon="4.8154">
        <ele>172.361086</ele>
        <time>2011-02-19T14:59:25Z</time>
      </trkpt>
      <trkpt lat="46.79517" lon="4.81555">
        <ele>173.180337</ele>
        <time>2011-02-19T14:59:28Z</time>
      </trkpt>
      <trkpt lat="46.79513" lon="4.81571">
        <ele>173.904721</ele>
        <time>2011-02-19T14:59:31Z</time>
      </trkpt>
      <trkpt lat="46.7951" lon="4.81587">
        <ele>174.485078</ele>
        <time>2011-02-19T14:59:34Z</time>
      </trkpt>
      <trkpt lat="46.79507" lon="4.81605">
        <ele>174.91294</ele>
        <time>2011-02-19T14:59:37Z</time>
      </trkpt>
      <trkpt lat="46.79505" lon="4.81618">
        <ele>175.144989</ele>
        <time>2011-02-19T14:59:39Z</time>
      </trkpt>
      <trkpt lat="46.79501" lon="4.81637">
        <ele>175.257733</ele>
        <time>2011-02-19T14:59:42Z</time>
      </trkpt>
      <trkpt lat="46.79499" lon="4.8165">
        <ele>175.392162</ele>
        <time>2011-02-19T14:59:44Z</time>
      </trkpt>
      <trkpt lat="46.79496" lon="4.81669">
        <ele>175.551942</ele>
        <time>2011-02-19T14:59:47Z</time>
      </trkpt>
      <trkpt lat="46.79492" lon="4.8169">
        <ele>175.655966</ele>
        <time>2011-02-19T14:59:50Z</time>
      </trkpt>
      <trkpt lat="46.79489" lon="4.81704">
        <ele>175.688663</ele>
        <time>2011-02-19T14:59:52Z</time>
      </trkpt>
      <trkpt lat="46.79484" lon="4.81725">
        <ele>175.535446</ele>
        <time>2011-02-19T14:59:55Z</time>
      </trkpt>
      <trkpt lat="46.79481" lon="4.8174">
        <ele>175.038401</ele>
        <time>2011-02-19T14:59:57Z</time>
      </trkpt>
      <trkpt lat="46.79478" lon="4.81754">
        <ele>174.360645</ele>
        <time>2011-02-19T14:59:59Z</time>
      </trkpt>
      <trkpt lat="46.79473" lon="4.81776">
        <ele>173.856373</ele>
        <time>2011-02-19T15:00:02Z</time>
      </trkpt>
      <trkpt lat="46.79468" lon="4.81801">
        <ele>173.594632</ele>
        <time>2011-02-19T15:00:05Z</time>
      </trkpt>
      <trkpt lat="46.79464" lon="4.81818">
        <ele>173.432213</ele>
        <time>2011-02-19T15:00:07Z</time>
      </trkpt>
      <trkpt lat="46.79461" lon="4.81834">
        <ele>173.228579</ele>
        <time>2011-02-19T15:00:09Z</time>
      </trkpt>
      <trkpt lat="46.79456" lon="4.81859">
        <ele>172.867844</ele>
        <time>2011-02-19T15:00:12Z</time>
      </trkpt>
      <trkpt lat="46.79453" lon="4.81876">
        <ele>172.407465</ele>
        <time>2011-02-19T15:00:14Z</time>
      </trkpt>
      <trkpt lat="46.79449" lon="4.81903">
        <ele>172.074182</ele>
        <time>2011-02-19T15:00:17Z</time>
      </trkpt>
      <trkpt lat="46.79445" lon="4.81929">
        <ele>171.954738</ele>
        <time>2011-02-19T15:00:20Z</time>
      </trkpt>
      <trkpt lat="46.79442" lon="4.81946">
        <ele>171.979891</ele>
        <time>2011-02-19T15:00:22Z</time>
      </trkpt>
      <trkpt lat="46.79437" lon="4.81969">
        <ele>172.170464</ele>
        <time>2011-02-19T15:00:25Z</time>
      </trkpt>
      <trkpt lat="46.79434" lon="4.81983">
        <ele>172.596855</ele>
        <time>2011-02-19T15:00:27Z</time>
      </trkpt>
      <trkpt lat="46.79428" lon="4.82004">
        <ele>173.224465</ele>
        <time>2011-02-19T15:00:30Z</time>
      </trkpt>
      <trkpt lat="46.79425" lon="4.82019">
        <ele>174.005611</ele>
        <time>2011-02-19T15:00:32Z</time>
      </trkpt>
      <trkpt lat="46.79419" lon="4.82042">
        <ele>174.861868</ele>
        <time>2011-02-19T15:00:35Z</time>
      </trkpt>
      <trkpt lat="46.79413" lon="4.82069">
        <ele>175.548405</ele>
        <time>2011-02-19T15:00:38Z</time>
      </trkpt>
      <trkpt lat="46.79409" lon="4.82086">
        <ele>175.902573</ele>
        <time>2011-02-19T15:00:40Z</time>
      </trkpt>
      <trkpt lat="46.79409" lon="4.82086">
        <ele>176.01151</ele>
        <time>2011-02-19T15:00:42Z</time>
      </trkpt>
      <trkpt lat="46.79403" lon="4.82117">
        <ele>176.013109</ele>
        <time>2011-02-19T15:00:49Z</time>
      </trkpt>
      <trkpt lat="46.794" lon="4.8213">
        <ele>175.990695</ele>
        <time>2011-02-19T15:00:51Z</time>
      </trkpt>
      <trkpt lat="46.794" lon="4.8213">
        <ele>175.987134</ele>
        <time>2011-02-19T15:00:52Z</time>
      </trkpt>
      <trkpt lat="46.79395" lon="4.8215">
        <ele>176.040057</ele>
        <time>2011-02-19T15:00:55Z</time>
      </trkpt>
      <trkpt lat="46.79391" lon="4.82162">
        <ele>176.168183</ele>
        <time>2011-02-19T15:00:57Z</time>
      </trkpt>
      <trkpt lat="46.79386" lon="4.82181">
        <ele>176.322656</ele>
        <time>2011-02-19T15:01:00Z</time>
      </trkpt>
      <trkpt lat="46.79381" lon="4.82205">
        <ele>176.468057</ele>
        <time>2011-02-19T15:01:03Z</time>
      </trkpt>
      <trkpt lat="46.79377" lon="4.82226">
        <ele>176.745245</ele>
        <time>2011-02-19T15:01:05Z</time>
      </trkpt>
      <trkpt lat="46.7937" lon="4.82257">
        <ele>177.203632</ele>
        <time>2011-02-19T15:01:08Z</time>
      </trkpt>
      <trkpt lat="46.79366" lon="4.82276">
        <ele>177.60957</ele>
        <time>2011-02-19T15:01:10Z</time>
      </trkpt>
      <trkpt lat="46.7936" lon="4.82304">
        <ele>177.784217</ele>
        <time>2011-02-19T15:01:13Z</time>
      </trkpt>
      <trkpt lat="46.79355" lon="4.82329">
        <ele>177.746938</ele>
        <time>2011-02-19T15:01:16Z</time>
      </trkpt>
      <trkpt lat="46.7935" lon="4.82347">
        <ele>177.465518</ele>
        <time>2011-02-19T15:01:19Z</time>
      </trkpt>
      <trkpt lat="46.79343" lon="4.82361">
        <ele>176.937822</ele>
        <time>2011-02-19T15:01:22Z</time>
      </trkpt>
      <trkpt lat="46.79342" lon="4.82377">
        <ele>176.244821</ele>
        <time>2011-02-19T15:01:25Z</time>
      </trkpt>
      <trkpt lat="46.79339" lon="4.82395">
        <ele>175.550845</ele>
        <time>2011-02-19T15:01:28Z</time>
      </trkpt>
      <trkpt lat="46.79333" lon="4.82415">
        <ele>175.0725</ele>
        <time>2011-02-19T15:01:31Z</time>
      </trkpt>
      <trkpt lat="46.79327" lon="4.82443">
        <ele>174.879076</ele>
        <time>2011-02-19T15:01:34Z</time>
      </trkpt>
      <trkpt lat="46.79323" lon="4.82464">
        <ele>174.837401</ele>
        <time>2011-02-19T15:01:36Z</time>
      </trkpt>
      <trkpt lat="46.79316" lon="4.825">
        <ele>174.687744</ele>
        <time>2011-02-19T15:01:39Z</time>
      </trkpt>
      <trkpt lat="46.79308" lon="4.82539">
        <ele>174.234001</ele>
        <time>2011-02-19T15:01:42Z</time>
      </trkpt>
      <trkpt lat="46.793" lon="4.82578">
        <ele>173.644103</ele>
        <time>2011-02-19T15:01:45Z</time>
      </trkpt>
      <trkpt lat="46.79294" lon="4.82617">
        <ele>173.169537</ele>
        <time>2011-02-19T15:01:48Z</time>
      </trkpt>
      <trkpt lat="46.7929" lon="4.82646">
        <ele>172.803054</ele>
        <time>2011-02-19T15:01:51Z</time>
      </trkpt>
      <trkpt lat="46.7929" lon="4.8267">
        <ele>172.508939</ele>
        <time>2011-02-19T15:01:54Z</time>
      </trkpt>
      <trkpt lat="46.79293" lon="4.82689">
        <ele>172.328773</ele>
        <time>2011-02-19T15:01:56Z</time>
      </trkpt>
      <trkpt lat="46.79296" lon="4.82708">
        <ele>172.234342</ele>
        <time>2011-02-19T15:01:58Z</time>
      </trkpt>
      <trkpt lat="46.79292" lon="4.82739">
        <ele>172.162316</ele>
        <time>2011-02-19T15:02:01Z</time>
      </trkpt>
      <trkpt lat="46.79287" lon="4.82757">
        <ele>172.023309</ele>
        <time>2011-02-19T15:02:03Z</time>
      </trkpt>
      <trkpt lat="46.79279" lon="4.82781">
        <ele>171.684303</ele>
        <time>2011-02-19T15:02:06Z</time>
      </trkpt>
      <trkpt lat="46.79273" lon="4.82796">
        <ele>171.087802</ele>
        <time>2011-02-19T15:02:08Z</time>
      </trkpt>
      <trkpt lat="46.79261" lon="4.82816">
        <ele>170.407526</ele>
        <time>2011-02-19T15:02:11Z</time>
      </trkpt>
      <trkpt lat="46.79249" lon="4.82832">
        <ele>169.821718</ele>
        <time>2011-02-19T15:02:14Z</time>
      </trkpt>
      <trkpt lat="46.79237" lon="4.82846">
        <ele>169.342828</ele>
        <time>2011-02-19T15:02:17Z</time>
      </trkpt>
      <trkpt lat="46.7923" lon="4.82854">
        <ele>168.949588</ele>
        <time>2011-02-19T15:02:19Z</time>
      </trkpt>
      <trkpt lat="46.79219" lon="4.8287">
        <ele>168.587522</ele>
        <time>2011-02-19T15:02:22Z</time>
      </trkpt>
      <trkpt lat="46.79211" lon="4.8288">
        <ele>168.066653</ele>
        <time>2011-02-19T15:02:24Z</time>
      </trkpt>
      <trkpt lat="46.79204" lon="4.8289">
        <ele>167.365056</ele>
        <time>2011-02-19T15:02:26Z</time>
      </trkpt>
      <trkpt lat="46.79195" lon="4.82907">
        <ele>166.741762</ele>
        <time>2011-02-19T15:02:29Z</time>
      </trkpt>
      <trkpt lat="46.79188" lon="4.82925">
        <ele>166.404111</ele>
        <time>2011-02-19T15:02:32Z</time>
      </trkpt>
      <trkpt lat="46.79183" lon="4.82936">
        <ele>166.290086</ele>
        <time>2011-02-19T15:02:34Z</time>
      </trkpt>
      <trkpt lat="46.79175" lon="4.82952">
        <ele>166.203969</ele>
        <time>2011-02-19T15:02:37Z</time>
      </trkpt>
      <trkpt lat="46.79169" lon="4.82964">
        <ele>165.901079</ele>
        <time>2011-02-19T15:02:39Z</time>
      </trkpt>
      <trkpt lat="46.79159" lon="4.8298">
        <ele>165.173141</ele>
        <time>2011-02-19T15:02:42Z</time>
      </trkpt>
      <trkpt lat="46.79153" lon="4.8299">
        <ele>163.938578</ele>
        <time>2011-02-19T15:02:44Z</time>
      </trkpt>
      <trkpt lat="46.79144" lon="4.83007">
        <ele>162.435532</ele>
        <time>2011-02-19T15:02:47Z</time>
      </trkpt>
      <trkpt lat="46.79135" lon="4.83021">
        <ele>161.160774</ele>
        <time>2011-02-19T15:02:50Z</time>
      </trkpt>
      <trkpt lat="46.79126" lon="4.83035">
        <ele>160.428923</ele>
        <time>2011-02-19T15:02:53Z</time>
      </trkpt>
      <trkpt lat="46.79119" lon="4.83044">
        <ele>160.131671</ele>
        <time>2011-02-19T15:02:55Z</time>
      </trkpt>
      <trkpt lat="46.79109" lon="4.83057">
        <ele>159.988054</ele>
        <time>2011-02-19T15:02:58Z</time>
      </trkpt>
      <trkpt lat="46.79104" lon="4.83067">
        <ele>159.839441</ele>
        <time>2011-02-19T15:03:00Z</time>
      </trkpt>
      <trkpt lat="46.79095" lon="4.83084">
        <ele>159.716729</ele>
        <time>2011-02-19T15:03:03Z</time>
      </trkpt>
      <trkpt lat="46.7909" lon="4.83094">
        <ele>159.660408</ele>
        <time>2011-02-19T15:03:05Z</time>
      </trkpt>
      <trkpt lat="46.79081" lon="4.83111">
        <ele>159.65302</ele>
        <time>2011-02-19T15:03:08Z</time>
      </trkpt>
      <trkpt lat="46.79075" lon="4.83121">
        <ele>159.717599</ele>
        <time>2011-02-19T15:03:10Z</time>
      </trkpt>
      <trkpt lat="46.79067" lon="4.83134">
        <ele>159.900842</ele>
        <time>2011-02-19T15:03:13Z</time>
      </trkpt>
      <trkpt lat="46.79059" lon="4.83148">
        <ele>160.191274</ele>
        <time>2011-02-19T15:03:16Z</time>
      </trkpt>
      <trkpt lat="46.79051" lon="4.83162">
        <ele>160.617891</ele>
        <time>2011-02-19T15:03:19Z</time>
      </trkpt>
      <trkpt lat="46.79044" lon="4.83176">
        <ele>161.155893</ele>
        <time>2011-02-19T15:03:22Z</time>
      </trkpt>
      <trkpt lat="46.79037" lon="4.83192">
        <ele>161.69994</ele>
        <time>2011-02-19T15:03:25Z</time>
      </trkpt>
      <trkpt lat="46.7903" lon="4.83206">
        <ele>162.260845</ele>
        <time>2011-02-19T15:03:28Z</time>
      </trkpt>
      <trkpt lat="46.79023" lon="4.83217">
        <ele>162.910607</ele>
        <time>2011-02-19T15:03:31Z</time>
      </trkpt>
      <trkpt lat="46.79017" lon="4.83227">
        <ele>163.55718</ele>
        <time>2011-02-19T15:03:34Z</time>
      </trkpt>
      <trkpt lat="46.79011" lon="4.83237">
        <ele>164.039021</ele>
        <time>2011-02-19T15:03:37Z</time>
      </trkpt>
      <trkpt lat="46.79005" lon="4.83252">
        <ele>164.319257</ele>
        <time>2011-02-19T15:03:41Z</time>
      </trkpt>
      <trkpt lat="46.79" lon="4.83264">
        <ele>164.50544</ele>
        <time>2011-02-19T15:03:44Z</time>
      </trkpt>
      <trkpt lat="46.78995" lon="4.83278">
        <ele>164.68185</ele>
        <time>2011-02-19T15:03:47Z</time>
      </trkpt>
      <trkpt lat="46.78989" lon="4.83293">
        <ele>164.885147</ele>
        <time>2011-02-19T15:03:50Z</time>
      </trkpt>
      <trkpt lat="46.78984" lon="4.83307">
        <ele>165.124917</ele>
        <time>2011-02-19T15:03:53Z</time>
      </trkpt>
      <trkpt lat="46.78978" lon="4.8332">
        <ele>165.401274</ele>
        <time>2011-02-19T15:03:56Z</time>
      </trkpt>
      <trkpt lat="46.78972" lon="4.83333">
        <ele>165.713291</ele>
        <time>2011-02-19T15:03:59Z</time>
      </trkpt>
      <trkpt lat="46.78966" lon="4.83348">
        <ele>166.055223</ele>
        <time>2011-02-19T15:04:03Z</time>
      </trkpt>
      <trkpt lat="46.78961" lon="4.83362">
        <ele>166.410446</ele>
        <time>2011-02-19T15:04:06Z</time>
      </trkpt>
      <trkpt lat="46.78956" lon="4.83377">
        <ele>166.761446</ele>
        <time>2011-02-19T15:04:09Z</time>
      </trkpt>
      <trkpt lat="46.78951" lon="4.83392">
        <ele>167.109958</ele>
        <time>2011-02-19T15:04:12Z</time>
      </trkpt>
      <trkpt lat="46.78946" lon="4.83407">
        <ele>167.460205</ele>
        <time>2011-02-19T15:04:15Z</time>
      </trkpt>
      <trkpt lat="46.7894" lon="4.83422">
        <ele>168.108709</ele>
        <time>2011-02-19T15:04:18Z</time>
      </trkpt>
      <trkpt lat="46.78935" lon="4.83436">
        <ele>169.277952</ele>
        <time>2011-02-19T15:04:21Z</time>
      </trkpt>
      <trkpt lat="46.78931" lon="4.83451">
        <ele>170.565313</ele>
        <time>2011-02-19T15:04:24Z</time>
      </trkpt>
      <trkpt lat="46.78926" lon="4.83466">
        <ele>171.43689</ele>
        <time>2011-02-19T15:04:27Z</time>
      </trkpt>
      <trkpt lat="46.78921" lon="4.83482">
        <ele>171.807776</ele>
        <time>2011-02-19T15:04:30Z</time>
      </trkpt>
      <trkpt lat="46.78916" lon="4.83496">
        <ele>171.838338</ele>
        <time>2011-02-19T15:04:33Z</time>
      </trkpt>
      <trkpt lat="46.78911" lon="4.83512">
        <ele>171.731166</ele>
        <time>2011-02-19T15:04:36Z</time>
      </trkpt>
      <trkpt lat="46.78906" lon="4.83529">
        <ele>171.576555</ele>
        <time>2011-02-19T15:04:39Z</time>
      </trkpt>
      <trkpt lat="46.78901" lon="4.83548">
        <ele>171.416068</ele>
        <time>2011-02-19T15:04:42Z</time>
      </trkpt>
      <trkpt lat="46.78896" lon="4.83565">
        <ele>171.20725</ele>
        <time>2011-02-19T15:04:45Z</time>
      </trkpt>
      <trkpt lat="46.7889" lon="4.83583">
        <ele>170.920383</ele>
        <time>2011-02-19T15:04:48Z</time>
      </trkpt>
      <trkpt lat="46.78885" lon="4.83599">
        <ele>170.676574</ele>
        <time>2011-02-19T15:04:51Z</time>
      </trkpt>
      <trkpt lat="46.78879" lon="4.83617">
        <ele>170.574972</ele>
        <time>2011-02-19T15:04:54Z</time>
      </trkpt>
      <trkpt lat="46.78873" lon="4.83634">
        <ele>170.609118</ele>
        <time>2011-02-19T15:04:57Z</time>
      </trkpt>
      <trkpt lat="46.78867" lon="4.8365">
        <ele>170.80855</ele>
        <time>2011-02-19T15:05:00Z</time>
      </trkpt>
      <trkpt lat="46.78861" lon="4.83666">
        <ele>171.203314</ele>
        <time>2011-02-19T15:05:03Z</time>
      </trkpt>
      <trkpt lat="46.78854" lon="4.83683">
        <ele>171.742233</ele>
        <time>2011-02-19T15:05:06Z</time>
      </trkpt>
      <trkpt lat="46.78847" lon="4.83699">
        <ele>172.296486</ele>
        <time>2011-02-19T15:05:09Z</time>
      </trkpt>
      <trkpt lat="46.78839" lon="4.83715">
        <ele>172.74527</ele>
        <time>2011-02-19T15:05:12Z</time>
      </trkpt>
      <trkpt lat="46.78832" lon="4.83731">
        <ele>173.054143</ele>
        <time>2011-02-19T15:05:15Z</time>
      </trkpt>
      <trkpt lat="46.78825" lon="4.83747">
        <ele>173.277462</ele>
        <time>2011-02-19T15:05:18Z</time>
      </trkpt>
      <trkpt lat="46.78819" lon="4.83764">
        <ele>173.518505</ele>
        <time>2011-02-19T15:05:21Z</time>
      </trkpt>
      <trkpt lat="46.78811" lon="4.83781">
        <ele>173.830018</ele>
        <time>2011-02-19T15:05:24Z</time>
      </trkpt>
      <trkpt lat="46.78805" lon="4.83792">
        <ele>174.163746</ele>
        <time>2011-02-19T15:05:26Z</time>
      </trkpt>
      <trkpt lat="46.78794" lon="4.83812">
        <ele>174.478692</ele>
        <time>2011-02-19T15:05:29Z</time>
      </trkpt>
      <trkpt lat="46.78781" lon="4.83835">
        <ele>174.75462</ele>
        <time>2011-02-19T15:05:32Z</time>
      </trkpt>
      <trkpt lat="46.78771" lon="4.83852">
        <ele>174.941218</ele>
        <time>2011-02-19T15:05:34Z</time>
      </trkpt>
      <trkpt lat="46.78759" lon="4.83868">
        <ele>175.025031</ele>
        <time>2011-02-19T15:05:36Z</time>
      </trkpt>
      <trkpt lat="46.78745" lon="4.83895">
        <ele>175.065078</ele>
        <time>2011-02-19T15:05:39Z</time>
      </trkpt>
      <trkpt lat="46.78736" lon="4.83911">
        <ele>175.105275</ele>
        <time>2011-02-19T15:05:41Z</time>
      </trkpt>
      <trkpt lat="46.78724" lon="4.8393">
        <ele>175.140546</ele>
        <time>2011-02-19T15:05:44Z</time>
      </trkpt>
      <trkpt lat="46.78717" lon="4.83942">
        <ele>175.19894</ele>
        <time>2011-02-19T15:05:46Z</time>
      </trkpt>
      <trkpt lat="46.78708" lon="4.83957">
        <ele>175.412299</ele>
        <time>2011-02-19T15:05:49Z</time>
      </trkpt>
      <trkpt lat="46.78698" lon="4.83972">
        <ele>175.828591</ele>
        <time>2011-02-19T15:05:52Z</time>
      </trkpt>
      <trkpt lat="46.7869" lon="4.83984">
        <ele>176.284851</ele>
        <time>2011-02-19T15:05:55Z</time>
      </trkpt>
      <trkpt lat="46.78681" lon="4.83996">
        <ele>176.64594</ele>
        <time>2011-02-19T15:05:58Z</time>
      </trkpt>
      <trkpt lat="46.78671" lon="4.84007">
        <ele>176.905966</ele>
        <time>2011-02-19T15:06:01Z</time>
      </trkpt>
      <trkpt lat="46.78661" lon="4.8402">
        <ele>177.051341</ele>
        <time>2011-02-19T15:06:04Z</time>
      </trkpt>
      <trkpt lat="46.7865" lon="4.84032">
        <ele>177.086571</ele>
        <time>2011-02-19T15:06:07Z</time>
      </trkpt>
      <trkpt lat="46.78639" lon="4.84047">
        <ele>177.05276</ele>
        <time>2011-02-19T15:06:10Z</time>
      </trkpt>
      <trkpt lat="46.78631" lon="4.84058">
        <ele>176.909198</ele>
        <time>2011-02-19T15:06:12Z</time>
      </trkpt>
      <trkpt lat="46.78623" lon="4.84067">
        <ele>176.65654</ele>
        <time>2011-02-19T15:06:14Z</time>
      </trkpt>
      <trkpt lat="46.78615" lon="4.84076">
        <ele>176.434339</ele>
        <time>2011-02-19T15:06:16Z</time>
      </trkpt>
      <trkpt lat="46.78607" lon="4.84086">
        <ele>176.339238</ele>
        <time>2011-02-19T15:06:18Z</time>
      </trkpt>
      <trkpt lat="46.78596" lon="4.841">
        <ele>176.31307</ele>
        <time>2011-02-19T15:06:21Z</time>
      </trkpt>
      <trkpt lat="46.78588" lon="4.8411">
        <ele>176.287205</ele>
        <time>2011-02-19T15:06:23Z</time>
      </trkpt>
      <trkpt lat="46.78578" lon="4.84126">
        <ele>176.294487</ele>
        <time>2011-02-19T15:06:26Z</time>
      </trkpt>
      <trkpt lat="46.7857" lon="4.84139">
        <ele>176.377942</ele>
        <time>2011-02-19T15:06:29Z</time>
      </trkpt>
      <trkpt lat="46.78562" lon="4.84152">
        <ele>176.497112</ele>
        <time>2011-02-19T15:06:32Z</time>
      </trkpt>
      <trkpt lat="46.78552" lon="4.84169">
        <ele>176.624658</ele>
        <time>2011-02-19T15:06:35Z</time>
      </trkpt>
      <trkpt lat="46.78544" lon="4.84185">
        <ele>176.758826</ele>
        <time>2011-02-19T15:06:38Z</time>
      </trkpt>
      <trkpt lat="46.78544" lon="4.84185">
        <ele>176.859428</ele>
        <time>2011-02-19T15:06:41Z</time>
      </trkpt>
      <trkpt lat="46.78534" lon="4.84217">
        <ele>176.903818</ele>
        <time>2011-02-19T15:06:45Z</time>
      </trkpt>
      <trkpt lat="46.78528" lon="4.84233">
        <ele>176.926366</ele>
        <time>2011-02-19T15:06:48Z</time>
      </trkpt>
      <trkpt lat="46.78521" lon="4.84251">
        <ele>176.971269</ele>
        <time>2011-02-19T15:06:51Z</time>
      </trkpt>
      <trkpt lat="46.78515" lon="4.8427">
        <ele>177.148233</ele>
        <time>2011-02-19T15:06:54Z</time>
      </trkpt>
      <trkpt lat="46.78508" lon="4.84295">
        <ele>177.572692</ele>
        <time>2011-02-19T15:06:57Z</time>
      </trkpt>
      <trkpt lat="46.78503" lon="4.84312">
        <ele>178.230467</ele>
        <time>2011-02-19T15:06:59Z</time>
      </trkpt>
      <trkpt lat="46.78497" lon="4.84338">
        <ele>178.947554</ele>
        <time>2011-02-19T15:07:02Z</time>
      </trkpt>
      <trkpt lat="46.78492" lon="4.84359">
        <ele>179.505553</ele>
        <time>2011-02-19T15:07:04Z</time>
      </trkpt>
      <trkpt lat="46.78483" lon="4.84392">
        <ele>179.809914</ele>
        <time>2011-02-19T15:07:07Z</time>
      </trkpt>
      <trkpt lat="46.78473" lon="4.84429">
        <ele>180.131661</ele>
        <time>2011-02-19T15:07:10Z</time>
      </trkpt>
      <trkpt lat="46.78465" lon="4.84453">
        <ele>180.804863</ele>
        <time>2011-02-19T15:07:12Z</time>
      </trkpt>
      <trkpt lat="46.78453" lon="4.84491">
        <ele>181.773549</ele>
        <time>2011-02-19T15:07:15Z</time>
      </trkpt>
      <trkpt lat="46.78444" lon="4.84518">
        <ele>182.70187</ele>
        <time>2011-02-19T15:07:17Z</time>
      </trkpt>
      <trkpt lat="46.78436" lon="4.84543">
        <ele>183.338338</ele>
        <time>2011-02-19T15:07:19Z</time>
      </trkpt>
      <trkpt lat="46.78421" lon="4.84576">
        <ele>183.6118</ele>
        <time>2011-02-19T15:07:22Z</time>
      </trkpt>
      <trkpt lat="46.78404" lon="4.84607">
        <ele>183.654641</ele>
        <time>2011-02-19T15:07:25Z</time>
      </trkpt>
      <trkpt lat="46.78388" lon="4.84636">
        <ele>183.639541</ele>
        <time>2011-02-19T15:07:28Z</time>
      </trkpt>
      <trkpt lat="46.78369" lon="4.84657">
        <ele>183.643651</ele>
        <time>2011-02-19T15:07:31Z</time>
      </trkpt>
      <trkpt lat="46.78357" lon="4.84663">
        <ele>183.660238</ele>
        <time>2011-02-19T15:07:33Z</time>
      </trkpt>
      <trkpt lat="46.78345" lon="4.84669">
        <ele>183.647256</ele>
        <time>2011-02-19T15:07:35Z</time>
      </trkpt>
      <trkpt lat="46.78326" lon="4.84679">
        <ele>183.580824</ele>
        <time>2011-02-19T15:07:38Z</time>
      </trkpt>
      <trkpt lat="46.78313" lon="4.84685">
        <ele>183.390848</ele>
        <time>2011-02-19T15:07:40Z</time>
      </trkpt>
      <trkpt lat="46.783" lon="4.84699">
        <ele>182.913729</ele>
        <time>2011-02-19T15:07:43Z</time>
      </trkpt>
      <trkpt lat="46.78297" lon="4.84714">
        <ele>181.900484</ele>
        <time>2011-02-19T15:07:45Z</time>
      </trkpt>
      <trkpt lat="46.78301" lon="4.84737">
        <ele>180.307539</ele>
        <time>2011-02-19T15:07:48Z</time>
      </trkpt>
      <trkpt lat="46.78309" lon="4.84762">
        <ele>178.455308</ele>
        <time>2011-02-19T15:07:51Z</time>
      </trkpt>
      <trkpt lat="46.78315" lon="4.84787">
        <ele>176.767273</ele>
        <time>2011-02-19T15:07:54Z</time>
      </trkpt>
      <trkpt lat="46.78323" lon="4.8481">
        <ele>175.411742</ele>
        <time>2011-02-19T15:07:57Z</time>
      </trkpt>
      <trkpt lat="46.78325" lon="4.84828">
        <ele>174.282852</ele>
        <time>2011-02-19T15:07:59Z</time>
      </trkpt>
      <trkpt lat="46.78329" lon="4.84856">
        <ele>173.296671</ele>
        <time>2011-02-19T15:08:02Z</time>
      </trkpt>
      <trkpt lat="46.78332" lon="4.8487">
        <ele>172.494352</ele>
        <time>2011-02-19T15:08:04Z</time>
      </trkpt>
      <trkpt lat="46.78331" lon="4.84884">
        <ele>171.875379</ele>
        <time>2011-02-19T15:08:07Z</time>
      </trkpt>
      <trkpt lat="46.78324" lon="4.84895">
        <ele>171.352968</ele>
        <time>2011-02-19T15:08:11Z</time>
      </trkpt>
      <trkpt lat="46.78316" lon="4.84902">
        <ele>170.856533</ele>
        <time>2011-02-19T15:08:14Z</time>
      </trkpt>
      <trkpt lat="46.78307" lon="4.84908">
        <ele>170.455216</ele>
        <time>2011-02-19T15:08:17Z</time>
      </trkpt>
      <trkpt lat="46.78297" lon="4.84916">
        <ele>170.253679</ele>
        <time>2011-02-19T15:08:20Z</time>
      </trkpt>
      <trkpt lat="46.78287" lon="4.84926">
        <ele>170.191211</ele>
        <time>2011-02-19T15:08:23Z</time>
      </trkpt>
      <trkpt lat="46.78279" lon="4.84933">
        <ele>170.182707</ele>
        <time>2011-02-19T15:08:25Z</time>
      </trkpt>
      <trkpt lat="46.78268" lon="4.84942">
        <ele>170.150626</ele>
        <time>2011-02-19T15:08:28Z</time>
      </trkpt>
      <trkpt lat="46.78257" lon="4.8495">
        <ele>169.994761</ele>
        <time>2011-02-19T15:08:31Z</time>
      </trkpt>
      <trkpt lat="46.78247" lon="4.84953">
        <ele>169.690956</ele>
        <time>2011-02-19T15:08:34Z</time>
      </trkpt>
      <trkpt lat="46.78237" lon="4.84953">
        <ele>169.177205</ele>
        <time>2011-02-19T15:08:37Z</time>
      </trkpt>
      <trkpt lat="46.78226" lon="4.84954">
        <ele>168.383063</ele>
        <time>2011-02-19T15:08:39Z</time>
      </trkpt>
      <trkpt lat="46.78213" lon="4.84957">
        <ele>167.558754</ele>
        <time>2011-02-19T15:08:41Z</time>
      </trkpt>
      <trkpt lat="46.78194" lon="4.84962">
        <ele>167.067967</ele>
        <time>2011-02-19T15:08:44Z</time>
      </trkpt>
      <trkpt lat="46.7818" lon="4.84963">
        <ele>166.933776</ele>
        <time>2011-02-19T15:08:46Z</time>
      </trkpt>
      <trkpt lat="46.78166" lon="4.84966">
        <ele>167.146155</ele>
        <time>2011-02-19T15:08:48Z</time>
      </trkpt>
      <trkpt lat="46.78154" lon="4.84968">
        <ele>167.665422</ele>
        <time>2011-02-19T15:08:50Z</time>
      </trkpt>
      <trkpt lat="46.78137" lon="4.84972">
        <ele>168.168832</ele>
        <time>2011-02-19T15:08:53Z</time>
      </trkpt>
      <trkpt lat="46.7812" lon="4.8498">
        <ele>168.399429</ele>
        <time>2011-02-19T15:08:56Z</time>
      </trkpt>
      <trkpt lat="46.78108" lon="4.84986">
        <ele>168.398139</ele>
        <time>2011-02-19T15:08:58Z</time>
      </trkpt>
      <trkpt lat="46.7809" lon="4.84994">
        <ele>168.239988</ele>
        <time>2011-02-19T15:09:01Z</time>
      </trkpt>
      <trkpt lat="46.78079" lon="4.84999">
        <ele>167.916123</ele>
        <time>2011-02-19T15:09:03Z</time>
      </trkpt>
      <trkpt lat="46.78062" lon="4.85009">
        <ele>167.442638</ele>
        <time>2011-02-19T15:09:06Z</time>
      </trkpt>
      <trkpt lat="46.78053" lon="4.85023">
        <ele>167.003624</ele>
        <time>2011-02-19T15:09:08Z</time>
      </trkpt>
      <trkpt lat="46.78033" lon="4.85036">
        <ele>166.774189</ele>
        <time>2011-02-19T15:09:11Z</time>
      </trkpt>
      <trkpt lat="46.78014" lon="4.85049">
        <ele>166.726747</ele>
        <time>2011-02-19T15:09:14Z</time>
      </trkpt>
      <trkpt lat="46.78004" lon="4.85058">
        <ele>166.86416</ele>
        <time>2011-02-19T15:09:16Z</time>
      </trkpt>
      <trkpt lat="46.77993" lon="4.85072">
        <ele>167.293869</ele>
        <time>2011-02-19T15:09:19Z</time>
      </trkpt>
      <trkpt lat="46.7799" lon="4.85089">
        <ele>168.039609</ele>
        <time>2011-02-19T15:09:22Z</time>
      </trkpt>
      <trkpt lat="46.77996" lon="4.85106">
        <ele>168.865643</ele>
        <time>2011-02-19T15:09:25Z</time>
      </trkpt>
      <trkpt lat="46.78004" lon="4.85119">
        <ele>169.432088</ele>
        <time>2011-02-19T15:09:28Z</time>
      </trkpt>
      <trkpt lat="46.78013" lon="4.8513">
        <ele>169.630038</ele>
        <time>2011-02-19T15:09:31Z</time>
      </trkpt>
      <trkpt lat="46.78023" lon="4.85143">
        <ele>169.617497</ele>
        <time>2011-02-19T15:09:34Z</time>
      </trkpt>
      <trkpt lat="46.78034" lon="4.85159">
        <ele>169.527948</ele>
        <time>2011-02-19T15:09:37Z</time>
      </trkpt>
      <trkpt lat="46.78048" lon="4.85177">
        <ele>169.412673</ele>
        <time>2011-02-19T15:09:40Z</time>
      </trkpt>
      <trkpt lat="46.78061" lon="4.85201">
        <ele>169.307403</ele>
        <time>2011-02-19T15:09:43Z</time>
      </trkpt>
      <trkpt lat="46.78069" lon="4.85219">
        <ele>169.225474</ele>
        <time>2011-02-19T15:09:45Z</time>
      </trkpt>
      <trkpt lat="46.78074" lon="4.85255">
        <ele>169.06326</ele>
        <time>2011-02-19T15:09:48Z</time>
      </trkpt>
      <trkpt lat="46.78077" lon="4.85291">
        <ele>168.524482</ele>
        <time>2011-02-19T15:09:51Z</time>
      </trkpt>
      <trkpt lat="46.78082" lon="4.85326">
        <ele>167.366084</ele>
        <time>2011-02-19T15:09:54Z</time>
      </trkpt>
      <trkpt lat="46.78086" lon="4.8536">
        <ele>165.804274</ele>
        <time>2011-02-19T15:09:57Z</time>
      </trkpt>
      <trkpt lat="46.78088" lon="4.85375">
        <ele>164.330807</ele>
        <time>2011-02-19T15:09:59Z</time>
      </trkpt>
      <trkpt lat="46.78091" lon="4.85394">
        <ele>163.16325</ele>
        <time>2011-02-19T15:10:02Z</time>
      </trkpt>
      <trkpt lat="46.78091" lon="4.85394">
        <ele>162.326146</ele>
        <time>2011-02-19T15:10:04Z</time>
      </trkpt>
      <trkpt lat="46.78091" lon="4.85394">
        <ele>161.888763</ele>
        <time>2011-02-19T15:10:34Z</time>
      </trkpt>
      <trkpt lat="46.78119" lon="4.8542">
        <ele>161.798375</ele>
        <time>2011-02-19T15:11:28Z</time>
      </trkpt>
      <trkpt lat="46.78128" lon="4.85417">
        <ele>161.880809</ele>
        <time>2011-02-19T15:11:34Z</time>
      </trkpt>
      <trkpt lat="46.78134" lon="4.85407">
        <ele>162.131984</ele>
        <time>2011-02-19T15:11:39Z</time>
      </trkpt>
      <trkpt lat="46.78134" lon="4.85407">
        <ele>162.537442</ele>
        <time>2011-02-19T15:11:53Z</time>
      </trkpt>
      <trkpt lat="46.78134" lon="4.85407">
        <ele>162.886437</ele>
        <time>2011-02-19T15:12:10Z</time>
      </trkpt>
    </trkseg>
  </trk>
</gpx>